<?xml version="1.0" encoding="UTF-8" standalone="no" ?>
<gpx xmlns="http://www.topografix.com/GPX/1/1" xmlns:xsi="http://www.w3.org/2001/XMLSchema-instance" xsi:schemaLocation="http://www.topografix.com/GPX/1/1 http://www.topografix.com/GPX/1/1/gpx.xsd" version="1.1" creator="VisuGPX - https://www.visugpx.com">
  <metadata>
    <name>Circuits Fontaines ornementales de Paris Episode 1</name>
    <desc><![CDATA[gg]]></desc>
  </metadata>
  <trk>
    <name><![CDATA[SityTrail - Circuits Fontaines ornementales de Paris Episode 1]]></name>
    <desc><![CDATA[gg]]></desc>
    <trkseg>
      <trkpt lat="48.86201" lon="2.34688">
        <ele>32</ele>
        <time>2022-02-16T08:09:47.150Z</time>
      </trkpt>
      <trkpt lat="48.86195" lon="2.34687">
        <ele>32</ele>
        <time>2022-02-16T08:10:30.151Z</time>
      </trkpt>
      <trkpt lat="48.86193" lon="2.34685">
        <ele>32</ele>
        <time>2022-02-16T08:10:34.147Z</time>
      </trkpt>
      <trkpt lat="48.86192" lon="2.34684">
        <ele>32</ele>
        <time>2022-02-16T08:10:39.153Z</time>
      </trkpt>
      <trkpt lat="48.86191" lon="2.34684">
        <ele>32</ele>
        <time>2022-02-16T08:10:43.153Z</time>
      </trkpt>
      <trkpt lat="48.8619" lon="2.3468">
        <ele>30</ele>
        <time>2022-02-16T08:10:48.152Z</time>
      </trkpt>
      <trkpt lat="48.86191" lon="2.34678">
        <ele>30</ele>
        <time>2022-02-16T08:10:53.150Z</time>
      </trkpt>
      <trkpt lat="48.8619" lon="2.34674">
        <ele>30</ele>
        <time>2022-02-16T08:10:57.150Z</time>
      </trkpt>
      <trkpt lat="48.86194" lon="2.34664">
        <ele>30</ele>
        <time>2022-02-16T08:11:02.160Z</time>
      </trkpt>
      <trkpt lat="48.86196" lon="2.34659">
        <ele>30</ele>
        <time>2022-02-16T08:11:07.150Z</time>
      </trkpt>
      <trkpt lat="48.86197" lon="2.34659">
        <ele>30</ele>
        <time>2022-02-16T08:11:12.150Z</time>
      </trkpt>
      <trkpt lat="48.86198" lon="2.34658">
        <ele>30</ele>
        <time>2022-02-16T08:11:16.150Z</time>
      </trkpt>
      <trkpt lat="48.86201" lon="2.34657">
        <ele>30</ele>
        <time>2022-02-16T08:11:20.152Z</time>
      </trkpt>
      <trkpt lat="48.86206" lon="2.3465">
        <ele>31</ele>
        <time>2022-02-16T08:11:25.156Z</time>
      </trkpt>
      <trkpt lat="48.8621" lon="2.34649">
        <ele>31</ele>
        <time>2022-02-16T08:11:30.149Z</time>
      </trkpt>
      <trkpt lat="48.86214" lon="2.34645">
        <ele>31</ele>
        <time>2022-02-16T08:11:35.144Z</time>
      </trkpt>
      <trkpt lat="48.86217" lon="2.34643">
        <ele>31</ele>
        <time>2022-02-16T08:11:40.148Z</time>
      </trkpt>
      <trkpt lat="48.86223" lon="2.34636">
        <ele>31</ele>
        <time>2022-02-16T08:11:45.147Z</time>
      </trkpt>
      <trkpt lat="48.86223" lon="2.34635">
        <ele>31</ele>
        <time>2022-02-16T08:11:49.152Z</time>
      </trkpt>
      <trkpt lat="48.86218" lon="2.34631">
        <ele>31</ele>
        <time>2022-02-16T08:11:54.151Z</time>
      </trkpt>
      <trkpt lat="48.86212" lon="2.34627">
        <ele>31</ele>
        <time>2022-02-16T08:11:59.144Z</time>
      </trkpt>
      <trkpt lat="48.86206" lon="2.34624">
        <ele>33</ele>
        <time>2022-02-16T08:12:04.151Z</time>
      </trkpt>
      <trkpt lat="48.86201" lon="2.3462">
        <ele>33</ele>
        <time>2022-02-16T08:12:08.149Z</time>
      </trkpt>
      <trkpt lat="48.86195" lon="2.34616">
        <ele>33</ele>
        <time>2022-02-16T08:12:13.154Z</time>
      </trkpt>
      <trkpt lat="48.86189" lon="2.34612">
        <ele>33</ele>
        <time>2022-02-16T08:12:18.150Z</time>
      </trkpt>
      <trkpt lat="48.86183" lon="2.34612">
        <ele>33</ele>
        <time>2022-02-16T08:12:22.155Z</time>
      </trkpt>
      <trkpt lat="48.86176" lon="2.34611">
        <ele>40</ele>
        <time>2022-02-16T08:12:27.149Z</time>
      </trkpt>
      <trkpt lat="48.86171" lon="2.34607">
        <ele>40</ele>
        <time>2022-02-16T08:12:31.138Z</time>
      </trkpt>
      <trkpt lat="48.86167" lon="2.34604">
        <ele>40</ele>
        <time>2022-02-16T08:12:35.143Z</time>
      </trkpt>
      <trkpt lat="48.86162" lon="2.346">
        <ele>40</ele>
        <time>2022-02-16T08:12:40.157Z</time>
      </trkpt>
      <trkpt lat="48.86159" lon="2.34593">
        <ele>40</ele>
        <time>2022-02-16T08:12:45.147Z</time>
      </trkpt>
      <trkpt lat="48.86155" lon="2.34597">
        <ele>40</ele>
        <time>2022-02-16T08:12:50.154Z</time>
      </trkpt>
      <trkpt lat="48.86153" lon="2.346">
        <ele>40</ele>
        <time>2022-02-16T08:12:54.163Z</time>
      </trkpt>
      <trkpt lat="48.86148" lon="2.34605">
        <ele>48</ele>
        <time>2022-02-16T08:12:59.145Z</time>
      </trkpt>
      <trkpt lat="48.86144" lon="2.34611">
        <ele>48</ele>
        <time>2022-02-16T08:13:04.150Z</time>
      </trkpt>
      <trkpt lat="48.86139" lon="2.34616">
        <ele>48</ele>
        <time>2022-02-16T08:13:09.148Z</time>
      </trkpt>
      <trkpt lat="48.86137" lon="2.34622">
        <ele>48</ele>
        <time>2022-02-16T08:13:13.149Z</time>
      </trkpt>
      <trkpt lat="48.86134" lon="2.3463">
        <ele>42</ele>
        <time>2022-02-16T08:13:17.145Z</time>
      </trkpt>
      <trkpt lat="48.86132" lon="2.3464">
        <ele>42</ele>
        <time>2022-02-16T08:13:22.147Z</time>
      </trkpt>
      <trkpt lat="48.8613" lon="2.34648">
        <ele>42</ele>
        <time>2022-02-16T08:13:26.146Z</time>
      </trkpt>
      <trkpt lat="48.86128" lon="2.34655">
        <ele>38</ele>
        <time>2022-02-16T08:13:30.145Z</time>
      </trkpt>
      <trkpt lat="48.86128" lon="2.34661">
        <ele>38</ele>
        <time>2022-02-16T08:13:34.151Z</time>
      </trkpt>
      <trkpt lat="48.86125" lon="2.34667">
        <ele>38</ele>
        <time>2022-02-16T08:13:39.147Z</time>
      </trkpt>
      <trkpt lat="48.86121" lon="2.34674">
        <ele>42</ele>
        <time>2022-02-16T08:13:44.153Z</time>
      </trkpt>
      <trkpt lat="48.86119" lon="2.34682">
        <ele>41</ele>
        <time>2022-02-16T08:13:49.148Z</time>
      </trkpt>
      <trkpt lat="48.86116" lon="2.34688">
        <ele>41</ele>
        <time>2022-02-16T08:13:53.150Z</time>
      </trkpt>
      <trkpt lat="48.86114" lon="2.34697">
        <ele>41</ele>
        <time>2022-02-16T08:13:58.150Z</time>
      </trkpt>
      <trkpt lat="48.86111" lon="2.34704">
        <ele>41</ele>
        <time>2022-02-16T08:14:03.147Z</time>
      </trkpt>
      <trkpt lat="48.86109" lon="2.3471">
        <ele>40</ele>
        <time>2022-02-16T08:14:07.149Z</time>
      </trkpt>
      <trkpt lat="48.86107" lon="2.34718">
        <ele>40</ele>
        <time>2022-02-16T08:14:12.155Z</time>
      </trkpt>
      <trkpt lat="48.86106" lon="2.34726">
        <ele>40</ele>
        <time>2022-02-16T08:14:17.149Z</time>
      </trkpt>
      <trkpt lat="48.86104" lon="2.34731">
        <ele>40</ele>
        <time>2022-02-16T08:14:22.148Z</time>
      </trkpt>
      <trkpt lat="48.86101" lon="2.34735">
        <ele>40</ele>
        <time>2022-02-16T08:14:27.151Z</time>
      </trkpt>
      <trkpt lat="48.86098" lon="2.34741">
        <ele>40</ele>
        <time>2022-02-16T08:14:32.153Z</time>
      </trkpt>
      <trkpt lat="48.86094" lon="2.34744">
        <ele>40</ele>
        <time>2022-02-16T08:14:36.155Z</time>
      </trkpt>
      <trkpt lat="48.86089" lon="2.34749">
        <ele>40</ele>
        <time>2022-02-16T08:14:41.157Z</time>
      </trkpt>
      <trkpt lat="48.86084" lon="2.34752">
        <ele>40</ele>
        <time>2022-02-16T08:14:46.144Z</time>
      </trkpt>
      <trkpt lat="48.86079" lon="2.34755">
        <ele>40</ele>
        <time>2022-02-16T08:14:51.155Z</time>
      </trkpt>
      <trkpt lat="48.86071" lon="2.34772">
        <ele>40</ele>
        <time>2022-02-16T08:17:26.152Z</time>
      </trkpt>
      <trkpt lat="48.86071" lon="2.34772">
        <ele>40</ele>
        <time>2022-02-16T08:17:31.146Z</time>
      </trkpt>
      <trkpt lat="48.86071" lon="2.34773">
        <ele>40</ele>
        <time>2022-02-16T08:17:36.151Z</time>
      </trkpt>
      <trkpt lat="48.86071" lon="2.34773">
        <ele>40</ele>
        <time>2022-02-16T08:17:41.146Z</time>
      </trkpt>
      <trkpt lat="48.86071" lon="2.34773">
        <ele>40</ele>
        <time>2022-02-16T08:17:46.151Z</time>
      </trkpt>
      <trkpt lat="48.8607" lon="2.34776">
        <ele>40</ele>
        <time>2022-02-16T08:18:46.151Z</time>
      </trkpt>
      <trkpt lat="48.8607" lon="2.34778">
        <ele>40</ele>
        <time>2022-02-16T08:18:51.151Z</time>
      </trkpt>
      <trkpt lat="48.86067" lon="2.34776">
        <ele>42</ele>
        <time>2022-02-16T08:18:56.144Z</time>
      </trkpt>
      <trkpt lat="48.86064" lon="2.34775">
        <ele>42</ele>
        <time>2022-02-16T08:19:00.149Z</time>
      </trkpt>
      <trkpt lat="48.86059" lon="2.34778">
        <ele>42</ele>
        <time>2022-02-16T08:19:04.148Z</time>
      </trkpt>
      <trkpt lat="48.86056" lon="2.34783">
        <ele>42</ele>
        <time>2022-02-16T08:19:08.148Z</time>
      </trkpt>
      <trkpt lat="48.86054" lon="2.3479">
        <ele>42</ele>
        <time>2022-02-16T08:19:13.247Z</time>
      </trkpt>
      <trkpt lat="48.86053" lon="2.34797">
        <ele>44</ele>
        <time>2022-02-16T08:19:18.149Z</time>
      </trkpt>
      <trkpt lat="48.86055" lon="2.348">
        <ele>44</ele>
        <time>2022-02-16T08:19:22.151Z</time>
      </trkpt>
      <trkpt lat="48.86055" lon="2.34801">
        <ele>44</ele>
        <time>2022-02-16T08:19:26.191Z</time>
      </trkpt>
      <trkpt lat="48.86052" lon="2.34808">
        <ele>44</ele>
        <time>2022-02-16T08:19:31.144Z</time>
      </trkpt>
      <trkpt lat="48.86048" lon="2.34815">
        <ele>44</ele>
        <time>2022-02-16T08:19:36.148Z</time>
      </trkpt>
      <trkpt lat="48.86045" lon="2.34823">
        <ele>46</ele>
        <time>2022-02-16T08:19:40.156Z</time>
      </trkpt>
      <trkpt lat="48.86044" lon="2.34834">
        <ele>46</ele>
        <time>2022-02-16T08:20:21.147Z</time>
      </trkpt>
      <trkpt lat="48.8604" lon="2.34838">
        <ele>48</ele>
        <time>2022-02-16T08:20:25.160Z</time>
      </trkpt>
      <trkpt lat="48.86035" lon="2.34839">
        <ele>48</ele>
        <time>2022-02-16T08:20:30.154Z</time>
      </trkpt>
      <trkpt lat="48.86031" lon="2.34839">
        <ele>48</ele>
        <time>2022-02-16T08:20:34.160Z</time>
      </trkpt>
      <trkpt lat="48.86026" lon="2.34838">
        <ele>48</ele>
        <time>2022-02-16T08:20:39.150Z</time>
      </trkpt>
      <trkpt lat="48.86023" lon="2.34841">
        <ele>48</ele>
        <time>2022-02-16T08:20:43.164Z</time>
      </trkpt>
      <trkpt lat="48.86019" lon="2.34846">
        <ele>48</ele>
        <time>2022-02-16T08:20:48.158Z</time>
      </trkpt>
      <trkpt lat="48.86019" lon="2.34854">
        <ele>48</ele>
        <time>2022-02-16T08:20:53.146Z</time>
      </trkpt>
      <trkpt lat="48.86022" lon="2.34857">
        <ele>48</ele>
        <time>2022-02-16T08:20:58.152Z</time>
      </trkpt>
      <trkpt lat="48.8602" lon="2.34862">
        <ele>48</ele>
        <time>2022-02-16T08:21:03.145Z</time>
      </trkpt>
      <trkpt lat="48.8602" lon="2.3487">
        <ele>48</ele>
        <time>2022-02-16T08:21:08.152Z</time>
      </trkpt>
      <trkpt lat="48.86019" lon="2.34877">
        <ele>47</ele>
        <time>2022-02-16T08:21:12.154Z</time>
      </trkpt>
      <trkpt lat="48.86017" lon="2.34883">
        <ele>47</ele>
        <time>2022-02-16T08:21:17.146Z</time>
      </trkpt>
      <trkpt lat="48.86015" lon="2.34889">
        <ele>47</ele>
        <time>2022-02-16T08:21:21.148Z</time>
      </trkpt>
      <trkpt lat="48.8601" lon="2.34893">
        <ele>49</ele>
        <time>2022-02-16T08:21:26.151Z</time>
      </trkpt>
      <trkpt lat="48.86006" lon="2.34885">
        <ele>49</ele>
        <time>2022-02-16T08:21:30.158Z</time>
      </trkpt>
      <trkpt lat="48.86002" lon="2.34883">
        <ele>49</ele>
        <time>2022-02-16T08:21:34.170Z</time>
      </trkpt>
      <trkpt lat="48.85989" lon="2.34879">
        <ele>49</ele>
        <time>2022-02-16T08:22:40.153Z</time>
      </trkpt>
      <trkpt lat="48.85989" lon="2.34879">
        <ele>49</ele>
        <time>2022-02-16T08:22:44.161Z</time>
      </trkpt>
      <trkpt lat="48.85989" lon="2.34879">
        <ele>49</ele>
        <time>2022-02-16T08:22:48.154Z</time>
      </trkpt>
      <trkpt lat="48.85988" lon="2.34877">
        <ele>49</ele>
        <time>2022-02-16T08:22:53.146Z</time>
      </trkpt>
      <trkpt lat="48.85986" lon="2.34872">
        <ele>48</ele>
        <time>2022-02-16T08:22:57.154Z</time>
      </trkpt>
      <trkpt lat="48.8598" lon="2.34868">
        <ele>48</ele>
        <time>2022-02-16T08:23:11.152Z</time>
      </trkpt>
      <trkpt lat="48.85975" lon="2.34866">
        <ele>48</ele>
        <time>2022-02-16T08:23:16.150Z</time>
      </trkpt>
      <trkpt lat="48.85969" lon="2.34867">
        <ele>48</ele>
        <time>2022-02-16T08:23:20.154Z</time>
      </trkpt>
      <trkpt lat="48.85963" lon="2.34865">
        <ele>48</ele>
        <time>2022-02-16T08:23:25.155Z</time>
      </trkpt>
      <trkpt lat="48.85956" lon="2.34864">
        <ele>47</ele>
        <time>2022-02-16T08:23:30.157Z</time>
      </trkpt>
      <trkpt lat="48.85952" lon="2.34866">
        <ele>47</ele>
        <time>2022-02-16T08:23:39.160Z</time>
      </trkpt>
      <trkpt lat="48.85952" lon="2.34866">
        <ele>47</ele>
        <time>2022-02-16T08:23:43.184Z</time>
      </trkpt>
      <trkpt lat="48.85952" lon="2.34867">
        <ele>47</ele>
        <time>2022-02-16T08:23:48.159Z</time>
      </trkpt>
      <trkpt lat="48.8595" lon="2.34875">
        <ele>47</ele>
        <time>2022-02-16T08:23:53.150Z</time>
      </trkpt>
      <trkpt lat="48.85949" lon="2.34882">
        <ele>47</ele>
        <time>2022-02-16T08:23:58.154Z</time>
      </trkpt>
      <trkpt lat="48.85948" lon="2.3489">
        <ele>47</ele>
        <time>2022-02-16T08:24:03.151Z</time>
      </trkpt>
      <trkpt lat="48.85946" lon="2.34899">
        <ele>47</ele>
        <time>2022-02-16T08:24:08.149Z</time>
      </trkpt>
      <trkpt lat="48.85943" lon="2.34906">
        <ele>48</ele>
        <time>2022-02-16T08:24:13.147Z</time>
      </trkpt>
      <trkpt lat="48.85941" lon="2.34911">
        <ele>48</ele>
        <time>2022-02-16T08:24:17.151Z</time>
      </trkpt>
      <trkpt lat="48.85938" lon="2.34919">
        <ele>48</ele>
        <time>2022-02-16T08:24:22.150Z</time>
      </trkpt>
      <trkpt lat="48.85935" lon="2.34925">
        <ele>48</ele>
        <time>2022-02-16T08:24:26.152Z</time>
      </trkpt>
      <trkpt lat="48.85933" lon="2.34933">
        <ele>48</ele>
        <time>2022-02-16T08:24:31.151Z</time>
      </trkpt>
      <trkpt lat="48.8593" lon="2.34942">
        <ele>46</ele>
        <time>2022-02-16T08:24:36.156Z</time>
      </trkpt>
      <trkpt lat="48.85928" lon="2.3495">
        <ele>46</ele>
        <time>2022-02-16T08:24:41.152Z</time>
      </trkpt>
      <trkpt lat="48.85925" lon="2.34958">
        <ele>46</ele>
        <time>2022-02-16T08:24:46.147Z</time>
      </trkpt>
      <trkpt lat="48.85922" lon="2.34965">
        <ele>45</ele>
        <time>2022-02-16T08:24:50.150Z</time>
      </trkpt>
      <trkpt lat="48.8592" lon="2.3497">
        <ele>45</ele>
        <time>2022-02-16T08:24:54.153Z</time>
      </trkpt>
      <trkpt lat="48.85918" lon="2.34978">
        <ele>45</ele>
        <time>2022-02-16T08:24:59.161Z</time>
      </trkpt>
      <trkpt lat="48.85915" lon="2.34985">
        <ele>45</ele>
        <time>2022-02-16T08:25:04.155Z</time>
      </trkpt>
      <trkpt lat="48.85913" lon="2.34991">
        <ele>46</ele>
        <time>2022-02-16T08:25:08.155Z</time>
      </trkpt>
      <trkpt lat="48.8591" lon="2.34998">
        <ele>46</ele>
        <time>2022-02-16T08:25:13.238Z</time>
      </trkpt>
      <trkpt lat="48.85909" lon="2.35005">
        <ele>46</ele>
        <time>2022-02-16T08:25:18.146Z</time>
      </trkpt>
      <trkpt lat="48.85907" lon="2.35011">
        <ele>46</ele>
        <time>2022-02-16T08:25:22.150Z</time>
      </trkpt>
      <trkpt lat="48.85905" lon="2.35015">
        <ele>47</ele>
        <time>2022-02-16T08:25:26.154Z</time>
      </trkpt>
      <trkpt lat="48.85904" lon="2.35021">
        <ele>47</ele>
        <time>2022-02-16T08:25:31.155Z</time>
      </trkpt>
      <trkpt lat="48.85905" lon="2.35021">
        <ele>47</ele>
        <time>2022-02-16T08:25:36.148Z</time>
      </trkpt>
      <trkpt lat="48.85905" lon="2.35024">
        <ele>47</ele>
        <time>2022-02-16T08:25:40.148Z</time>
      </trkpt>
      <trkpt lat="48.85908" lon="2.35027">
        <ele>47</ele>
        <time>2022-02-16T08:25:45.148Z</time>
      </trkpt>
      <trkpt lat="48.85914" lon="2.35032">
        <ele>47</ele>
        <time>2022-02-16T08:25:50.142Z</time>
      </trkpt>
      <trkpt lat="48.85918" lon="2.35036">
        <ele>47</ele>
        <time>2022-02-16T08:25:54.150Z</time>
      </trkpt>
      <trkpt lat="48.85924" lon="2.3504">
        <ele>47</ele>
        <time>2022-02-16T08:25:59.151Z</time>
      </trkpt>
      <trkpt lat="48.85928" lon="2.35043">
        <ele>48</ele>
        <time>2022-02-16T08:26:04.149Z</time>
      </trkpt>
      <trkpt lat="48.85932" lon="2.35045">
        <ele>49</ele>
        <time>2022-02-16T08:26:09.148Z</time>
      </trkpt>
      <trkpt lat="48.85937" lon="2.3505">
        <ele>49</ele>
        <time>2022-02-16T08:26:14.150Z</time>
      </trkpt>
      <trkpt lat="48.85942" lon="2.35053">
        <ele>49</ele>
        <time>2022-02-16T08:26:18.151Z</time>
      </trkpt>
      <trkpt lat="48.85946" lon="2.35056">
        <ele>49</ele>
        <time>2022-02-16T08:26:22.150Z</time>
      </trkpt>
      <trkpt lat="48.85952" lon="2.35059">
        <ele>49</ele>
        <time>2022-02-16T08:26:27.150Z</time>
      </trkpt>
      <trkpt lat="48.85957" lon="2.35063">
        <ele>49</ele>
        <time>2022-02-16T08:26:32.154Z</time>
      </trkpt>
      <trkpt lat="48.85961" lon="2.35069">
        <ele>47</ele>
        <time>2022-02-16T08:26:37.154Z</time>
      </trkpt>
      <trkpt lat="48.85967" lon="2.35074">
        <ele>46</ele>
        <time>2022-02-16T08:26:42.153Z</time>
      </trkpt>
      <trkpt lat="48.85973" lon="2.35077">
        <ele>46</ele>
        <time>2022-02-16T08:26:47.149Z</time>
      </trkpt>
      <trkpt lat="48.8598" lon="2.35082">
        <ele>46</ele>
        <time>2022-02-16T08:26:52.150Z</time>
      </trkpt>
      <trkpt lat="48.85984" lon="2.35085">
        <ele>46</ele>
        <time>2022-02-16T08:26:56.154Z</time>
      </trkpt>
      <trkpt lat="48.85991" lon="2.35087">
        <ele>44</ele>
        <time>2022-02-16T08:27:01.150Z</time>
      </trkpt>
      <trkpt lat="48.85996" lon="2.35089">
        <ele>44</ele>
        <time>2022-02-16T08:27:05.154Z</time>
      </trkpt>
      <trkpt lat="48.86001" lon="2.35091">
        <ele>44</ele>
        <time>2022-02-16T08:27:09.164Z</time>
      </trkpt>
      <trkpt lat="48.86007" lon="2.35093">
        <ele>44</ele>
        <time>2022-02-16T08:27:14.156Z</time>
      </trkpt>
      <trkpt lat="48.86013" lon="2.35093">
        <ele>44</ele>
        <time>2022-02-16T08:27:19.156Z</time>
      </trkpt>
      <trkpt lat="48.86018" lon="2.35094">
        <ele>40</ele>
        <time>2022-02-16T08:27:23.164Z</time>
      </trkpt>
      <trkpt lat="48.86024" lon="2.35092">
        <ele>40</ele>
        <time>2022-02-16T08:27:28.154Z</time>
      </trkpt>
      <trkpt lat="48.86029" lon="2.35093">
        <ele>40</ele>
        <time>2022-02-16T08:27:33.157Z</time>
      </trkpt>
      <trkpt lat="48.86031" lon="2.35098">
        <ele>40</ele>
        <time>2022-02-16T08:27:38.156Z</time>
      </trkpt>
      <trkpt lat="48.86034" lon="2.351">
        <ele>40</ele>
        <time>2022-02-16T08:27:43.143Z</time>
      </trkpt>
      <trkpt lat="48.86037" lon="2.35102">
        <ele>40</ele>
        <time>2022-02-16T08:27:47.151Z</time>
      </trkpt>
      <trkpt lat="48.86042" lon="2.35104">
        <ele>41</ele>
        <time>2022-02-16T08:27:52.151Z</time>
      </trkpt>
      <trkpt lat="48.86046" lon="2.35105">
        <ele>41</ele>
        <time>2022-02-16T08:27:56.155Z</time>
      </trkpt>
      <trkpt lat="48.86051" lon="2.35108">
        <ele>41</ele>
        <time>2022-02-16T08:28:01.151Z</time>
      </trkpt>
      <trkpt lat="48.86055" lon="2.3511">
        <ele>41</ele>
        <time>2022-02-16T08:28:05.156Z</time>
      </trkpt>
      <trkpt lat="48.86057" lon="2.35115">
        <ele>41</ele>
        <time>2022-02-16T08:28:10.154Z</time>
      </trkpt>
      <trkpt lat="48.86061" lon="2.35119">
        <ele>41</ele>
        <time>2022-02-16T08:28:15.147Z</time>
      </trkpt>
      <trkpt lat="48.86064" lon="2.35121">
        <ele>41</ele>
        <time>2022-02-16T08:28:19.154Z</time>
      </trkpt>
      <trkpt lat="48.8607" lon="2.35124">
        <ele>45</ele>
        <time>2022-02-16T08:28:24.154Z</time>
      </trkpt>
      <trkpt lat="48.86074" lon="2.35126">
        <ele>45</ele>
        <time>2022-02-16T08:28:28.156Z</time>
      </trkpt>
      <trkpt lat="48.86079" lon="2.35126">
        <ele>45</ele>
        <time>2022-02-16T08:28:33.155Z</time>
      </trkpt>
      <trkpt lat="48.86086" lon="2.35128">
        <ele>45</ele>
        <time>2022-02-16T08:28:38.156Z</time>
      </trkpt>
      <trkpt lat="48.86091" lon="2.3513">
        <ele>45</ele>
        <time>2022-02-16T08:28:42.156Z</time>
      </trkpt>
      <trkpt lat="48.86097" lon="2.35131">
        <ele>45</ele>
        <time>2022-02-16T08:28:47.155Z</time>
      </trkpt>
      <trkpt lat="48.86102" lon="2.35131">
        <ele>43</ele>
        <time>2022-02-16T08:28:51.150Z</time>
      </trkpt>
      <trkpt lat="48.86104" lon="2.35132">
        <ele>43</ele>
        <time>2022-02-16T08:28:56.149Z</time>
      </trkpt>
      <trkpt lat="48.86102" lon="2.35138">
        <ele>43</ele>
        <time>2022-02-16T08:31:36.154Z</time>
      </trkpt>
      <trkpt lat="48.86098" lon="2.35136">
        <ele>43</ele>
        <time>2022-02-16T08:31:41.148Z</time>
      </trkpt>
      <trkpt lat="48.86091" lon="2.35132">
        <ele>45</ele>
        <time>2022-02-16T08:31:46.151Z</time>
      </trkpt>
      <trkpt lat="48.86086" lon="2.35129">
        <ele>45</ele>
        <time>2022-02-16T08:31:50.152Z</time>
      </trkpt>
      <trkpt lat="48.86081" lon="2.35126">
        <ele>45</ele>
        <time>2022-02-16T08:31:54.157Z</time>
      </trkpt>
      <trkpt lat="48.86075" lon="2.35123">
        <ele>45</ele>
        <time>2022-02-16T08:31:59.152Z</time>
      </trkpt>
      <trkpt lat="48.86069" lon="2.3512">
        <ele>45</ele>
        <time>2022-02-16T08:32:04.149Z</time>
      </trkpt>
      <trkpt lat="48.86063" lon="2.35117">
        <ele>41</ele>
        <time>2022-02-16T08:32:09.150Z</time>
      </trkpt>
      <trkpt lat="48.86059" lon="2.35114">
        <ele>41</ele>
        <time>2022-02-16T08:32:13.171Z</time>
      </trkpt>
      <trkpt lat="48.86054" lon="2.35111">
        <ele>41</ele>
        <time>2022-02-16T08:32:18.148Z</time>
      </trkpt>
      <trkpt lat="48.86049" lon="2.35108">
        <ele>41</ele>
        <time>2022-02-16T08:32:22.154Z</time>
      </trkpt>
      <trkpt lat="48.86044" lon="2.35107">
        <ele>41</ele>
        <time>2022-02-16T08:32:27.153Z</time>
      </trkpt>
      <trkpt lat="48.86039" lon="2.35101">
        <ele>40</ele>
        <time>2022-02-16T08:32:32.154Z</time>
      </trkpt>
      <trkpt lat="48.86035" lon="2.35097">
        <ele>40</ele>
        <time>2022-02-16T08:32:36.155Z</time>
      </trkpt>
      <trkpt lat="48.8603" lon="2.35095">
        <ele>40</ele>
        <time>2022-02-16T08:32:41.146Z</time>
      </trkpt>
      <trkpt lat="48.86023" lon="2.35099">
        <ele>40</ele>
        <time>2022-02-16T08:32:46.158Z</time>
      </trkpt>
      <trkpt lat="48.86018" lon="2.35106">
        <ele>40</ele>
        <time>2022-02-16T08:32:51.148Z</time>
      </trkpt>
      <trkpt lat="48.86013" lon="2.35114">
        <ele>44</ele>
        <time>2022-02-16T08:32:56.154Z</time>
      </trkpt>
      <trkpt lat="48.86011" lon="2.35123">
        <ele>44</ele>
        <time>2022-02-16T08:33:01.151Z</time>
      </trkpt>
      <trkpt lat="48.86009" lon="2.35129">
        <ele>46</ele>
        <time>2022-02-16T08:33:05.167Z</time>
      </trkpt>
      <trkpt lat="48.86006" lon="2.35135">
        <ele>46</ele>
        <time>2022-02-16T08:33:10.149Z</time>
      </trkpt>
      <trkpt lat="48.86004" lon="2.35143">
        <ele>46</ele>
        <time>2022-02-16T08:33:15.153Z</time>
      </trkpt>
      <trkpt lat="48.86002" lon="2.3515">
        <ele>46</ele>
        <time>2022-02-16T08:33:20.157Z</time>
      </trkpt>
      <trkpt lat="48.85999" lon="2.35158">
        <ele>47</ele>
        <time>2022-02-16T08:33:25.155Z</time>
      </trkpt>
      <trkpt lat="48.85994" lon="2.3516">
        <ele>47</ele>
        <time>2022-02-16T08:33:30.152Z</time>
      </trkpt>
      <trkpt lat="48.85989" lon="2.35159">
        <ele>47</ele>
        <time>2022-02-16T08:33:35.145Z</time>
      </trkpt>
      <trkpt lat="48.85985" lon="2.35159">
        <ele>52</ele>
        <time>2022-02-16T08:33:39.165Z</time>
      </trkpt>
      <trkpt lat="48.85979" lon="2.35159">
        <ele>52</ele>
        <time>2022-02-16T08:33:44.151Z</time>
      </trkpt>
      <trkpt lat="48.85974" lon="2.35159">
        <ele>52</ele>
        <time>2022-02-16T08:33:49.152Z</time>
      </trkpt>
      <trkpt lat="48.8597" lon="2.35162">
        <ele>52</ele>
        <time>2022-02-16T08:33:54.156Z</time>
      </trkpt>
      <trkpt lat="48.85967" lon="2.35168">
        <ele>52</ele>
        <time>2022-02-16T08:33:59.155Z</time>
      </trkpt>
      <trkpt lat="48.85966" lon="2.35173">
        <ele>52</ele>
        <time>2022-02-16T08:34:04.149Z</time>
      </trkpt>
      <trkpt lat="48.85966" lon="2.35174">
        <ele>52</ele>
        <time>2022-02-16T08:34:09.152Z</time>
      </trkpt>
      <trkpt lat="48.85965" lon="2.35175">
        <ele>52</ele>
        <time>2022-02-16T08:34:41.155Z</time>
      </trkpt>
      <trkpt lat="48.85962" lon="2.35175">
        <ele>52</ele>
        <time>2022-02-16T08:34:46.142Z</time>
      </trkpt>
      <trkpt lat="48.85958" lon="2.35171">
        <ele>52</ele>
        <time>2022-02-16T08:34:50.146Z</time>
      </trkpt>
      <trkpt lat="48.85958" lon="2.35171">
        <ele>52</ele>
        <time>2022-02-16T08:34:54.146Z</time>
      </trkpt>
      <trkpt lat="48.85954" lon="2.35169">
        <ele>52</ele>
        <time>2022-02-16T08:34:59.148Z</time>
      </trkpt>
      <trkpt lat="48.85948" lon="2.35166">
        <ele>52</ele>
        <time>2022-02-16T08:35:16.155Z</time>
      </trkpt>
      <trkpt lat="48.85948" lon="2.35166">
        <ele>52</ele>
        <time>2022-02-16T08:35:21.160Z</time>
      </trkpt>
      <trkpt lat="48.85948" lon="2.35166">
        <ele>52</ele>
        <time>2022-02-16T08:35:25.159Z</time>
      </trkpt>
      <trkpt lat="48.85945" lon="2.35163">
        <ele>52</ele>
        <time>2022-02-16T08:35:30.150Z</time>
      </trkpt>
      <trkpt lat="48.85943" lon="2.35161">
        <ele>52</ele>
        <time>2022-02-16T08:35:35.147Z</time>
      </trkpt>
      <trkpt lat="48.85939" lon="2.35157">
        <ele>52</ele>
        <time>2022-02-16T08:36:38.148Z</time>
      </trkpt>
      <trkpt lat="48.85936" lon="2.35155">
        <ele>52</ele>
        <time>2022-02-16T08:36:42.152Z</time>
      </trkpt>
      <trkpt lat="48.85931" lon="2.3515">
        <ele>50</ele>
        <time>2022-02-16T08:36:47.143Z</time>
      </trkpt>
      <trkpt lat="48.85927" lon="2.35148">
        <ele>50</ele>
        <time>2022-02-16T08:36:51.151Z</time>
      </trkpt>
      <trkpt lat="48.85923" lon="2.35144">
        <ele>50</ele>
        <time>2022-02-16T08:36:55.152Z</time>
      </trkpt>
      <trkpt lat="48.8592" lon="2.35141">
        <ele>50</ele>
        <time>2022-02-16T08:36:59.154Z</time>
      </trkpt>
      <trkpt lat="48.85917" lon="2.35143">
        <ele>50</ele>
        <time>2022-02-16T08:37:03.155Z</time>
      </trkpt>
      <trkpt lat="48.85912" lon="2.35147">
        <ele>50</ele>
        <time>2022-02-16T08:37:08.145Z</time>
      </trkpt>
      <trkpt lat="48.85909" lon="2.35144">
        <ele>50</ele>
        <time>2022-02-16T08:37:12.151Z</time>
      </trkpt>
      <trkpt lat="48.85907" lon="2.35141">
        <ele>50</ele>
        <time>2022-02-16T08:37:17.142Z</time>
      </trkpt>
      <trkpt lat="48.85905" lon="2.35151">
        <ele>50</ele>
        <time>2022-02-16T08:37:22.148Z</time>
      </trkpt>
      <trkpt lat="48.85902" lon="2.35161">
        <ele>51</ele>
        <time>2022-02-16T08:37:27.143Z</time>
      </trkpt>
      <trkpt lat="48.85898" lon="2.35167">
        <ele>51</ele>
        <time>2022-02-16T08:37:32.147Z</time>
      </trkpt>
      <trkpt lat="48.85895" lon="2.35172">
        <ele>51</ele>
        <time>2022-02-16T08:37:36.147Z</time>
      </trkpt>
      <trkpt lat="48.85893" lon="2.35179">
        <ele>51</ele>
        <time>2022-02-16T08:37:41.154Z</time>
      </trkpt>
      <trkpt lat="48.85888" lon="2.35184">
        <ele>50</ele>
        <time>2022-02-16T08:37:46.154Z</time>
      </trkpt>
      <trkpt lat="48.85885" lon="2.35192">
        <ele>50</ele>
        <time>2022-02-16T08:37:51.153Z</time>
      </trkpt>
      <trkpt lat="48.85881" lon="2.35195">
        <ele>50</ele>
        <time>2022-02-16T08:38:10.152Z</time>
      </trkpt>
      <trkpt lat="48.85881" lon="2.35196">
        <ele>50</ele>
        <time>2022-02-16T08:38:15.155Z</time>
      </trkpt>
      <trkpt lat="48.85883" lon="2.35202">
        <ele>50</ele>
        <time>2022-02-16T08:38:20.156Z</time>
      </trkpt>
      <trkpt lat="48.85883" lon="2.35205">
        <ele>50</ele>
        <time>2022-02-16T08:38:25.153Z</time>
      </trkpt>
      <trkpt lat="48.85881" lon="2.35209">
        <ele>50</ele>
        <time>2022-02-16T08:38:29.166Z</time>
      </trkpt>
      <trkpt lat="48.85879" lon="2.35216">
        <ele>50</ele>
        <time>2022-02-16T08:38:34.149Z</time>
      </trkpt>
      <trkpt lat="48.85877" lon="2.35222">
        <ele>50</ele>
        <time>2022-02-16T08:38:39.155Z</time>
      </trkpt>
      <trkpt lat="48.8588" lon="2.35225">
        <ele>50</ele>
        <time>2022-02-16T08:38:44.152Z</time>
      </trkpt>
      <trkpt lat="48.85883" lon="2.35226">
        <ele>50</ele>
        <time>2022-02-16T08:38:48.155Z</time>
      </trkpt>
      <trkpt lat="48.85885" lon="2.35229">
        <ele>50</ele>
        <time>2022-02-16T08:38:52.168Z</time>
      </trkpt>
      <trkpt lat="48.85885" lon="2.35231">
        <ele>50</ele>
        <time>2022-02-16T08:39:06.156Z</time>
      </trkpt>
      <trkpt lat="48.85884" lon="2.35235">
        <ele>50</ele>
        <time>2022-02-16T08:39:11.149Z</time>
      </trkpt>
      <trkpt lat="48.8588" lon="2.35233">
        <ele>50</ele>
        <time>2022-02-16T08:39:15.141Z</time>
      </trkpt>
      <trkpt lat="48.85876" lon="2.35232">
        <ele>50</ele>
        <time>2022-02-16T08:39:20.151Z</time>
      </trkpt>
      <trkpt lat="48.85875" lon="2.35231">
        <ele>50</ele>
        <time>2022-02-16T08:39:25.148Z</time>
      </trkpt>
      <trkpt lat="48.85874" lon="2.35229">
        <ele>50</ele>
        <time>2022-02-16T08:39:30.150Z</time>
      </trkpt>
      <trkpt lat="48.8587" lon="2.35228">
        <ele>50</ele>
        <time>2022-02-16T08:39:35.146Z</time>
      </trkpt>
      <trkpt lat="48.85866" lon="2.35224">
        <ele>50</ele>
        <time>2022-02-16T08:39:40.143Z</time>
      </trkpt>
      <trkpt lat="48.85861" lon="2.35222">
        <ele>50</ele>
        <time>2022-02-16T08:39:44.143Z</time>
      </trkpt>
      <trkpt lat="48.85857" lon="2.3522">
        <ele>50</ele>
        <time>2022-02-16T08:39:48.156Z</time>
      </trkpt>
      <trkpt lat="48.85853" lon="2.35218">
        <ele>50</ele>
        <time>2022-02-16T08:39:52.160Z</time>
      </trkpt>
      <trkpt lat="48.85848" lon="2.35215">
        <ele>50</ele>
        <time>2022-02-16T08:39:57.152Z</time>
      </trkpt>
      <trkpt lat="48.85843" lon="2.35212">
        <ele>48</ele>
        <time>2022-02-16T08:40:02.149Z</time>
      </trkpt>
      <trkpt lat="48.85834" lon="2.35208">
        <ele>47</ele>
        <time>2022-02-16T08:41:00.154Z</time>
      </trkpt>
      <trkpt lat="48.85833" lon="2.35204">
        <ele>47</ele>
        <time>2022-02-16T08:41:05.146Z</time>
      </trkpt>
      <trkpt lat="48.85832" lon="2.35205">
        <ele>47</ele>
        <time>2022-02-16T08:41:09.154Z</time>
      </trkpt>
      <trkpt lat="48.85828" lon="2.35202">
        <ele>47</ele>
        <time>2022-02-16T08:41:13.269Z</time>
      </trkpt>
      <trkpt lat="48.85824" lon="2.35197">
        <ele>47</ele>
        <time>2022-02-16T08:41:18.152Z</time>
      </trkpt>
      <trkpt lat="48.85818" lon="2.35179">
        <ele>44</ele>
        <time>2022-02-16T08:42:30.150Z</time>
      </trkpt>
      <trkpt lat="48.85818" lon="2.35179">
        <ele>44</ele>
        <time>2022-02-16T08:42:35.155Z</time>
      </trkpt>
      <trkpt lat="48.85818" lon="2.35179">
        <ele>44</ele>
        <time>2022-02-16T08:42:40.148Z</time>
      </trkpt>
      <trkpt lat="48.85818" lon="2.35179">
        <ele>44</ele>
        <time>2022-02-16T08:42:44.152Z</time>
      </trkpt>
      <trkpt lat="48.85818" lon="2.35179">
        <ele>44</ele>
        <time>2022-02-16T08:42:49.150Z</time>
      </trkpt>
      <trkpt lat="48.85825" lon="2.35181">
        <ele>47</ele>
        <time>2022-02-16T08:47:17.152Z</time>
      </trkpt>
      <trkpt lat="48.85825" lon="2.35181">
        <ele>47</ele>
        <time>2022-02-16T08:47:22.150Z</time>
      </trkpt>
      <trkpt lat="48.85825" lon="2.3518">
        <ele>49</ele>
        <time>2022-02-16T08:47:27.149Z</time>
      </trkpt>
      <trkpt lat="48.85826" lon="2.35179">
        <ele>49</ele>
        <time>2022-02-16T08:47:40.143Z</time>
      </trkpt>
      <trkpt lat="48.85821" lon="2.35192">
        <ele>47</ele>
        <time>2022-02-16T08:47:44.150Z</time>
      </trkpt>
      <trkpt lat="48.85822" lon="2.35194">
        <ele>47</ele>
        <time>2022-02-16T08:47:54.148Z</time>
      </trkpt>
      <trkpt lat="48.85822" lon="2.35193">
        <ele>47</ele>
        <time>2022-02-16T08:47:59.152Z</time>
      </trkpt>
      <trkpt lat="48.85822" lon="2.35192">
        <ele>47</ele>
        <time>2022-02-16T08:48:04.153Z</time>
      </trkpt>
      <trkpt lat="48.85823" lon="2.35192">
        <ele>47</ele>
        <time>2022-02-16T08:48:08.152Z</time>
      </trkpt>
      <trkpt lat="48.85812" lon="2.35166">
        <ele>44</ele>
        <time>2022-02-16T08:48:13.150Z</time>
      </trkpt>
      <trkpt lat="48.85813" lon="2.35164">
        <ele>44</ele>
        <time>2022-02-16T08:49:40.153Z</time>
      </trkpt>
      <trkpt lat="48.85814" lon="2.35164">
        <ele>44</ele>
        <time>2022-02-16T08:49:45.146Z</time>
      </trkpt>
      <trkpt lat="48.85814" lon="2.35164">
        <ele>44</ele>
        <time>2022-02-16T08:49:49.150Z</time>
      </trkpt>
      <trkpt lat="48.85817" lon="2.35168">
        <ele>44</ele>
        <time>2022-02-16T08:49:54.155Z</time>
      </trkpt>
      <trkpt lat="48.85822" lon="2.35177">
        <ele>49</ele>
        <time>2022-02-16T08:49:58.156Z</time>
      </trkpt>
      <trkpt lat="48.85822" lon="2.35187">
        <ele>47</ele>
        <time>2022-02-16T09:08:02.156Z</time>
      </trkpt>
      <trkpt lat="48.85819" lon="2.35185">
        <ele>43</ele>
        <time>2022-02-16T09:08:06.153Z</time>
      </trkpt>
      <trkpt lat="48.85813" lon="2.35184">
        <ele>43</ele>
        <time>2022-02-16T09:08:11.152Z</time>
      </trkpt>
      <trkpt lat="48.85807" lon="2.3518">
        <ele>44</ele>
        <time>2022-02-16T09:08:16.148Z</time>
      </trkpt>
      <trkpt lat="48.85804" lon="2.35179">
        <ele>44</ele>
        <time>2022-02-16T09:08:20.159Z</time>
      </trkpt>
      <trkpt lat="48.858" lon="2.35182">
        <ele>43</ele>
        <time>2022-02-16T09:08:25.151Z</time>
      </trkpt>
      <trkpt lat="48.85794" lon="2.35178">
        <ele>44</ele>
        <time>2022-02-16T09:08:30.159Z</time>
      </trkpt>
      <trkpt lat="48.85788" lon="2.35172">
        <ele>42</ele>
        <time>2022-02-16T09:08:35.154Z</time>
      </trkpt>
      <trkpt lat="48.85785" lon="2.35171">
        <ele>42</ele>
        <time>2022-02-16T09:08:39.155Z</time>
      </trkpt>
      <trkpt lat="48.8578" lon="2.3517">
        <ele>42</ele>
        <time>2022-02-16T09:08:44.154Z</time>
      </trkpt>
      <trkpt lat="48.8578" lon="2.35175">
        <ele>42</ele>
        <time>2022-02-16T09:08:49.152Z</time>
      </trkpt>
      <trkpt lat="48.85765" lon="2.3515">
        <ele>43</ele>
        <time>2022-02-16T09:08:53.152Z</time>
      </trkpt>
      <trkpt lat="48.85759" lon="2.35147">
        <ele>43</ele>
        <time>2022-02-16T09:08:58.160Z</time>
      </trkpt>
      <trkpt lat="48.85754" lon="2.35148">
        <ele>43</ele>
        <time>2022-02-16T09:09:12.167Z</time>
      </trkpt>
      <trkpt lat="48.85748" lon="2.3515">
        <ele>43</ele>
        <time>2022-02-16T09:09:17.151Z</time>
      </trkpt>
      <trkpt lat="48.85745" lon="2.35153">
        <ele>43</ele>
        <time>2022-02-16T09:09:21.166Z</time>
      </trkpt>
      <trkpt lat="48.85742" lon="2.35154">
        <ele>42</ele>
        <time>2022-02-16T09:09:26.149Z</time>
      </trkpt>
      <trkpt lat="48.85738" lon="2.35153">
        <ele>43</ele>
        <time>2022-02-16T09:09:30.161Z</time>
      </trkpt>
      <trkpt lat="48.85734" lon="2.35151">
        <ele>40</ele>
        <time>2022-02-16T09:09:34.173Z</time>
      </trkpt>
      <trkpt lat="48.85729" lon="2.35147">
        <ele>40</ele>
        <time>2022-02-16T09:09:39.155Z</time>
      </trkpt>
      <trkpt lat="48.85725" lon="2.35151">
        <ele>40</ele>
        <time>2022-02-16T09:09:44.154Z</time>
      </trkpt>
      <trkpt lat="48.85722" lon="2.35154">
        <ele>39</ele>
        <time>2022-02-16T09:09:48.169Z</time>
      </trkpt>
      <trkpt lat="48.85721" lon="2.35159">
        <ele>39</ele>
        <time>2022-02-16T09:10:49.164Z</time>
      </trkpt>
      <trkpt lat="48.85725" lon="2.35155">
        <ele>39</ele>
        <time>2022-02-16T09:10:54.146Z</time>
      </trkpt>
      <trkpt lat="48.85727" lon="2.3515">
        <ele>40</ele>
        <time>2022-02-16T09:10:58.148Z</time>
      </trkpt>
      <trkpt lat="48.85732" lon="2.3515">
        <ele>40</ele>
        <time>2022-02-16T09:11:03.193Z</time>
      </trkpt>
      <trkpt lat="48.85732" lon="2.35152">
        <ele>40</ele>
        <time>2022-02-16T09:11:08.158Z</time>
      </trkpt>
      <trkpt lat="48.85738" lon="2.35145">
        <ele>43</ele>
        <time>2022-02-16T09:11:13.158Z</time>
      </trkpt>
      <trkpt lat="48.85741" lon="2.35155">
        <ele>42</ele>
        <time>2022-02-16T09:11:18.152Z</time>
      </trkpt>
      <trkpt lat="48.85747" lon="2.35157">
        <ele>42</ele>
        <time>2022-02-16T09:11:23.153Z</time>
      </trkpt>
      <trkpt lat="48.85751" lon="2.35161">
        <ele>42</ele>
        <time>2022-02-16T09:11:27.168Z</time>
      </trkpt>
      <trkpt lat="48.85754" lon="2.35168">
        <ele>42</ele>
        <time>2022-02-16T09:11:31.171Z</time>
      </trkpt>
      <trkpt lat="48.85754" lon="2.35177">
        <ele>42</ele>
        <time>2022-02-16T09:11:36.164Z</time>
      </trkpt>
      <trkpt lat="48.8575" lon="2.35184">
        <ele>42</ele>
        <time>2022-02-16T09:11:40.169Z</time>
      </trkpt>
      <trkpt lat="48.85748" lon="2.35191">
        <ele>42</ele>
        <time>2022-02-16T09:11:45.146Z</time>
      </trkpt>
      <trkpt lat="48.85747" lon="2.35199">
        <ele>42</ele>
        <time>2022-02-16T09:11:50.153Z</time>
      </trkpt>
      <trkpt lat="48.85745" lon="2.35206">
        <ele>42</ele>
        <time>2022-02-16T09:11:54.155Z</time>
      </trkpt>
      <trkpt lat="48.85743" lon="2.35214">
        <ele>43</ele>
        <time>2022-02-16T09:11:59.153Z</time>
      </trkpt>
      <trkpt lat="48.85741" lon="2.35222">
        <ele>43</ele>
        <time>2022-02-16T09:12:04.164Z</time>
      </trkpt>
      <trkpt lat="48.85738" lon="2.35231">
        <ele>43</ele>
        <time>2022-02-16T09:12:09.165Z</time>
      </trkpt>
      <trkpt lat="48.85737" lon="2.35238">
        <ele>46</ele>
        <time>2022-02-16T09:12:13.164Z</time>
      </trkpt>
      <trkpt lat="48.8574" lon="2.35246">
        <ele>46</ele>
        <time>2022-02-16T09:12:18.155Z</time>
      </trkpt>
      <trkpt lat="48.85745" lon="2.35251">
        <ele>46</ele>
        <time>2022-02-16T09:12:22.164Z</time>
      </trkpt>
      <trkpt lat="48.85749" lon="2.35264">
        <ele>49</ele>
        <time>2022-02-16T09:12:40.156Z</time>
      </trkpt>
      <trkpt lat="48.8575" lon="2.35265">
        <ele>49</ele>
        <time>2022-02-16T09:12:45.167Z</time>
      </trkpt>
      <trkpt lat="48.85751" lon="2.35266">
        <ele>49</ele>
        <time>2022-02-16T09:12:49.156Z</time>
      </trkpt>
      <trkpt lat="48.85755" lon="2.35268">
        <ele>49</ele>
        <time>2022-02-16T09:12:54.154Z</time>
      </trkpt>
      <trkpt lat="48.85756" lon="2.3527">
        <ele>49</ele>
        <time>2022-02-16T09:12:59.163Z</time>
      </trkpt>
      <trkpt lat="48.85757" lon="2.3527">
        <ele>49</ele>
        <time>2022-02-16T09:13:04.155Z</time>
      </trkpt>
      <trkpt lat="48.85762" lon="2.35272">
        <ele>49</ele>
        <time>2022-02-16T09:13:09.164Z</time>
      </trkpt>
      <trkpt lat="48.85766" lon="2.35271">
        <ele>49</ele>
        <time>2022-02-16T09:13:14.156Z</time>
      </trkpt>
      <trkpt lat="48.85767" lon="2.35272">
        <ele>49</ele>
        <time>2022-02-16T09:13:19.161Z</time>
      </trkpt>
      <trkpt lat="48.85771" lon="2.35274">
        <ele>49</ele>
        <time>2022-02-16T09:13:23.169Z</time>
      </trkpt>
      <trkpt lat="48.85777" lon="2.35277">
        <ele>49</ele>
        <time>2022-02-16T09:13:28.164Z</time>
      </trkpt>
      <trkpt lat="48.8578" lon="2.3528">
        <ele>49</ele>
        <time>2022-02-16T09:13:32.167Z</time>
      </trkpt>
      <trkpt lat="48.85784" lon="2.35282">
        <ele>49</ele>
        <time>2022-02-16T09:13:36.175Z</time>
      </trkpt>
      <trkpt lat="48.85788" lon="2.35283">
        <ele>49</ele>
        <time>2022-02-16T09:13:41.168Z</time>
      </trkpt>
      <trkpt lat="48.8579" lon="2.35286">
        <ele>49</ele>
        <time>2022-02-16T09:13:45.162Z</time>
      </trkpt>
      <trkpt lat="48.85795" lon="2.35291">
        <ele>51</ele>
        <time>2022-02-16T09:13:50.152Z</time>
      </trkpt>
      <trkpt lat="48.85796" lon="2.35295">
        <ele>52</ele>
        <time>2022-02-16T09:13:54.155Z</time>
      </trkpt>
      <trkpt lat="48.85796" lon="2.353">
        <ele>52</ele>
        <time>2022-02-16T09:13:58.163Z</time>
      </trkpt>
      <trkpt lat="48.85793" lon="2.35305">
        <ele>52</ele>
        <time>2022-02-16T09:14:03.161Z</time>
      </trkpt>
      <trkpt lat="48.8579" lon="2.35312">
        <ele>51</ele>
        <time>2022-02-16T09:14:08.155Z</time>
      </trkpt>
      <trkpt lat="48.85785" lon="2.35321">
        <ele>53</ele>
        <time>2022-02-16T09:14:13.166Z</time>
      </trkpt>
      <trkpt lat="48.8578" lon="2.35326">
        <ele>53</ele>
        <time>2022-02-16T09:14:31.148Z</time>
      </trkpt>
      <trkpt lat="48.85781" lon="2.35327">
        <ele>53</ele>
        <time>2022-02-16T09:14:36.148Z</time>
      </trkpt>
      <trkpt lat="48.85778" lon="2.35331">
        <ele>53</ele>
        <time>2022-02-16T09:14:40.163Z</time>
      </trkpt>
      <trkpt lat="48.85777" lon="2.35334">
        <ele>53</ele>
        <time>2022-02-16T09:14:44.167Z</time>
      </trkpt>
      <trkpt lat="48.85773" lon="2.3534">
        <ele>53</ele>
        <time>2022-02-16T09:14:49.161Z</time>
      </trkpt>
      <trkpt lat="48.85773" lon="2.35347">
        <ele>53</ele>
        <time>2022-02-16T09:14:53.164Z</time>
      </trkpt>
      <trkpt lat="48.85772" lon="2.35356">
        <ele>54</ele>
        <time>2022-02-16T09:14:58.154Z</time>
      </trkpt>
      <trkpt lat="48.85768" lon="2.35359">
        <ele>54</ele>
        <time>2022-02-16T09:15:03.150Z</time>
      </trkpt>
      <trkpt lat="48.85767" lon="2.35364">
        <ele>54</ele>
        <time>2022-02-16T09:15:07.162Z</time>
      </trkpt>
      <trkpt lat="48.85767" lon="2.35374">
        <ele>54</ele>
        <time>2022-02-16T09:15:12.152Z</time>
      </trkpt>
      <trkpt lat="48.85767" lon="2.3538">
        <ele>54</ele>
        <time>2022-02-16T09:15:16.150Z</time>
      </trkpt>
      <trkpt lat="48.85764" lon="2.35387">
        <ele>55</ele>
        <time>2022-02-16T09:15:21.162Z</time>
      </trkpt>
      <trkpt lat="48.85761" lon="2.35392">
        <ele>55</ele>
        <time>2022-02-16T09:15:25.171Z</time>
      </trkpt>
      <trkpt lat="48.85759" lon="2.35398">
        <ele>55</ele>
        <time>2022-02-16T09:15:43.163Z</time>
      </trkpt>
      <trkpt lat="48.85759" lon="2.354">
        <ele>55</ele>
        <time>2022-02-16T09:15:48.158Z</time>
      </trkpt>
      <trkpt lat="48.85761" lon="2.3541">
        <ele>53</ele>
        <time>2022-02-16T09:15:53.155Z</time>
      </trkpt>
      <trkpt lat="48.85763" lon="2.3542">
        <ele>53</ele>
        <time>2022-02-16T09:15:57.157Z</time>
      </trkpt>
      <trkpt lat="48.85767" lon="2.35427">
        <ele>52</ele>
        <time>2022-02-16T09:16:02.147Z</time>
      </trkpt>
      <trkpt lat="48.85771" lon="2.35432">
        <ele>48</ele>
        <time>2022-02-16T09:16:06.147Z</time>
      </trkpt>
      <trkpt lat="48.85774" lon="2.35438">
        <ele>48</ele>
        <time>2022-02-16T09:16:11.172Z</time>
      </trkpt>
      <trkpt lat="48.85778" lon="2.35442">
        <ele>48</ele>
        <time>2022-02-16T09:16:15.160Z</time>
      </trkpt>
      <trkpt lat="48.85783" lon="2.35447">
        <ele>48</ele>
        <time>2022-02-16T09:16:20.150Z</time>
      </trkpt>
      <trkpt lat="48.85786" lon="2.35453">
        <ele>48</ele>
        <time>2022-02-16T09:16:24.171Z</time>
      </trkpt>
      <trkpt lat="48.85789" lon="2.35459">
        <ele>45</ele>
        <time>2022-02-16T09:16:29.165Z</time>
      </trkpt>
      <trkpt lat="48.85794" lon="2.35464">
        <ele>43</ele>
        <time>2022-02-16T09:16:34.163Z</time>
      </trkpt>
      <trkpt lat="48.85794" lon="2.35472">
        <ele>43</ele>
        <time>2022-02-16T09:16:39.165Z</time>
      </trkpt>
      <trkpt lat="48.85788" lon="2.35477">
        <ele>45</ele>
        <time>2022-02-16T09:17:24.170Z</time>
      </trkpt>
      <trkpt lat="48.85783" lon="2.35472">
        <ele>45</ele>
        <time>2022-02-16T09:17:29.149Z</time>
      </trkpt>
      <trkpt lat="48.85782" lon="2.35468">
        <ele>45</ele>
        <time>2022-02-16T09:17:33.157Z</time>
      </trkpt>
      <trkpt lat="48.85779" lon="2.35465">
        <ele>45</ele>
        <time>2022-02-16T09:17:38.163Z</time>
      </trkpt>
      <trkpt lat="48.85778" lon="2.3546">
        <ele>45</ele>
        <time>2022-02-16T09:17:43.153Z</time>
      </trkpt>
      <trkpt lat="48.85776" lon="2.35458">
        <ele>48</ele>
        <time>2022-02-16T09:17:47.153Z</time>
      </trkpt>
      <trkpt lat="48.85773" lon="2.35453">
        <ele>48</ele>
        <time>2022-02-16T09:17:51.257Z</time>
      </trkpt>
      <trkpt lat="48.85769" lon="2.35448">
        <ele>48</ele>
        <time>2022-02-16T09:17:56.164Z</time>
      </trkpt>
      <trkpt lat="48.85764" lon="2.35443">
        <ele>48</ele>
        <time>2022-02-16T09:18:01.159Z</time>
      </trkpt>
      <trkpt lat="48.85761" lon="2.35437">
        <ele>50</ele>
        <time>2022-02-16T09:18:06.165Z</time>
      </trkpt>
      <trkpt lat="48.85759" lon="2.35433">
        <ele>50</ele>
        <time>2022-02-16T09:18:10.175Z</time>
      </trkpt>
      <trkpt lat="48.85756" lon="2.35425">
        <ele>53</ele>
        <time>2022-02-16T09:18:15.162Z</time>
      </trkpt>
      <trkpt lat="48.85755" lon="2.35423">
        <ele>53</ele>
        <time>2022-02-16T09:18:20.149Z</time>
      </trkpt>
      <trkpt lat="48.85755" lon="2.35422">
        <ele>53</ele>
        <time>2022-02-16T09:18:24.165Z</time>
      </trkpt>
      <trkpt lat="48.85755" lon="2.35422">
        <ele>53</ele>
        <time>2022-02-16T09:18:28.175Z</time>
      </trkpt>
      <trkpt lat="48.85753" lon="2.35414">
        <ele>53</ele>
        <time>2022-02-16T09:18:33.182Z</time>
      </trkpt>
      <trkpt lat="48.85749" lon="2.35408">
        <ele>53</ele>
        <time>2022-02-16T09:18:38.156Z</time>
      </trkpt>
      <trkpt lat="48.85744" lon="2.35408">
        <ele>53</ele>
        <time>2022-02-16T09:18:42.166Z</time>
      </trkpt>
      <trkpt lat="48.85739" lon="2.3541">
        <ele>53</ele>
        <time>2022-02-16T09:18:46.168Z</time>
      </trkpt>
      <trkpt lat="48.85735" lon="2.35404">
        <ele>49</ele>
        <time>2022-02-16T09:18:51.170Z</time>
      </trkpt>
      <trkpt lat="48.85733" lon="2.35397">
        <ele>50</ele>
        <time>2022-02-16T09:18:55.163Z</time>
      </trkpt>
      <trkpt lat="48.8573" lon="2.35393">
        <ele>50</ele>
        <time>2022-02-16T09:19:00.162Z</time>
      </trkpt>
      <trkpt lat="48.85724" lon="2.35391">
        <ele>50</ele>
        <time>2022-02-16T09:19:05.153Z</time>
      </trkpt>
      <trkpt lat="48.85716" lon="2.35395">
        <ele>50</ele>
        <time>2022-02-16T09:19:10.166Z</time>
      </trkpt>
      <trkpt lat="48.85711" lon="2.35402">
        <ele>50</ele>
        <time>2022-02-16T09:19:15.173Z</time>
      </trkpt>
      <trkpt lat="48.85706" lon="2.35408">
        <ele>46</ele>
        <time>2022-02-16T09:19:20.167Z</time>
      </trkpt>
      <trkpt lat="48.85703" lon="2.35415">
        <ele>46</ele>
        <time>2022-02-16T09:19:25.152Z</time>
      </trkpt>
      <trkpt lat="48.857" lon="2.35423">
        <ele>46</ele>
        <time>2022-02-16T09:19:30.161Z</time>
      </trkpt>
      <trkpt lat="48.85698" lon="2.3543">
        <ele>46</ele>
        <time>2022-02-16T09:19:34.166Z</time>
      </trkpt>
      <trkpt lat="48.85696" lon="2.35436">
        <ele>47</ele>
        <time>2022-02-16T09:19:38.161Z</time>
      </trkpt>
      <trkpt lat="48.85693" lon="2.35443">
        <ele>47</ele>
        <time>2022-02-16T09:19:43.155Z</time>
      </trkpt>
      <trkpt lat="48.85691" lon="2.35451">
        <ele>47</ele>
        <time>2022-02-16T09:19:48.157Z</time>
      </trkpt>
      <trkpt lat="48.85688" lon="2.35458">
        <ele>47</ele>
        <time>2022-02-16T09:19:52.163Z</time>
      </trkpt>
      <trkpt lat="48.85685" lon="2.35466">
        <ele>48</ele>
        <time>2022-02-16T09:19:57.169Z</time>
      </trkpt>
      <trkpt lat="48.85682" lon="2.35473">
        <ele>48</ele>
        <time>2022-02-16T09:20:02.155Z</time>
      </trkpt>
      <trkpt lat="48.85679" lon="2.35482">
        <ele>47</ele>
        <time>2022-02-16T09:20:07.156Z</time>
      </trkpt>
      <trkpt lat="48.85676" lon="2.3549">
        <ele>48</ele>
        <time>2022-02-16T09:20:11.184Z</time>
      </trkpt>
      <trkpt lat="48.85675" lon="2.35498">
        <ele>48</ele>
        <time>2022-02-16T09:20:15.165Z</time>
      </trkpt>
      <trkpt lat="48.85671" lon="2.35507">
        <ele>48</ele>
        <time>2022-02-16T09:20:20.167Z</time>
      </trkpt>
      <trkpt lat="48.85668" lon="2.35516">
        <ele>49</ele>
        <time>2022-02-16T09:20:25.169Z</time>
      </trkpt>
      <trkpt lat="48.85667" lon="2.35525">
        <ele>49</ele>
        <time>2022-02-16T09:20:30.149Z</time>
      </trkpt>
      <trkpt lat="48.85663" lon="2.35538">
        <ele>49</ele>
        <time>2022-02-16T09:20:45.160Z</time>
      </trkpt>
      <trkpt lat="48.85663" lon="2.35538">
        <ele>49</ele>
        <time>2022-02-16T09:20:50.154Z</time>
      </trkpt>
      <trkpt lat="48.85661" lon="2.35537">
        <ele>49</ele>
        <time>2022-02-16T09:20:55.155Z</time>
      </trkpt>
      <trkpt lat="48.85656" lon="2.35537">
        <ele>49</ele>
        <time>2022-02-16T09:21:00.159Z</time>
      </trkpt>
      <trkpt lat="48.85652" lon="2.35542">
        <ele>43</ele>
        <time>2022-02-16T09:21:04.159Z</time>
      </trkpt>
      <trkpt lat="48.85649" lon="2.3555">
        <ele>43</ele>
        <time>2022-02-16T09:21:09.164Z</time>
      </trkpt>
      <trkpt lat="48.85647" lon="2.35559">
        <ele>43</ele>
        <time>2022-02-16T09:21:14.151Z</time>
      </trkpt>
      <trkpt lat="48.85645" lon="2.35566">
        <ele>43</ele>
        <time>2022-02-16T09:21:18.159Z</time>
      </trkpt>
      <trkpt lat="48.85641" lon="2.35576">
        <ele>43</ele>
        <time>2022-02-16T09:21:23.158Z</time>
      </trkpt>
      <trkpt lat="48.85639" lon="2.35583">
        <ele>43</ele>
        <time>2022-02-16T09:21:27.172Z</time>
      </trkpt>
      <trkpt lat="48.85638" lon="2.35591">
        <ele>43</ele>
        <time>2022-02-16T09:21:32.159Z</time>
      </trkpt>
      <trkpt lat="48.85637" lon="2.35598">
        <ele>43</ele>
        <time>2022-02-16T09:21:36.155Z</time>
      </trkpt>
      <trkpt lat="48.85635" lon="2.35606">
        <ele>43</ele>
        <time>2022-02-16T09:21:41.163Z</time>
      </trkpt>
      <trkpt lat="48.85633" lon="2.35613">
        <ele>43</ele>
        <time>2022-02-16T09:21:45.168Z</time>
      </trkpt>
      <trkpt lat="48.85632" lon="2.35621">
        <ele>43</ele>
        <time>2022-02-16T09:21:50.154Z</time>
      </trkpt>
      <trkpt lat="48.8563" lon="2.3563">
        <ele>45</ele>
        <time>2022-02-16T09:21:55.152Z</time>
      </trkpt>
      <trkpt lat="48.85629" lon="2.35637">
        <ele>45</ele>
        <time>2022-02-16T09:21:59.159Z</time>
      </trkpt>
      <trkpt lat="48.85629" lon="2.35645">
        <ele>45</ele>
        <time>2022-02-16T09:22:03.165Z</time>
      </trkpt>
      <trkpt lat="48.85625" lon="2.35647">
        <ele>45</ele>
        <time>2022-02-16T09:22:07.168Z</time>
      </trkpt>
      <trkpt lat="48.8562" lon="2.35644">
        <ele>45</ele>
        <time>2022-02-16T09:22:12.169Z</time>
      </trkpt>
      <trkpt lat="48.85615" lon="2.35639">
        <ele>45</ele>
        <time>2022-02-16T09:22:17.153Z</time>
      </trkpt>
      <trkpt lat="48.85609" lon="2.35635">
        <ele>45</ele>
        <time>2022-02-16T09:22:22.152Z</time>
      </trkpt>
      <trkpt lat="48.85604" lon="2.35631">
        <ele>45</ele>
        <time>2022-02-16T09:22:26.161Z</time>
      </trkpt>
      <trkpt lat="48.85598" lon="2.35629">
        <ele>45</ele>
        <time>2022-02-16T09:22:31.172Z</time>
      </trkpt>
      <trkpt lat="48.85594" lon="2.35631">
        <ele>45</ele>
        <time>2022-02-16T09:22:35.162Z</time>
      </trkpt>
      <trkpt lat="48.85592" lon="2.35628">
        <ele>45</ele>
        <time>2022-02-16T09:22:44.169Z</time>
      </trkpt>
      <trkpt lat="48.85591" lon="2.35628">
        <ele>45</ele>
        <time>2022-02-16T09:22:49.173Z</time>
      </trkpt>
      <trkpt lat="48.8559" lon="2.35629">
        <ele>45</ele>
        <time>2022-02-16T09:22:54.162Z</time>
      </trkpt>
      <trkpt lat="48.85587" lon="2.35626">
        <ele>45</ele>
        <time>2022-02-16T09:22:58.177Z</time>
      </trkpt>
      <trkpt lat="48.85581" lon="2.35624">
        <ele>45</ele>
        <time>2022-02-16T09:23:03.158Z</time>
      </trkpt>
      <trkpt lat="48.85576" lon="2.35622">
        <ele>45</ele>
        <time>2022-02-16T09:23:07.165Z</time>
      </trkpt>
      <trkpt lat="48.8557" lon="2.35618">
        <ele>45</ele>
        <time>2022-02-16T09:23:12.159Z</time>
      </trkpt>
      <trkpt lat="48.85566" lon="2.35612">
        <ele>44</ele>
        <time>2022-02-16T09:23:17.149Z</time>
      </trkpt>
      <trkpt lat="48.85561" lon="2.35607">
        <ele>44</ele>
        <time>2022-02-16T09:23:22.164Z</time>
      </trkpt>
      <trkpt lat="48.85557" lon="2.35601">
        <ele>44</ele>
        <time>2022-02-16T09:23:27.149Z</time>
      </trkpt>
      <trkpt lat="48.85553" lon="2.35597">
        <ele>44</ele>
        <time>2022-02-16T09:23:31.163Z</time>
      </trkpt>
      <trkpt lat="48.85549" lon="2.35593">
        <ele>43</ele>
        <time>2022-02-16T09:23:35.165Z</time>
      </trkpt>
      <trkpt lat="48.85544" lon="2.35588">
        <ele>43</ele>
        <time>2022-02-16T09:23:40.166Z</time>
      </trkpt>
      <trkpt lat="48.8554" lon="2.35582">
        <ele>42</ele>
        <time>2022-02-16T09:23:45.148Z</time>
      </trkpt>
      <trkpt lat="48.85536" lon="2.35577">
        <ele>42</ele>
        <time>2022-02-16T09:23:49.149Z</time>
      </trkpt>
      <trkpt lat="48.85531" lon="2.35574">
        <ele>42</ele>
        <time>2022-02-16T09:23:54.156Z</time>
      </trkpt>
      <trkpt lat="48.85526" lon="2.35571">
        <ele>42</ele>
        <time>2022-02-16T09:23:58.158Z</time>
      </trkpt>
      <trkpt lat="48.85518" lon="2.35575">
        <ele>42</ele>
        <time>2022-02-16T09:24:33.151Z</time>
      </trkpt>
      <trkpt lat="48.85514" lon="2.3557">
        <ele>42</ele>
        <time>2022-02-16T09:24:38.158Z</time>
      </trkpt>
      <trkpt lat="48.85509" lon="2.35568">
        <ele>41</ele>
        <time>2022-02-16T09:24:43.157Z</time>
      </trkpt>
      <trkpt lat="48.85504" lon="2.35566">
        <ele>41</ele>
        <time>2022-02-16T09:24:47.159Z</time>
      </trkpt>
      <trkpt lat="48.855" lon="2.35563">
        <ele>41</ele>
        <time>2022-02-16T09:24:51.168Z</time>
      </trkpt>
      <trkpt lat="48.85497" lon="2.35558">
        <ele>41</ele>
        <time>2022-02-16T09:24:55.167Z</time>
      </trkpt>
      <trkpt lat="48.85493" lon="2.35552">
        <ele>41</ele>
        <time>2022-02-16T09:25:00.166Z</time>
      </trkpt>
      <trkpt lat="48.85489" lon="2.35548">
        <ele>41</ele>
        <time>2022-02-16T09:25:04.170Z</time>
      </trkpt>
      <trkpt lat="48.85485" lon="2.35541">
        <ele>40</ele>
        <time>2022-02-16T09:25:09.151Z</time>
      </trkpt>
      <trkpt lat="48.85479" lon="2.35539">
        <ele>40</ele>
        <time>2022-02-16T09:25:14.163Z</time>
      </trkpt>
      <trkpt lat="48.85475" lon="2.35538">
        <ele>40</ele>
        <time>2022-02-16T09:25:18.166Z</time>
      </trkpt>
      <trkpt lat="48.8547" lon="2.35533">
        <ele>40</ele>
        <time>2022-02-16T09:25:23.149Z</time>
      </trkpt>
      <trkpt lat="48.85467" lon="2.35529">
        <ele>40</ele>
        <time>2022-02-16T09:25:27.159Z</time>
      </trkpt>
      <trkpt lat="48.85462" lon="2.35525">
        <ele>40</ele>
        <time>2022-02-16T09:25:32.164Z</time>
      </trkpt>
      <trkpt lat="48.85456" lon="2.35527">
        <ele>40</ele>
        <time>2022-02-16T09:25:37.161Z</time>
      </trkpt>
      <trkpt lat="48.85453" lon="2.35535">
        <ele>40</ele>
        <time>2022-02-16T09:25:42.160Z</time>
      </trkpt>
      <trkpt lat="48.8545" lon="2.35545">
        <ele>40</ele>
        <time>2022-02-16T09:25:47.156Z</time>
      </trkpt>
      <trkpt lat="48.85449" lon="2.35553">
        <ele>40</ele>
        <time>2022-02-16T09:25:51.276Z</time>
      </trkpt>
      <trkpt lat="48.85446" lon="2.35562">
        <ele>40</ele>
        <time>2022-02-16T09:25:56.155Z</time>
      </trkpt>
      <trkpt lat="48.85445" lon="2.35569">
        <ele>40</ele>
        <time>2022-02-16T09:26:00.159Z</time>
      </trkpt>
      <trkpt lat="48.85447" lon="2.35575">
        <ele>41</ele>
        <time>2022-02-16T09:26:05.157Z</time>
      </trkpt>
      <trkpt lat="48.85445" lon="2.35581">
        <ele>41</ele>
        <time>2022-02-16T09:26:09.163Z</time>
      </trkpt>
      <trkpt lat="48.85441" lon="2.35588">
        <ele>41</ele>
        <time>2022-02-16T09:26:14.148Z</time>
      </trkpt>
      <trkpt lat="48.85438" lon="2.35592">
        <ele>41</ele>
        <time>2022-02-16T09:26:18.170Z</time>
      </trkpt>
      <trkpt lat="48.85438" lon="2.35599">
        <ele>41</ele>
        <time>2022-02-16T09:26:23.151Z</time>
      </trkpt>
      <trkpt lat="48.85442" lon="2.35602">
        <ele>41</ele>
        <time>2022-02-16T09:26:27.167Z</time>
      </trkpt>
      <trkpt lat="48.85444" lon="2.35608">
        <ele>41</ele>
        <time>2022-02-16T09:26:32.152Z</time>
      </trkpt>
      <trkpt lat="48.85447" lon="2.35611">
        <ele>41</ele>
        <time>2022-02-16T09:26:36.162Z</time>
      </trkpt>
      <trkpt lat="48.85449" lon="2.35618">
        <ele>41</ele>
        <time>2022-02-16T09:26:41.158Z</time>
      </trkpt>
      <trkpt lat="48.85452" lon="2.35624">
        <ele>41</ele>
        <time>2022-02-16T09:26:45.158Z</time>
      </trkpt>
      <trkpt lat="48.85455" lon="2.3563">
        <ele>41</ele>
        <time>2022-02-16T09:26:50.152Z</time>
      </trkpt>
      <trkpt lat="48.85458" lon="2.35633">
        <ele>41</ele>
        <time>2022-02-16T09:26:54.175Z</time>
      </trkpt>
      <trkpt lat="48.85463" lon="2.35634">
        <ele>40</ele>
        <time>2022-02-16T09:26:59.158Z</time>
      </trkpt>
      <trkpt lat="48.85466" lon="2.35635">
        <ele>40</ele>
        <time>2022-02-16T09:27:04.151Z</time>
      </trkpt>
      <trkpt lat="48.85469" lon="2.35641">
        <ele>40</ele>
        <time>2022-02-16T09:27:09.165Z</time>
      </trkpt>
      <trkpt lat="48.85474" lon="2.35645">
        <ele>40</ele>
        <time>2022-02-16T09:27:14.151Z</time>
      </trkpt>
      <trkpt lat="48.85478" lon="2.35649">
        <ele>40</ele>
        <time>2022-02-16T09:27:18.165Z</time>
      </trkpt>
      <trkpt lat="48.85491" lon="2.35671">
        <ele>38</ele>
        <time>2022-02-16T09:28:18.162Z</time>
      </trkpt>
      <trkpt lat="48.85491" lon="2.35671">
        <ele>38</ele>
        <time>2022-02-16T09:28:23.147Z</time>
      </trkpt>
      <trkpt lat="48.85491" lon="2.35671">
        <ele>38</ele>
        <time>2022-02-16T09:28:27.155Z</time>
      </trkpt>
      <trkpt lat="48.85491" lon="2.35671">
        <ele>38</ele>
        <time>2022-02-16T09:28:31.155Z</time>
      </trkpt>
      <trkpt lat="48.85491" lon="2.35671">
        <ele>38</ele>
        <time>2022-02-16T09:28:36.158Z</time>
      </trkpt>
      <trkpt lat="48.85491" lon="2.35671">
        <ele>38</ele>
        <time>2022-02-16T09:28:40.163Z</time>
      </trkpt>
      <trkpt lat="48.85492" lon="2.35672">
        <ele>38</ele>
        <time>2022-02-16T09:28:45.151Z</time>
      </trkpt>
      <trkpt lat="48.85492" lon="2.35672">
        <ele>38</ele>
        <time>2022-02-16T09:28:49.157Z</time>
      </trkpt>
      <trkpt lat="48.85497" lon="2.35674">
        <ele>38</ele>
        <time>2022-02-16T09:28:54.156Z</time>
      </trkpt>
      <trkpt lat="48.85502" lon="2.35678">
        <ele>38</ele>
        <time>2022-02-16T09:28:59.157Z</time>
      </trkpt>
      <trkpt lat="48.85508" lon="2.35682">
        <ele>38</ele>
        <time>2022-02-16T09:29:03.161Z</time>
      </trkpt>
      <trkpt lat="48.85514" lon="2.35688">
        <ele>37</ele>
        <time>2022-02-16T09:29:08.160Z</time>
      </trkpt>
      <trkpt lat="48.85519" lon="2.35695">
        <ele>37</ele>
        <time>2022-02-16T09:29:13.150Z</time>
      </trkpt>
      <trkpt lat="48.85524" lon="2.35701">
        <ele>37</ele>
        <time>2022-02-16T09:29:18.153Z</time>
      </trkpt>
      <trkpt lat="48.85528" lon="2.35705">
        <ele>37</ele>
        <time>2022-02-16T09:29:22.160Z</time>
      </trkpt>
      <trkpt lat="48.85532" lon="2.35712">
        <ele>37</ele>
        <time>2022-02-16T09:29:27.163Z</time>
      </trkpt>
      <trkpt lat="48.85537" lon="2.35718">
        <ele>37</ele>
        <time>2022-02-16T09:29:32.163Z</time>
      </trkpt>
      <trkpt lat="48.85541" lon="2.35723">
        <ele>37</ele>
        <time>2022-02-16T09:29:37.159Z</time>
      </trkpt>
      <trkpt lat="48.85544" lon="2.35728">
        <ele>40</ele>
        <time>2022-02-16T09:29:41.170Z</time>
      </trkpt>
      <trkpt lat="48.85548" lon="2.35732">
        <ele>40</ele>
        <time>2022-02-16T09:29:45.175Z</time>
      </trkpt>
      <trkpt lat="48.85551" lon="2.35739">
        <ele>41</ele>
        <time>2022-02-16T09:29:50.156Z</time>
      </trkpt>
      <trkpt lat="48.85551" lon="2.35746">
        <ele>41</ele>
        <time>2022-02-16T09:29:55.163Z</time>
      </trkpt>
      <trkpt lat="48.85549" lon="2.35753">
        <ele>41</ele>
        <time>2022-02-16T09:30:00.150Z</time>
      </trkpt>
      <trkpt lat="48.85548" lon="2.35759">
        <ele>41</ele>
        <time>2022-02-16T09:30:04.155Z</time>
      </trkpt>
      <trkpt lat="48.85545" lon="2.35765">
        <ele>42</ele>
        <time>2022-02-16T09:30:09.170Z</time>
      </trkpt>
      <trkpt lat="48.85541" lon="2.35769">
        <ele>38</ele>
        <time>2022-02-16T09:30:13.167Z</time>
      </trkpt>
      <trkpt lat="48.85535" lon="2.35774">
        <ele>38</ele>
        <time>2022-02-16T09:30:18.173Z</time>
      </trkpt>
      <trkpt lat="48.85532" lon="2.35779">
        <ele>38</ele>
        <time>2022-02-16T09:30:23.146Z</time>
      </trkpt>
      <trkpt lat="48.85529" lon="2.35782">
        <ele>38</ele>
        <time>2022-02-16T09:30:27.166Z</time>
      </trkpt>
      <trkpt lat="48.85525" lon="2.35787">
        <ele>38</ele>
        <time>2022-02-16T09:30:32.155Z</time>
      </trkpt>
      <trkpt lat="48.85522" lon="2.35791">
        <ele>38</ele>
        <time>2022-02-16T09:30:37.165Z</time>
      </trkpt>
      <trkpt lat="48.85517" lon="2.35793">
        <ele>40</ele>
        <time>2022-02-16T09:30:42.170Z</time>
      </trkpt>
      <trkpt lat="48.85513" lon="2.35796">
        <ele>39</ele>
        <time>2022-02-16T09:30:47.167Z</time>
      </trkpt>
      <trkpt lat="48.85509" lon="2.35797">
        <ele>39</ele>
        <time>2022-02-16T09:30:51.234Z</time>
      </trkpt>
      <trkpt lat="48.85504" lon="2.35801">
        <ele>39</ele>
        <time>2022-02-16T09:30:56.161Z</time>
      </trkpt>
      <trkpt lat="48.855" lon="2.35803">
        <ele>39</ele>
        <time>2022-02-16T09:31:00.169Z</time>
      </trkpt>
      <trkpt lat="48.85496" lon="2.35809">
        <ele>39</ele>
        <time>2022-02-16T09:31:05.162Z</time>
      </trkpt>
      <trkpt lat="48.85493" lon="2.35816">
        <ele>39</ele>
        <time>2022-02-16T09:31:10.156Z</time>
      </trkpt>
      <trkpt lat="48.8549" lon="2.35822">
        <ele>41</ele>
        <time>2022-02-16T09:31:15.171Z</time>
      </trkpt>
      <trkpt lat="48.85486" lon="2.35828">
        <ele>41</ele>
        <time>2022-02-16T09:31:20.164Z</time>
      </trkpt>
      <trkpt lat="48.85483" lon="2.35834">
        <ele>41</ele>
        <time>2022-02-16T09:31:25.155Z</time>
      </trkpt>
      <trkpt lat="48.85481" lon="2.35839">
        <ele>41</ele>
        <time>2022-02-16T09:31:29.154Z</time>
      </trkpt>
      <trkpt lat="48.85478" lon="2.35845">
        <ele>41</ele>
        <time>2022-02-16T09:31:34.152Z</time>
      </trkpt>
      <trkpt lat="48.85474" lon="2.35846">
        <ele>41</ele>
        <time>2022-02-16T09:31:38.170Z</time>
      </trkpt>
      <trkpt lat="48.85472" lon="2.35852">
        <ele>41</ele>
        <time>2022-02-16T09:31:43.157Z</time>
      </trkpt>
      <trkpt lat="48.85468" lon="2.35859">
        <ele>41</ele>
        <time>2022-02-16T09:31:48.159Z</time>
      </trkpt>
      <trkpt lat="48.85465" lon="2.35863">
        <ele>41</ele>
        <time>2022-02-16T09:31:52.170Z</time>
      </trkpt>
      <trkpt lat="48.85459" lon="2.35869">
        <ele>41</ele>
        <time>2022-02-16T09:31:57.162Z</time>
      </trkpt>
      <trkpt lat="48.85453" lon="2.35874">
        <ele>41</ele>
        <time>2022-02-16T09:32:02.165Z</time>
      </trkpt>
      <trkpt lat="48.85453" lon="2.35881">
        <ele>40</ele>
        <time>2022-02-16T09:32:06.161Z</time>
      </trkpt>
      <trkpt lat="48.85453" lon="2.35881">
        <ele>40</ele>
        <time>2022-02-16T09:32:11.157Z</time>
      </trkpt>
      <trkpt lat="48.85452" lon="2.35882">
        <ele>40</ele>
        <time>2022-02-16T09:32:15.159Z</time>
      </trkpt>
      <trkpt lat="48.85451" lon="2.3589">
        <ele>40</ele>
        <time>2022-02-16T09:32:20.161Z</time>
      </trkpt>
      <trkpt lat="48.85448" lon="2.35896">
        <ele>40</ele>
        <time>2022-02-16T09:32:25.158Z</time>
      </trkpt>
      <trkpt lat="48.85444" lon="2.35903">
        <ele>40</ele>
        <time>2022-02-16T09:32:30.171Z</time>
      </trkpt>
      <trkpt lat="48.8544" lon="2.35909">
        <ele>40</ele>
        <time>2022-02-16T09:32:35.156Z</time>
      </trkpt>
      <trkpt lat="48.85439" lon="2.35915">
        <ele>40</ele>
        <time>2022-02-16T09:32:39.172Z</time>
      </trkpt>
      <trkpt lat="48.85435" lon="2.35921">
        <ele>40</ele>
        <time>2022-02-16T09:32:44.165Z</time>
      </trkpt>
      <trkpt lat="48.85434" lon="2.35928">
        <ele>40</ele>
        <time>2022-02-16T09:32:49.164Z</time>
      </trkpt>
      <trkpt lat="48.85434" lon="2.35934">
        <ele>41</ele>
        <time>2022-02-16T09:32:54.161Z</time>
      </trkpt>
      <trkpt lat="48.85435" lon="2.3594">
        <ele>41</ele>
        <time>2022-02-16T09:32:58.167Z</time>
      </trkpt>
      <trkpt lat="48.85436" lon="2.35946">
        <ele>41</ele>
        <time>2022-02-16T09:33:02.171Z</time>
      </trkpt>
      <trkpt lat="48.85435" lon="2.35955">
        <ele>41</ele>
        <time>2022-02-16T09:33:07.266Z</time>
      </trkpt>
      <trkpt lat="48.85434" lon="2.35962">
        <ele>43</ele>
        <time>2022-02-16T09:33:12.164Z</time>
      </trkpt>
      <trkpt lat="48.85433" lon="2.3597">
        <ele>43</ele>
        <time>2022-02-16T09:33:17.163Z</time>
      </trkpt>
      <trkpt lat="48.85432" lon="2.35979">
        <ele>43</ele>
        <time>2022-02-16T09:33:22.160Z</time>
      </trkpt>
      <trkpt lat="48.8543" lon="2.35986">
        <ele>43</ele>
        <time>2022-02-16T09:33:26.174Z</time>
      </trkpt>
      <trkpt lat="48.85428" lon="2.35994">
        <ele>44</ele>
        <time>2022-02-16T09:33:31.171Z</time>
      </trkpt>
      <trkpt lat="48.85427" lon="2.36003">
        <ele>44</ele>
        <time>2022-02-16T09:33:36.164Z</time>
      </trkpt>
      <trkpt lat="48.85427" lon="2.36012">
        <ele>44</ele>
        <time>2022-02-16T09:33:41.147Z</time>
      </trkpt>
      <trkpt lat="48.85426" lon="2.36019">
        <ele>43</ele>
        <time>2022-02-16T09:33:45.166Z</time>
      </trkpt>
      <trkpt lat="48.85424" lon="2.36025">
        <ele>43</ele>
        <time>2022-02-16T09:33:49.171Z</time>
      </trkpt>
      <trkpt lat="48.85422" lon="2.36033">
        <ele>43</ele>
        <time>2022-02-16T09:33:54.154Z</time>
      </trkpt>
      <trkpt lat="48.8542" lon="2.3604">
        <ele>43</ele>
        <time>2022-02-16T09:33:58.165Z</time>
      </trkpt>
      <trkpt lat="48.85418" lon="2.36047">
        <ele>41</ele>
        <time>2022-02-16T09:34:03.155Z</time>
      </trkpt>
      <trkpt lat="48.85416" lon="2.36054">
        <ele>41</ele>
        <time>2022-02-16T09:34:07.168Z</time>
      </trkpt>
      <trkpt lat="48.85413" lon="2.36063">
        <ele>41</ele>
        <time>2022-02-16T09:34:12.149Z</time>
      </trkpt>
      <trkpt lat="48.85413" lon="2.36071">
        <ele>41</ele>
        <time>2022-02-16T09:34:16.157Z</time>
      </trkpt>
      <trkpt lat="48.85412" lon="2.36082">
        <ele>41</ele>
        <time>2022-02-16T09:34:21.166Z</time>
      </trkpt>
      <trkpt lat="48.8541" lon="2.36091">
        <ele>41</ele>
        <time>2022-02-16T09:34:26.155Z</time>
      </trkpt>
      <trkpt lat="48.85409" lon="2.36099">
        <ele>41</ele>
        <time>2022-02-16T09:34:31.170Z</time>
      </trkpt>
      <trkpt lat="48.85408" lon="2.36106">
        <ele>41</ele>
        <time>2022-02-16T09:34:35.182Z</time>
      </trkpt>
      <trkpt lat="48.85399" lon="2.36118">
        <ele>41</ele>
        <time>2022-02-16T09:36:30.167Z</time>
      </trkpt>
      <trkpt lat="48.85399" lon="2.36121">
        <ele>41</ele>
        <time>2022-02-16T09:36:35.151Z</time>
      </trkpt>
      <trkpt lat="48.85397" lon="2.36126">
        <ele>41</ele>
        <time>2022-02-16T09:36:40.152Z</time>
      </trkpt>
      <trkpt lat="48.85397" lon="2.3613">
        <ele>41</ele>
        <time>2022-02-16T09:36:44.163Z</time>
      </trkpt>
      <trkpt lat="48.85395" lon="2.36137">
        <ele>41</ele>
        <time>2022-02-16T09:36:48.165Z</time>
      </trkpt>
      <trkpt lat="48.85394" lon="2.36145">
        <ele>41</ele>
        <time>2022-02-16T09:36:53.156Z</time>
      </trkpt>
      <trkpt lat="48.85393" lon="2.36152">
        <ele>41</ele>
        <time>2022-02-16T09:36:57.168Z</time>
      </trkpt>
      <trkpt lat="48.85391" lon="2.36158">
        <ele>41</ele>
        <time>2022-02-16T09:37:02.156Z</time>
      </trkpt>
      <trkpt lat="48.85388" lon="2.36157">
        <ele>41</ele>
        <time>2022-02-16T09:37:06.162Z</time>
      </trkpt>
      <trkpt lat="48.85392" lon="2.36165">
        <ele>41</ele>
        <time>2022-02-16T09:37:11.153Z</time>
      </trkpt>
      <trkpt lat="48.85396" lon="2.36168">
        <ele>41</ele>
        <time>2022-02-16T09:37:15.159Z</time>
      </trkpt>
      <trkpt lat="48.85399" lon="2.36172">
        <ele>41</ele>
        <time>2022-02-16T09:37:19.159Z</time>
      </trkpt>
      <trkpt lat="48.85403" lon="2.36175">
        <ele>41</ele>
        <time>2022-02-16T09:37:24.156Z</time>
      </trkpt>
      <trkpt lat="48.85407" lon="2.36189">
        <ele>41</ele>
        <time>2022-02-16T09:38:49.156Z</time>
      </trkpt>
      <trkpt lat="48.85407" lon="2.3619">
        <ele>41</ele>
        <time>2022-02-16T09:38:54.159Z</time>
      </trkpt>
      <trkpt lat="48.85407" lon="2.3619">
        <ele>41</ele>
        <time>2022-02-16T09:38:59.157Z</time>
      </trkpt>
      <trkpt lat="48.85407" lon="2.3619">
        <ele>41</ele>
        <time>2022-02-16T09:39:04.154Z</time>
      </trkpt>
      <trkpt lat="48.85407" lon="2.36191">
        <ele>41</ele>
        <time>2022-02-16T09:39:08.153Z</time>
      </trkpt>
      <trkpt lat="48.85407" lon="2.36191">
        <ele>41</ele>
        <time>2022-02-16T09:39:12.161Z</time>
      </trkpt>
      <trkpt lat="48.85408" lon="2.36192">
        <ele>41</ele>
        <time>2022-02-16T09:39:17.156Z</time>
      </trkpt>
      <trkpt lat="48.85411" lon="2.36193">
        <ele>41</ele>
        <time>2022-02-16T09:39:21.174Z</time>
      </trkpt>
      <trkpt lat="48.85415" lon="2.36193">
        <ele>41</ele>
        <time>2022-02-16T09:39:26.156Z</time>
      </trkpt>
      <trkpt lat="48.8542" lon="2.36194">
        <ele>41</ele>
        <time>2022-02-16T09:39:30.163Z</time>
      </trkpt>
      <trkpt lat="48.85417" lon="2.36203">
        <ele>41</ele>
        <time>2022-02-16T09:39:35.168Z</time>
      </trkpt>
      <trkpt lat="48.85412" lon="2.36206">
        <ele>41</ele>
        <time>2022-02-16T09:39:40.158Z</time>
      </trkpt>
      <trkpt lat="48.85412" lon="2.3621">
        <ele>42</ele>
        <time>2022-02-16T09:39:45.160Z</time>
      </trkpt>
      <trkpt lat="48.85414" lon="2.36215">
        <ele>42</ele>
        <time>2022-02-16T09:39:50.152Z</time>
      </trkpt>
      <trkpt lat="48.85416" lon="2.3622">
        <ele>42</ele>
        <time>2022-02-16T09:39:55.150Z</time>
      </trkpt>
      <trkpt lat="48.85419" lon="2.36223">
        <ele>42</ele>
        <time>2022-02-16T09:39:59.168Z</time>
      </trkpt>
      <trkpt lat="48.85422" lon="2.36226">
        <ele>42</ele>
        <time>2022-02-16T09:40:04.167Z</time>
      </trkpt>
      <trkpt lat="48.85426" lon="2.36229">
        <ele>42</ele>
        <time>2022-02-16T09:40:09.181Z</time>
      </trkpt>
      <trkpt lat="48.85431" lon="2.36234">
        <ele>42</ele>
        <time>2022-02-16T09:40:14.170Z</time>
      </trkpt>
      <trkpt lat="48.85435" lon="2.36233">
        <ele>41</ele>
        <time>2022-02-16T09:40:19.168Z</time>
      </trkpt>
      <trkpt lat="48.85435" lon="2.36234">
        <ele>41</ele>
        <time>2022-02-16T09:40:23.174Z</time>
      </trkpt>
      <trkpt lat="48.85438" lon="2.36238">
        <ele>41</ele>
        <time>2022-02-16T09:40:28.164Z</time>
      </trkpt>
      <trkpt lat="48.85442" lon="2.36245">
        <ele>41</ele>
        <time>2022-02-16T09:40:33.162Z</time>
      </trkpt>
      <trkpt lat="48.85446" lon="2.3625">
        <ele>41</ele>
        <time>2022-02-16T09:40:38.152Z</time>
      </trkpt>
      <trkpt lat="48.85449" lon="2.36255">
        <ele>41</ele>
        <time>2022-02-16T09:40:42.155Z</time>
      </trkpt>
      <trkpt lat="48.85452" lon="2.3626">
        <ele>41</ele>
        <time>2022-02-16T09:40:47.160Z</time>
      </trkpt>
      <trkpt lat="48.85456" lon="2.36267">
        <ele>41</ele>
        <time>2022-02-16T09:40:52.159Z</time>
      </trkpt>
      <trkpt lat="48.85455" lon="2.36273">
        <ele>41</ele>
        <time>2022-02-16T09:40:57.176Z</time>
      </trkpt>
      <trkpt lat="48.85461" lon="2.3627">
        <ele>41</ele>
        <time>2022-02-16T09:41:01.173Z</time>
      </trkpt>
      <trkpt lat="48.85463" lon="2.36268">
        <ele>41</ele>
        <time>2022-02-16T09:41:06.154Z</time>
      </trkpt>
      <trkpt lat="48.85465" lon="2.36266">
        <ele>41</ele>
        <time>2022-02-16T09:41:10.160Z</time>
      </trkpt>
      <trkpt lat="48.85469" lon="2.36269">
        <ele>41</ele>
        <time>2022-02-16T09:41:14.173Z</time>
      </trkpt>
      <trkpt lat="48.85472" lon="2.3627">
        <ele>41</ele>
        <time>2022-02-16T09:41:19.164Z</time>
      </trkpt>
      <trkpt lat="48.85474" lon="2.36271">
        <ele>41</ele>
        <time>2022-02-16T09:41:23.173Z</time>
      </trkpt>
      <trkpt lat="48.85476" lon="2.36275">
        <ele>41</ele>
        <time>2022-02-16T09:41:28.196Z</time>
      </trkpt>
      <trkpt lat="48.85475" lon="2.36282">
        <ele>41</ele>
        <time>2022-02-16T09:41:33.150Z</time>
      </trkpt>
      <trkpt lat="48.85472" lon="2.36286">
        <ele>41</ele>
        <time>2022-02-16T09:41:37.150Z</time>
      </trkpt>
      <trkpt lat="48.8547" lon="2.36293">
        <ele>42</ele>
        <time>2022-02-16T09:41:42.165Z</time>
      </trkpt>
      <trkpt lat="48.85472" lon="2.36297">
        <ele>42</ele>
        <time>2022-02-16T09:41:46.174Z</time>
      </trkpt>
      <trkpt lat="48.85476" lon="2.363">
        <ele>42</ele>
        <time>2022-02-16T09:41:51.155Z</time>
      </trkpt>
      <trkpt lat="48.8548" lon="2.36303">
        <ele>42</ele>
        <time>2022-02-16T09:41:56.159Z</time>
      </trkpt>
      <trkpt lat="48.85484" lon="2.36306">
        <ele>42</ele>
        <time>2022-02-16T09:42:01.151Z</time>
      </trkpt>
      <trkpt lat="48.85488" lon="2.36309">
        <ele>43</ele>
        <time>2022-02-16T09:42:05.165Z</time>
      </trkpt>
      <trkpt lat="48.85493" lon="2.36312">
        <ele>43</ele>
        <time>2022-02-16T09:42:10.165Z</time>
      </trkpt>
      <trkpt lat="48.85496" lon="2.36317">
        <ele>43</ele>
        <time>2022-02-16T09:42:15.159Z</time>
      </trkpt>
      <trkpt lat="48.855" lon="2.3632">
        <ele>44</ele>
        <time>2022-02-16T09:42:19.167Z</time>
      </trkpt>
      <trkpt lat="48.85505" lon="2.3632">
        <ele>44</ele>
        <time>2022-02-16T09:42:24.158Z</time>
      </trkpt>
      <trkpt lat="48.85507" lon="2.36314">
        <ele>43</ele>
        <time>2022-02-16T09:42:29.167Z</time>
      </trkpt>
      <trkpt lat="48.85509" lon="2.36309">
        <ele>43</ele>
        <time>2022-02-16T09:42:33.166Z</time>
      </trkpt>
      <trkpt lat="48.85509" lon="2.36302">
        <ele>43</ele>
        <time>2022-02-16T09:42:37.171Z</time>
      </trkpt>
      <trkpt lat="48.85511" lon="2.36295">
        <ele>43</ele>
        <time>2022-02-16T09:42:42.167Z</time>
      </trkpt>
      <trkpt lat="48.85513" lon="2.36288">
        <ele>42</ele>
        <time>2022-02-16T09:42:47.171Z</time>
      </trkpt>
      <trkpt lat="48.85518" lon="2.36284">
        <ele>42</ele>
        <time>2022-02-16T09:42:52.164Z</time>
      </trkpt>
      <trkpt lat="48.85524" lon="2.36287">
        <ele>42</ele>
        <time>2022-02-16T09:42:57.165Z</time>
      </trkpt>
      <trkpt lat="48.85529" lon="2.36291">
        <ele>42</ele>
        <time>2022-02-16T09:43:02.170Z</time>
      </trkpt>
      <trkpt lat="48.85534" lon="2.36294">
        <ele>42</ele>
        <time>2022-02-16T09:43:07.164Z</time>
      </trkpt>
      <trkpt lat="48.8554" lon="2.36295">
        <ele>42</ele>
        <time>2022-02-16T09:43:12.167Z</time>
      </trkpt>
      <trkpt lat="48.85545" lon="2.36291">
        <ele>41</ele>
        <time>2022-02-16T09:43:17.159Z</time>
      </trkpt>
      <trkpt lat="48.85549" lon="2.36293">
        <ele>40</ele>
        <time>2022-02-16T09:43:22.146Z</time>
      </trkpt>
      <trkpt lat="48.85556" lon="2.36296">
        <ele>40</ele>
        <time>2022-02-16T09:43:26.159Z</time>
      </trkpt>
      <trkpt lat="48.85561" lon="2.36302">
        <ele>40</ele>
        <time>2022-02-16T09:43:30.155Z</time>
      </trkpt>
      <trkpt lat="48.85566" lon="2.36306">
        <ele>40</ele>
        <time>2022-02-16T09:43:35.167Z</time>
      </trkpt>
      <trkpt lat="48.85564" lon="2.36313">
        <ele>40</ele>
        <time>2022-02-16T09:43:40.154Z</time>
      </trkpt>
      <trkpt lat="48.8556" lon="2.36319">
        <ele>40</ele>
        <time>2022-02-16T09:43:45.158Z</time>
      </trkpt>
      <trkpt lat="48.85558" lon="2.36326">
        <ele>41</ele>
        <time>2022-02-16T09:43:50.157Z</time>
      </trkpt>
      <trkpt lat="48.85556" lon="2.36333">
        <ele>41</ele>
        <time>2022-02-16T09:43:55.153Z</time>
      </trkpt>
      <trkpt lat="48.8556" lon="2.36335">
        <ele>41</ele>
        <time>2022-02-16T09:43:59.159Z</time>
      </trkpt>
      <trkpt lat="48.85565" lon="2.36337">
        <ele>41</ele>
        <time>2022-02-16T09:44:04.153Z</time>
      </trkpt>
      <trkpt lat="48.85566" lon="2.36342">
        <ele>41</ele>
        <time>2022-02-16T09:47:23.160Z</time>
      </trkpt>
      <trkpt lat="48.85563" lon="2.36342">
        <ele>41</ele>
        <time>2022-02-16T09:47:28.152Z</time>
      </trkpt>
      <trkpt lat="48.85559" lon="2.3634">
        <ele>41</ele>
        <time>2022-02-16T09:47:32.156Z</time>
      </trkpt>
      <trkpt lat="48.85554" lon="2.36338">
        <ele>41</ele>
        <time>2022-02-16T09:47:37.149Z</time>
      </trkpt>
      <trkpt lat="48.85554" lon="2.3634">
        <ele>41</ele>
        <time>2022-02-16T09:47:41.193Z</time>
      </trkpt>
      <trkpt lat="48.85554" lon="2.3636">
        <ele>42</ele>
        <time>2022-02-16T09:48:00.155Z</time>
      </trkpt>
      <trkpt lat="48.85557" lon="2.36363">
        <ele>42</ele>
        <time>2022-02-16T09:48:04.161Z</time>
      </trkpt>
      <trkpt lat="48.85561" lon="2.36364">
        <ele>42</ele>
        <time>2022-02-16T09:48:09.156Z</time>
      </trkpt>
      <trkpt lat="48.85565" lon="2.36368">
        <ele>42</ele>
        <time>2022-02-16T09:48:14.158Z</time>
      </trkpt>
      <trkpt lat="48.85568" lon="2.36373">
        <ele>42</ele>
        <time>2022-02-16T09:48:18.164Z</time>
      </trkpt>
      <trkpt lat="48.85572" lon="2.36378">
        <ele>44</ele>
        <time>2022-02-16T09:48:23.158Z</time>
      </trkpt>
      <trkpt lat="48.85576" lon="2.36382">
        <ele>44</ele>
        <time>2022-02-16T09:48:28.163Z</time>
      </trkpt>
      <trkpt lat="48.85578" lon="2.3639">
        <ele>44</ele>
        <time>2022-02-16T09:48:33.161Z</time>
      </trkpt>
      <trkpt lat="48.85582" lon="2.36383">
        <ele>44</ele>
        <time>2022-02-16T09:48:38.165Z</time>
      </trkpt>
      <trkpt lat="48.8558" lon="2.36381">
        <ele>44</ele>
        <time>2022-02-16T09:49:01.173Z</time>
      </trkpt>
      <trkpt lat="48.85578" lon="2.36385">
        <ele>44</ele>
        <time>2022-02-16T09:49:06.161Z</time>
      </trkpt>
      <trkpt lat="48.85582" lon="2.36389">
        <ele>44</ele>
        <time>2022-02-16T09:49:10.170Z</time>
      </trkpt>
      <trkpt lat="48.85585" lon="2.36391">
        <ele>44</ele>
        <time>2022-02-16T09:49:15.162Z</time>
      </trkpt>
      <trkpt lat="48.85588" lon="2.36392">
        <ele>44</ele>
        <time>2022-02-16T09:49:19.165Z</time>
      </trkpt>
      <trkpt lat="48.85593" lon="2.36397">
        <ele>44</ele>
        <time>2022-02-16T09:49:24.161Z</time>
      </trkpt>
      <trkpt lat="48.85596" lon="2.364">
        <ele>44</ele>
        <time>2022-02-16T09:49:29.162Z</time>
      </trkpt>
      <trkpt lat="48.85599" lon="2.36401">
        <ele>43</ele>
        <time>2022-02-16T09:49:33.190Z</time>
      </trkpt>
      <trkpt lat="48.85604" lon="2.36408">
        <ele>45</ele>
        <time>2022-02-16T09:49:38.164Z</time>
      </trkpt>
      <trkpt lat="48.85611" lon="2.36404">
        <ele>45</ele>
        <time>2022-02-16T09:50:35.157Z</time>
      </trkpt>
      <trkpt lat="48.85617" lon="2.36408">
        <ele>45</ele>
        <time>2022-02-16T09:50:40.155Z</time>
      </trkpt>
      <trkpt lat="48.85622" lon="2.36411">
        <ele>45</ele>
        <time>2022-02-16T09:50:45.161Z</time>
      </trkpt>
      <trkpt lat="48.85627" lon="2.36415">
        <ele>43</ele>
        <time>2022-02-16T09:50:50.163Z</time>
      </trkpt>
      <trkpt lat="48.85632" lon="2.36417">
        <ele>43</ele>
        <time>2022-02-16T09:50:55.161Z</time>
      </trkpt>
      <trkpt lat="48.85637" lon="2.36421">
        <ele>43</ele>
        <time>2022-02-16T09:51:00.150Z</time>
      </trkpt>
      <trkpt lat="48.8564" lon="2.36424">
        <ele>43</ele>
        <time>2022-02-16T09:51:04.156Z</time>
      </trkpt>
      <trkpt lat="48.85645" lon="2.36429">
        <ele>43</ele>
        <time>2022-02-16T09:51:09.155Z</time>
      </trkpt>
      <trkpt lat="48.85649" lon="2.36433">
        <ele>43</ele>
        <time>2022-02-16T09:51:13.158Z</time>
      </trkpt>
      <trkpt lat="48.85655" lon="2.36436">
        <ele>41</ele>
        <time>2022-02-16T09:51:18.154Z</time>
      </trkpt>
      <trkpt lat="48.85659" lon="2.36438">
        <ele>41</ele>
        <time>2022-02-16T09:51:22.162Z</time>
      </trkpt>
      <trkpt lat="48.85664" lon="2.36439">
        <ele>41</ele>
        <time>2022-02-16T09:51:27.150Z</time>
      </trkpt>
      <trkpt lat="48.85668" lon="2.3644">
        <ele>41</ele>
        <time>2022-02-16T09:51:31.171Z</time>
      </trkpt>
      <trkpt lat="48.85672" lon="2.36441">
        <ele>41</ele>
        <time>2022-02-16T09:51:36.152Z</time>
      </trkpt>
      <trkpt lat="48.85677" lon="2.36443">
        <ele>41</ele>
        <time>2022-02-16T09:51:40.165Z</time>
      </trkpt>
      <trkpt lat="48.85682" lon="2.36445">
        <ele>41</ele>
        <time>2022-02-16T09:51:45.154Z</time>
      </trkpt>
      <trkpt lat="48.85686" lon="2.36445">
        <ele>41</ele>
        <time>2022-02-16T09:51:50.160Z</time>
      </trkpt>
      <trkpt lat="48.85698" lon="2.36444">
        <ele>41</ele>
        <time>2022-02-16T09:52:28.166Z</time>
      </trkpt>
      <trkpt lat="48.85698" lon="2.36444">
        <ele>41</ele>
        <time>2022-02-16T09:52:33.156Z</time>
      </trkpt>
      <trkpt lat="48.85699" lon="2.36444">
        <ele>41</ele>
        <time>2022-02-16T09:52:38.160Z</time>
      </trkpt>
      <trkpt lat="48.85701" lon="2.36446">
        <ele>41</ele>
        <time>2022-02-16T09:52:43.157Z</time>
      </trkpt>
      <trkpt lat="48.85704" lon="2.36445">
        <ele>41</ele>
        <time>2022-02-16T09:52:47.162Z</time>
      </trkpt>
      <trkpt lat="48.85708" lon="2.36446">
        <ele>41</ele>
        <time>2022-02-16T09:52:52.156Z</time>
      </trkpt>
      <trkpt lat="48.85711" lon="2.36448">
        <ele>42</ele>
        <time>2022-02-16T09:52:56.163Z</time>
      </trkpt>
      <trkpt lat="48.85717" lon="2.3645">
        <ele>42</ele>
        <time>2022-02-16T09:53:01.153Z</time>
      </trkpt>
      <trkpt lat="48.85722" lon="2.36452">
        <ele>42</ele>
        <time>2022-02-16T09:53:06.160Z</time>
      </trkpt>
      <trkpt lat="48.85726" lon="2.36455">
        <ele>42</ele>
        <time>2022-02-16T09:56:18.155Z</time>
      </trkpt>
      <trkpt lat="48.85729" lon="2.36454">
        <ele>42</ele>
        <time>2022-02-16T09:56:22.155Z</time>
      </trkpt>
      <trkpt lat="48.85732" lon="2.36454">
        <ele>42</ele>
        <time>2022-02-16T09:56:27.152Z</time>
      </trkpt>
      <trkpt lat="48.85734" lon="2.36454">
        <ele>42</ele>
        <time>2022-02-16T09:56:31.160Z</time>
      </trkpt>
      <trkpt lat="48.85738" lon="2.36453">
        <ele>41</ele>
        <time>2022-02-16T09:56:36.165Z</time>
      </trkpt>
      <trkpt lat="48.85743" lon="2.36452">
        <ele>41</ele>
        <time>2022-02-16T09:56:41.159Z</time>
      </trkpt>
      <trkpt lat="48.85748" lon="2.36453">
        <ele>41</ele>
        <time>2022-02-16T09:56:45.157Z</time>
      </trkpt>
      <trkpt lat="48.85753" lon="2.36453">
        <ele>41</ele>
        <time>2022-02-16T09:56:50.157Z</time>
      </trkpt>
      <trkpt lat="48.85757" lon="2.36454">
        <ele>41</ele>
        <time>2022-02-16T09:56:55.160Z</time>
      </trkpt>
      <trkpt lat="48.85761" lon="2.36451">
        <ele>41</ele>
        <time>2022-02-16T09:57:00.163Z</time>
      </trkpt>
      <trkpt lat="48.85763" lon="2.36449">
        <ele>41</ele>
        <time>2022-02-16T09:57:05.162Z</time>
      </trkpt>
      <trkpt lat="48.85768" lon="2.36446">
        <ele>40</ele>
        <time>2022-02-16T09:57:10.159Z</time>
      </trkpt>
      <trkpt lat="48.85772" lon="2.36447">
        <ele>40</ele>
        <time>2022-02-16T09:57:14.169Z</time>
      </trkpt>
      <trkpt lat="48.85776" lon="2.36448">
        <ele>40</ele>
        <time>2022-02-16T09:57:19.167Z</time>
      </trkpt>
      <trkpt lat="48.85781" lon="2.36449">
        <ele>40</ele>
        <time>2022-02-16T09:57:24.162Z</time>
      </trkpt>
      <trkpt lat="48.85786" lon="2.36451">
        <ele>40</ele>
        <time>2022-02-16T09:57:29.160Z</time>
      </trkpt>
      <trkpt lat="48.85786" lon="2.36458">
        <ele>40</ele>
        <time>2022-02-16T09:57:34.151Z</time>
      </trkpt>
      <trkpt lat="48.8579" lon="2.36459">
        <ele>42</ele>
        <time>2022-02-16T09:57:38.155Z</time>
      </trkpt>
      <trkpt lat="48.85795" lon="2.3646">
        <ele>42</ele>
        <time>2022-02-16T09:57:42.163Z</time>
      </trkpt>
      <trkpt lat="48.85801" lon="2.36461">
        <ele>42</ele>
        <time>2022-02-16T09:57:47.168Z</time>
      </trkpt>
      <trkpt lat="48.85807" lon="2.36461">
        <ele>42</ele>
        <time>2022-02-16T09:57:52.159Z</time>
      </trkpt>
      <trkpt lat="48.8581" lon="2.36453">
        <ele>41</ele>
        <time>2022-02-16T09:57:57.174Z</time>
      </trkpt>
      <trkpt lat="48.85812" lon="2.36445">
        <ele>41</ele>
        <time>2022-02-16T09:58:02.153Z</time>
      </trkpt>
      <trkpt lat="48.85814" lon="2.36438">
        <ele>41</ele>
        <time>2022-02-16T09:58:06.162Z</time>
      </trkpt>
      <trkpt lat="48.85816" lon="2.3643">
        <ele>41</ele>
        <time>2022-02-16T09:58:11.158Z</time>
      </trkpt>
      <trkpt lat="48.85817" lon="2.36424">
        <ele>41</ele>
        <time>2022-02-16T09:58:15.165Z</time>
      </trkpt>
      <trkpt lat="48.85817" lon="2.36415">
        <ele>41</ele>
        <time>2022-02-16T09:58:20.168Z</time>
      </trkpt>
      <trkpt lat="48.85821" lon="2.36405">
        <ele>41</ele>
        <time>2022-02-16T09:58:25.156Z</time>
      </trkpt>
      <trkpt lat="48.85823" lon="2.36397">
        <ele>41</ele>
        <time>2022-02-16T09:58:29.182Z</time>
      </trkpt>
      <trkpt lat="48.85824" lon="2.36391">
        <ele>41</ele>
        <time>2022-02-16T09:58:34.164Z</time>
      </trkpt>
      <trkpt lat="48.85825" lon="2.36389">
        <ele>41</ele>
        <time>2022-02-16T09:58:39.161Z</time>
      </trkpt>
      <trkpt lat="48.85824" lon="2.36381">
        <ele>41</ele>
        <time>2022-02-16T09:58:44.170Z</time>
      </trkpt>
      <trkpt lat="48.8582" lon="2.36376">
        <ele>41</ele>
        <time>2022-02-16T09:58:49.150Z</time>
      </trkpt>
      <trkpt lat="48.85809" lon="2.36369">
        <ele>40</ele>
        <time>2022-02-16T09:59:08.169Z</time>
      </trkpt>
      <trkpt lat="48.85808" lon="2.36373">
        <ele>40</ele>
        <time>2022-02-16T09:59:13.158Z</time>
      </trkpt>
      <trkpt lat="48.85806" lon="2.3637">
        <ele>40</ele>
        <time>2022-02-16T09:59:18.153Z</time>
      </trkpt>
      <trkpt lat="48.85801" lon="2.36365">
        <ele>40</ele>
        <time>2022-02-16T09:59:23.148Z</time>
      </trkpt>
      <trkpt lat="48.85797" lon="2.36361">
        <ele>40</ele>
        <time>2022-02-16T09:59:27.163Z</time>
      </trkpt>
      <trkpt lat="48.85792" lon="2.36357">
        <ele>40</ele>
        <time>2022-02-16T09:59:32.150Z</time>
      </trkpt>
      <trkpt lat="48.85787" lon="2.36354">
        <ele>42</ele>
        <time>2022-02-16T09:59:36.167Z</time>
      </trkpt>
      <trkpt lat="48.85782" lon="2.36351">
        <ele>42</ele>
        <time>2022-02-16T09:59:40.159Z</time>
      </trkpt>
      <trkpt lat="48.85776" lon="2.36347">
        <ele>42</ele>
        <time>2022-02-16T09:59:45.158Z</time>
      </trkpt>
      <trkpt lat="48.85772" lon="2.36346">
        <ele>42</ele>
        <time>2022-02-16T10:01:11.162Z</time>
      </trkpt>
      <trkpt lat="48.85772" lon="2.36346">
        <ele>42</ele>
        <time>2022-02-16T10:01:15.159Z</time>
      </trkpt>
      <trkpt lat="48.8577" lon="2.36344">
        <ele>42</ele>
        <time>2022-02-16T10:01:20.165Z</time>
      </trkpt>
      <trkpt lat="48.85766" lon="2.36342">
        <ele>42</ele>
        <time>2022-02-16T10:01:25.157Z</time>
      </trkpt>
      <trkpt lat="48.85763" lon="2.36339">
        <ele>43</ele>
        <time>2022-02-16T10:01:30.164Z</time>
      </trkpt>
      <trkpt lat="48.85759" lon="2.36336">
        <ele>43</ele>
        <time>2022-02-16T10:01:35.155Z</time>
      </trkpt>
      <trkpt lat="48.85756" lon="2.36332">
        <ele>43</ele>
        <time>2022-02-16T10:01:40.161Z</time>
      </trkpt>
      <trkpt lat="48.85752" lon="2.36329">
        <ele>43</ele>
        <time>2022-02-16T10:01:45.169Z</time>
      </trkpt>
      <trkpt lat="48.85748" lon="2.36325">
        <ele>43</ele>
        <time>2022-02-16T10:01:50.170Z</time>
      </trkpt>
      <trkpt lat="48.85743" lon="2.36322">
        <ele>43</ele>
        <time>2022-02-16T10:01:55.157Z</time>
      </trkpt>
      <trkpt lat="48.85739" lon="2.36319">
        <ele>43</ele>
        <time>2022-02-16T10:01:59.157Z</time>
      </trkpt>
      <trkpt lat="48.85735" lon="2.36317">
        <ele>41</ele>
        <time>2022-02-16T10:02:03.162Z</time>
      </trkpt>
      <trkpt lat="48.85733" lon="2.3632">
        <ele>43</ele>
        <time>2022-02-16T10:02:08.155Z</time>
      </trkpt>
      <trkpt lat="48.85736" lon="2.36322">
        <ele>43</ele>
        <time>2022-02-16T10:03:08.158Z</time>
      </trkpt>
      <trkpt lat="48.85731" lon="2.36318">
        <ele>41</ele>
        <time>2022-02-16T10:03:12.163Z</time>
      </trkpt>
      <trkpt lat="48.85727" lon="2.36313">
        <ele>41</ele>
        <time>2022-02-16T10:03:17.161Z</time>
      </trkpt>
      <trkpt lat="48.85722" lon="2.36308">
        <ele>41</ele>
        <time>2022-02-16T10:03:22.170Z</time>
      </trkpt>
      <trkpt lat="48.85716" lon="2.36305">
        <ele>41</ele>
        <time>2022-02-16T10:03:27.281Z</time>
      </trkpt>
      <trkpt lat="48.8571" lon="2.36303">
        <ele>41</ele>
        <time>2022-02-16T10:03:32.168Z</time>
      </trkpt>
      <trkpt lat="48.85704" lon="2.36302">
        <ele>42</ele>
        <time>2022-02-16T10:03:36.169Z</time>
      </trkpt>
      <trkpt lat="48.85698" lon="2.36299">
        <ele>42</ele>
        <time>2022-02-16T10:03:41.163Z</time>
      </trkpt>
      <trkpt lat="48.85694" lon="2.36295">
        <ele>42</ele>
        <time>2022-02-16T10:03:45.167Z</time>
      </trkpt>
      <trkpt lat="48.85689" lon="2.3629">
        <ele>40</ele>
        <time>2022-02-16T10:03:50.163Z</time>
      </trkpt>
      <trkpt lat="48.8569" lon="2.36279">
        <ele>40</ele>
        <time>2022-02-16T10:03:55.164Z</time>
      </trkpt>
      <trkpt lat="48.85693" lon="2.36268">
        <ele>40</ele>
        <time>2022-02-16T10:04:00.165Z</time>
      </trkpt>
      <trkpt lat="48.85695" lon="2.36261">
        <ele>40</ele>
        <time>2022-02-16T10:04:04.167Z</time>
      </trkpt>
      <trkpt lat="48.85696" lon="2.36252">
        <ele>40</ele>
        <time>2022-02-16T10:04:09.166Z</time>
      </trkpt>
      <trkpt lat="48.85698" lon="2.36244">
        <ele>40</ele>
        <time>2022-02-16T10:04:14.159Z</time>
      </trkpt>
      <trkpt lat="48.85701" lon="2.36238">
        <ele>40</ele>
        <time>2022-02-16T10:04:18.162Z</time>
      </trkpt>
      <trkpt lat="48.85703" lon="2.36231">
        <ele>40</ele>
        <time>2022-02-16T10:04:22.168Z</time>
      </trkpt>
      <trkpt lat="48.85705" lon="2.36225">
        <ele>40</ele>
        <time>2022-02-16T10:04:26.168Z</time>
      </trkpt>
      <trkpt lat="48.85707" lon="2.36217">
        <ele>40</ele>
        <time>2022-02-16T10:04:31.155Z</time>
      </trkpt>
      <trkpt lat="48.85709" lon="2.36212">
        <ele>39</ele>
        <time>2022-02-16T10:04:35.163Z</time>
      </trkpt>
      <trkpt lat="48.85713" lon="2.36206">
        <ele>40</ele>
        <time>2022-02-16T10:04:40.171Z</time>
      </trkpt>
      <trkpt lat="48.85716" lon="2.36197">
        <ele>40</ele>
        <time>2022-02-16T10:04:45.161Z</time>
      </trkpt>
      <trkpt lat="48.85719" lon="2.36189">
        <ele>40</ele>
        <time>2022-02-16T10:04:50.167Z</time>
      </trkpt>
      <trkpt lat="48.85723" lon="2.36183">
        <ele>40</ele>
        <time>2022-02-16T10:04:55.164Z</time>
      </trkpt>
      <trkpt lat="48.85725" lon="2.36177">
        <ele>41</ele>
        <time>2022-02-16T10:05:00.161Z</time>
      </trkpt>
      <trkpt lat="48.85727" lon="2.36168">
        <ele>41</ele>
        <time>2022-02-16T10:05:31.161Z</time>
      </trkpt>
      <trkpt lat="48.85729" lon="2.36162">
        <ele>41</ele>
        <time>2022-02-16T10:05:35.173Z</time>
      </trkpt>
      <trkpt lat="48.85732" lon="2.36154">
        <ele>41</ele>
        <time>2022-02-16T10:05:40.170Z</time>
      </trkpt>
      <trkpt lat="48.85734" lon="2.36147">
        <ele>42</ele>
        <time>2022-02-16T10:05:45.165Z</time>
      </trkpt>
      <trkpt lat="48.85738" lon="2.36142">
        <ele>42</ele>
        <time>2022-02-16T10:05:50.169Z</time>
      </trkpt>
      <trkpt lat="48.8574" lon="2.36139">
        <ele>42</ele>
        <time>2022-02-16T10:05:55.173Z</time>
      </trkpt>
      <trkpt lat="48.85737" lon="2.36132">
        <ele>42</ele>
        <time>2022-02-16T10:06:00.155Z</time>
      </trkpt>
      <trkpt lat="48.85741" lon="2.36128">
        <ele>42</ele>
        <time>2022-02-16T10:06:04.163Z</time>
      </trkpt>
      <trkpt lat="48.85745" lon="2.3612">
        <ele>42</ele>
        <time>2022-02-16T10:06:09.168Z</time>
      </trkpt>
      <trkpt lat="48.85749" lon="2.36112">
        <ele>42</ele>
        <time>2022-02-16T10:06:14.166Z</time>
      </trkpt>
      <trkpt lat="48.85752" lon="2.36106">
        <ele>42</ele>
        <time>2022-02-16T10:06:18.168Z</time>
      </trkpt>
      <trkpt lat="48.85756" lon="2.36099">
        <ele>42</ele>
        <time>2022-02-16T10:06:23.169Z</time>
      </trkpt>
      <trkpt lat="48.85759" lon="2.36093">
        <ele>42</ele>
        <time>2022-02-16T10:06:27.172Z</time>
      </trkpt>
      <trkpt lat="48.85762" lon="2.36085">
        <ele>42</ele>
        <time>2022-02-16T10:06:32.170Z</time>
      </trkpt>
      <trkpt lat="48.85766" lon="2.36081">
        <ele>42</ele>
        <time>2022-02-16T10:06:37.160Z</time>
      </trkpt>
      <trkpt lat="48.8577" lon="2.36075">
        <ele>42</ele>
        <time>2022-02-16T10:06:42.161Z</time>
      </trkpt>
      <trkpt lat="48.85772" lon="2.36069">
        <ele>42</ele>
        <time>2022-02-16T10:06:46.159Z</time>
      </trkpt>
      <trkpt lat="48.85776" lon="2.36062">
        <ele>42</ele>
        <time>2022-02-16T10:06:51.170Z</time>
      </trkpt>
      <trkpt lat="48.85779" lon="2.36058">
        <ele>42</ele>
        <time>2022-02-16T10:06:55.286Z</time>
      </trkpt>
      <trkpt lat="48.85781" lon="2.3605">
        <ele>42</ele>
        <time>2022-02-16T10:07:00.159Z</time>
      </trkpt>
      <trkpt lat="48.85783" lon="2.36044">
        <ele>42</ele>
        <time>2022-02-16T10:07:04.165Z</time>
      </trkpt>
      <trkpt lat="48.85778" lon="2.36035">
        <ele>42</ele>
        <time>2022-02-16T10:08:15.168Z</time>
      </trkpt>
      <trkpt lat="48.85782" lon="2.36029">
        <ele>42</ele>
        <time>2022-02-16T10:08:19.165Z</time>
      </trkpt>
      <trkpt lat="48.85785" lon="2.36023">
        <ele>42</ele>
        <time>2022-02-16T10:08:23.172Z</time>
      </trkpt>
      <trkpt lat="48.85787" lon="2.36017">
        <ele>42</ele>
        <time>2022-02-16T10:08:28.170Z</time>
      </trkpt>
      <trkpt lat="48.85792" lon="2.36011">
        <ele>42</ele>
        <time>2022-02-16T10:08:33.158Z</time>
      </trkpt>
      <trkpt lat="48.85794" lon="2.36005">
        <ele>42</ele>
        <time>2022-02-16T10:08:37.170Z</time>
      </trkpt>
      <trkpt lat="48.85797" lon="2.35998">
        <ele>42</ele>
        <time>2022-02-16T10:08:42.163Z</time>
      </trkpt>
      <trkpt lat="48.85798" lon="2.35991">
        <ele>42</ele>
        <time>2022-02-16T10:08:46.169Z</time>
      </trkpt>
      <trkpt lat="48.858" lon="2.35984">
        <ele>42</ele>
        <time>2022-02-16T10:08:51.172Z</time>
      </trkpt>
      <trkpt lat="48.85802" lon="2.35978">
        <ele>42</ele>
        <time>2022-02-16T10:08:55.172Z</time>
      </trkpt>
      <trkpt lat="48.85805" lon="2.35971">
        <ele>42</ele>
        <time>2022-02-16T10:09:00.174Z</time>
      </trkpt>
      <trkpt lat="48.85809" lon="2.35965">
        <ele>42</ele>
        <time>2022-02-16T10:09:05.165Z</time>
      </trkpt>
      <trkpt lat="48.85812" lon="2.3596">
        <ele>42</ele>
        <time>2022-02-16T10:09:09.173Z</time>
      </trkpt>
      <trkpt lat="48.85815" lon="2.35954">
        <ele>41</ele>
        <time>2022-02-16T10:09:14.171Z</time>
      </trkpt>
      <trkpt lat="48.85818" lon="2.35948">
        <ele>41</ele>
        <time>2022-02-16T10:09:19.152Z</time>
      </trkpt>
      <trkpt lat="48.85822" lon="2.35947">
        <ele>41</ele>
        <time>2022-02-16T10:09:23.151Z</time>
      </trkpt>
      <trkpt lat="48.85826" lon="2.35946">
        <ele>41</ele>
        <time>2022-02-16T10:09:28.165Z</time>
      </trkpt>
      <trkpt lat="48.8583" lon="2.35943">
        <ele>41</ele>
        <time>2022-02-16T10:09:33.166Z</time>
      </trkpt>
      <trkpt lat="48.8583" lon="2.35935">
        <ele>41</ele>
        <time>2022-02-16T10:09:37.159Z</time>
      </trkpt>
      <trkpt lat="48.85827" lon="2.35928">
        <ele>42</ele>
        <time>2022-02-16T10:09:41.159Z</time>
      </trkpt>
      <trkpt lat="48.85825" lon="2.35922">
        <ele>42</ele>
        <time>2022-02-16T10:09:46.156Z</time>
      </trkpt>
      <trkpt lat="48.85822" lon="2.35917">
        <ele>42</ele>
        <time>2022-02-16T10:09:50.153Z</time>
      </trkpt>
      <trkpt lat="48.85819" lon="2.35912">
        <ele>41</ele>
        <time>2022-02-16T10:09:55.158Z</time>
      </trkpt>
      <trkpt lat="48.85815" lon="2.3591">
        <ele>41</ele>
        <time>2022-02-16T10:10:00.158Z</time>
      </trkpt>
      <trkpt lat="48.85809" lon="2.35907">
        <ele>41</ele>
        <time>2022-02-16T10:10:04.162Z</time>
      </trkpt>
      <trkpt lat="48.85804" lon="2.35904">
        <ele>41</ele>
        <time>2022-02-16T10:10:09.167Z</time>
      </trkpt>
      <trkpt lat="48.85801" lon="2.359">
        <ele>42</ele>
        <time>2022-02-16T10:10:14.169Z</time>
      </trkpt>
      <trkpt lat="48.85797" lon="2.35895">
        <ele>42</ele>
        <time>2022-02-16T10:10:19.165Z</time>
      </trkpt>
      <trkpt lat="48.85792" lon="2.35894">
        <ele>42</ele>
        <time>2022-02-16T10:10:24.167Z</time>
      </trkpt>
      <trkpt lat="48.8579" lon="2.35891">
        <ele>42</ele>
        <time>2022-02-16T10:12:13.166Z</time>
      </trkpt>
      <trkpt lat="48.8579" lon="2.35888">
        <ele>42</ele>
        <time>2022-02-16T10:12:18.150Z</time>
      </trkpt>
      <trkpt lat="48.85789" lon="2.35884">
        <ele>42</ele>
        <time>2022-02-16T10:12:23.160Z</time>
      </trkpt>
      <trkpt lat="48.85789" lon="2.35877">
        <ele>42</ele>
        <time>2022-02-16T10:12:27.163Z</time>
      </trkpt>
      <trkpt lat="48.8579" lon="2.3587">
        <ele>43</ele>
        <time>2022-02-16T10:12:32.159Z</time>
      </trkpt>
      <trkpt lat="48.8579" lon="2.35869">
        <ele>43</ele>
        <time>2022-02-16T10:12:55.164Z</time>
      </trkpt>
      <trkpt lat="48.85789" lon="2.35868">
        <ele>43</ele>
        <time>2022-02-16T10:12:59.169Z</time>
      </trkpt>
      <trkpt lat="48.85785" lon="2.35862">
        <ele>43</ele>
        <time>2022-02-16T10:13:03.175Z</time>
      </trkpt>
      <trkpt lat="48.8578" lon="2.35856">
        <ele>43</ele>
        <time>2022-02-16T10:13:08.159Z</time>
      </trkpt>
      <trkpt lat="48.85776" lon="2.35852">
        <ele>43</ele>
        <time>2022-02-16T10:13:12.160Z</time>
      </trkpt>
      <trkpt lat="48.85774" lon="2.35846">
        <ele>45</ele>
        <time>2022-02-16T10:13:16.156Z</time>
      </trkpt>
      <trkpt lat="48.85772" lon="2.3584">
        <ele>45</ele>
        <time>2022-02-16T10:13:21.162Z</time>
      </trkpt>
      <trkpt lat="48.8577" lon="2.35833">
        <ele>45</ele>
        <time>2022-02-16T10:13:26.158Z</time>
      </trkpt>
      <trkpt lat="48.85772" lon="2.35828">
        <ele>45</ele>
        <time>2022-02-16T10:13:30.166Z</time>
      </trkpt>
      <trkpt lat="48.85775" lon="2.35823">
        <ele>45</ele>
        <time>2022-02-16T10:13:35.152Z</time>
      </trkpt>
      <trkpt lat="48.85779" lon="2.3582">
        <ele>45</ele>
        <time>2022-02-16T10:13:39.165Z</time>
      </trkpt>
      <trkpt lat="48.85783" lon="2.35818">
        <ele>47</ele>
        <time>2022-02-16T10:13:44.169Z</time>
      </trkpt>
      <trkpt lat="48.85785" lon="2.35813">
        <ele>47</ele>
        <time>2022-02-16T10:13:49.169Z</time>
      </trkpt>
      <trkpt lat="48.85787" lon="2.35807">
        <ele>47</ele>
        <time>2022-02-16T10:13:54.166Z</time>
      </trkpt>
      <trkpt lat="48.85787" lon="2.35799">
        <ele>47</ele>
        <time>2022-02-16T10:13:59.156Z</time>
      </trkpt>
      <trkpt lat="48.85784" lon="2.35794">
        <ele>47</ele>
        <time>2022-02-16T10:14:04.160Z</time>
      </trkpt>
      <trkpt lat="48.85783" lon="2.35788">
        <ele>47</ele>
        <time>2022-02-16T10:14:08.170Z</time>
      </trkpt>
      <trkpt lat="48.85781" lon="2.35787">
        <ele>47</ele>
        <time>2022-02-16T10:14:13.164Z</time>
      </trkpt>
      <trkpt lat="48.85778" lon="2.35786">
        <ele>47</ele>
        <time>2022-02-16T10:14:18.157Z</time>
      </trkpt>
      <trkpt lat="48.85775" lon="2.35783">
        <ele>47</ele>
        <time>2022-02-16T10:14:22.163Z</time>
      </trkpt>
      <trkpt lat="48.85772" lon="2.35779">
        <ele>47</ele>
        <time>2022-02-16T10:14:27.161Z</time>
      </trkpt>
      <trkpt lat="48.85767" lon="2.35774">
        <ele>47</ele>
        <time>2022-02-16T10:14:32.152Z</time>
      </trkpt>
      <trkpt lat="48.85764" lon="2.35771">
        <ele>47</ele>
        <time>2022-02-16T10:14:36.168Z</time>
      </trkpt>
      <trkpt lat="48.8576" lon="2.35767">
        <ele>48</ele>
        <time>2022-02-16T10:14:41.171Z</time>
      </trkpt>
      <trkpt lat="48.85755" lon="2.35762">
        <ele>48</ele>
        <time>2022-02-16T10:14:46.164Z</time>
      </trkpt>
      <trkpt lat="48.85744" lon="2.35745">
        <ele>48</ele>
        <time>2022-02-16T10:15:09.167Z</time>
      </trkpt>
      <trkpt lat="48.85742" lon="2.35743">
        <ele>48</ele>
        <time>2022-02-16T10:15:14.161Z</time>
      </trkpt>
      <trkpt lat="48.85739" lon="2.35739">
        <ele>48</ele>
        <time>2022-02-16T10:15:19.163Z</time>
      </trkpt>
      <trkpt lat="48.85734" lon="2.35736">
        <ele>47</ele>
        <time>2022-02-16T10:15:24.155Z</time>
      </trkpt>
      <trkpt lat="48.85729" lon="2.35739">
        <ele>48</ele>
        <time>2022-02-16T10:15:28.153Z</time>
      </trkpt>
      <trkpt lat="48.85726" lon="2.35744">
        <ele>48</ele>
        <time>2022-02-16T10:15:32.152Z</time>
      </trkpt>
      <trkpt lat="48.85724" lon="2.35751">
        <ele>48</ele>
        <time>2022-02-16T10:15:37.150Z</time>
      </trkpt>
      <trkpt lat="48.85722" lon="2.35757">
        <ele>48</ele>
        <time>2022-02-16T10:15:41.161Z</time>
      </trkpt>
      <trkpt lat="48.85719" lon="2.35764">
        <ele>49</ele>
        <time>2022-02-16T10:15:46.157Z</time>
      </trkpt>
      <trkpt lat="48.85717" lon="2.3577">
        <ele>49</ele>
        <time>2022-02-16T10:15:50.158Z</time>
      </trkpt>
      <trkpt lat="48.85715" lon="2.35775">
        <ele>49</ele>
        <time>2022-02-16T10:15:54.178Z</time>
      </trkpt>
      <trkpt lat="48.85712" lon="2.35783">
        <ele>49</ele>
        <time>2022-02-16T10:15:59.148Z</time>
      </trkpt>
      <trkpt lat="48.85714" lon="2.35788">
        <ele>49</ele>
        <time>2022-02-16T10:16:03.158Z</time>
      </trkpt>
      <trkpt lat="48.85704" lon="2.35795">
        <ele>51</ele>
        <time>2022-02-16T10:16:08.156Z</time>
      </trkpt>
      <trkpt lat="48.85699" lon="2.358">
        <ele>51</ele>
        <time>2022-02-16T10:16:13.158Z</time>
      </trkpt>
      <trkpt lat="48.85696" lon="2.35808">
        <ele>51</ele>
        <time>2022-02-16T10:16:18.163Z</time>
      </trkpt>
      <trkpt lat="48.85694" lon="2.35812">
        <ele>51</ele>
        <time>2022-02-16T10:16:22.158Z</time>
      </trkpt>
      <trkpt lat="48.85694" lon="2.35813">
        <ele>51</ele>
        <time>2022-02-16T10:17:17.156Z</time>
      </trkpt>
      <trkpt lat="48.85695" lon="2.35813">
        <ele>51</ele>
        <time>2022-02-16T10:17:21.160Z</time>
      </trkpt>
      <trkpt lat="48.85698" lon="2.35806">
        <ele>51</ele>
        <time>2022-02-16T10:17:26.160Z</time>
      </trkpt>
      <trkpt lat="48.85701" lon="2.35801">
        <ele>51</ele>
        <time>2022-02-16T10:17:31.157Z</time>
      </trkpt>
      <trkpt lat="48.85704" lon="2.35799">
        <ele>51</ele>
        <time>2022-02-16T10:17:35.305Z</time>
      </trkpt>
      <trkpt lat="48.85708" lon="2.35792">
        <ele>51</ele>
        <time>2022-02-16T10:17:40.166Z</time>
      </trkpt>
      <trkpt lat="48.85711" lon="2.35787">
        <ele>49</ele>
        <time>2022-02-16T10:17:45.170Z</time>
      </trkpt>
      <trkpt lat="48.85716" lon="2.35779">
        <ele>49</ele>
        <time>2022-02-16T10:17:50.151Z</time>
      </trkpt>
      <trkpt lat="48.85719" lon="2.35772">
        <ele>49</ele>
        <time>2022-02-16T10:17:54.162Z</time>
      </trkpt>
      <trkpt lat="48.85726" lon="2.35773">
        <ele>49</ele>
        <time>2022-02-16T10:17:59.148Z</time>
      </trkpt>
      <trkpt lat="48.85728" lon="2.35764">
        <ele>49</ele>
        <time>2022-02-16T10:18:03.161Z</time>
      </trkpt>
      <trkpt lat="48.85731" lon="2.35757">
        <ele>48</ele>
        <time>2022-02-16T10:18:08.154Z</time>
      </trkpt>
      <trkpt lat="48.85733" lon="2.35753">
        <ele>48</ele>
        <time>2022-02-16T10:18:12.165Z</time>
      </trkpt>
      <trkpt lat="48.85737" lon="2.35752">
        <ele>48</ele>
        <time>2022-02-16T10:18:17.182Z</time>
      </trkpt>
      <trkpt lat="48.8574" lon="2.35753">
        <ele>48</ele>
        <time>2022-02-16T10:18:22.155Z</time>
      </trkpt>
      <trkpt lat="48.85743" lon="2.35754">
        <ele>48</ele>
        <time>2022-02-16T10:18:26.169Z</time>
      </trkpt>
      <trkpt lat="48.85747" lon="2.35759">
        <ele>48</ele>
        <time>2022-02-16T10:18:31.170Z</time>
      </trkpt>
      <trkpt lat="48.85749" lon="2.35765">
        <ele>48</ele>
        <time>2022-02-16T10:18:36.168Z</time>
      </trkpt>
      <trkpt lat="48.85753" lon="2.35771">
        <ele>48</ele>
        <time>2022-02-16T10:18:41.161Z</time>
      </trkpt>
      <trkpt lat="48.85757" lon="2.35775">
        <ele>48</ele>
        <time>2022-02-16T10:18:46.174Z</time>
      </trkpt>
      <trkpt lat="48.85761" lon="2.3578">
        <ele>48</ele>
        <time>2022-02-16T10:18:51.168Z</time>
      </trkpt>
      <trkpt lat="48.85765" lon="2.3578">
        <ele>47</ele>
        <time>2022-02-16T10:18:55.174Z</time>
      </trkpt>
      <trkpt lat="48.85769" lon="2.35783">
        <ele>47</ele>
        <time>2022-02-16T10:19:00.166Z</time>
      </trkpt>
      <trkpt lat="48.85774" lon="2.35786">
        <ele>47</ele>
        <time>2022-02-16T10:19:05.163Z</time>
      </trkpt>
      <trkpt lat="48.85777" lon="2.35789">
        <ele>47</ele>
        <time>2022-02-16T10:19:09.169Z</time>
      </trkpt>
      <trkpt lat="48.85782" lon="2.35792">
        <ele>47</ele>
        <time>2022-02-16T10:19:14.173Z</time>
      </trkpt>
      <trkpt lat="48.85787" lon="2.35794">
        <ele>47</ele>
        <time>2022-02-16T10:19:18.179Z</time>
      </trkpt>
      <trkpt lat="48.85792" lon="2.35797">
        <ele>47</ele>
        <time>2022-02-16T10:19:23.164Z</time>
      </trkpt>
      <trkpt lat="48.85796" lon="2.358">
        <ele>47</ele>
        <time>2022-02-16T10:19:27.170Z</time>
      </trkpt>
      <trkpt lat="48.858" lon="2.35805">
        <ele>47</ele>
        <time>2022-02-16T10:19:32.173Z</time>
      </trkpt>
      <trkpt lat="48.85805" lon="2.35809">
        <ele>47</ele>
        <time>2022-02-16T10:19:37.172Z</time>
      </trkpt>
      <trkpt lat="48.8581" lon="2.35813">
        <ele>47</ele>
        <time>2022-02-16T10:19:42.169Z</time>
      </trkpt>
      <trkpt lat="48.85814" lon="2.35814">
        <ele>47</ele>
        <time>2022-02-16T10:19:46.188Z</time>
      </trkpt>
      <trkpt lat="48.85814" lon="2.35814">
        <ele>47</ele>
        <time>2022-02-16T10:19:51.279Z</time>
      </trkpt>
      <trkpt lat="48.85815" lon="2.35818">
        <ele>47</ele>
        <time>2022-02-16T10:19:56.169Z</time>
      </trkpt>
      <trkpt lat="48.85817" lon="2.35823">
        <ele>45</ele>
        <time>2022-02-16T10:20:01.168Z</time>
      </trkpt>
      <trkpt lat="48.8582" lon="2.35827">
        <ele>43</ele>
        <time>2022-02-16T10:20:05.171Z</time>
      </trkpt>
      <trkpt lat="48.85825" lon="2.35831">
        <ele>43</ele>
        <time>2022-02-16T10:20:10.171Z</time>
      </trkpt>
      <trkpt lat="48.85831" lon="2.35836">
        <ele>43</ele>
        <time>2022-02-16T10:20:14.172Z</time>
      </trkpt>
      <trkpt lat="48.85835" lon="2.35842">
        <ele>43</ele>
        <time>2022-02-16T10:20:19.171Z</time>
      </trkpt>
      <trkpt lat="48.85839" lon="2.35847">
        <ele>43</ele>
        <time>2022-02-16T10:20:24.159Z</time>
      </trkpt>
      <trkpt lat="48.85841" lon="2.3585">
        <ele>43</ele>
        <time>2022-02-16T10:20:28.165Z</time>
      </trkpt>
      <trkpt lat="48.85842" lon="2.35856">
        <ele>43</ele>
        <time>2022-02-16T10:20:32.166Z</time>
      </trkpt>
      <trkpt lat="48.85846" lon="2.35859">
        <ele>43</ele>
        <time>2022-02-16T10:20:37.157Z</time>
      </trkpt>
      <trkpt lat="48.85849" lon="2.35864">
        <ele>41</ele>
        <time>2022-02-16T10:20:41.157Z</time>
      </trkpt>
      <trkpt lat="48.85854" lon="2.35868">
        <ele>41</ele>
        <time>2022-02-16T10:20:56.167Z</time>
      </trkpt>
      <trkpt lat="48.85854" lon="2.35868">
        <ele>41</ele>
        <time>2022-02-16T10:21:01.156Z</time>
      </trkpt>
      <trkpt lat="48.85853" lon="2.35867">
        <ele>41</ele>
        <time>2022-02-16T10:21:05.164Z</time>
      </trkpt>
      <trkpt lat="48.85849" lon="2.3586">
        <ele>41</ele>
        <time>2022-02-16T10:21:10.169Z</time>
      </trkpt>
      <trkpt lat="48.85845" lon="2.35859">
        <ele>43</ele>
        <time>2022-02-16T10:21:15.163Z</time>
      </trkpt>
      <trkpt lat="48.85842" lon="2.3586">
        <ele>43</ele>
        <time>2022-02-16T10:21:19.174Z</time>
      </trkpt>
      <trkpt lat="48.85841" lon="2.35857">
        <ele>43</ele>
        <time>2022-02-16T10:21:24.167Z</time>
      </trkpt>
      <trkpt lat="48.85838" lon="2.3585">
        <ele>43</ele>
        <time>2022-02-16T10:21:29.156Z</time>
      </trkpt>
      <trkpt lat="48.85839" lon="2.35846">
        <ele>43</ele>
        <time>2022-02-16T10:21:33.166Z</time>
      </trkpt>
      <trkpt lat="48.8584" lon="2.3584">
        <ele>43</ele>
        <time>2022-02-16T10:21:37.166Z</time>
      </trkpt>
      <trkpt lat="48.8584" lon="2.35832">
        <ele>43</ele>
        <time>2022-02-16T10:21:42.152Z</time>
      </trkpt>
      <trkpt lat="48.8584" lon="2.35826">
        <ele>43</ele>
        <time>2022-02-16T10:21:46.161Z</time>
      </trkpt>
      <trkpt lat="48.85843" lon="2.35821">
        <ele>43</ele>
        <time>2022-02-16T10:21:50.161Z</time>
      </trkpt>
      <trkpt lat="48.85845" lon="2.35815">
        <ele>44</ele>
        <time>2022-02-16T10:21:54.169Z</time>
      </trkpt>
      <trkpt lat="48.85848" lon="2.35809">
        <ele>41</ele>
        <time>2022-02-16T10:21:59.188Z</time>
      </trkpt>
      <trkpt lat="48.85851" lon="2.35803">
        <ele>41</ele>
        <time>2022-02-16T10:22:04.164Z</time>
      </trkpt>
      <trkpt lat="48.85854" lon="2.35797">
        <ele>41</ele>
        <time>2022-02-16T10:22:08.169Z</time>
      </trkpt>
      <trkpt lat="48.85857" lon="2.35792">
        <ele>41</ele>
        <time>2022-02-16T10:22:13.173Z</time>
      </trkpt>
      <trkpt lat="48.8586" lon="2.35785">
        <ele>41</ele>
        <time>2022-02-16T10:22:18.164Z</time>
      </trkpt>
      <trkpt lat="48.85863" lon="2.35778">
        <ele>41</ele>
        <time>2022-02-16T10:22:23.155Z</time>
      </trkpt>
      <trkpt lat="48.85866" lon="2.35772">
        <ele>41</ele>
        <time>2022-02-16T10:22:27.171Z</time>
      </trkpt>
      <trkpt lat="48.85869" lon="2.35766">
        <ele>41</ele>
        <time>2022-02-16T10:22:31.177Z</time>
      </trkpt>
      <trkpt lat="48.85872" lon="2.35759">
        <ele>44</ele>
        <time>2022-02-16T10:22:36.171Z</time>
      </trkpt>
      <trkpt lat="48.85875" lon="2.35754">
        <ele>44</ele>
        <time>2022-02-16T10:22:40.181Z</time>
      </trkpt>
      <trkpt lat="48.8588" lon="2.35749">
        <ele>44</ele>
        <time>2022-02-16T10:22:45.172Z</time>
      </trkpt>
      <trkpt lat="48.85883" lon="2.35743">
        <ele>44</ele>
        <time>2022-02-16T10:22:50.170Z</time>
      </trkpt>
      <trkpt lat="48.85887" lon="2.35737">
        <ele>44</ele>
        <time>2022-02-16T10:22:55.181Z</time>
      </trkpt>
      <trkpt lat="48.8589" lon="2.3573">
        <ele>46</ele>
        <time>2022-02-16T10:23:00.158Z</time>
      </trkpt>
      <trkpt lat="48.85892" lon="2.35725">
        <ele>46</ele>
        <time>2022-02-16T10:23:04.164Z</time>
      </trkpt>
      <trkpt lat="48.85893" lon="2.3572">
        <ele>46</ele>
        <time>2022-02-16T10:23:08.161Z</time>
      </trkpt>
      <trkpt lat="48.85896" lon="2.35714">
        <ele>46</ele>
        <time>2022-02-16T10:23:12.170Z</time>
      </trkpt>
      <trkpt lat="48.85898" lon="2.35708">
        <ele>49</ele>
        <time>2022-02-16T10:23:17.152Z</time>
      </trkpt>
      <trkpt lat="48.85904" lon="2.35706">
        <ele>46</ele>
        <time>2022-02-16T10:23:21.162Z</time>
      </trkpt>
      <trkpt lat="48.8591" lon="2.35705">
        <ele>46</ele>
        <time>2022-02-16T10:23:44.174Z</time>
      </trkpt>
      <trkpt lat="48.85905" lon="2.35706">
        <ele>46</ele>
        <time>2022-02-16T10:23:49.170Z</time>
      </trkpt>
      <trkpt lat="48.85899" lon="2.35704">
        <ele>49</ele>
        <time>2022-02-16T10:23:54.161Z</time>
      </trkpt>
      <trkpt lat="48.85895" lon="2.35707">
        <ele>49</ele>
        <time>2022-02-16T10:23:59.152Z</time>
      </trkpt>
      <trkpt lat="48.85889" lon="2.35704">
        <ele>49</ele>
        <time>2022-02-16T10:24:04.159Z</time>
      </trkpt>
      <trkpt lat="48.85895" lon="2.35691">
        <ele>49</ele>
        <time>2022-02-16T10:24:09.162Z</time>
      </trkpt>
      <trkpt lat="48.85892" lon="2.35699">
        <ele>49</ele>
        <time>2022-02-16T10:24:14.155Z</time>
      </trkpt>
      <trkpt lat="48.85889" lon="2.35697">
        <ele>49</ele>
        <time>2022-02-16T10:24:18.161Z</time>
      </trkpt>
      <trkpt lat="48.85885" lon="2.35692">
        <ele>49</ele>
        <time>2022-02-16T10:24:23.153Z</time>
      </trkpt>
      <trkpt lat="48.85881" lon="2.35687">
        <ele>49</ele>
        <time>2022-02-16T10:24:27.155Z</time>
      </trkpt>
      <trkpt lat="48.85879" lon="2.35683">
        <ele>49</ele>
        <time>2022-02-16T10:24:31.166Z</time>
      </trkpt>
      <trkpt lat="48.85875" lon="2.35675">
        <ele>47</ele>
        <time>2022-02-16T10:24:35.172Z</time>
      </trkpt>
      <trkpt lat="48.85868" lon="2.35671">
        <ele>47</ele>
        <time>2022-02-16T10:24:40.159Z</time>
      </trkpt>
      <trkpt lat="48.85864" lon="2.35666">
        <ele>47</ele>
        <time>2022-02-16T10:24:44.168Z</time>
      </trkpt>
      <trkpt lat="48.85861" lon="2.35665">
        <ele>47</ele>
        <time>2022-02-16T10:24:48.168Z</time>
      </trkpt>
      <trkpt lat="48.85868" lon="2.35667">
        <ele>47</ele>
        <time>2022-02-16T10:24:53.150Z</time>
      </trkpt>
      <trkpt lat="48.85869" lon="2.3566">
        <ele>47</ele>
        <time>2022-02-16T10:24:57.170Z</time>
      </trkpt>
      <trkpt lat="48.85871" lon="2.35657">
        <ele>47</ele>
        <time>2022-02-16T10:25:02.159Z</time>
      </trkpt>
      <trkpt lat="48.85871" lon="2.35658">
        <ele>47</ele>
        <time>2022-02-16T10:25:11.153Z</time>
      </trkpt>
      <trkpt lat="48.85868" lon="2.35655">
        <ele>47</ele>
        <time>2022-02-16T10:25:16.156Z</time>
      </trkpt>
      <trkpt lat="48.85865" lon="2.35651">
        <ele>47</ele>
        <time>2022-02-16T10:25:20.163Z</time>
      </trkpt>
      <trkpt lat="48.85865" lon="2.3565">
        <ele>47</ele>
        <time>2022-02-16T10:25:25.147Z</time>
      </trkpt>
      <trkpt lat="48.85862" lon="2.35647">
        <ele>47</ele>
        <time>2022-02-16T10:25:30.150Z</time>
      </trkpt>
      <trkpt lat="48.85863" lon="2.35644">
        <ele>47</ele>
        <time>2022-02-16T10:25:35.151Z</time>
      </trkpt>
      <trkpt lat="48.85869" lon="2.3565">
        <ele>47</ele>
        <time>2022-02-16T10:25:40.160Z</time>
      </trkpt>
      <trkpt lat="48.85873" lon="2.35646">
        <ele>47</ele>
        <time>2022-02-16T10:25:45.153Z</time>
      </trkpt>
      <trkpt lat="48.85875" lon="2.35645">
        <ele>48</ele>
        <time>2022-02-16T10:25:49.159Z</time>
      </trkpt>
      <trkpt lat="48.85875" lon="2.35645">
        <ele>47</ele>
        <time>2022-02-16T10:26:50.148Z</time>
      </trkpt>
      <trkpt lat="48.85875" lon="2.35645">
        <ele>47</ele>
        <time>2022-02-16T10:26:55.152Z</time>
      </trkpt>
      <trkpt lat="48.85875" lon="2.35645">
        <ele>47</ele>
        <time>2022-02-16T10:26:59.152Z</time>
      </trkpt>
      <trkpt lat="48.85875" lon="2.3565">
        <ele>48</ele>
        <time>2022-02-16T10:27:04.162Z</time>
      </trkpt>
      <trkpt lat="48.8587" lon="2.35655">
        <ele>47</ele>
        <time>2022-02-16T10:27:09.156Z</time>
      </trkpt>
      <trkpt lat="48.85868" lon="2.35653">
        <ele>47</ele>
        <time>2022-02-16T10:27:14.152Z</time>
      </trkpt>
      <trkpt lat="48.85867" lon="2.35656">
        <ele>47</ele>
        <time>2022-02-16T10:27:18.151Z</time>
      </trkpt>
      <trkpt lat="48.85869" lon="2.35663">
        <ele>47</ele>
        <time>2022-02-16T10:27:23.166Z</time>
      </trkpt>
      <trkpt lat="48.8587" lon="2.35667">
        <ele>47</ele>
        <time>2022-02-16T10:27:28.156Z</time>
      </trkpt>
      <trkpt lat="48.85874" lon="2.35672">
        <ele>47</ele>
        <time>2022-02-16T10:27:33.152Z</time>
      </trkpt>
      <trkpt lat="48.85899" lon="2.35692">
        <ele>49</ele>
        <time>2022-02-16T10:27:37.146Z</time>
      </trkpt>
      <trkpt lat="48.85904" lon="2.35692">
        <ele>46</ele>
        <time>2022-02-16T10:27:42.151Z</time>
      </trkpt>
      <trkpt lat="48.85905" lon="2.3569">
        <ele>46</ele>
        <time>2022-02-16T10:27:46.170Z</time>
      </trkpt>
      <trkpt lat="48.85912" lon="2.35683">
        <ele>46</ele>
        <time>2022-02-16T10:27:51.155Z</time>
      </trkpt>
      <trkpt lat="48.85918" lon="2.35677">
        <ele>45</ele>
        <time>2022-02-16T10:27:56.152Z</time>
      </trkpt>
      <trkpt lat="48.85919" lon="2.35675">
        <ele>45</ele>
        <time>2022-02-16T10:28:00.156Z</time>
      </trkpt>
      <trkpt lat="48.85915" lon="2.35669">
        <ele>45</ele>
        <time>2022-02-16T10:28:05.161Z</time>
      </trkpt>
      <trkpt lat="48.85922" lon="2.35666">
        <ele>45</ele>
        <time>2022-02-16T10:28:10.158Z</time>
      </trkpt>
      <trkpt lat="48.85926" lon="2.35663">
        <ele>45</ele>
        <time>2022-02-16T10:28:14.162Z</time>
      </trkpt>
      <trkpt lat="48.85929" lon="2.35656">
        <ele>45</ele>
        <time>2022-02-16T10:28:19.164Z</time>
      </trkpt>
      <trkpt lat="48.85931" lon="2.35648">
        <ele>43</ele>
        <time>2022-02-16T10:28:24.165Z</time>
      </trkpt>
      <trkpt lat="48.85935" lon="2.35645">
        <ele>43</ele>
        <time>2022-02-16T10:28:29.149Z</time>
      </trkpt>
      <trkpt lat="48.85936" lon="2.35645">
        <ele>43</ele>
        <time>2022-02-16T10:28:33.165Z</time>
      </trkpt>
      <trkpt lat="48.85939" lon="2.35644">
        <ele>43</ele>
        <time>2022-02-16T10:28:37.170Z</time>
      </trkpt>
      <trkpt lat="48.85941" lon="2.35637">
        <ele>43</ele>
        <time>2022-02-16T10:28:42.165Z</time>
      </trkpt>
      <trkpt lat="48.85943" lon="2.35634">
        <ele>43</ele>
        <time>2022-02-16T10:28:46.171Z</time>
      </trkpt>
      <trkpt lat="48.85945" lon="2.35634">
        <ele>43</ele>
        <time>2022-02-16T10:28:51.161Z</time>
      </trkpt>
      <trkpt lat="48.85945" lon="2.35637">
        <ele>43</ele>
        <time>2022-02-16T10:28:55.297Z</time>
      </trkpt>
      <trkpt lat="48.85945" lon="2.35641">
        <ele>43</ele>
        <time>2022-02-16T10:29:00.176Z</time>
      </trkpt>
      <trkpt lat="48.85949" lon="2.35644">
        <ele>43</ele>
        <time>2022-02-16T10:29:05.163Z</time>
      </trkpt>
      <trkpt lat="48.85952" lon="2.35645">
        <ele>43</ele>
        <time>2022-02-16T10:29:09.169Z</time>
      </trkpt>
      <trkpt lat="48.85955" lon="2.35649">
        <ele>43</ele>
        <time>2022-02-16T10:29:14.164Z</time>
      </trkpt>
      <trkpt lat="48.8596" lon="2.35653">
        <ele>44</ele>
        <time>2022-02-16T10:29:19.160Z</time>
      </trkpt>
      <trkpt lat="48.85965" lon="2.35656">
        <ele>44</ele>
        <time>2022-02-16T10:29:24.168Z</time>
      </trkpt>
      <trkpt lat="48.8597" lon="2.35653">
        <ele>44</ele>
        <time>2022-02-16T10:29:29.168Z</time>
      </trkpt>
      <trkpt lat="48.85974" lon="2.35655">
        <ele>44</ele>
        <time>2022-02-16T10:29:34.166Z</time>
      </trkpt>
      <trkpt lat="48.85978" lon="2.35658">
        <ele>44</ele>
        <time>2022-02-16T10:29:39.166Z</time>
      </trkpt>
      <trkpt lat="48.85983" lon="2.35662">
        <ele>44</ele>
        <time>2022-02-16T10:29:44.164Z</time>
      </trkpt>
      <trkpt lat="48.85988" lon="2.35665">
        <ele>43</ele>
        <time>2022-02-16T10:29:49.169Z</time>
      </trkpt>
      <trkpt lat="48.85992" lon="2.35669">
        <ele>43</ele>
        <time>2022-02-16T10:29:54.162Z</time>
      </trkpt>
      <trkpt lat="48.85996" lon="2.35675">
        <ele>43</ele>
        <time>2022-02-16T10:29:58.171Z</time>
      </trkpt>
      <trkpt lat="48.85999" lon="2.3568">
        <ele>43</ele>
        <time>2022-02-16T10:30:02.182Z</time>
      </trkpt>
      <trkpt lat="48.86" lon="2.35686">
        <ele>43</ele>
        <time>2022-02-16T10:30:07.166Z</time>
      </trkpt>
      <trkpt lat="48.86007" lon="2.35698">
        <ele>43</ele>
        <time>2022-02-16T10:31:13.317Z</time>
      </trkpt>
      <trkpt lat="48.86008" lon="2.35699">
        <ele>43</ele>
        <time>2022-02-16T10:31:18.157Z</time>
      </trkpt>
      <trkpt lat="48.8601" lon="2.357">
        <ele>43</ele>
        <time>2022-02-16T10:31:22.163Z</time>
      </trkpt>
      <trkpt lat="48.86014" lon="2.35703">
        <ele>43</ele>
        <time>2022-02-16T10:31:26.165Z</time>
      </trkpt>
      <trkpt lat="48.8602" lon="2.35708">
        <ele>42</ele>
        <time>2022-02-16T10:31:31.172Z</time>
      </trkpt>
      <trkpt lat="48.86025" lon="2.35713">
        <ele>41</ele>
        <time>2022-02-16T10:31:36.159Z</time>
      </trkpt>
      <trkpt lat="48.8603" lon="2.35719">
        <ele>41</ele>
        <time>2022-02-16T10:31:41.162Z</time>
      </trkpt>
      <trkpt lat="48.86035" lon="2.35723">
        <ele>41</ele>
        <time>2022-02-16T10:31:46.155Z</time>
      </trkpt>
      <trkpt lat="48.86039" lon="2.35725">
        <ele>41</ele>
        <time>2022-02-16T10:31:50.164Z</time>
      </trkpt>
      <trkpt lat="48.86044" lon="2.3573">
        <ele>42</ele>
        <time>2022-02-16T10:31:55.151Z</time>
      </trkpt>
      <trkpt lat="48.86048" lon="2.35735">
        <ele>42</ele>
        <time>2022-02-16T10:31:59.164Z</time>
      </trkpt>
      <trkpt lat="48.86053" lon="2.35738">
        <ele>41</ele>
        <time>2022-02-16T10:32:03.173Z</time>
      </trkpt>
      <trkpt lat="48.86056" lon="2.35745">
        <ele>41</ele>
        <time>2022-02-16T10:32:08.175Z</time>
      </trkpt>
      <trkpt lat="48.86059" lon="2.3575">
        <ele>41</ele>
        <time>2022-02-16T10:32:13.182Z</time>
      </trkpt>
      <trkpt lat="48.86064" lon="2.35754">
        <ele>41</ele>
        <time>2022-02-16T10:32:18.166Z</time>
      </trkpt>
      <trkpt lat="48.8607" lon="2.35748">
        <ele>44</ele>
        <time>2022-02-16T10:32:22.172Z</time>
      </trkpt>
      <trkpt lat="48.86074" lon="2.35744">
        <ele>44</ele>
        <time>2022-02-16T10:32:27.185Z</time>
      </trkpt>
      <trkpt lat="48.86079" lon="2.3575">
        <ele>44</ele>
        <time>2022-02-16T10:32:32.159Z</time>
      </trkpt>
      <trkpt lat="48.86083" lon="2.35753">
        <ele>44</ele>
        <time>2022-02-16T10:32:36.176Z</time>
      </trkpt>
      <trkpt lat="48.86088" lon="2.35757">
        <ele>44</ele>
        <time>2022-02-16T10:32:41.169Z</time>
      </trkpt>
      <trkpt lat="48.86095" lon="2.35759">
        <ele>44</ele>
        <time>2022-02-16T10:32:46.177Z</time>
      </trkpt>
      <trkpt lat="48.86099" lon="2.35759">
        <ele>47</ele>
        <time>2022-02-16T10:32:51.163Z</time>
      </trkpt>
      <trkpt lat="48.86102" lon="2.35762">
        <ele>47</ele>
        <time>2022-02-16T10:32:56.161Z</time>
      </trkpt>
      <trkpt lat="48.86105" lon="2.35768">
        <ele>47</ele>
        <time>2022-02-16T10:33:00.170Z</time>
      </trkpt>
      <trkpt lat="48.86108" lon="2.35773">
        <ele>47</ele>
        <time>2022-02-16T10:33:04.176Z</time>
      </trkpt>
      <trkpt lat="48.86112" lon="2.35779">
        <ele>47</ele>
        <time>2022-02-16T10:33:09.165Z</time>
      </trkpt>
      <trkpt lat="48.86115" lon="2.35785">
        <ele>47</ele>
        <time>2022-02-16T10:33:13.174Z</time>
      </trkpt>
      <trkpt lat="48.86119" lon="2.35791">
        <ele>47</ele>
        <time>2022-02-16T10:33:18.161Z</time>
      </trkpt>
      <trkpt lat="48.86123" lon="2.35793">
        <ele>45</ele>
        <time>2022-02-16T10:33:22.164Z</time>
      </trkpt>
      <trkpt lat="48.86124" lon="2.35798">
        <ele>45</ele>
        <time>2022-02-16T10:35:27.160Z</time>
      </trkpt>
      <trkpt lat="48.86126" lon="2.35798">
        <ele>47</ele>
        <time>2022-02-16T10:35:32.169Z</time>
      </trkpt>
      <trkpt lat="48.86125" lon="2.35801">
        <ele>45</ele>
        <time>2022-02-16T10:35:37.154Z</time>
      </trkpt>
      <trkpt lat="48.86122" lon="2.3581">
        <ele>45</ele>
        <time>2022-02-16T10:35:42.152Z</time>
      </trkpt>
      <trkpt lat="48.8612" lon="2.35816">
        <ele>45</ele>
        <time>2022-02-16T10:35:46.154Z</time>
      </trkpt>
      <trkpt lat="48.86119" lon="2.35821">
        <ele>45</ele>
        <time>2022-02-16T10:36:09.164Z</time>
      </trkpt>
      <trkpt lat="48.86119" lon="2.35821">
        <ele>45</ele>
        <time>2022-02-16T10:36:14.165Z</time>
      </trkpt>
      <trkpt lat="48.86118" lon="2.35823">
        <ele>45</ele>
        <time>2022-02-16T10:36:19.176Z</time>
      </trkpt>
      <trkpt lat="48.86114" lon="2.35826">
        <ele>45</ele>
        <time>2022-02-16T10:36:24.167Z</time>
      </trkpt>
      <trkpt lat="48.86111" lon="2.3583">
        <ele>45</ele>
        <time>2022-02-16T10:36:28.173Z</time>
      </trkpt>
      <trkpt lat="48.86108" lon="2.35834">
        <ele>45</ele>
        <time>2022-02-16T10:36:33.165Z</time>
      </trkpt>
      <trkpt lat="48.86105" lon="2.35838">
        <ele>45</ele>
        <time>2022-02-16T10:36:37.169Z</time>
      </trkpt>
      <trkpt lat="48.86101" lon="2.35843">
        <ele>45</ele>
        <time>2022-02-16T10:36:42.160Z</time>
      </trkpt>
      <trkpt lat="48.86099" lon="2.35848">
        <ele>44</ele>
        <time>2022-02-16T10:36:46.169Z</time>
      </trkpt>
      <trkpt lat="48.86097" lon="2.35855">
        <ele>42</ele>
        <time>2022-02-16T10:36:51.171Z</time>
      </trkpt>
      <trkpt lat="48.86095" lon="2.35861">
        <ele>42</ele>
        <time>2022-02-16T10:36:55.172Z</time>
      </trkpt>
      <trkpt lat="48.86092" lon="2.35869">
        <ele>42</ele>
        <time>2022-02-16T10:37:00.170Z</time>
      </trkpt>
      <trkpt lat="48.8609" lon="2.35874">
        <ele>42</ele>
        <time>2022-02-16T10:37:04.184Z</time>
      </trkpt>
      <trkpt lat="48.86087" lon="2.3588">
        <ele>42</ele>
        <time>2022-02-16T10:37:09.168Z</time>
      </trkpt>
      <trkpt lat="48.86083" lon="2.35887">
        <ele>42</ele>
        <time>2022-02-16T10:37:14.161Z</time>
      </trkpt>
      <trkpt lat="48.86081" lon="2.35891">
        <ele>42</ele>
        <time>2022-02-16T10:37:18.171Z</time>
      </trkpt>
      <trkpt lat="48.86076" lon="2.35897">
        <ele>42</ele>
        <time>2022-02-16T10:37:23.167Z</time>
      </trkpt>
      <trkpt lat="48.86073" lon="2.35901">
        <ele>42</ele>
        <time>2022-02-16T10:37:27.169Z</time>
      </trkpt>
      <trkpt lat="48.86072" lon="2.35912">
        <ele>44</ele>
        <time>2022-02-16T10:37:32.175Z</time>
      </trkpt>
      <trkpt lat="48.86071" lon="2.35922">
        <ele>44</ele>
        <time>2022-02-16T10:37:37.169Z</time>
      </trkpt>
      <trkpt lat="48.86068" lon="2.3593">
        <ele>42</ele>
        <time>2022-02-16T10:37:42.155Z</time>
      </trkpt>
      <trkpt lat="48.86066" lon="2.35937">
        <ele>41</ele>
        <time>2022-02-16T10:37:46.170Z</time>
      </trkpt>
      <trkpt lat="48.86063" lon="2.35945">
        <ele>41</ele>
        <time>2022-02-16T10:37:51.162Z</time>
      </trkpt>
      <trkpt lat="48.8606" lon="2.35954">
        <ele>41</ele>
        <time>2022-02-16T10:37:56.158Z</time>
      </trkpt>
      <trkpt lat="48.86057" lon="2.35963">
        <ele>41</ele>
        <time>2022-02-16T10:38:01.157Z</time>
      </trkpt>
      <trkpt lat="48.86056" lon="2.35971">
        <ele>41</ele>
        <time>2022-02-16T10:38:05.169Z</time>
      </trkpt>
      <trkpt lat="48.86058" lon="2.3598">
        <ele>41</ele>
        <time>2022-02-16T10:38:09.182Z</time>
      </trkpt>
      <trkpt lat="48.86063" lon="2.35987">
        <ele>41</ele>
        <time>2022-02-16T10:38:14.163Z</time>
      </trkpt>
      <trkpt lat="48.86066" lon="2.35994">
        <ele>41</ele>
        <time>2022-02-16T10:38:18.171Z</time>
      </trkpt>
      <trkpt lat="48.86071" lon="2.35999">
        <ele>46</ele>
        <time>2022-02-16T10:38:23.173Z</time>
      </trkpt>
      <trkpt lat="48.86075" lon="2.36005">
        <ele>46</ele>
        <time>2022-02-16T10:38:27.172Z</time>
      </trkpt>
      <trkpt lat="48.86079" lon="2.3601">
        <ele>46</ele>
        <time>2022-02-16T10:38:32.177Z</time>
      </trkpt>
      <trkpt lat="48.86085" lon="2.36015">
        <ele>46</ele>
        <time>2022-02-16T10:38:37.155Z</time>
      </trkpt>
      <trkpt lat="48.86089" lon="2.36018">
        <ele>46</ele>
        <time>2022-02-16T10:38:41.188Z</time>
      </trkpt>
      <trkpt lat="48.86093" lon="2.36024">
        <ele>46</ele>
        <time>2022-02-16T10:38:46.165Z</time>
      </trkpt>
      <trkpt lat="48.86099" lon="2.36029">
        <ele>48</ele>
        <time>2022-02-16T10:38:51.170Z</time>
      </trkpt>
      <trkpt lat="48.86102" lon="2.36038">
        <ele>48</ele>
        <time>2022-02-16T10:38:56.157Z</time>
      </trkpt>
      <trkpt lat="48.86111" lon="2.36047">
        <ele>48</ele>
        <time>2022-02-16T10:39:14.156Z</time>
      </trkpt>
      <trkpt lat="48.86113" lon="2.36046">
        <ele>48</ele>
        <time>2022-02-16T10:39:18.170Z</time>
      </trkpt>
      <trkpt lat="48.86117" lon="2.36047">
        <ele>48</ele>
        <time>2022-02-16T10:39:23.172Z</time>
      </trkpt>
      <trkpt lat="48.86118" lon="2.36058">
        <ele>48</ele>
        <time>2022-02-16T10:39:28.162Z</time>
      </trkpt>
      <trkpt lat="48.86119" lon="2.36062">
        <ele>48</ele>
        <time>2022-02-16T10:39:33.161Z</time>
      </trkpt>
      <trkpt lat="48.86118" lon="2.36062">
        <ele>48</ele>
        <time>2022-02-16T10:39:37.171Z</time>
      </trkpt>
      <trkpt lat="48.86118" lon="2.36062">
        <ele>48</ele>
        <time>2022-02-16T10:39:42.161Z</time>
      </trkpt>
      <trkpt lat="48.86121" lon="2.36064">
        <ele>48</ele>
        <time>2022-02-16T10:39:47.163Z</time>
      </trkpt>
      <trkpt lat="48.86124" lon="2.36069">
        <ele>48</ele>
        <time>2022-02-16T10:39:52.155Z</time>
      </trkpt>
      <trkpt lat="48.8613" lon="2.36073">
        <ele>47</ele>
        <time>2022-02-16T10:39:57.155Z</time>
      </trkpt>
      <trkpt lat="48.86134" lon="2.36079">
        <ele>47</ele>
        <time>2022-02-16T10:40:02.164Z</time>
      </trkpt>
      <trkpt lat="48.86138" lon="2.36084">
        <ele>47</ele>
        <time>2022-02-16T10:40:07.193Z</time>
      </trkpt>
      <trkpt lat="48.86137" lon="2.36089">
        <ele>47</ele>
        <time>2022-02-16T10:40:12.153Z</time>
      </trkpt>
      <trkpt lat="48.86141" lon="2.36092">
        <ele>47</ele>
        <time>2022-02-16T10:40:17.154Z</time>
      </trkpt>
      <trkpt lat="48.86147" lon="2.36098">
        <ele>46</ele>
        <time>2022-02-16T10:40:22.158Z</time>
      </trkpt>
      <trkpt lat="48.86157" lon="2.36099">
        <ele>46</ele>
        <time>2022-02-16T10:40:26.160Z</time>
      </trkpt>
      <trkpt lat="48.86165" lon="2.36102">
        <ele>46</ele>
        <time>2022-02-16T10:40:31.162Z</time>
      </trkpt>
      <trkpt lat="48.86169" lon="2.36105">
        <ele>46</ele>
        <time>2022-02-16T10:40:35.158Z</time>
      </trkpt>
      <trkpt lat="48.86175" lon="2.36108">
        <ele>46</ele>
        <time>2022-02-16T10:40:40.156Z</time>
      </trkpt>
      <trkpt lat="48.8618" lon="2.36115">
        <ele>46</ele>
        <time>2022-02-16T10:40:45.158Z</time>
      </trkpt>
      <trkpt lat="48.86185" lon="2.3612">
        <ele>46</ele>
        <time>2022-02-16T10:40:49.162Z</time>
      </trkpt>
      <trkpt lat="48.86188" lon="2.36129">
        <ele>46</ele>
        <time>2022-02-16T10:40:54.153Z</time>
      </trkpt>
      <trkpt lat="48.86192" lon="2.36129">
        <ele>46</ele>
        <time>2022-02-16T10:40:58.156Z</time>
      </trkpt>
      <trkpt lat="48.86199" lon="2.3613">
        <ele>46</ele>
        <time>2022-02-16T10:41:03.153Z</time>
      </trkpt>
      <trkpt lat="48.86202" lon="2.36133">
        <ele>46</ele>
        <time>2022-02-16T10:41:07.163Z</time>
      </trkpt>
      <trkpt lat="48.86205" lon="2.36137">
        <ele>46</ele>
        <time>2022-02-16T10:41:11.172Z</time>
      </trkpt>
      <trkpt lat="48.86209" lon="2.36142">
        <ele>45</ele>
        <time>2022-02-16T10:41:16.166Z</time>
      </trkpt>
      <trkpt lat="48.86213" lon="2.36148">
        <ele>45</ele>
        <time>2022-02-16T10:41:21.177Z</time>
      </trkpt>
      <trkpt lat="48.86217" lon="2.36153">
        <ele>45</ele>
        <time>2022-02-16T10:41:26.155Z</time>
      </trkpt>
      <trkpt lat="48.8622" lon="2.36157">
        <ele>46</ele>
        <time>2022-02-16T10:41:30.159Z</time>
      </trkpt>
      <trkpt lat="48.86225" lon="2.36161">
        <ele>46</ele>
        <time>2022-02-16T10:41:34.174Z</time>
      </trkpt>
      <trkpt lat="48.86226" lon="2.36161">
        <ele>46</ele>
        <time>2022-02-16T10:41:39.155Z</time>
      </trkpt>
      <trkpt lat="48.86226" lon="2.36164">
        <ele>46</ele>
        <time>2022-02-16T10:41:44.159Z</time>
      </trkpt>
      <trkpt lat="48.86228" lon="2.36168">
        <ele>46</ele>
        <time>2022-02-16T10:41:49.166Z</time>
      </trkpt>
      <trkpt lat="48.8623" lon="2.36176">
        <ele>46</ele>
        <time>2022-02-16T10:41:54.157Z</time>
      </trkpt>
      <trkpt lat="48.86231" lon="2.36183">
        <ele>47</ele>
        <time>2022-02-16T10:41:58.169Z</time>
      </trkpt>
      <trkpt lat="48.86236" lon="2.36188">
        <ele>47</ele>
        <time>2022-02-16T10:42:03.162Z</time>
      </trkpt>
      <trkpt lat="48.86239" lon="2.36191">
        <ele>46</ele>
        <time>2022-02-16T10:42:07.162Z</time>
      </trkpt>
      <trkpt lat="48.86238" lon="2.36198">
        <ele>46</ele>
        <time>2022-02-16T10:42:12.165Z</time>
      </trkpt>
      <trkpt lat="48.86239" lon="2.36204">
        <ele>46</ele>
        <time>2022-02-16T10:42:16.171Z</time>
      </trkpt>
      <trkpt lat="48.86243" lon="2.36208">
        <ele>46</ele>
        <time>2022-02-16T10:42:21.170Z</time>
      </trkpt>
      <trkpt lat="48.86246" lon="2.36213">
        <ele>47</ele>
        <time>2022-02-16T10:42:25.170Z</time>
      </trkpt>
      <trkpt lat="48.8625" lon="2.36219">
        <ele>47</ele>
        <time>2022-02-16T10:42:30.165Z</time>
      </trkpt>
      <trkpt lat="48.86254" lon="2.36223">
        <ele>47</ele>
        <time>2022-02-16T10:42:35.160Z</time>
      </trkpt>
      <trkpt lat="48.8626" lon="2.36222">
        <ele>47</ele>
        <time>2022-02-16T10:42:39.165Z</time>
      </trkpt>
      <trkpt lat="48.86267" lon="2.36218">
        <ele>46</ele>
        <time>2022-02-16T10:42:44.157Z</time>
      </trkpt>
      <trkpt lat="48.86273" lon="2.36213">
        <ele>46</ele>
        <time>2022-02-16T10:42:49.168Z</time>
      </trkpt>
      <trkpt lat="48.86272" lon="2.36216">
        <ele>46</ele>
        <time>2022-02-16T10:42:54.161Z</time>
      </trkpt>
      <trkpt lat="48.86276" lon="2.36222">
        <ele>46</ele>
        <time>2022-02-16T10:42:59.152Z</time>
      </trkpt>
      <trkpt lat="48.86282" lon="2.36229">
        <ele>46</ele>
        <time>2022-02-16T10:43:04.153Z</time>
      </trkpt>
      <trkpt lat="48.86286" lon="2.36234">
        <ele>46</ele>
        <time>2022-02-16T10:43:08.158Z</time>
      </trkpt>
      <trkpt lat="48.86287" lon="2.36242">
        <ele>47</ele>
        <time>2022-02-16T10:43:13.157Z</time>
      </trkpt>
      <trkpt lat="48.86287" lon="2.36248">
        <ele>47</ele>
        <time>2022-02-16T10:43:18.158Z</time>
      </trkpt>
      <trkpt lat="48.86287" lon="2.36252">
        <ele>47</ele>
        <time>2022-02-16T10:43:23.164Z</time>
      </trkpt>
      <trkpt lat="48.86288" lon="2.36259">
        <ele>47</ele>
        <time>2022-02-16T10:43:27.161Z</time>
      </trkpt>
      <trkpt lat="48.86289" lon="2.36267">
        <ele>47</ele>
        <time>2022-02-16T10:43:32.153Z</time>
      </trkpt>
      <trkpt lat="48.86295" lon="2.36271">
        <ele>46</ele>
        <time>2022-02-16T10:43:37.156Z</time>
      </trkpt>
      <trkpt lat="48.86298" lon="2.36276">
        <ele>46</ele>
        <time>2022-02-16T10:43:41.161Z</time>
      </trkpt>
      <trkpt lat="48.86299" lon="2.3628">
        <ele>46</ele>
        <time>2022-02-16T10:43:45.159Z</time>
      </trkpt>
      <trkpt lat="48.86303" lon="2.36284">
        <ele>46</ele>
        <time>2022-02-16T10:43:50.158Z</time>
      </trkpt>
      <trkpt lat="48.86307" lon="2.36288">
        <ele>46</ele>
        <time>2022-02-16T10:43:54.167Z</time>
      </trkpt>
      <trkpt lat="48.86312" lon="2.36292">
        <ele>46</ele>
        <time>2022-02-16T10:43:59.164Z</time>
      </trkpt>
      <trkpt lat="48.86315" lon="2.36294">
        <ele>46</ele>
        <time>2022-02-16T10:44:03.159Z</time>
      </trkpt>
      <trkpt lat="48.86319" lon="2.36295">
        <ele>46</ele>
        <time>2022-02-16T10:44:08.163Z</time>
      </trkpt>
      <trkpt lat="48.86323" lon="2.36297">
        <ele>46</ele>
        <time>2022-02-16T10:44:12.169Z</time>
      </trkpt>
      <trkpt lat="48.86328" lon="2.36298">
        <ele>46</ele>
        <time>2022-02-16T10:44:17.173Z</time>
      </trkpt>
      <trkpt lat="48.86332" lon="2.36302">
        <ele>46</ele>
        <time>2022-02-16T10:44:22.166Z</time>
      </trkpt>
      <trkpt lat="48.86336" lon="2.36306">
        <ele>46</ele>
        <time>2022-02-16T10:44:27.152Z</time>
      </trkpt>
      <trkpt lat="48.8634" lon="2.3631">
        <ele>46</ele>
        <time>2022-02-16T10:44:31.163Z</time>
      </trkpt>
      <trkpt lat="48.86344" lon="2.36314">
        <ele>46</ele>
        <time>2022-02-16T10:44:35.165Z</time>
      </trkpt>
      <trkpt lat="48.86348" lon="2.36322">
        <ele>45</ele>
        <time>2022-02-16T10:44:40.164Z</time>
      </trkpt>
      <trkpt lat="48.86353" lon="2.36324">
        <ele>45</ele>
        <time>2022-02-16T10:44:44.170Z</time>
      </trkpt>
      <trkpt lat="48.86358" lon="2.36329">
        <ele>45</ele>
        <time>2022-02-16T10:44:49.158Z</time>
      </trkpt>
      <trkpt lat="48.86361" lon="2.36333">
        <ele>45</ele>
        <time>2022-02-16T10:44:53.167Z</time>
      </trkpt>
      <trkpt lat="48.86365" lon="2.36338">
        <ele>45</ele>
        <time>2022-02-16T10:44:57.183Z</time>
      </trkpt>
      <trkpt lat="48.8637" lon="2.36341">
        <ele>45</ele>
        <time>2022-02-16T10:45:02.161Z</time>
      </trkpt>
      <trkpt lat="48.86373" lon="2.36347">
        <ele>45</ele>
        <time>2022-02-16T10:45:06.177Z</time>
      </trkpt>
      <trkpt lat="48.86377" lon="2.3635">
        <ele>45</ele>
        <time>2022-02-16T10:45:11.163Z</time>
      </trkpt>
      <trkpt lat="48.86381" lon="2.36354">
        <ele>45</ele>
        <time>2022-02-16T10:45:15.163Z</time>
      </trkpt>
      <trkpt lat="48.86386" lon="2.36359">
        <ele>45</ele>
        <time>2022-02-16T10:45:20.170Z</time>
      </trkpt>
      <trkpt lat="48.86391" lon="2.36366">
        <ele>45</ele>
        <time>2022-02-16T10:45:25.164Z</time>
      </trkpt>
      <trkpt lat="48.86398" lon="2.36373">
        <ele>45</ele>
        <time>2022-02-16T10:45:30.163Z</time>
      </trkpt>
      <trkpt lat="48.86402" lon="2.36379">
        <ele>45</ele>
        <time>2022-02-16T10:45:34.162Z</time>
      </trkpt>
      <trkpt lat="48.86408" lon="2.36384">
        <ele>45</ele>
        <time>2022-02-16T10:45:39.163Z</time>
      </trkpt>
      <trkpt lat="48.86412" lon="2.36388">
        <ele>45</ele>
        <time>2022-02-16T10:45:43.168Z</time>
      </trkpt>
      <trkpt lat="48.86418" lon="2.36392">
        <ele>45</ele>
        <time>2022-02-16T10:45:48.170Z</time>
      </trkpt>
      <trkpt lat="48.86422" lon="2.36395">
        <ele>45</ele>
        <time>2022-02-16T10:45:53.155Z</time>
      </trkpt>
      <trkpt lat="48.86426" lon="2.36398">
        <ele>45</ele>
        <time>2022-02-16T10:45:57.168Z</time>
      </trkpt>
      <trkpt lat="48.86431" lon="2.36403">
        <ele>46</ele>
        <time>2022-02-16T10:46:02.168Z</time>
      </trkpt>
      <trkpt lat="48.86435" lon="2.36409">
        <ele>46</ele>
        <time>2022-02-16T10:46:07.175Z</time>
      </trkpt>
      <trkpt lat="48.86439" lon="2.36413">
        <ele>46</ele>
        <time>2022-02-16T10:46:12.165Z</time>
      </trkpt>
      <trkpt lat="48.86444" lon="2.3642">
        <ele>46</ele>
        <time>2022-02-16T10:46:17.159Z</time>
      </trkpt>
      <trkpt lat="48.86448" lon="2.36424">
        <ele>46</ele>
        <time>2022-02-16T10:46:21.165Z</time>
      </trkpt>
      <trkpt lat="48.86453" lon="2.36429">
        <ele>46</ele>
        <time>2022-02-16T10:46:26.162Z</time>
      </trkpt>
      <trkpt lat="48.86458" lon="2.36434">
        <ele>46</ele>
        <time>2022-02-16T10:46:30.173Z</time>
      </trkpt>
      <trkpt lat="48.86463" lon="2.36454">
        <ele>47</ele>
        <time>2022-02-16T10:50:12.165Z</time>
      </trkpt>
      <trkpt lat="48.86463" lon="2.36454">
        <ele>47</ele>
        <time>2022-02-16T10:50:17.155Z</time>
      </trkpt>
      <trkpt lat="48.86464" lon="2.36454">
        <ele>47</ele>
        <time>2022-02-16T10:50:21.156Z</time>
      </trkpt>
      <trkpt lat="48.86465" lon="2.36455">
        <ele>47</ele>
        <time>2022-02-16T10:50:26.161Z</time>
      </trkpt>
      <trkpt lat="48.86465" lon="2.36458">
        <ele>47</ele>
        <time>2022-02-16T10:50:30.161Z</time>
      </trkpt>
      <trkpt lat="48.86462" lon="2.3645">
        <ele>47</ele>
        <time>2022-02-16T10:50:59.151Z</time>
      </trkpt>
      <trkpt lat="48.86464" lon="2.36448">
        <ele>47</ele>
        <time>2022-02-16T10:51:04.161Z</time>
      </trkpt>
      <trkpt lat="48.86465" lon="2.36443">
        <ele>47</ele>
        <time>2022-02-16T10:51:08.158Z</time>
      </trkpt>
      <trkpt lat="48.86465" lon="2.36432">
        <ele>47</ele>
        <time>2022-02-16T10:51:13.163Z</time>
      </trkpt>
      <trkpt lat="48.86464" lon="2.36422">
        <ele>46</ele>
        <time>2022-02-16T10:51:18.164Z</time>
      </trkpt>
      <trkpt lat="48.86464" lon="2.36416">
        <ele>46</ele>
        <time>2022-02-16T10:51:22.169Z</time>
      </trkpt>
      <trkpt lat="48.86463" lon="2.36407">
        <ele>46</ele>
        <time>2022-02-16T10:51:27.158Z</time>
      </trkpt>
      <trkpt lat="48.86461" lon="2.36399">
        <ele>45</ele>
        <time>2022-02-16T10:51:32.158Z</time>
      </trkpt>
      <trkpt lat="48.86459" lon="2.36392">
        <ele>45</ele>
        <time>2022-02-16T10:51:36.163Z</time>
      </trkpt>
      <trkpt lat="48.86456" lon="2.36385">
        <ele>45</ele>
        <time>2022-02-16T10:51:41.161Z</time>
      </trkpt>
      <trkpt lat="48.86454" lon="2.36377">
        <ele>45</ele>
        <time>2022-02-16T10:51:46.160Z</time>
      </trkpt>
      <trkpt lat="48.86453" lon="2.3637">
        <ele>44</ele>
        <time>2022-02-16T10:51:50.159Z</time>
      </trkpt>
      <trkpt lat="48.86451" lon="2.36364">
        <ele>44</ele>
        <time>2022-02-16T10:51:55.175Z</time>
      </trkpt>
      <trkpt lat="48.86446" lon="2.36359">
        <ele>44</ele>
        <time>2022-02-16T10:52:00.162Z</time>
      </trkpt>
      <trkpt lat="48.86442" lon="2.36354">
        <ele>44</ele>
        <time>2022-02-16T10:52:04.162Z</time>
      </trkpt>
      <trkpt lat="48.86438" lon="2.36352">
        <ele>44</ele>
        <time>2022-02-16T10:52:08.171Z</time>
      </trkpt>
      <trkpt lat="48.86433" lon="2.36347">
        <ele>42</ele>
        <time>2022-02-16T10:52:13.151Z</time>
      </trkpt>
      <trkpt lat="48.8643" lon="2.36342">
        <ele>44</ele>
        <time>2022-02-16T10:52:17.157Z</time>
      </trkpt>
      <trkpt lat="48.86427" lon="2.36337">
        <ele>44</ele>
        <time>2022-02-16T10:52:21.172Z</time>
      </trkpt>
      <trkpt lat="48.86425" lon="2.36332">
        <ele>44</ele>
        <time>2022-02-16T10:52:25.171Z</time>
      </trkpt>
      <trkpt lat="48.86421" lon="2.36325">
        <ele>44</ele>
        <time>2022-02-16T10:52:30.158Z</time>
      </trkpt>
      <trkpt lat="48.86417" lon="2.36322">
        <ele>44</ele>
        <time>2022-02-16T10:52:34.192Z</time>
      </trkpt>
      <trkpt lat="48.86412" lon="2.36319">
        <ele>43</ele>
        <time>2022-02-16T10:52:39.154Z</time>
      </trkpt>
      <trkpt lat="48.86407" lon="2.3631">
        <ele>43</ele>
        <time>2022-02-16T10:52:44.156Z</time>
      </trkpt>
      <trkpt lat="48.86403" lon="2.36302">
        <ele>43</ele>
        <time>2022-02-16T10:52:48.161Z</time>
      </trkpt>
      <trkpt lat="48.86398" lon="2.36296">
        <ele>44</ele>
        <time>2022-02-16T10:52:53.157Z</time>
      </trkpt>
      <trkpt lat="48.86396" lon="2.3629">
        <ele>44</ele>
        <time>2022-02-16T10:52:57.159Z</time>
      </trkpt>
      <trkpt lat="48.86397" lon="2.36285">
        <ele>44</ele>
        <time>2022-02-16T10:53:01.165Z</time>
      </trkpt>
      <trkpt lat="48.864" lon="2.36277">
        <ele>44</ele>
        <time>2022-02-16T10:53:06.156Z</time>
      </trkpt>
      <trkpt lat="48.864" lon="2.3627">
        <ele>44</ele>
        <time>2022-02-16T10:53:11.157Z</time>
      </trkpt>
      <trkpt lat="48.86402" lon="2.36265">
        <ele>44</ele>
        <time>2022-02-16T10:53:15.162Z</time>
      </trkpt>
      <trkpt lat="48.86399" lon="2.36258">
        <ele>43</ele>
        <time>2022-02-16T10:53:20.154Z</time>
      </trkpt>
      <trkpt lat="48.86398" lon="2.36252">
        <ele>43</ele>
        <time>2022-02-16T10:53:24.164Z</time>
      </trkpt>
      <trkpt lat="48.86402" lon="2.36247">
        <ele>43</ele>
        <time>2022-02-16T10:53:28.161Z</time>
      </trkpt>
      <trkpt lat="48.86404" lon="2.36239">
        <ele>41</ele>
        <time>2022-02-16T10:53:33.178Z</time>
      </trkpt>
      <trkpt lat="48.86407" lon="2.36232">
        <ele>41</ele>
        <time>2022-02-16T10:53:38.163Z</time>
      </trkpt>
      <trkpt lat="48.86412" lon="2.36228">
        <ele>41</ele>
        <time>2022-02-16T10:53:42.169Z</time>
      </trkpt>
      <trkpt lat="48.86416" lon="2.36225">
        <ele>41</ele>
        <time>2022-02-16T10:53:46.162Z</time>
      </trkpt>
      <trkpt lat="48.86421" lon="2.36219">
        <ele>41</ele>
        <time>2022-02-16T10:53:51.167Z</time>
      </trkpt>
      <trkpt lat="48.86427" lon="2.36211">
        <ele>41</ele>
        <time>2022-02-16T10:53:56.156Z</time>
      </trkpt>
      <trkpt lat="48.8643" lon="2.36205">
        <ele>42</ele>
        <time>2022-02-16T10:54:01.162Z</time>
      </trkpt>
      <trkpt lat="48.86432" lon="2.362">
        <ele>43</ele>
        <time>2022-02-16T10:54:05.176Z</time>
      </trkpt>
      <trkpt lat="48.86434" lon="2.36194">
        <ele>43</ele>
        <time>2022-02-16T10:54:10.157Z</time>
      </trkpt>
      <trkpt lat="48.86432" lon="2.36187">
        <ele>43</ele>
        <time>2022-02-16T10:54:15.166Z</time>
      </trkpt>
      <trkpt lat="48.86428" lon="2.36179">
        <ele>42</ele>
        <time>2022-02-16T10:54:20.153Z</time>
      </trkpt>
      <trkpt lat="48.86429" lon="2.36173">
        <ele>42</ele>
        <time>2022-02-16T10:54:24.167Z</time>
      </trkpt>
      <trkpt lat="48.86432" lon="2.36167">
        <ele>43</ele>
        <time>2022-02-16T10:54:29.147Z</time>
      </trkpt>
      <trkpt lat="48.86434" lon="2.36165">
        <ele>43</ele>
        <time>2022-02-16T10:54:34.160Z</time>
      </trkpt>
      <trkpt lat="48.86434" lon="2.36157">
        <ele>43</ele>
        <time>2022-02-16T10:54:39.155Z</time>
      </trkpt>
      <trkpt lat="48.86434" lon="2.36151">
        <ele>42</ele>
        <time>2022-02-16T10:54:44.161Z</time>
      </trkpt>
      <trkpt lat="48.86433" lon="2.36146">
        <ele>42</ele>
        <time>2022-02-16T10:54:48.161Z</time>
      </trkpt>
      <trkpt lat="48.86437" lon="2.36142">
        <ele>42</ele>
        <time>2022-02-16T10:54:53.161Z</time>
      </trkpt>
      <trkpt lat="48.8644" lon="2.3614">
        <ele>42</ele>
        <time>2022-02-16T10:54:57.160Z</time>
      </trkpt>
      <trkpt lat="48.86445" lon="2.36136">
        <ele>42</ele>
        <time>2022-02-16T10:55:02.165Z</time>
      </trkpt>
      <trkpt lat="48.86449" lon="2.36129">
        <ele>42</ele>
        <time>2022-02-16T10:55:07.156Z</time>
      </trkpt>
      <trkpt lat="48.86452" lon="2.36124">
        <ele>42</ele>
        <time>2022-02-16T10:55:11.160Z</time>
      </trkpt>
      <trkpt lat="48.86453" lon="2.36117">
        <ele>42</ele>
        <time>2022-02-16T10:55:16.162Z</time>
      </trkpt>
      <trkpt lat="48.86454" lon="2.36116">
        <ele>42</ele>
        <time>2022-02-16T10:55:21.150Z</time>
      </trkpt>
      <trkpt lat="48.86457" lon="2.36112">
        <ele>42</ele>
        <time>2022-02-16T10:55:25.167Z</time>
      </trkpt>
      <trkpt lat="48.86461" lon="2.36105">
        <ele>43</ele>
        <time>2022-02-16T10:55:29.161Z</time>
      </trkpt>
      <trkpt lat="48.86466" lon="2.36097">
        <ele>44</ele>
        <time>2022-02-16T10:55:34.172Z</time>
      </trkpt>
      <trkpt lat="48.86472" lon="2.3609">
        <ele>44</ele>
        <time>2022-02-16T10:55:39.154Z</time>
      </trkpt>
      <trkpt lat="48.86475" lon="2.36083">
        <ele>44</ele>
        <time>2022-02-16T10:55:43.160Z</time>
      </trkpt>
      <trkpt lat="48.86476" lon="2.36073">
        <ele>44</ele>
        <time>2022-02-16T10:55:47.162Z</time>
      </trkpt>
      <trkpt lat="48.86479" lon="2.36064">
        <ele>44</ele>
        <time>2022-02-16T10:55:52.160Z</time>
      </trkpt>
      <trkpt lat="48.86484" lon="2.36061">
        <ele>44</ele>
        <time>2022-02-16T10:56:10.155Z</time>
      </trkpt>
      <trkpt lat="48.86485" lon="2.3606">
        <ele>44</ele>
        <time>2022-02-16T10:56:15.163Z</time>
      </trkpt>
      <trkpt lat="48.86487" lon="2.36056">
        <ele>45</ele>
        <time>2022-02-16T10:56:20.158Z</time>
      </trkpt>
      <trkpt lat="48.86489" lon="2.36049">
        <ele>45</ele>
        <time>2022-02-16T10:56:25.154Z</time>
      </trkpt>
      <trkpt lat="48.86491" lon="2.36043">
        <ele>45</ele>
        <time>2022-02-16T10:56:29.163Z</time>
      </trkpt>
      <trkpt lat="48.86492" lon="2.36036">
        <ele>46</ele>
        <time>2022-02-16T10:56:33.163Z</time>
      </trkpt>
      <trkpt lat="48.86491" lon="2.36026">
        <ele>46</ele>
        <time>2022-02-16T10:56:37.178Z</time>
      </trkpt>
      <trkpt lat="48.86489" lon="2.36016">
        <ele>46</ele>
        <time>2022-02-16T10:56:42.170Z</time>
      </trkpt>
      <trkpt lat="48.86488" lon="2.36009">
        <ele>46</ele>
        <time>2022-02-16T10:56:46.165Z</time>
      </trkpt>
      <trkpt lat="48.8649" lon="2.36">
        <ele>46</ele>
        <time>2022-02-16T10:56:51.165Z</time>
      </trkpt>
      <trkpt lat="48.86486" lon="2.35993">
        <ele>46</ele>
        <time>2022-02-16T10:56:56.164Z</time>
      </trkpt>
      <trkpt lat="48.86482" lon="2.35991">
        <ele>43</ele>
        <time>2022-02-16T10:57:01.157Z</time>
      </trkpt>
      <trkpt lat="48.86479" lon="2.35986">
        <ele>43</ele>
        <time>2022-02-16T10:57:05.161Z</time>
      </trkpt>
      <trkpt lat="48.86476" lon="2.35985">
        <ele>44</ele>
        <time>2022-02-16T10:57:09.172Z</time>
      </trkpt>
      <trkpt lat="48.86473" lon="2.35985">
        <ele>44</ele>
        <time>2022-02-16T10:57:14.169Z</time>
      </trkpt>
      <trkpt lat="48.8647" lon="2.3598">
        <ele>44</ele>
        <time>2022-02-16T10:57:19.161Z</time>
      </trkpt>
      <trkpt lat="48.86469" lon="2.35978">
        <ele>44</ele>
        <time>2022-02-16T10:57:24.163Z</time>
      </trkpt>
      <trkpt lat="48.86472" lon="2.35971">
        <ele>44</ele>
        <time>2022-02-16T10:57:29.161Z</time>
      </trkpt>
      <trkpt lat="48.86477" lon="2.35969">
        <ele>44</ele>
        <time>2022-02-16T10:57:33.166Z</time>
      </trkpt>
      <trkpt lat="48.86477" lon="2.35968">
        <ele>44</ele>
        <time>2022-02-16T10:57:38.159Z</time>
      </trkpt>
      <trkpt lat="48.86477" lon="2.35967">
        <ele>44</ele>
        <time>2022-02-16T10:57:42.171Z</time>
      </trkpt>
      <trkpt lat="48.86482" lon="2.35963">
        <ele>44</ele>
        <time>2022-02-16T10:57:47.160Z</time>
      </trkpt>
      <trkpt lat="48.86484" lon="2.35959">
        <ele>44</ele>
        <time>2022-02-16T10:57:51.164Z</time>
      </trkpt>
      <trkpt lat="48.86487" lon="2.35956">
        <ele>44</ele>
        <time>2022-02-16T10:57:56.170Z</time>
      </trkpt>
      <trkpt lat="48.8649" lon="2.3595">
        <ele>44</ele>
        <time>2022-02-16T10:58:01.162Z</time>
      </trkpt>
      <trkpt lat="48.86493" lon="2.35947">
        <ele>44</ele>
        <time>2022-02-16T10:58:06.155Z</time>
      </trkpt>
      <trkpt lat="48.86496" lon="2.35943">
        <ele>44</ele>
        <time>2022-02-16T10:58:10.165Z</time>
      </trkpt>
      <trkpt lat="48.86498" lon="2.35938">
        <ele>44</ele>
        <time>2022-02-16T10:58:14.168Z</time>
      </trkpt>
      <trkpt lat="48.865" lon="2.3593">
        <ele>44</ele>
        <time>2022-02-16T10:58:19.167Z</time>
      </trkpt>
      <trkpt lat="48.86501" lon="2.35922">
        <ele>44</ele>
        <time>2022-02-16T10:58:23.167Z</time>
      </trkpt>
      <trkpt lat="48.86502" lon="2.35914">
        <ele>44</ele>
        <time>2022-02-16T10:58:28.166Z</time>
      </trkpt>
      <trkpt lat="48.86505" lon="2.35905">
        <ele>44</ele>
        <time>2022-02-16T10:58:33.155Z</time>
      </trkpt>
      <trkpt lat="48.86507" lon="2.35897">
        <ele>44</ele>
        <time>2022-02-16T10:58:37.163Z</time>
      </trkpt>
      <trkpt lat="48.86508" lon="2.35886">
        <ele>44</ele>
        <time>2022-02-16T10:58:42.158Z</time>
      </trkpt>
      <trkpt lat="48.86509" lon="2.35878">
        <ele>44</ele>
        <time>2022-02-16T10:58:47.153Z</time>
      </trkpt>
      <trkpt lat="48.86509" lon="2.35871">
        <ele>45</ele>
        <time>2022-02-16T10:58:51.165Z</time>
      </trkpt>
      <trkpt lat="48.86515" lon="2.3587">
        <ele>46</ele>
        <time>2022-02-16T10:58:55.164Z</time>
      </trkpt>
      <trkpt lat="48.86517" lon="2.35862">
        <ele>46</ele>
        <time>2022-02-16T10:59:00.161Z</time>
      </trkpt>
      <trkpt lat="48.86518" lon="2.35854">
        <ele>46</ele>
        <time>2022-02-16T10:59:04.164Z</time>
      </trkpt>
      <trkpt lat="48.8652" lon="2.35845">
        <ele>46</ele>
        <time>2022-02-16T10:59:09.162Z</time>
      </trkpt>
      <trkpt lat="48.86521" lon="2.35838">
        <ele>46</ele>
        <time>2022-02-16T10:59:13.181Z</time>
      </trkpt>
      <trkpt lat="48.86524" lon="2.35828">
        <ele>46</ele>
        <time>2022-02-16T10:59:18.153Z</time>
      </trkpt>
      <trkpt lat="48.86525" lon="2.3582">
        <ele>46</ele>
        <time>2022-02-16T10:59:22.161Z</time>
      </trkpt>
      <trkpt lat="48.86528" lon="2.3581">
        <ele>46</ele>
        <time>2022-02-16T10:59:27.159Z</time>
      </trkpt>
      <trkpt lat="48.86528" lon="2.358">
        <ele>46</ele>
        <time>2022-02-16T10:59:31.173Z</time>
      </trkpt>
      <trkpt lat="48.8653" lon="2.35791">
        <ele>45</ele>
        <time>2022-02-16T10:59:36.163Z</time>
      </trkpt>
      <trkpt lat="48.86532" lon="2.35782">
        <ele>45</ele>
        <time>2022-02-16T10:59:40.162Z</time>
      </trkpt>
      <trkpt lat="48.86535" lon="2.35774">
        <ele>45</ele>
        <time>2022-02-16T10:59:45.156Z</time>
      </trkpt>
      <trkpt lat="48.86538" lon="2.35768">
        <ele>45</ele>
        <time>2022-02-16T10:59:49.167Z</time>
      </trkpt>
      <trkpt lat="48.86541" lon="2.35759">
        <ele>45</ele>
        <time>2022-02-16T10:59:54.160Z</time>
      </trkpt>
      <trkpt lat="48.86543" lon="2.35752">
        <ele>45</ele>
        <time>2022-02-16T10:59:58.168Z</time>
      </trkpt>
      <trkpt lat="48.86545" lon="2.35741">
        <ele>45</ele>
        <time>2022-02-16T11:00:03.167Z</time>
      </trkpt>
      <trkpt lat="48.86541" lon="2.35724">
        <ele>45</ele>
        <time>2022-02-16T11:00:08.158Z</time>
      </trkpt>
      <trkpt lat="48.86538" lon="2.35713">
        <ele>45</ele>
        <time>2022-02-16T11:00:13.163Z</time>
      </trkpt>
      <trkpt lat="48.86535" lon="2.35704">
        <ele>46</ele>
        <time>2022-02-16T11:00:18.158Z</time>
      </trkpt>
      <trkpt lat="48.86536" lon="2.35698">
        <ele>46</ele>
        <time>2022-02-16T11:00:23.173Z</time>
      </trkpt>
      <trkpt lat="48.86537" lon="2.3569">
        <ele>46</ele>
        <time>2022-02-16T11:00:28.164Z</time>
      </trkpt>
      <trkpt lat="48.86539" lon="2.35684">
        <ele>46</ele>
        <time>2022-02-16T11:00:32.173Z</time>
      </trkpt>
      <trkpt lat="48.8654" lon="2.35676">
        <ele>46</ele>
        <time>2022-02-16T11:00:37.179Z</time>
      </trkpt>
      <trkpt lat="48.86542" lon="2.3567">
        <ele>44</ele>
        <time>2022-02-16T11:00:42.154Z</time>
      </trkpt>
      <trkpt lat="48.86543" lon="2.35664">
        <ele>44</ele>
        <time>2022-02-16T11:00:47.153Z</time>
      </trkpt>
      <trkpt lat="48.86546" lon="2.35663">
        <ele>44</ele>
        <time>2022-02-16T11:00:52.152Z</time>
      </trkpt>
      <trkpt lat="48.86549" lon="2.35657">
        <ele>44</ele>
        <time>2022-02-16T11:00:57.164Z</time>
      </trkpt>
      <trkpt lat="48.86551" lon="2.35643">
        <ele>43</ele>
        <time>2022-02-16T11:01:15.169Z</time>
      </trkpt>
      <trkpt lat="48.86551" lon="2.35643">
        <ele>43</ele>
        <time>2022-02-16T11:01:19.167Z</time>
      </trkpt>
      <trkpt lat="48.86551" lon="2.35642">
        <ele>43</ele>
        <time>2022-02-16T11:01:24.163Z</time>
      </trkpt>
      <trkpt lat="48.86553" lon="2.35642">
        <ele>43</ele>
        <time>2022-02-16T11:01:29.160Z</time>
      </trkpt>
      <trkpt lat="48.86558" lon="2.35633">
        <ele>43</ele>
        <time>2022-02-16T11:01:33.174Z</time>
      </trkpt>
      <trkpt lat="48.86561" lon="2.35625">
        <ele>43</ele>
        <time>2022-02-16T11:01:38.174Z</time>
      </trkpt>
      <trkpt lat="48.86561" lon="2.3562">
        <ele>41</ele>
        <time>2022-02-16T11:01:43.162Z</time>
      </trkpt>
      <trkpt lat="48.86563" lon="2.35611">
        <ele>41</ele>
        <time>2022-02-16T11:01:48.161Z</time>
      </trkpt>
      <trkpt lat="48.86563" lon="2.35603">
        <ele>41</ele>
        <time>2022-02-16T11:01:53.163Z</time>
      </trkpt>
      <trkpt lat="48.86561" lon="2.35593">
        <ele>41</ele>
        <time>2022-02-16T11:01:58.151Z</time>
      </trkpt>
      <trkpt lat="48.86561" lon="2.35587">
        <ele>41</ele>
        <time>2022-02-16T11:02:02.168Z</time>
      </trkpt>
      <trkpt lat="48.86563" lon="2.35581">
        <ele>41</ele>
        <time>2022-02-16T11:02:07.153Z</time>
      </trkpt>
      <trkpt lat="48.86563" lon="2.3558">
        <ele>41</ele>
        <time>2022-02-16T11:02:11.159Z</time>
      </trkpt>
      <trkpt lat="48.86564" lon="2.3558">
        <ele>41</ele>
        <time>2022-02-16T11:02:15.168Z</time>
      </trkpt>
      <trkpt lat="48.86564" lon="2.35573">
        <ele>41</ele>
        <time>2022-02-16T11:02:20.166Z</time>
      </trkpt>
      <trkpt lat="48.86565" lon="2.35564">
        <ele>43</ele>
        <time>2022-02-16T11:02:25.155Z</time>
      </trkpt>
      <trkpt lat="48.86566" lon="2.35556">
        <ele>43</ele>
        <time>2022-02-16T11:02:29.175Z</time>
      </trkpt>
      <trkpt lat="48.86568" lon="2.35547">
        <ele>43</ele>
        <time>2022-02-16T11:02:34.164Z</time>
      </trkpt>
      <trkpt lat="48.8657" lon="2.35542">
        <ele>39</ele>
        <time>2022-02-16T11:02:38.168Z</time>
      </trkpt>
      <trkpt lat="48.86572" lon="2.35534">
        <ele>42</ele>
        <time>2022-02-16T11:02:43.163Z</time>
      </trkpt>
      <trkpt lat="48.86572" lon="2.35525">
        <ele>42</ele>
        <time>2022-02-16T11:02:47.163Z</time>
      </trkpt>
      <trkpt lat="48.86573" lon="2.35516">
        <ele>42</ele>
        <time>2022-02-16T11:02:52.160Z</time>
      </trkpt>
      <trkpt lat="48.86574" lon="2.35508">
        <ele>45</ele>
        <time>2022-02-16T11:02:57.153Z</time>
      </trkpt>
      <trkpt lat="48.86575" lon="2.35501">
        <ele>45</ele>
        <time>2022-02-16T11:03:01.160Z</time>
      </trkpt>
      <trkpt lat="48.86577" lon="2.35494">
        <ele>45</ele>
        <time>2022-02-16T11:03:06.165Z</time>
      </trkpt>
      <trkpt lat="48.8658" lon="2.3549">
        <ele>45</ele>
        <time>2022-02-16T11:03:10.157Z</time>
      </trkpt>
      <trkpt lat="48.86584" lon="2.35488">
        <ele>45</ele>
        <time>2022-02-16T11:03:14.179Z</time>
      </trkpt>
      <trkpt lat="48.86588" lon="2.35486">
        <ele>48</ele>
        <time>2022-02-16T11:03:19.166Z</time>
      </trkpt>
      <trkpt lat="48.8659" lon="2.35477">
        <ele>48</ele>
        <time>2022-02-16T11:03:24.163Z</time>
      </trkpt>
      <trkpt lat="48.86592" lon="2.3547">
        <ele>48</ele>
        <time>2022-02-16T11:03:29.154Z</time>
      </trkpt>
      <trkpt lat="48.86593" lon="2.35461">
        <ele>48</ele>
        <time>2022-02-16T11:03:34.161Z</time>
      </trkpt>
      <trkpt lat="48.86593" lon="2.35452">
        <ele>48</ele>
        <time>2022-02-16T11:03:39.158Z</time>
      </trkpt>
      <trkpt lat="48.86594" lon="2.35444">
        <ele>48</ele>
        <time>2022-02-16T11:03:43.159Z</time>
      </trkpt>
      <trkpt lat="48.86595" lon="2.35435">
        <ele>48</ele>
        <time>2022-02-16T11:03:48.165Z</time>
      </trkpt>
      <trkpt lat="48.86606" lon="2.35417">
        <ele>46</ele>
        <time>2022-02-16T11:04:08.161Z</time>
      </trkpt>
      <trkpt lat="48.86611" lon="2.35415">
        <ele>46</ele>
        <time>2022-02-16T11:04:12.169Z</time>
      </trkpt>
      <trkpt lat="48.86614" lon="2.35418">
        <ele>46</ele>
        <time>2022-02-16T11:04:17.153Z</time>
      </trkpt>
      <trkpt lat="48.86617" lon="2.35418">
        <ele>46</ele>
        <time>2022-02-16T11:04:21.272Z</time>
      </trkpt>
      <trkpt lat="48.86622" lon="2.35419">
        <ele>46</ele>
        <time>2022-02-16T11:04:26.155Z</time>
      </trkpt>
      <trkpt lat="48.86626" lon="2.35421">
        <ele>46</ele>
        <time>2022-02-16T11:04:30.162Z</time>
      </trkpt>
      <trkpt lat="48.86632" lon="2.35421">
        <ele>46</ele>
        <time>2022-02-16T11:04:35.149Z</time>
      </trkpt>
      <trkpt lat="48.86637" lon="2.35422">
        <ele>46</ele>
        <time>2022-02-16T11:04:39.164Z</time>
      </trkpt>
      <trkpt lat="48.86645" lon="2.35407">
        <ele>46</ele>
        <time>2022-02-16T11:04:44.163Z</time>
      </trkpt>
      <trkpt lat="48.86652" lon="2.35407">
        <ele>46</ele>
        <time>2022-02-16T11:04:48.164Z</time>
      </trkpt>
      <trkpt lat="48.8666" lon="2.35401">
        <ele>48</ele>
        <time>2022-02-16T11:04:53.164Z</time>
      </trkpt>
      <trkpt lat="48.86665" lon="2.35404">
        <ele>47</ele>
        <time>2022-02-16T11:04:57.162Z</time>
      </trkpt>
      <trkpt lat="48.86671" lon="2.35412">
        <ele>47</ele>
        <time>2022-02-16T11:05:02.160Z</time>
      </trkpt>
      <trkpt lat="48.86675" lon="2.35421">
        <ele>47</ele>
        <time>2022-02-16T11:05:06.166Z</time>
      </trkpt>
      <trkpt lat="48.86678" lon="2.3543">
        <ele>47</ele>
        <time>2022-02-16T11:05:11.164Z</time>
      </trkpt>
      <trkpt lat="48.86681" lon="2.35429">
        <ele>47</ele>
        <time>2022-02-16T11:05:15.170Z</time>
      </trkpt>
      <trkpt lat="48.86681" lon="2.35434">
        <ele>46</ele>
        <time>2022-02-16T11:05:20.163Z</time>
      </trkpt>
      <trkpt lat="48.86681" lon="2.35433">
        <ele>46</ele>
        <time>2022-02-16T11:05:47.168Z</time>
      </trkpt>
      <trkpt lat="48.86682" lon="2.35431">
        <ele>47</ele>
        <time>2022-02-16T11:05:51.327Z</time>
      </trkpt>
      <trkpt lat="48.86685" lon="2.35426">
        <ele>47</ele>
        <time>2022-02-16T11:05:56.156Z</time>
      </trkpt>
      <trkpt lat="48.86687" lon="2.35424">
        <ele>47</ele>
        <time>2022-02-16T11:06:00.160Z</time>
      </trkpt>
      <trkpt lat="48.86691" lon="2.35424">
        <ele>47</ele>
        <time>2022-02-16T11:06:05.156Z</time>
      </trkpt>
      <trkpt lat="48.86694" lon="2.35428">
        <ele>47</ele>
        <time>2022-02-16T11:06:09.172Z</time>
      </trkpt>
      <trkpt lat="48.86698" lon="2.35426">
        <ele>47</ele>
        <time>2022-02-16T11:06:14.152Z</time>
      </trkpt>
      <trkpt lat="48.867" lon="2.3542">
        <ele>47</ele>
        <time>2022-02-16T11:06:19.170Z</time>
      </trkpt>
      <trkpt lat="48.86702" lon="2.35413">
        <ele>47</ele>
        <time>2022-02-16T11:06:24.169Z</time>
      </trkpt>
      <trkpt lat="48.86705" lon="2.35396">
        <ele>46</ele>
        <time>2022-02-16T11:07:41.179Z</time>
      </trkpt>
      <trkpt lat="48.86707" lon="2.35394">
        <ele>46</ele>
        <time>2022-02-16T11:07:46.160Z</time>
      </trkpt>
      <trkpt lat="48.86709" lon="2.35389">
        <ele>45</ele>
        <time>2022-02-16T11:07:50.181Z</time>
      </trkpt>
      <trkpt lat="48.86709" lon="2.35382">
        <ele>45</ele>
        <time>2022-02-16T11:07:55.149Z</time>
      </trkpt>
      <trkpt lat="48.86709" lon="2.35381">
        <ele>45</ele>
        <time>2022-02-16T11:07:59.153Z</time>
      </trkpt>
      <trkpt lat="48.86715" lon="2.35387">
        <ele>45</ele>
        <time>2022-02-16T11:08:17.167Z</time>
      </trkpt>
      <trkpt lat="48.86718" lon="2.35387">
        <ele>45</ele>
        <time>2022-02-16T11:08:22.152Z</time>
      </trkpt>
      <trkpt lat="48.86721" lon="2.35388">
        <ele>45</ele>
        <time>2022-02-16T11:08:26.160Z</time>
      </trkpt>
      <trkpt lat="48.86722" lon="2.35387">
        <ele>45</ele>
        <time>2022-02-16T11:08:31.167Z</time>
      </trkpt>
      <trkpt lat="48.86722" lon="2.35387">
        <ele>45</ele>
        <time>2022-02-16T11:08:36.168Z</time>
      </trkpt>
      <trkpt lat="48.86725" lon="2.35387">
        <ele>45</ele>
        <time>2022-02-16T11:09:37.160Z</time>
      </trkpt>
      <trkpt lat="48.86725" lon="2.35386">
        <ele>45</ele>
        <time>2022-02-16T11:09:41.160Z</time>
      </trkpt>
      <trkpt lat="48.86726" lon="2.35386">
        <ele>45</ele>
        <time>2022-02-16T11:09:45.168Z</time>
      </trkpt>
      <trkpt lat="48.86727" lon="2.35381">
        <ele>45</ele>
        <time>2022-02-16T11:09:50.163Z</time>
      </trkpt>
      <trkpt lat="48.8673" lon="2.35376">
        <ele>45</ele>
        <time>2022-02-16T11:09:54.161Z</time>
      </trkpt>
      <trkpt lat="48.86732" lon="2.35369">
        <ele>45</ele>
        <time>2022-02-16T11:09:59.167Z</time>
      </trkpt>
      <trkpt lat="48.86734" lon="2.35361">
        <ele>45</ele>
        <time>2022-02-16T11:10:04.167Z</time>
      </trkpt>
      <trkpt lat="48.86733" lon="2.35352">
        <ele>45</ele>
        <time>2022-02-16T11:10:08.172Z</time>
      </trkpt>
      <trkpt lat="48.86729" lon="2.35342">
        <ele>45</ele>
        <time>2022-02-16T11:10:13.176Z</time>
      </trkpt>
      <trkpt lat="48.86733" lon="2.35329">
        <ele>45</ele>
        <time>2022-02-16T11:10:37.160Z</time>
      </trkpt>
      <trkpt lat="48.86733" lon="2.35329">
        <ele>45</ele>
        <time>2022-02-16T11:10:41.172Z</time>
      </trkpt>
      <trkpt lat="48.86732" lon="2.35327">
        <ele>45</ele>
        <time>2022-02-16T11:10:45.164Z</time>
      </trkpt>
      <trkpt lat="48.8673" lon="2.35325">
        <ele>45</ele>
        <time>2022-02-16T11:10:50.165Z</time>
      </trkpt>
      <trkpt lat="48.86726" lon="2.35321">
        <ele>45</ele>
        <time>2022-02-16T11:10:54.163Z</time>
      </trkpt>
      <trkpt lat="48.86722" lon="2.35319">
        <ele>46</ele>
        <time>2022-02-16T11:10:58.168Z</time>
      </trkpt>
      <trkpt lat="48.86719" lon="2.35318">
        <ele>46</ele>
        <time>2022-02-16T11:11:02.170Z</time>
      </trkpt>
      <trkpt lat="48.86714" lon="2.35317">
        <ele>46</ele>
        <time>2022-02-16T11:11:07.166Z</time>
      </trkpt>
      <trkpt lat="48.86709" lon="2.35316">
        <ele>46</ele>
        <time>2022-02-16T11:11:12.166Z</time>
      </trkpt>
      <trkpt lat="48.86704" lon="2.35314">
        <ele>48</ele>
        <time>2022-02-16T11:11:17.172Z</time>
      </trkpt>
      <trkpt lat="48.86698" lon="2.3531">
        <ele>48</ele>
        <time>2022-02-16T11:11:22.165Z</time>
      </trkpt>
      <trkpt lat="48.86695" lon="2.35304">
        <ele>48</ele>
        <time>2022-02-16T11:11:27.167Z</time>
      </trkpt>
      <trkpt lat="48.86697" lon="2.35297">
        <ele>48</ele>
        <time>2022-02-16T11:11:32.171Z</time>
      </trkpt>
      <trkpt lat="48.86698" lon="2.35287">
        <ele>51</ele>
        <time>2022-02-16T11:11:37.166Z</time>
      </trkpt>
      <trkpt lat="48.86697" lon="2.3528">
        <ele>51</ele>
        <time>2022-02-16T11:11:42.168Z</time>
      </trkpt>
      <trkpt lat="48.86693" lon="2.35274">
        <ele>51</ele>
        <time>2022-02-16T11:11:47.152Z</time>
      </trkpt>
      <trkpt lat="48.86689" lon="2.3527">
        <ele>51</ele>
        <time>2022-02-16T11:11:51.152Z</time>
      </trkpt>
      <trkpt lat="48.86683" lon="2.35267">
        <ele>51</ele>
        <time>2022-02-16T11:11:56.168Z</time>
      </trkpt>
      <trkpt lat="48.86678" lon="2.35263">
        <ele>50</ele>
        <time>2022-02-16T11:12:01.153Z</time>
      </trkpt>
      <trkpt lat="48.86673" lon="2.35261">
        <ele>50</ele>
        <time>2022-02-16T11:12:05.166Z</time>
      </trkpt>
      <trkpt lat="48.86667" lon="2.35258">
        <ele>50</ele>
        <time>2022-02-16T11:12:10.169Z</time>
      </trkpt>
      <trkpt lat="48.86657" lon="2.35252">
        <ele>50</ele>
        <time>2022-02-16T11:12:30.167Z</time>
      </trkpt>
      <trkpt lat="48.86656" lon="2.35257">
        <ele>50</ele>
        <time>2022-02-16T11:12:35.159Z</time>
      </trkpt>
      <trkpt lat="48.86655" lon="2.35261">
        <ele>50</ele>
        <time>2022-02-16T11:12:39.157Z</time>
      </trkpt>
      <trkpt lat="48.86653" lon="2.35263">
        <ele>50</ele>
        <time>2022-02-16T11:12:44.163Z</time>
      </trkpt>
      <trkpt lat="48.8665" lon="2.35261">
        <ele>48</ele>
        <time>2022-02-16T11:12:49.167Z</time>
      </trkpt>
      <trkpt lat="48.86639" lon="2.35247">
        <ele>48</ele>
        <time>2022-02-16T11:13:08.171Z</time>
      </trkpt>
      <trkpt lat="48.86637" lon="2.35241">
        <ele>48</ele>
        <time>2022-02-16T11:13:13.164Z</time>
      </trkpt>
      <trkpt lat="48.86637" lon="2.35236">
        <ele>48</ele>
        <time>2022-02-16T11:13:17.166Z</time>
      </trkpt>
      <trkpt lat="48.86638" lon="2.35228">
        <ele>48</ele>
        <time>2022-02-16T11:13:22.161Z</time>
      </trkpt>
      <trkpt lat="48.86639" lon="2.35221">
        <ele>48</ele>
        <time>2022-02-16T11:13:26.164Z</time>
      </trkpt>
      <trkpt lat="48.86643" lon="2.35216">
        <ele>48</ele>
        <time>2022-02-16T11:13:31.170Z</time>
      </trkpt>
      <trkpt lat="48.86643" lon="2.3521">
        <ele>48</ele>
        <time>2022-02-16T11:13:36.164Z</time>
      </trkpt>
      <trkpt lat="48.86643" lon="2.352">
        <ele>48</ele>
        <time>2022-02-16T11:13:41.162Z</time>
      </trkpt>
      <trkpt lat="48.86645" lon="2.35193">
        <ele>48</ele>
        <time>2022-02-16T11:13:45.171Z</time>
      </trkpt>
      <trkpt lat="48.86647" lon="2.35185">
        <ele>48</ele>
        <time>2022-02-16T11:13:49.165Z</time>
      </trkpt>
      <trkpt lat="48.86648" lon="2.35177">
        <ele>48</ele>
        <time>2022-02-16T11:13:54.163Z</time>
      </trkpt>
      <trkpt lat="48.86649" lon="2.35172">
        <ele>48</ele>
        <time>2022-02-16T11:13:58.166Z</time>
      </trkpt>
      <trkpt lat="48.8665" lon="2.35167">
        <ele>48</ele>
        <time>2022-02-16T11:14:02.168Z</time>
      </trkpt>
      <trkpt lat="48.86652" lon="2.35162">
        <ele>48</ele>
        <time>2022-02-16T11:14:07.155Z</time>
      </trkpt>
      <trkpt lat="48.86653" lon="2.35154">
        <ele>46</ele>
        <time>2022-02-16T11:14:12.176Z</time>
      </trkpt>
      <trkpt lat="48.86654" lon="2.35148">
        <ele>46</ele>
        <time>2022-02-16T11:14:17.163Z</time>
      </trkpt>
      <trkpt lat="48.86655" lon="2.35141">
        <ele>46</ele>
        <time>2022-02-16T11:14:22.172Z</time>
      </trkpt>
      <trkpt lat="48.86658" lon="2.35132">
        <ele>46</ele>
        <time>2022-02-16T11:14:27.168Z</time>
      </trkpt>
      <trkpt lat="48.86658" lon="2.35123">
        <ele>47</ele>
        <time>2022-02-16T11:14:32.161Z</time>
      </trkpt>
      <trkpt lat="48.86658" lon="2.35117">
        <ele>47</ele>
        <time>2022-02-16T11:14:36.167Z</time>
      </trkpt>
      <trkpt lat="48.86655" lon="2.35111">
        <ele>47</ele>
        <time>2022-02-16T11:14:40.168Z</time>
      </trkpt>
      <trkpt lat="48.86653" lon="2.35115">
        <ele>47</ele>
        <time>2022-02-16T11:15:11.167Z</time>
      </trkpt>
      <trkpt lat="48.8665" lon="2.35112">
        <ele>47</ele>
        <time>2022-02-16T11:15:16.172Z</time>
      </trkpt>
      <trkpt lat="48.86648" lon="2.35106">
        <ele>47</ele>
        <time>2022-02-16T11:15:21.170Z</time>
      </trkpt>
      <trkpt lat="48.86649" lon="2.35103">
        <ele>47</ele>
        <time>2022-02-16T11:15:25.170Z</time>
      </trkpt>
      <trkpt lat="48.86646" lon="2.35094">
        <ele>47</ele>
        <time>2022-02-16T11:15:30.163Z</time>
      </trkpt>
      <trkpt lat="48.86647" lon="2.3509">
        <ele>47</ele>
        <time>2022-02-16T11:15:34.174Z</time>
      </trkpt>
      <trkpt lat="48.86647" lon="2.35081">
        <ele>47</ele>
        <time>2022-02-16T11:15:39.165Z</time>
      </trkpt>
      <trkpt lat="48.86647" lon="2.35073">
        <ele>47</ele>
        <time>2022-02-16T11:15:44.176Z</time>
      </trkpt>
      <trkpt lat="48.86648" lon="2.35067">
        <ele>48</ele>
        <time>2022-02-16T11:15:49.168Z</time>
      </trkpt>
      <trkpt lat="48.86651" lon="2.3506">
        <ele>48</ele>
        <time>2022-02-16T11:15:54.169Z</time>
      </trkpt>
      <trkpt lat="48.86655" lon="2.35053">
        <ele>49</ele>
        <time>2022-02-16T11:15:59.167Z</time>
      </trkpt>
      <trkpt lat="48.86658" lon="2.35047">
        <ele>49</ele>
        <time>2022-02-16T11:16:04.166Z</time>
      </trkpt>
      <trkpt lat="48.86661" lon="2.35041">
        <ele>49</ele>
        <time>2022-02-16T11:16:09.168Z</time>
      </trkpt>
      <trkpt lat="48.86663" lon="2.35034">
        <ele>49</ele>
        <time>2022-02-16T11:16:13.171Z</time>
      </trkpt>
      <trkpt lat="48.86667" lon="2.35028">
        <ele>49</ele>
        <time>2022-02-16T11:16:18.164Z</time>
      </trkpt>
      <trkpt lat="48.86671" lon="2.35021">
        <ele>49</ele>
        <time>2022-02-16T11:16:23.171Z</time>
      </trkpt>
      <trkpt lat="48.86673" lon="2.35015">
        <ele>49</ele>
        <time>2022-02-16T11:16:27.177Z</time>
      </trkpt>
      <trkpt lat="48.86676" lon="2.35008">
        <ele>48</ele>
        <time>2022-02-16T11:16:32.165Z</time>
      </trkpt>
      <trkpt lat="48.86679" lon="2.35002">
        <ele>48</ele>
        <time>2022-02-16T11:16:36.174Z</time>
      </trkpt>
      <trkpt lat="48.86683" lon="2.34994">
        <ele>47</ele>
        <time>2022-02-16T11:16:41.164Z</time>
      </trkpt>
      <trkpt lat="48.86686" lon="2.34988">
        <ele>47</ele>
        <time>2022-02-16T11:16:45.169Z</time>
      </trkpt>
      <trkpt lat="48.86689" lon="2.34981">
        <ele>44</ele>
        <time>2022-02-16T11:16:50.170Z</time>
      </trkpt>
      <trkpt lat="48.86691" lon="2.34972">
        <ele>44</ele>
        <time>2022-02-16T11:16:54.175Z</time>
      </trkpt>
      <trkpt lat="48.86694" lon="2.34961">
        <ele>44</ele>
        <time>2022-02-16T11:16:59.168Z</time>
      </trkpt>
      <trkpt lat="48.86698" lon="2.34949">
        <ele>44</ele>
        <time>2022-02-16T11:17:04.180Z</time>
      </trkpt>
      <trkpt lat="48.86702" lon="2.34939">
        <ele>44</ele>
        <time>2022-02-16T11:17:09.178Z</time>
      </trkpt>
      <trkpt lat="48.86705" lon="2.34931">
        <ele>44</ele>
        <time>2022-02-16T11:17:13.168Z</time>
      </trkpt>
      <trkpt lat="48.8671" lon="2.3492">
        <ele>44</ele>
        <time>2022-02-16T11:17:18.170Z</time>
      </trkpt>
      <trkpt lat="48.86714" lon="2.34911">
        <ele>44</ele>
        <time>2022-02-16T11:17:23.166Z</time>
      </trkpt>
      <trkpt lat="48.86718" lon="2.34902">
        <ele>47</ele>
        <time>2022-02-16T11:17:27.162Z</time>
      </trkpt>
      <trkpt lat="48.86722" lon="2.34892">
        <ele>47</ele>
        <time>2022-02-16T11:17:32.172Z</time>
      </trkpt>
      <trkpt lat="48.86726" lon="2.34882">
        <ele>47</ele>
        <time>2022-02-16T11:17:37.168Z</time>
      </trkpt>
      <trkpt lat="48.86727" lon="2.34876">
        <ele>47</ele>
        <time>2022-02-16T11:17:41.175Z</time>
      </trkpt>
      <trkpt lat="48.86729" lon="2.34871">
        <ele>48</ele>
        <time>2022-02-16T11:17:45.169Z</time>
      </trkpt>
      <trkpt lat="48.86732" lon="2.34863">
        <ele>48</ele>
        <time>2022-02-16T11:17:50.173Z</time>
      </trkpt>
      <trkpt lat="48.86734" lon="2.34854">
        <ele>48</ele>
        <time>2022-02-16T11:17:55.176Z</time>
      </trkpt>
      <trkpt lat="48.86736" lon="2.34848">
        <ele>48</ele>
        <time>2022-02-16T11:17:59.170Z</time>
      </trkpt>
      <trkpt lat="48.86739" lon="2.34841">
        <ele>48</ele>
        <time>2022-02-16T11:18:04.175Z</time>
      </trkpt>
      <trkpt lat="48.86742" lon="2.34836">
        <ele>48</ele>
        <time>2022-02-16T11:18:08.166Z</time>
      </trkpt>
      <trkpt lat="48.86745" lon="2.34832">
        <ele>48</ele>
        <time>2022-02-16T11:18:13.169Z</time>
      </trkpt>
      <trkpt lat="48.86747" lon="2.34825">
        <ele>48</ele>
        <time>2022-02-16T11:18:18.173Z</time>
      </trkpt>
      <trkpt lat="48.86749" lon="2.34819">
        <ele>47</ele>
        <time>2022-02-16T11:18:22.170Z</time>
      </trkpt>
      <trkpt lat="48.86752" lon="2.3481">
        <ele>47</ele>
        <time>2022-02-16T11:18:27.166Z</time>
      </trkpt>
      <trkpt lat="48.86754" lon="2.34803">
        <ele>47</ele>
        <time>2022-02-16T11:18:32.164Z</time>
      </trkpt>
      <trkpt lat="48.86756" lon="2.34798">
        <ele>47</ele>
        <time>2022-02-16T11:18:36.170Z</time>
      </trkpt>
      <trkpt lat="48.86759" lon="2.34795">
        <ele>47</ele>
        <time>2022-02-16T11:18:40.176Z</time>
      </trkpt>
      <trkpt lat="48.86762" lon="2.34789">
        <ele>46</ele>
        <time>2022-02-16T11:18:45.176Z</time>
      </trkpt>
      <trkpt lat="48.86765" lon="2.34782">
        <ele>48</ele>
        <time>2022-02-16T11:18:50.171Z</time>
      </trkpt>
      <trkpt lat="48.86766" lon="2.34773">
        <ele>48</ele>
        <time>2022-02-16T11:18:55.171Z</time>
      </trkpt>
      <trkpt lat="48.86764" lon="2.34769">
        <ele>46</ele>
        <time>2022-02-16T11:19:00.175Z</time>
      </trkpt>
      <trkpt lat="48.86758" lon="2.34766">
        <ele>46</ele>
        <time>2022-02-16T11:19:05.164Z</time>
      </trkpt>
      <trkpt lat="48.86754" lon="2.34761">
        <ele>47</ele>
        <time>2022-02-16T11:19:10.174Z</time>
      </trkpt>
      <trkpt lat="48.8675" lon="2.34756">
        <ele>47</ele>
        <time>2022-02-16T11:19:15.161Z</time>
      </trkpt>
      <trkpt lat="48.86745" lon="2.34752">
        <ele>47</ele>
        <time>2022-02-16T11:19:20.173Z</time>
      </trkpt>
      <trkpt lat="48.86741" lon="2.34749">
        <ele>47</ele>
        <time>2022-02-16T11:19:24.180Z</time>
      </trkpt>
      <trkpt lat="48.86736" lon="2.34748">
        <ele>47</ele>
        <time>2022-02-16T11:19:29.175Z</time>
      </trkpt>
      <trkpt lat="48.86731" lon="2.34746">
        <ele>47</ele>
        <time>2022-02-16T11:19:34.178Z</time>
      </trkpt>
      <trkpt lat="48.86725" lon="2.34745">
        <ele>47</ele>
        <time>2022-02-16T11:19:39.172Z</time>
      </trkpt>
      <trkpt lat="48.8672" lon="2.34744">
        <ele>47</ele>
        <time>2022-02-16T11:19:44.167Z</time>
      </trkpt>
      <trkpt lat="48.86714" lon="2.34742">
        <ele>47</ele>
        <time>2022-02-16T11:19:49.167Z</time>
      </trkpt>
      <trkpt lat="48.86709" lon="2.34741">
        <ele>47</ele>
        <time>2022-02-16T11:19:54.168Z</time>
      </trkpt>
      <trkpt lat="48.86705" lon="2.3474">
        <ele>49</ele>
        <time>2022-02-16T11:19:58.167Z</time>
      </trkpt>
      <trkpt lat="48.867" lon="2.34738">
        <ele>49</ele>
        <time>2022-02-16T11:20:02.172Z</time>
      </trkpt>
      <trkpt lat="48.86695" lon="2.34738">
        <ele>49</ele>
        <time>2022-02-16T11:20:07.182Z</time>
      </trkpt>
      <trkpt lat="48.86695" lon="2.34733">
        <ele>49</ele>
        <time>2022-02-16T11:20:12.164Z</time>
      </trkpt>
      <trkpt lat="48.86699" lon="2.34724">
        <ele>49</ele>
        <time>2022-02-16T11:20:55.165Z</time>
      </trkpt>
      <trkpt lat="48.86702" lon="2.34724">
        <ele>49</ele>
        <time>2022-02-16T11:20:59.167Z</time>
      </trkpt>
      <trkpt lat="48.86708" lon="2.34722">
        <ele>49</ele>
        <time>2022-02-16T11:21:03.161Z</time>
      </trkpt>
      <trkpt lat="48.86661" lon="2.34717">
        <ele>50</ele>
        <time>2022-02-16T12:21:37.156Z</time>
      </trkpt>
      <trkpt lat="48.86658" lon="2.34717">
        <ele>50</ele>
        <time>2022-02-16T12:21:41.157Z</time>
      </trkpt>
      <trkpt lat="48.86661" lon="2.34721">
        <ele>50</ele>
        <time>2022-02-16T12:21:49.155Z</time>
      </trkpt>
      <trkpt lat="48.86662" lon="2.34721">
        <ele>50</ele>
        <time>2022-02-16T12:21:53.153Z</time>
      </trkpt>
      <trkpt lat="48.86663" lon="2.34721">
        <ele>50</ele>
        <time>2022-02-16T12:21:58.157Z</time>
      </trkpt>
      <trkpt lat="48.86666" lon="2.34723">
        <ele>50</ele>
        <time>2022-02-16T12:22:02.159Z</time>
      </trkpt>
      <trkpt lat="48.86673" lon="2.34726">
        <ele>50</ele>
        <time>2022-02-16T12:22:07.165Z</time>
      </trkpt>
      <trkpt lat="48.86682" lon="2.34727">
        <ele>49</ele>
        <time>2022-02-16T12:22:12.163Z</time>
      </trkpt>
      <trkpt lat="48.86687" lon="2.34727">
        <ele>49</ele>
        <time>2022-02-16T12:22:16.165Z</time>
      </trkpt>
      <trkpt lat="48.86692" lon="2.34729">
        <ele>49</ele>
        <time>2022-02-16T12:22:21.163Z</time>
      </trkpt>
      <trkpt lat="48.86696" lon="2.3473">
        <ele>49</ele>
        <time>2022-02-16T12:22:25.166Z</time>
      </trkpt>
      <trkpt lat="48.86702" lon="2.3473">
        <ele>49</ele>
        <time>2022-02-16T12:22:30.165Z</time>
      </trkpt>
      <trkpt lat="48.86706" lon="2.34731">
        <ele>49</ele>
        <time>2022-02-16T12:22:34.167Z</time>
      </trkpt>
      <trkpt lat="48.86711" lon="2.34734">
        <ele>49</ele>
        <time>2022-02-16T12:22:38.165Z</time>
      </trkpt>
      <trkpt lat="48.86715" lon="2.34736">
        <ele>47</ele>
        <time>2022-02-16T12:22:43.170Z</time>
      </trkpt>
      <trkpt lat="48.8672" lon="2.34736">
        <ele>47</ele>
        <time>2022-02-16T12:22:48.159Z</time>
      </trkpt>
      <trkpt lat="48.86726" lon="2.34734">
        <ele>49</ele>
        <time>2022-02-16T12:22:53.169Z</time>
      </trkpt>
      <trkpt lat="48.8673" lon="2.34725">
        <ele>49</ele>
        <time>2022-02-16T12:22:58.170Z</time>
      </trkpt>
      <trkpt lat="48.86729" lon="2.34718">
        <ele>49</ele>
        <time>2022-02-16T12:23:02.168Z</time>
      </trkpt>
      <trkpt lat="48.86727" lon="2.3471">
        <ele>49</ele>
        <time>2022-02-16T12:23:07.165Z</time>
      </trkpt>
      <trkpt lat="48.86725" lon="2.34703">
        <ele>50</ele>
        <time>2022-02-16T12:23:12.164Z</time>
      </trkpt>
      <trkpt lat="48.86726" lon="2.34696">
        <ele>50</ele>
        <time>2022-02-16T12:23:16.165Z</time>
      </trkpt>
      <trkpt lat="48.86725" lon="2.34688">
        <ele>50</ele>
        <time>2022-02-16T12:23:21.165Z</time>
      </trkpt>
      <trkpt lat="48.86726" lon="2.34682">
        <ele>50</ele>
        <time>2022-02-16T12:23:25.172Z</time>
      </trkpt>
      <trkpt lat="48.8673" lon="2.34676">
        <ele>50</ele>
        <time>2022-02-16T12:23:30.165Z</time>
      </trkpt>
      <trkpt lat="48.86731" lon="2.34668">
        <ele>50</ele>
        <time>2022-02-16T12:23:35.158Z</time>
      </trkpt>
      <trkpt lat="48.86734" lon="2.34664">
        <ele>50</ele>
        <time>2022-02-16T12:23:39.166Z</time>
      </trkpt>
      <trkpt lat="48.86737" lon="2.3466">
        <ele>50</ele>
        <time>2022-02-16T12:23:44.162Z</time>
      </trkpt>
      <trkpt lat="48.8674" lon="2.34653">
        <ele>50</ele>
        <time>2022-02-16T12:23:49.163Z</time>
      </trkpt>
      <trkpt lat="48.86744" lon="2.34648">
        <ele>49</ele>
        <time>2022-02-16T12:23:54.157Z</time>
      </trkpt>
      <trkpt lat="48.86747" lon="2.34643">
        <ele>49</ele>
        <time>2022-02-16T12:23:58.162Z</time>
      </trkpt>
      <trkpt lat="48.8675" lon="2.34637">
        <ele>49</ele>
        <time>2022-02-16T12:24:03.159Z</time>
      </trkpt>
      <trkpt lat="48.86754" lon="2.34631">
        <ele>49</ele>
        <time>2022-02-16T12:24:07.160Z</time>
      </trkpt>
      <trkpt lat="48.86756" lon="2.34626">
        <ele>49</ele>
        <time>2022-02-16T12:24:11.162Z</time>
      </trkpt>
      <trkpt lat="48.86762" lon="2.34616">
        <ele>49</ele>
        <time>2022-02-16T12:24:16.158Z</time>
      </trkpt>
      <trkpt lat="48.86763" lon="2.34606">
        <ele>49</ele>
        <time>2022-02-16T12:24:21.170Z</time>
      </trkpt>
      <trkpt lat="48.86764" lon="2.34599">
        <ele>49</ele>
        <time>2022-02-16T12:24:26.155Z</time>
      </trkpt>
      <trkpt lat="48.86766" lon="2.34594">
        <ele>48</ele>
        <time>2022-02-16T12:24:30.168Z</time>
      </trkpt>
      <trkpt lat="48.86769" lon="2.34586">
        <ele>48</ele>
        <time>2022-02-16T12:24:35.165Z</time>
      </trkpt>
      <trkpt lat="48.8677" lon="2.34576">
        <ele>48</ele>
        <time>2022-02-16T12:24:40.161Z</time>
      </trkpt>
      <trkpt lat="48.86769" lon="2.34568">
        <ele>51</ele>
        <time>2022-02-16T12:24:45.146Z</time>
      </trkpt>
      <trkpt lat="48.8677" lon="2.34561">
        <ele>51</ele>
        <time>2022-02-16T12:24:49.153Z</time>
      </trkpt>
      <trkpt lat="48.86774" lon="2.34552">
        <ele>51</ele>
        <time>2022-02-16T12:24:54.151Z</time>
      </trkpt>
      <trkpt lat="48.86776" lon="2.34544">
        <ele>51</ele>
        <time>2022-02-16T12:24:58.162Z</time>
      </trkpt>
      <trkpt lat="48.8678" lon="2.34534">
        <ele>53</ele>
        <time>2022-02-16T12:25:03.152Z</time>
      </trkpt>
      <trkpt lat="48.86781" lon="2.34528">
        <ele>53</ele>
        <time>2022-02-16T12:25:07.166Z</time>
      </trkpt>
      <trkpt lat="48.86784" lon="2.3452">
        <ele>53</ele>
        <time>2022-02-16T12:25:12.153Z</time>
      </trkpt>
      <trkpt lat="48.86785" lon="2.34513">
        <ele>52</ele>
        <time>2022-02-16T12:25:17.157Z</time>
      </trkpt>
      <trkpt lat="48.86784" lon="2.34506">
        <ele>52</ele>
        <time>2022-02-16T12:25:21.153Z</time>
      </trkpt>
      <trkpt lat="48.86786" lon="2.34499">
        <ele>52</ele>
        <time>2022-02-16T12:25:25.161Z</time>
      </trkpt>
      <trkpt lat="48.86787" lon="2.34493">
        <ele>52</ele>
        <time>2022-02-16T12:25:29.158Z</time>
      </trkpt>
      <trkpt lat="48.8679" lon="2.34482">
        <ele>50</ele>
        <time>2022-02-16T12:25:34.155Z</time>
      </trkpt>
      <trkpt lat="48.86792" lon="2.34475">
        <ele>48</ele>
        <time>2022-02-16T12:25:38.160Z</time>
      </trkpt>
      <trkpt lat="48.86795" lon="2.34467">
        <ele>48</ele>
        <time>2022-02-16T12:25:43.164Z</time>
      </trkpt>
      <trkpt lat="48.86797" lon="2.34459">
        <ele>48</ele>
        <time>2022-02-16T12:25:47.169Z</time>
      </trkpt>
      <trkpt lat="48.868" lon="2.34451">
        <ele>46</ele>
        <time>2022-02-16T12:25:52.151Z</time>
      </trkpt>
      <trkpt lat="48.86802" lon="2.34442">
        <ele>46</ele>
        <time>2022-02-16T12:25:57.162Z</time>
      </trkpt>
      <trkpt lat="48.86805" lon="2.34432">
        <ele>46</ele>
        <time>2022-02-16T12:26:02.154Z</time>
      </trkpt>
      <trkpt lat="48.86807" lon="2.34424">
        <ele>46</ele>
        <time>2022-02-16T12:26:07.161Z</time>
      </trkpt>
      <trkpt lat="48.86807" lon="2.34414">
        <ele>46</ele>
        <time>2022-02-16T12:26:12.160Z</time>
      </trkpt>
      <trkpt lat="48.86808" lon="2.344">
        <ele>47</ele>
        <time>2022-02-16T12:26:17.161Z</time>
      </trkpt>
      <trkpt lat="48.86805" lon="2.34396">
        <ele>47</ele>
        <time>2022-02-16T12:26:22.156Z</time>
      </trkpt>
      <trkpt lat="48.86805" lon="2.34395">
        <ele>47</ele>
        <time>2022-02-16T12:26:26.157Z</time>
      </trkpt>
      <trkpt lat="48.86807" lon="2.34391">
        <ele>47</ele>
        <time>2022-02-16T12:26:31.156Z</time>
      </trkpt>
      <trkpt lat="48.8681" lon="2.34383">
        <ele>47</ele>
        <time>2022-02-16T12:26:35.160Z</time>
      </trkpt>
      <trkpt lat="48.86812" lon="2.34374">
        <ele>50</ele>
        <time>2022-02-16T12:26:40.162Z</time>
      </trkpt>
      <trkpt lat="48.86816" lon="2.34364">
        <ele>50</ele>
        <time>2022-02-16T12:26:45.159Z</time>
      </trkpt>
      <trkpt lat="48.86818" lon="2.34355">
        <ele>50</ele>
        <time>2022-02-16T12:26:50.161Z</time>
      </trkpt>
      <trkpt lat="48.86817" lon="2.34343">
        <ele>52</ele>
        <time>2022-02-16T12:26:55.151Z</time>
      </trkpt>
      <trkpt lat="48.86818" lon="2.34332">
        <ele>52</ele>
        <time>2022-02-16T12:26:59.159Z</time>
      </trkpt>
      <trkpt lat="48.86818" lon="2.34321">
        <ele>52</ele>
        <time>2022-02-16T12:27:04.155Z</time>
      </trkpt>
      <trkpt lat="48.86822" lon="2.34313">
        <ele>49</ele>
        <time>2022-02-16T12:27:09.152Z</time>
      </trkpt>
      <trkpt lat="48.86821" lon="2.34307">
        <ele>49</ele>
        <time>2022-02-16T12:27:13.156Z</time>
      </trkpt>
      <trkpt lat="48.86821" lon="2.34298">
        <ele>49</ele>
        <time>2022-02-16T12:27:17.152Z</time>
      </trkpt>
      <trkpt lat="48.86821" lon="2.3429">
        <ele>49</ele>
        <time>2022-02-16T12:27:22.152Z</time>
      </trkpt>
      <trkpt lat="48.86822" lon="2.34283">
        <ele>49</ele>
        <time>2022-02-16T12:27:26.160Z</time>
      </trkpt>
      <trkpt lat="48.86823" lon="2.34273">
        <ele>49</ele>
        <time>2022-02-16T12:27:31.161Z</time>
      </trkpt>
      <trkpt lat="48.86823" lon="2.34264">
        <ele>49</ele>
        <time>2022-02-16T12:27:36.160Z</time>
      </trkpt>
      <trkpt lat="48.86823" lon="2.34255">
        <ele>48</ele>
        <time>2022-02-16T12:27:41.166Z</time>
      </trkpt>
      <trkpt lat="48.86824" lon="2.34245">
        <ele>48</ele>
        <time>2022-02-16T12:27:46.159Z</time>
      </trkpt>
      <trkpt lat="48.86822" lon="2.34234">
        <ele>47</ele>
        <time>2022-02-16T12:27:51.157Z</time>
      </trkpt>
      <trkpt lat="48.86822" lon="2.34223">
        <ele>47</ele>
        <time>2022-02-16T12:27:56.158Z</time>
      </trkpt>
      <trkpt lat="48.86822" lon="2.34216">
        <ele>47</ele>
        <time>2022-02-16T12:28:01.164Z</time>
      </trkpt>
      <trkpt lat="48.86822" lon="2.34209">
        <ele>47</ele>
        <time>2022-02-16T12:28:06.167Z</time>
      </trkpt>
      <trkpt lat="48.8682" lon="2.34204">
        <ele>47</ele>
        <time>2022-02-16T12:28:11.155Z</time>
      </trkpt>
      <trkpt lat="48.86822" lon="2.34197">
        <ele>47</ele>
        <time>2022-02-16T12:28:16.156Z</time>
      </trkpt>
      <trkpt lat="48.86821" lon="2.3419">
        <ele>47</ele>
        <time>2022-02-16T12:28:21.152Z</time>
      </trkpt>
      <trkpt lat="48.8682" lon="2.34185">
        <ele>47</ele>
        <time>2022-02-16T12:28:25.156Z</time>
      </trkpt>
      <trkpt lat="48.8682" lon="2.34178">
        <ele>47</ele>
        <time>2022-02-16T12:28:30.154Z</time>
      </trkpt>
      <trkpt lat="48.86822" lon="2.34168">
        <ele>47</ele>
        <time>2022-02-16T12:28:35.154Z</time>
      </trkpt>
      <trkpt lat="48.86823" lon="2.34162">
        <ele>47</ele>
        <time>2022-02-16T12:28:39.158Z</time>
      </trkpt>
      <trkpt lat="48.86826" lon="2.34154">
        <ele>47</ele>
        <time>2022-02-16T12:28:44.153Z</time>
      </trkpt>
      <trkpt lat="48.86825" lon="2.34147">
        <ele>47</ele>
        <time>2022-02-16T12:28:49.158Z</time>
      </trkpt>
      <trkpt lat="48.86824" lon="2.34139">
        <ele>47</ele>
        <time>2022-02-16T12:28:54.172Z</time>
      </trkpt>
      <trkpt lat="48.86827" lon="2.34131">
        <ele>47</ele>
        <time>2022-02-16T12:28:59.166Z</time>
      </trkpt>
      <trkpt lat="48.86827" lon="2.34124">
        <ele>47</ele>
        <time>2022-02-16T12:29:04.150Z</time>
      </trkpt>
      <trkpt lat="48.86826" lon="2.34119">
        <ele>47</ele>
        <time>2022-02-16T12:29:08.150Z</time>
      </trkpt>
      <trkpt lat="48.86825" lon="2.34112">
        <ele>47</ele>
        <time>2022-02-16T12:29:13.159Z</time>
      </trkpt>
      <trkpt lat="48.86824" lon="2.34105">
        <ele>47</ele>
        <time>2022-02-16T12:29:18.152Z</time>
      </trkpt>
      <trkpt lat="48.86825" lon="2.34098">
        <ele>47</ele>
        <time>2022-02-16T12:29:23.153Z</time>
      </trkpt>
      <trkpt lat="48.86825" lon="2.34093">
        <ele>47</ele>
        <time>2022-02-16T12:29:27.153Z</time>
      </trkpt>
      <trkpt lat="48.86827" lon="2.34086">
        <ele>47</ele>
        <time>2022-02-16T12:29:32.179Z</time>
      </trkpt>
      <trkpt lat="48.86828" lon="2.34078">
        <ele>47</ele>
        <time>2022-02-16T12:29:37.160Z</time>
      </trkpt>
      <trkpt lat="48.8683" lon="2.34068">
        <ele>48</ele>
        <time>2022-02-16T12:29:42.161Z</time>
      </trkpt>
      <trkpt lat="48.86834" lon="2.34058">
        <ele>48</ele>
        <time>2022-02-16T12:29:47.154Z</time>
      </trkpt>
      <trkpt lat="48.86838" lon="2.34048">
        <ele>48</ele>
        <time>2022-02-16T12:29:52.152Z</time>
      </trkpt>
      <trkpt lat="48.86839" lon="2.34041">
        <ele>47</ele>
        <time>2022-02-16T12:29:56.156Z</time>
      </trkpt>
      <trkpt lat="48.8684" lon="2.34034">
        <ele>47</ele>
        <time>2022-02-16T12:30:01.159Z</time>
      </trkpt>
      <trkpt lat="48.86841" lon="2.34025">
        <ele>47</ele>
        <time>2022-02-16T12:30:06.171Z</time>
      </trkpt>
      <trkpt lat="48.86844" lon="2.34016">
        <ele>47</ele>
        <time>2022-02-16T12:30:10.147Z</time>
      </trkpt>
      <trkpt lat="48.86847" lon="2.34005">
        <ele>45</ele>
        <time>2022-02-16T12:30:15.151Z</time>
      </trkpt>
      <trkpt lat="48.86851" lon="2.33994">
        <ele>45</ele>
        <time>2022-02-16T12:30:20.159Z</time>
      </trkpt>
      <trkpt lat="48.86854" lon="2.33985">
        <ele>46</ele>
        <time>2022-02-16T12:30:25.150Z</time>
      </trkpt>
      <trkpt lat="48.86857" lon="2.33978">
        <ele>46</ele>
        <time>2022-02-16T12:30:29.155Z</time>
      </trkpt>
      <trkpt lat="48.86859" lon="2.33971">
        <ele>46</ele>
        <time>2022-02-16T12:30:33.161Z</time>
      </trkpt>
      <trkpt lat="48.86862" lon="2.33961">
        <ele>46</ele>
        <time>2022-02-16T12:30:38.159Z</time>
      </trkpt>
      <trkpt lat="48.86863" lon="2.33951">
        <ele>48</ele>
        <time>2022-02-16T12:30:43.168Z</time>
      </trkpt>
      <trkpt lat="48.86865" lon="2.33942">
        <ele>48</ele>
        <time>2022-02-16T12:30:48.157Z</time>
      </trkpt>
      <trkpt lat="48.86865" lon="2.33934">
        <ele>48</ele>
        <time>2022-02-16T12:30:52.160Z</time>
      </trkpt>
      <trkpt lat="48.86866" lon="2.33926">
        <ele>49</ele>
        <time>2022-02-16T12:30:57.157Z</time>
      </trkpt>
      <trkpt lat="48.86868" lon="2.33919">
        <ele>49</ele>
        <time>2022-02-16T12:31:01.161Z</time>
      </trkpt>
      <trkpt lat="48.86863" lon="2.33916">
        <ele>49</ele>
        <time>2022-02-16T12:31:06.156Z</time>
      </trkpt>
      <trkpt lat="48.86861" lon="2.33914">
        <ele>49</ele>
        <time>2022-02-16T12:31:10.159Z</time>
      </trkpt>
      <trkpt lat="48.86862" lon="2.33914">
        <ele>49</ele>
        <time>2022-02-16T12:31:14.168Z</time>
      </trkpt>
      <trkpt lat="48.86852" lon="2.33905">
        <ele>49</ele>
        <time>2022-02-16T12:31:52.200Z</time>
      </trkpt>
      <trkpt lat="48.86859" lon="2.33905">
        <ele>49</ele>
        <time>2022-02-16T12:31:57.148Z</time>
      </trkpt>
      <trkpt lat="48.8687" lon="2.33894">
        <ele>49</ele>
        <time>2022-02-16T12:32:02.148Z</time>
      </trkpt>
      <trkpt lat="48.86876" lon="2.3389">
        <ele>50</ele>
        <time>2022-02-16T12:32:06.155Z</time>
      </trkpt>
      <trkpt lat="48.86882" lon="2.33888">
        <ele>50</ele>
        <time>2022-02-16T12:32:11.165Z</time>
      </trkpt>
      <trkpt lat="48.86881" lon="2.33886">
        <ele>50</ele>
        <time>2022-02-16T12:32:45.155Z</time>
      </trkpt>
      <trkpt lat="48.86884" lon="2.33879">
        <ele>50</ele>
        <time>2022-02-16T12:32:49.162Z</time>
      </trkpt>
      <trkpt lat="48.86882" lon="2.33875">
        <ele>49</ele>
        <time>2022-02-16T12:32:53.160Z</time>
      </trkpt>
      <trkpt lat="48.86883" lon="2.33868">
        <ele>49</ele>
        <time>2022-02-16T12:32:58.152Z</time>
      </trkpt>
      <trkpt lat="48.86885" lon="2.33862">
        <ele>49</ele>
        <time>2022-02-16T12:33:02.156Z</time>
      </trkpt>
      <trkpt lat="48.86886" lon="2.33856">
        <ele>49</ele>
        <time>2022-02-16T12:33:06.171Z</time>
      </trkpt>
      <trkpt lat="48.86886" lon="2.33848">
        <ele>49</ele>
        <time>2022-02-16T12:33:11.158Z</time>
      </trkpt>
      <trkpt lat="48.86885" lon="2.33841">
        <ele>49</ele>
        <time>2022-02-16T12:33:16.154Z</time>
      </trkpt>
      <trkpt lat="48.86884" lon="2.33834">
        <ele>49</ele>
        <time>2022-02-16T12:33:21.158Z</time>
      </trkpt>
      <trkpt lat="48.86882" lon="2.33828">
        <ele>49</ele>
        <time>2022-02-16T12:33:25.157Z</time>
      </trkpt>
      <trkpt lat="48.8688" lon="2.33824">
        <ele>49</ele>
        <time>2022-02-16T12:33:30.147Z</time>
      </trkpt>
      <trkpt lat="48.86879" lon="2.33822">
        <ele>49</ele>
        <time>2022-02-16T12:33:34.155Z</time>
      </trkpt>
      <trkpt lat="48.86877" lon="2.3382">
        <ele>49</ele>
        <time>2022-02-16T12:33:38.153Z</time>
      </trkpt>
      <trkpt lat="48.86876" lon="2.33813">
        <ele>50</ele>
        <time>2022-02-16T12:33:42.156Z</time>
      </trkpt>
      <trkpt lat="48.86878" lon="2.33802">
        <ele>50</ele>
        <time>2022-02-16T12:33:47.157Z</time>
      </trkpt>
      <trkpt lat="48.86878" lon="2.33794">
        <ele>50</ele>
        <time>2022-02-16T12:33:52.158Z</time>
      </trkpt>
      <trkpt lat="48.86881" lon="2.33787">
        <ele>50</ele>
        <time>2022-02-16T12:33:57.146Z</time>
      </trkpt>
      <trkpt lat="48.86883" lon="2.33779">
        <ele>50</ele>
        <time>2022-02-16T12:34:02.167Z</time>
      </trkpt>
      <trkpt lat="48.8688" lon="2.3377">
        <ele>50</ele>
        <time>2022-02-16T12:34:07.148Z</time>
      </trkpt>
      <trkpt lat="48.86882" lon="2.33764">
        <ele>50</ele>
        <time>2022-02-16T12:34:12.158Z</time>
      </trkpt>
      <trkpt lat="48.86882" lon="2.33758">
        <ele>51</ele>
        <time>2022-02-16T12:34:17.149Z</time>
      </trkpt>
      <trkpt lat="48.86881" lon="2.33753">
        <ele>51</ele>
        <time>2022-02-16T12:34:21.155Z</time>
      </trkpt>
      <trkpt lat="48.8688" lon="2.33746">
        <ele>51</ele>
        <time>2022-02-16T12:34:25.159Z</time>
      </trkpt>
      <trkpt lat="48.86879" lon="2.33738">
        <ele>51</ele>
        <time>2022-02-16T12:34:30.154Z</time>
      </trkpt>
      <trkpt lat="48.86883" lon="2.33728">
        <ele>51</ele>
        <time>2022-02-16T12:34:35.157Z</time>
      </trkpt>
      <trkpt lat="48.86884" lon="2.3372">
        <ele>51</ele>
        <time>2022-02-16T12:34:39.159Z</time>
      </trkpt>
      <trkpt lat="48.86887" lon="2.33712">
        <ele>51</ele>
        <time>2022-02-16T12:34:44.157Z</time>
      </trkpt>
      <trkpt lat="48.86887" lon="2.33704">
        <ele>51</ele>
        <time>2022-02-16T12:34:48.169Z</time>
      </trkpt>
      <trkpt lat="48.86885" lon="2.33699">
        <ele>51</ele>
        <time>2022-02-16T12:34:52.158Z</time>
      </trkpt>
      <trkpt lat="48.86884" lon="2.33692">
        <ele>51</ele>
        <time>2022-02-16T12:34:57.159Z</time>
      </trkpt>
      <trkpt lat="48.86882" lon="2.33688">
        <ele>51</ele>
        <time>2022-02-16T12:35:01.155Z</time>
      </trkpt>
      <trkpt lat="48.86883" lon="2.33679">
        <ele>51</ele>
        <time>2022-02-16T12:35:06.160Z</time>
      </trkpt>
      <trkpt lat="48.86882" lon="2.33674">
        <ele>51</ele>
        <time>2022-02-16T12:35:10.156Z</time>
      </trkpt>
      <trkpt lat="48.86881" lon="2.33665">
        <ele>51</ele>
        <time>2022-02-16T12:35:15.156Z</time>
      </trkpt>
      <trkpt lat="48.86881" lon="2.33658">
        <ele>51</ele>
        <time>2022-02-16T12:35:19.160Z</time>
      </trkpt>
      <trkpt lat="48.86882" lon="2.33653">
        <ele>51</ele>
        <time>2022-02-16T12:35:24.151Z</time>
      </trkpt>
      <trkpt lat="48.86883" lon="2.33647">
        <ele>50</ele>
        <time>2022-02-16T12:35:28.167Z</time>
      </trkpt>
      <trkpt lat="48.86882" lon="2.3364">
        <ele>50</ele>
        <time>2022-02-16T12:35:33.152Z</time>
      </trkpt>
      <trkpt lat="48.86882" lon="2.33634">
        <ele>50</ele>
        <time>2022-02-16T12:35:38.157Z</time>
      </trkpt>
      <trkpt lat="48.86881" lon="2.33626">
        <ele>50</ele>
        <time>2022-02-16T12:35:43.155Z</time>
      </trkpt>
      <trkpt lat="48.86881" lon="2.3362">
        <ele>49</ele>
        <time>2022-02-16T12:35:47.164Z</time>
      </trkpt>
      <trkpt lat="48.86879" lon="2.33613">
        <ele>49</ele>
        <time>2022-02-16T12:35:52.152Z</time>
      </trkpt>
      <trkpt lat="48.86881" lon="2.33606">
        <ele>49</ele>
        <time>2022-02-16T12:35:56.158Z</time>
      </trkpt>
      <trkpt lat="48.8688" lon="2.336">
        <ele>49</ele>
        <time>2022-02-16T12:36:01.158Z</time>
      </trkpt>
      <trkpt lat="48.8688" lon="2.33593">
        <ele>49</ele>
        <time>2022-02-16T12:36:05.160Z</time>
      </trkpt>
      <trkpt lat="48.86879" lon="2.33586">
        <ele>49</ele>
        <time>2022-02-16T12:36:10.155Z</time>
      </trkpt>
      <trkpt lat="48.86878" lon="2.33579">
        <ele>49</ele>
        <time>2022-02-16T12:36:14.157Z</time>
      </trkpt>
      <trkpt lat="48.86878" lon="2.3357">
        <ele>49</ele>
        <time>2022-02-16T12:36:19.171Z</time>
      </trkpt>
      <trkpt lat="48.86879" lon="2.33557">
        <ele>49</ele>
        <time>2022-02-16T12:36:24.152Z</time>
      </trkpt>
      <trkpt lat="48.86878" lon="2.33549">
        <ele>49</ele>
        <time>2022-02-16T12:36:29.160Z</time>
      </trkpt>
      <trkpt lat="48.86877" lon="2.33538">
        <ele>48</ele>
        <time>2022-02-16T12:36:34.159Z</time>
      </trkpt>
      <trkpt lat="48.86875" lon="2.33532">
        <ele>48</ele>
        <time>2022-02-16T12:36:38.159Z</time>
      </trkpt>
      <trkpt lat="48.86874" lon="2.33526">
        <ele>48</ele>
        <time>2022-02-16T12:36:42.159Z</time>
      </trkpt>
      <trkpt lat="48.86873" lon="2.33518">
        <ele>48</ele>
        <time>2022-02-16T12:36:47.160Z</time>
      </trkpt>
      <trkpt lat="48.86877" lon="2.33511">
        <ele>47</ele>
        <time>2022-02-16T12:36:52.153Z</time>
      </trkpt>
      <trkpt lat="48.86877" lon="2.33503">
        <ele>47</ele>
        <time>2022-02-16T12:36:57.156Z</time>
      </trkpt>
      <trkpt lat="48.86878" lon="2.33497">
        <ele>47</ele>
        <time>2022-02-16T12:37:01.159Z</time>
      </trkpt>
      <trkpt lat="48.8688" lon="2.3349">
        <ele>47</ele>
        <time>2022-02-16T12:37:06.169Z</time>
      </trkpt>
      <trkpt lat="48.86883" lon="2.33478">
        <ele>48</ele>
        <time>2022-02-16T12:37:11.170Z</time>
      </trkpt>
      <trkpt lat="48.86887" lon="2.33467">
        <ele>48</ele>
        <time>2022-02-16T12:37:16.149Z</time>
      </trkpt>
      <trkpt lat="48.8689" lon="2.33464">
        <ele>48</ele>
        <time>2022-02-16T12:37:20.149Z</time>
      </trkpt>
      <trkpt lat="48.8689" lon="2.33458">
        <ele>48</ele>
        <time>2022-02-16T12:37:25.163Z</time>
      </trkpt>
      <trkpt lat="48.8689" lon="2.33445">
        <ele>48</ele>
        <time>2022-02-16T12:38:29.153Z</time>
      </trkpt>
      <trkpt lat="48.86891" lon="2.33443">
        <ele>48</ele>
        <time>2022-02-16T12:38:34.155Z</time>
      </trkpt>
      <trkpt lat="48.86891" lon="2.33442">
        <ele>48</ele>
        <time>2022-02-16T12:38:39.148Z</time>
      </trkpt>
      <trkpt lat="48.86892" lon="2.33441">
        <ele>48</ele>
        <time>2022-02-16T12:38:43.153Z</time>
      </trkpt>
      <trkpt lat="48.86891" lon="2.33439">
        <ele>48</ele>
        <time>2022-02-16T12:38:48.152Z</time>
      </trkpt>
      <trkpt lat="48.8689" lon="2.33434">
        <ele>48</ele>
        <time>2022-02-16T12:38:56.162Z</time>
      </trkpt>
      <trkpt lat="48.86888" lon="2.33432">
        <ele>48</ele>
        <time>2022-02-16T12:39:01.158Z</time>
      </trkpt>
      <trkpt lat="48.86884" lon="2.33437">
        <ele>48</ele>
        <time>2022-02-16T12:39:06.158Z</time>
      </trkpt>
      <trkpt lat="48.86885" lon="2.33446">
        <ele>48</ele>
        <time>2022-02-16T12:39:11.160Z</time>
      </trkpt>
      <trkpt lat="48.86881" lon="2.33447">
        <ele>48</ele>
        <time>2022-02-16T12:39:16.159Z</time>
      </trkpt>
      <trkpt lat="48.86881" lon="2.33454">
        <ele>48</ele>
        <time>2022-02-16T12:39:21.154Z</time>
      </trkpt>
      <trkpt lat="48.86883" lon="2.33458">
        <ele>48</ele>
        <time>2022-02-16T12:39:25.153Z</time>
      </trkpt>
      <trkpt lat="48.86886" lon="2.33451">
        <ele>48</ele>
        <time>2022-02-16T12:39:30.147Z</time>
      </trkpt>
      <trkpt lat="48.86887" lon="2.33446">
        <ele>48</ele>
        <time>2022-02-16T12:39:34.150Z</time>
      </trkpt>
      <trkpt lat="48.86887" lon="2.33439">
        <ele>48</ele>
        <time>2022-02-16T12:39:38.155Z</time>
      </trkpt>
      <trkpt lat="48.86883" lon="2.33437">
        <ele>48</ele>
        <time>2022-02-16T12:39:43.155Z</time>
      </trkpt>
      <trkpt lat="48.86878" lon="2.33436">
        <ele>48</ele>
        <time>2022-02-16T12:39:48.152Z</time>
      </trkpt>
      <trkpt lat="48.86877" lon="2.33436">
        <ele>48</ele>
        <time>2022-02-16T12:39:53.157Z</time>
      </trkpt>
      <trkpt lat="48.86873" lon="2.33434">
        <ele>50</ele>
        <time>2022-02-16T12:39:58.154Z</time>
      </trkpt>
      <trkpt lat="48.86871" lon="2.33432">
        <ele>50</ele>
        <time>2022-02-16T12:40:02.157Z</time>
      </trkpt>
      <trkpt lat="48.86868" lon="2.33431">
        <ele>50</ele>
        <time>2022-02-16T12:40:06.157Z</time>
      </trkpt>
      <trkpt lat="48.86866" lon="2.3343">
        <ele>50</ele>
        <time>2022-02-16T12:40:10.162Z</time>
      </trkpt>
      <trkpt lat="48.86861" lon="2.33425">
        <ele>50</ele>
        <time>2022-02-16T12:40:15.158Z</time>
      </trkpt>
      <trkpt lat="48.86852" lon="2.33415">
        <ele>50</ele>
        <time>2022-02-16T12:40:33.162Z</time>
      </trkpt>
      <trkpt lat="48.86846" lon="2.33413">
        <ele>51</ele>
        <time>2022-02-16T12:40:38.149Z</time>
      </trkpt>
      <trkpt lat="48.86841" lon="2.33411">
        <ele>51</ele>
        <time>2022-02-16T12:40:43.155Z</time>
      </trkpt>
      <trkpt lat="48.86838" lon="2.33408">
        <ele>51</ele>
        <time>2022-02-16T12:40:47.158Z</time>
      </trkpt>
      <trkpt lat="48.86835" lon="2.33405">
        <ele>51</ele>
        <time>2022-02-16T12:40:52.158Z</time>
      </trkpt>
      <trkpt lat="48.86833" lon="2.33401">
        <ele>51</ele>
        <time>2022-02-16T12:40:56.159Z</time>
      </trkpt>
      <trkpt lat="48.86828" lon="2.33397">
        <ele>51</ele>
        <time>2022-02-16T12:41:01.154Z</time>
      </trkpt>
      <trkpt lat="48.86825" lon="2.33393">
        <ele>51</ele>
        <time>2022-02-16T12:41:06.154Z</time>
      </trkpt>
      <trkpt lat="48.86822" lon="2.33393">
        <ele>51</ele>
        <time>2022-02-16T12:41:11.156Z</time>
      </trkpt>
      <trkpt lat="48.86819" lon="2.33392">
        <ele>51</ele>
        <time>2022-02-16T12:41:16.158Z</time>
      </trkpt>
      <trkpt lat="48.86815" lon="2.33391">
        <ele>51</ele>
        <time>2022-02-16T12:41:21.145Z</time>
      </trkpt>
      <trkpt lat="48.86811" lon="2.33388">
        <ele>51</ele>
        <time>2022-02-16T12:41:26.168Z</time>
      </trkpt>
      <trkpt lat="48.86806" lon="2.33386">
        <ele>51</ele>
        <time>2022-02-16T12:41:31.152Z</time>
      </trkpt>
      <trkpt lat="48.86801" lon="2.33382">
        <ele>51</ele>
        <time>2022-02-16T12:41:36.161Z</time>
      </trkpt>
      <trkpt lat="48.86797" lon="2.33377">
        <ele>51</ele>
        <time>2022-02-16T12:41:41.160Z</time>
      </trkpt>
      <trkpt lat="48.86789" lon="2.33377">
        <ele>51</ele>
        <time>2022-02-16T12:41:46.154Z</time>
      </trkpt>
      <trkpt lat="48.86782" lon="2.33376">
        <ele>51</ele>
        <time>2022-02-16T12:41:50.159Z</time>
      </trkpt>
      <trkpt lat="48.86774" lon="2.33376">
        <ele>51</ele>
        <time>2022-02-16T12:41:55.159Z</time>
      </trkpt>
      <trkpt lat="48.86769" lon="2.33374">
        <ele>50</ele>
        <time>2022-02-16T12:42:00.152Z</time>
      </trkpt>
      <trkpt lat="48.86763" lon="2.33374">
        <ele>50</ele>
        <time>2022-02-16T12:42:05.162Z</time>
      </trkpt>
      <trkpt lat="48.86758" lon="2.33379">
        <ele>51</ele>
        <time>2022-02-16T12:42:10.154Z</time>
      </trkpt>
      <trkpt lat="48.86752" lon="2.33387">
        <ele>51</ele>
        <time>2022-02-16T12:42:15.158Z</time>
      </trkpt>
      <trkpt lat="48.8675" lon="2.33397">
        <ele>51</ele>
        <time>2022-02-16T12:42:20.161Z</time>
      </trkpt>
      <trkpt lat="48.86748" lon="2.33407">
        <ele>52</ele>
        <time>2022-02-16T12:42:25.154Z</time>
      </trkpt>
      <trkpt lat="48.86748" lon="2.33416">
        <ele>52</ele>
        <time>2022-02-16T12:42:30.159Z</time>
      </trkpt>
      <trkpt lat="48.86746" lon="2.33422">
        <ele>52</ele>
        <time>2022-02-16T12:42:34.161Z</time>
      </trkpt>
      <trkpt lat="48.86742" lon="2.3343">
        <ele>52</ele>
        <time>2022-02-16T12:42:39.159Z</time>
      </trkpt>
      <trkpt lat="48.86737" lon="2.33437">
        <ele>52</ele>
        <time>2022-02-16T12:42:44.154Z</time>
      </trkpt>
      <trkpt lat="48.8674" lon="2.33446">
        <ele>52</ele>
        <time>2022-02-16T12:42:48.155Z</time>
      </trkpt>
      <trkpt lat="48.86738" lon="2.33455">
        <ele>52</ele>
        <time>2022-02-16T12:42:53.149Z</time>
      </trkpt>
      <trkpt lat="48.86736" lon="2.3346">
        <ele>51</ele>
        <time>2022-02-16T12:42:57.153Z</time>
      </trkpt>
      <trkpt lat="48.86734" lon="2.33465">
        <ele>51</ele>
        <time>2022-02-16T12:43:01.159Z</time>
      </trkpt>
      <trkpt lat="48.86732" lon="2.33472">
        <ele>51</ele>
        <time>2022-02-16T12:43:06.162Z</time>
      </trkpt>
      <trkpt lat="48.86729" lon="2.33481">
        <ele>51</ele>
        <time>2022-02-16T12:43:11.152Z</time>
      </trkpt>
      <trkpt lat="48.86726" lon="2.3349">
        <ele>50</ele>
        <time>2022-02-16T12:43:16.156Z</time>
      </trkpt>
      <trkpt lat="48.86724" lon="2.33499">
        <ele>50</ele>
        <time>2022-02-16T12:43:21.159Z</time>
      </trkpt>
      <trkpt lat="48.86721" lon="2.33506">
        <ele>50</ele>
        <time>2022-02-16T12:43:26.162Z</time>
      </trkpt>
      <trkpt lat="48.86723" lon="2.33512">
        <ele>50</ele>
        <time>2022-02-16T12:43:31.155Z</time>
      </trkpt>
      <trkpt lat="48.86728" lon="2.33516">
        <ele>49</ele>
        <time>2022-02-16T12:43:36.159Z</time>
      </trkpt>
      <trkpt lat="48.86733" lon="2.33519">
        <ele>49</ele>
        <time>2022-02-16T12:43:41.156Z</time>
      </trkpt>
      <trkpt lat="48.8674" lon="2.33522">
        <ele>49</ele>
        <time>2022-02-16T12:43:46.147Z</time>
      </trkpt>
      <trkpt lat="48.86744" lon="2.33526">
        <ele>49</ele>
        <time>2022-02-16T12:43:51.147Z</time>
      </trkpt>
      <trkpt lat="48.86748" lon="2.33527">
        <ele>49</ele>
        <time>2022-02-16T12:43:55.153Z</time>
      </trkpt>
      <trkpt lat="48.86753" lon="2.33529">
        <ele>49</ele>
        <time>2022-02-16T12:44:00.154Z</time>
      </trkpt>
      <trkpt lat="48.86755" lon="2.33525">
        <ele>49</ele>
        <time>2022-02-16T12:44:05.158Z</time>
      </trkpt>
      <trkpt lat="48.86758" lon="2.33528">
        <ele>49</ele>
        <time>2022-02-16T12:44:10.148Z</time>
      </trkpt>
      <trkpt lat="48.86763" lon="2.33529">
        <ele>49</ele>
        <time>2022-02-16T12:44:15.164Z</time>
      </trkpt>
      <trkpt lat="48.86767" lon="2.33533">
        <ele>49</ele>
        <time>2022-02-16T12:44:20.148Z</time>
      </trkpt>
      <trkpt lat="48.86771" lon="2.33536">
        <ele>49</ele>
        <time>2022-02-16T12:44:24.149Z</time>
      </trkpt>
      <trkpt lat="48.86774" lon="2.33538">
        <ele>49</ele>
        <time>2022-02-16T12:44:29.154Z</time>
      </trkpt>
      <trkpt lat="48.86779" lon="2.33541">
        <ele>49</ele>
        <time>2022-02-16T12:44:34.149Z</time>
      </trkpt>
      <trkpt lat="48.86782" lon="2.33543">
        <ele>48</ele>
        <time>2022-02-16T12:44:38.158Z</time>
      </trkpt>
      <trkpt lat="48.86787" lon="2.33546">
        <ele>48</ele>
        <time>2022-02-16T12:44:43.160Z</time>
      </trkpt>
      <trkpt lat="48.86792" lon="2.33547">
        <ele>47</ele>
        <time>2022-02-16T12:44:48.160Z</time>
      </trkpt>
      <trkpt lat="48.86797" lon="2.3355">
        <ele>47</ele>
        <time>2022-02-16T12:44:53.153Z</time>
      </trkpt>
      <trkpt lat="48.86802" lon="2.33553">
        <ele>47</ele>
        <time>2022-02-16T12:44:58.151Z</time>
      </trkpt>
      <trkpt lat="48.86807" lon="2.33555">
        <ele>47</ele>
        <time>2022-02-16T12:45:03.154Z</time>
      </trkpt>
      <trkpt lat="48.8681" lon="2.33558">
        <ele>47</ele>
        <time>2022-02-16T12:45:07.163Z</time>
      </trkpt>
      <trkpt lat="48.86808" lon="2.33566">
        <ele>47</ele>
        <time>2022-02-16T12:45:12.151Z</time>
      </trkpt>
      <trkpt lat="48.86804" lon="2.3357">
        <ele>46</ele>
        <time>2022-02-16T12:45:17.148Z</time>
      </trkpt>
      <trkpt lat="48.868" lon="2.33575">
        <ele>46</ele>
        <time>2022-02-16T12:45:22.159Z</time>
      </trkpt>
      <trkpt lat="48.86798" lon="2.3359">
        <ele>46</ele>
        <time>2022-02-16T12:45:30.155Z</time>
      </trkpt>
      <trkpt lat="48.86801" lon="2.33614">
        <ele>47</ele>
        <time>2022-02-16T12:45:35.158Z</time>
      </trkpt>
      <trkpt lat="48.86803" lon="2.33622">
        <ele>47</ele>
        <time>2022-02-16T12:45:40.148Z</time>
      </trkpt>
      <trkpt lat="48.86796" lon="2.33625">
        <ele>47</ele>
        <time>2022-02-16T12:45:45.156Z</time>
      </trkpt>
      <trkpt lat="48.86792" lon="2.3363">
        <ele>49</ele>
        <time>2022-02-16T12:45:50.156Z</time>
      </trkpt>
      <trkpt lat="48.86788" lon="2.3363">
        <ele>51</ele>
        <time>2022-02-16T12:45:55.159Z</time>
      </trkpt>
      <trkpt lat="48.86785" lon="2.33636">
        <ele>51</ele>
        <time>2022-02-16T12:46:00.149Z</time>
      </trkpt>
      <trkpt lat="48.86785" lon="2.33643">
        <ele>51</ele>
        <time>2022-02-16T12:46:04.150Z</time>
      </trkpt>
      <trkpt lat="48.86782" lon="2.33648">
        <ele>51</ele>
        <time>2022-02-16T12:46:08.150Z</time>
      </trkpt>
      <trkpt lat="48.86779" lon="2.33654">
        <ele>52</ele>
        <time>2022-02-16T12:46:12.163Z</time>
      </trkpt>
      <trkpt lat="48.86776" lon="2.33661">
        <ele>52</ele>
        <time>2022-02-16T12:46:17.177Z</time>
      </trkpt>
      <trkpt lat="48.86772" lon="2.33665">
        <ele>52</ele>
        <time>2022-02-16T12:46:22.162Z</time>
      </trkpt>
      <trkpt lat="48.86769" lon="2.33673">
        <ele>52</ele>
        <time>2022-02-16T12:46:27.157Z</time>
      </trkpt>
      <trkpt lat="48.86766" lon="2.33679">
        <ele>52</ele>
        <time>2022-02-16T12:46:31.159Z</time>
      </trkpt>
      <trkpt lat="48.86763" lon="2.33686">
        <ele>53</ele>
        <time>2022-02-16T12:46:36.154Z</time>
      </trkpt>
      <trkpt lat="48.86766" lon="2.33697">
        <ele>53</ele>
        <time>2022-02-16T12:46:40.158Z</time>
      </trkpt>
      <trkpt lat="48.86776" lon="2.33705">
        <ele>53</ele>
        <time>2022-02-16T12:46:45.144Z</time>
      </trkpt>
      <trkpt lat="48.86781" lon="2.33709">
        <ele>53</ele>
        <time>2022-02-16T12:46:49.161Z</time>
      </trkpt>
      <trkpt lat="48.86781" lon="2.3371">
        <ele>53</ele>
        <time>2022-02-16T12:46:54.158Z</time>
      </trkpt>
      <trkpt lat="48.86783" lon="2.33717">
        <ele>53</ele>
        <time>2022-02-16T12:46:58.169Z</time>
      </trkpt>
      <trkpt lat="48.86795" lon="2.33715">
        <ele>53</ele>
        <time>2022-02-16T12:47:03.157Z</time>
      </trkpt>
      <trkpt lat="48.86795" lon="2.33722">
        <ele>53</ele>
        <time>2022-02-16T12:47:08.145Z</time>
      </trkpt>
      <trkpt lat="48.86792" lon="2.33727">
        <ele>53</ele>
        <time>2022-02-16T12:47:12.159Z</time>
      </trkpt>
      <trkpt lat="48.86793" lon="2.33732">
        <ele>53</ele>
        <time>2022-02-16T12:47:17.157Z</time>
      </trkpt>
      <trkpt lat="48.86791" lon="2.33735">
        <ele>53</ele>
        <time>2022-02-16T12:48:56.146Z</time>
      </trkpt>
      <trkpt lat="48.8679" lon="2.33735">
        <ele>53</ele>
        <time>2022-02-16T12:49:00.156Z</time>
      </trkpt>
      <trkpt lat="48.8679" lon="2.33739">
        <ele>51</ele>
        <time>2022-02-16T12:49:05.142Z</time>
      </trkpt>
      <trkpt lat="48.86788" lon="2.33744">
        <ele>51</ele>
        <time>2022-02-16T12:49:09.152Z</time>
      </trkpt>
      <trkpt lat="48.8679" lon="2.33747">
        <ele>51</ele>
        <time>2022-02-16T12:49:14.156Z</time>
      </trkpt>
      <trkpt lat="48.8679" lon="2.33748">
        <ele>51</ele>
        <time>2022-02-16T12:49:18.161Z</time>
      </trkpt>
      <trkpt lat="48.86788" lon="2.3375">
        <ele>51</ele>
        <time>2022-02-16T12:49:23.156Z</time>
      </trkpt>
      <trkpt lat="48.86787" lon="2.33758">
        <ele>51</ele>
        <time>2022-02-16T12:49:28.152Z</time>
      </trkpt>
      <trkpt lat="48.86787" lon="2.33763">
        <ele>51</ele>
        <time>2022-02-16T12:49:32.159Z</time>
      </trkpt>
      <trkpt lat="48.86792" lon="2.33776">
        <ele>51</ele>
        <time>2022-02-16T12:49:47.154Z</time>
      </trkpt>
      <trkpt lat="48.86792" lon="2.33777">
        <ele>51</ele>
        <time>2022-02-16T12:49:51.159Z</time>
      </trkpt>
      <trkpt lat="48.86791" lon="2.33783">
        <ele>50</ele>
        <time>2022-02-16T12:49:56.159Z</time>
      </trkpt>
      <trkpt lat="48.86789" lon="2.33785">
        <ele>50</ele>
        <time>2022-02-16T12:50:00.163Z</time>
      </trkpt>
      <trkpt lat="48.86785" lon="2.3379">
        <ele>50</ele>
        <time>2022-02-16T12:50:05.151Z</time>
      </trkpt>
      <trkpt lat="48.8679" lon="2.33799">
        <ele>50</ele>
        <time>2022-02-16T12:50:43.156Z</time>
      </trkpt>
      <trkpt lat="48.86789" lon="2.33801">
        <ele>50</ele>
        <time>2022-02-16T12:50:47.163Z</time>
      </trkpt>
      <trkpt lat="48.8679" lon="2.33805">
        <ele>50</ele>
        <time>2022-02-16T12:50:52.156Z</time>
      </trkpt>
      <trkpt lat="48.86793" lon="2.33808">
        <ele>51</ele>
        <time>2022-02-16T12:50:57.160Z</time>
      </trkpt>
      <trkpt lat="48.86794" lon="2.33809">
        <ele>51</ele>
        <time>2022-02-16T12:51:02.161Z</time>
      </trkpt>
      <trkpt lat="48.86793" lon="2.33809">
        <ele>51</ele>
        <time>2022-02-16T12:51:06.155Z</time>
      </trkpt>
      <trkpt lat="48.86787" lon="2.33805">
        <ele>50</ele>
        <time>2022-02-16T12:51:11.160Z</time>
      </trkpt>
      <trkpt lat="48.86781" lon="2.33807">
        <ele>50</ele>
        <time>2022-02-16T12:51:15.160Z</time>
      </trkpt>
      <trkpt lat="48.8678" lon="2.3381">
        <ele>50</ele>
        <time>2022-02-16T12:51:19.230Z</time>
      </trkpt>
      <trkpt lat="48.86776" lon="2.33812">
        <ele>50</ele>
        <time>2022-02-16T12:51:32.167Z</time>
      </trkpt>
      <trkpt lat="48.86777" lon="2.33813">
        <ele>50</ele>
        <time>2022-02-16T12:51:37.148Z</time>
      </trkpt>
      <trkpt lat="48.86775" lon="2.33814">
        <ele>50</ele>
        <time>2022-02-16T12:51:42.157Z</time>
      </trkpt>
      <trkpt lat="48.86774" lon="2.3382">
        <ele>50</ele>
        <time>2022-02-16T12:51:47.148Z</time>
      </trkpt>
      <trkpt lat="48.86771" lon="2.33825">
        <ele>50</ele>
        <time>2022-02-16T12:51:51.158Z</time>
      </trkpt>
      <trkpt lat="48.86766" lon="2.3383">
        <ele>50</ele>
        <time>2022-02-16T12:51:56.155Z</time>
      </trkpt>
      <trkpt lat="48.86763" lon="2.33828">
        <ele>50</ele>
        <time>2022-02-16T12:52:00.154Z</time>
      </trkpt>
      <trkpt lat="48.8676" lon="2.33824">
        <ele>50</ele>
        <time>2022-02-16T12:52:05.163Z</time>
      </trkpt>
      <trkpt lat="48.86759" lon="2.33825">
        <ele>50</ele>
        <time>2022-02-16T12:52:09.163Z</time>
      </trkpt>
      <trkpt lat="48.86756" lon="2.33829">
        <ele>50</ele>
        <time>2022-02-16T12:52:14.158Z</time>
      </trkpt>
      <trkpt lat="48.86744" lon="2.33822">
        <ele>50</ele>
        <time>2022-02-16T12:52:42.155Z</time>
      </trkpt>
      <trkpt lat="48.86744" lon="2.33822">
        <ele>50</ele>
        <time>2022-02-16T12:52:47.150Z</time>
      </trkpt>
      <trkpt lat="48.86744" lon="2.33821">
        <ele>50</ele>
        <time>2022-02-16T12:52:51.157Z</time>
      </trkpt>
      <trkpt lat="48.86744" lon="2.33821">
        <ele>50</ele>
        <time>2022-02-16T12:52:55.159Z</time>
      </trkpt>
      <trkpt lat="48.86744" lon="2.33821">
        <ele>50</ele>
        <time>2022-02-16T12:53:00.156Z</time>
      </trkpt>
      <trkpt lat="48.8674" lon="2.33781">
        <ele>50</ele>
        <time>2022-02-16T12:55:07.166Z</time>
      </trkpt>
      <trkpt lat="48.86756" lon="2.33783">
        <ele>50</ele>
        <time>2022-02-16T12:55:12.155Z</time>
      </trkpt>
      <trkpt lat="48.86768" lon="2.33787">
        <ele>50</ele>
        <time>2022-02-16T12:55:17.149Z</time>
      </trkpt>
      <trkpt lat="48.86773" lon="2.33787">
        <ele>50</ele>
        <time>2022-02-16T12:55:21.155Z</time>
      </trkpt>
      <trkpt lat="48.86775" lon="2.33773">
        <ele>50</ele>
        <time>2022-02-16T12:55:26.143Z</time>
      </trkpt>
      <trkpt lat="48.86762" lon="2.33795">
        <ele>50</ele>
        <time>2022-02-16T12:56:20.146Z</time>
      </trkpt>
      <trkpt lat="48.86762" lon="2.33795">
        <ele>50</ele>
        <time>2022-02-16T12:56:24.146Z</time>
      </trkpt>
      <trkpt lat="48.86762" lon="2.33795">
        <ele>50</ele>
        <time>2022-02-16T12:56:28.146Z</time>
      </trkpt>
      <trkpt lat="48.86762" lon="2.33795">
        <ele>50</ele>
        <time>2022-02-16T12:56:32.150Z</time>
      </trkpt>
      <trkpt lat="48.8676" lon="2.33797">
        <ele>50</ele>
        <time>2022-02-16T12:56:37.161Z</time>
      </trkpt>
      <trkpt lat="48.86749" lon="2.33804">
        <ele>50</ele>
        <time>2022-02-16T12:57:00.160Z</time>
      </trkpt>
      <trkpt lat="48.86749" lon="2.33804">
        <ele>50</ele>
        <time>2022-02-16T12:57:05.168Z</time>
      </trkpt>
      <trkpt lat="48.86747" lon="2.33805">
        <ele>50</ele>
        <time>2022-02-16T12:57:10.152Z</time>
      </trkpt>
      <trkpt lat="48.86748" lon="2.33813">
        <ele>50</ele>
        <time>2022-02-16T12:57:15.159Z</time>
      </trkpt>
      <trkpt lat="48.86747" lon="2.33812">
        <ele>50</ele>
        <time>2022-02-16T12:57:19.161Z</time>
      </trkpt>
      <trkpt lat="48.86746" lon="2.33815">
        <ele>50</ele>
        <time>2022-02-16T12:57:34.149Z</time>
      </trkpt>
      <trkpt lat="48.86747" lon="2.33805">
        <ele>50</ele>
        <time>2022-02-16T12:57:39.146Z</time>
      </trkpt>
      <trkpt lat="48.86743" lon="2.33802">
        <ele>50</ele>
        <time>2022-02-16T12:57:44.289Z</time>
      </trkpt>
      <trkpt lat="48.86742" lon="2.33799">
        <ele>50</ele>
        <time>2022-02-16T12:57:49.152Z</time>
      </trkpt>
      <trkpt lat="48.86741" lon="2.33792">
        <ele>50</ele>
        <time>2022-02-16T12:57:54.149Z</time>
      </trkpt>
      <trkpt lat="48.86742" lon="2.33791">
        <ele>50</ele>
        <time>2022-02-16T12:58:03.153Z</time>
      </trkpt>
      <trkpt lat="48.86743" lon="2.33795">
        <ele>50</ele>
        <time>2022-02-16T12:58:07.168Z</time>
      </trkpt>
      <trkpt lat="48.86743" lon="2.33795">
        <ele>50</ele>
        <time>2022-02-16T12:58:12.156Z</time>
      </trkpt>
      <trkpt lat="48.86744" lon="2.33795">
        <ele>50</ele>
        <time>2022-02-16T12:58:16.153Z</time>
      </trkpt>
      <trkpt lat="48.86764" lon="2.33807">
        <ele>50</ele>
        <time>2022-02-16T12:59:53.157Z</time>
      </trkpt>
      <trkpt lat="48.86764" lon="2.33795">
        <ele>50</ele>
        <time>2022-02-16T13:00:16.152Z</time>
      </trkpt>
      <trkpt lat="48.86766" lon="2.33795">
        <ele>50</ele>
        <time>2022-02-16T13:00:21.152Z</time>
      </trkpt>
      <trkpt lat="48.8676" lon="2.33793">
        <ele>50</ele>
        <time>2022-02-16T13:00:26.161Z</time>
      </trkpt>
      <trkpt lat="48.86761" lon="2.33791">
        <ele>50</ele>
        <time>2022-02-16T13:00:31.147Z</time>
      </trkpt>
      <trkpt lat="48.86767" lon="2.33787">
        <ele>50</ele>
        <time>2022-02-16T13:00:35.151Z</time>
      </trkpt>
      <trkpt lat="48.86776" lon="2.33791">
        <ele>50</ele>
        <time>2022-02-16T13:00:39.155Z</time>
      </trkpt>
      <trkpt lat="48.86774" lon="2.33788">
        <ele>50</ele>
        <time>2022-02-16T13:00:44.144Z</time>
      </trkpt>
      <trkpt lat="48.86771" lon="2.33779">
        <ele>50</ele>
        <time>2022-02-16T13:00:49.158Z</time>
      </trkpt>
      <trkpt lat="48.86769" lon="2.33781">
        <ele>50</ele>
        <time>2022-02-16T13:00:54.156Z</time>
      </trkpt>
      <trkpt lat="48.8677" lon="2.3379">
        <ele>50</ele>
        <time>2022-02-16T13:02:58.152Z</time>
      </trkpt>
      <trkpt lat="48.86771" lon="2.3379">
        <ele>50</ele>
        <time>2022-02-16T13:03:02.144Z</time>
      </trkpt>
      <trkpt lat="48.86771" lon="2.3379">
        <ele>50</ele>
        <time>2022-02-16T13:03:07.150Z</time>
      </trkpt>
      <trkpt lat="48.8677" lon="2.33793">
        <ele>50</ele>
        <time>2022-02-16T13:03:11.156Z</time>
      </trkpt>
      <trkpt lat="48.8677" lon="2.33793">
        <ele>50</ele>
        <time>2022-02-16T13:03:16.151Z</time>
      </trkpt>
      <trkpt lat="48.8677" lon="2.33793">
        <ele>50</ele>
        <time>2022-02-16T13:03:29.153Z</time>
      </trkpt>
      <trkpt lat="48.8677" lon="2.33793">
        <ele>50</ele>
        <time>2022-02-16T13:03:33.151Z</time>
      </trkpt>
      <trkpt lat="48.8677" lon="2.33793">
        <ele>50</ele>
        <time>2022-02-16T13:03:38.154Z</time>
      </trkpt>
      <trkpt lat="48.86759" lon="2.33816">
        <ele>50</ele>
        <time>2022-02-16T13:03:43.155Z</time>
      </trkpt>
      <trkpt lat="48.86756" lon="2.33836">
        <ele>50</ele>
        <time>2022-02-16T13:03:47.152Z</time>
      </trkpt>
      <trkpt lat="48.86766" lon="2.33845">
        <ele>50</ele>
        <time>2022-02-16T13:06:12.162Z</time>
      </trkpt>
      <trkpt lat="48.86764" lon="2.33838">
        <ele>50</ele>
        <time>2022-02-16T13:06:17.160Z</time>
      </trkpt>
      <trkpt lat="48.86764" lon="2.33837">
        <ele>50</ele>
        <time>2022-02-16T13:06:22.159Z</time>
      </trkpt>
      <trkpt lat="48.86764" lon="2.33837">
        <ele>50</ele>
        <time>2022-02-16T13:06:27.158Z</time>
      </trkpt>
      <trkpt lat="48.86764" lon="2.33828">
        <ele>50</ele>
        <time>2022-02-16T13:06:32.161Z</time>
      </trkpt>
      <trkpt lat="48.86764" lon="2.33831">
        <ele>50</ele>
        <time>2022-02-16T13:06:51.152Z</time>
      </trkpt>
      <trkpt lat="48.86768" lon="2.33823">
        <ele>50</ele>
        <time>2022-02-16T13:06:56.151Z</time>
      </trkpt>
      <trkpt lat="48.8677" lon="2.33814">
        <ele>50</ele>
        <time>2022-02-16T13:07:00.156Z</time>
      </trkpt>
      <trkpt lat="48.86772" lon="2.33808">
        <ele>50</ele>
        <time>2022-02-16T13:07:04.161Z</time>
      </trkpt>
      <trkpt lat="48.86774" lon="2.33807">
        <ele>50</ele>
        <time>2022-02-16T13:07:09.158Z</time>
      </trkpt>
      <trkpt lat="48.86774" lon="2.33806">
        <ele>50</ele>
        <time>2022-02-16T13:07:14.166Z</time>
      </trkpt>
      <trkpt lat="48.86774" lon="2.33805">
        <ele>50</ele>
        <time>2022-02-16T13:07:19.158Z</time>
      </trkpt>
      <trkpt lat="48.86775" lon="2.33806">
        <ele>50</ele>
        <time>2022-02-16T13:07:24.160Z</time>
      </trkpt>
      <trkpt lat="48.86779" lon="2.3381">
        <ele>50</ele>
        <time>2022-02-16T13:07:29.147Z</time>
      </trkpt>
      <trkpt lat="48.86783" lon="2.33815">
        <ele>50</ele>
        <time>2022-02-16T13:07:34.156Z</time>
      </trkpt>
      <trkpt lat="48.86787" lon="2.33817">
        <ele>50</ele>
        <time>2022-02-16T13:07:38.150Z</time>
      </trkpt>
      <trkpt lat="48.86793" lon="2.3382">
        <ele>52</ele>
        <time>2022-02-16T13:07:43.150Z</time>
      </trkpt>
      <trkpt lat="48.868" lon="2.33821">
        <ele>52</ele>
        <time>2022-02-16T13:07:48.155Z</time>
      </trkpt>
      <trkpt lat="48.86805" lon="2.33824">
        <ele>52</ele>
        <time>2022-02-16T13:07:53.155Z</time>
      </trkpt>
      <trkpt lat="48.86807" lon="2.33828">
        <ele>52</ele>
        <time>2022-02-16T13:07:58.147Z</time>
      </trkpt>
      <trkpt lat="48.86805" lon="2.33835">
        <ele>52</ele>
        <time>2022-02-16T13:08:03.157Z</time>
      </trkpt>
      <trkpt lat="48.86803" lon="2.3384">
        <ele>52</ele>
        <time>2022-02-16T13:08:07.157Z</time>
      </trkpt>
      <trkpt lat="48.86803" lon="2.33849">
        <ele>51</ele>
        <time>2022-02-16T13:08:12.158Z</time>
      </trkpt>
      <trkpt lat="48.86802" lon="2.33856">
        <ele>51</ele>
        <time>2022-02-16T13:08:17.156Z</time>
      </trkpt>
      <trkpt lat="48.868" lon="2.33861">
        <ele>51</ele>
        <time>2022-02-16T13:08:22.162Z</time>
      </trkpt>
      <trkpt lat="48.86796" lon="2.33867">
        <ele>51</ele>
        <time>2022-02-16T13:08:27.161Z</time>
      </trkpt>
      <trkpt lat="48.86796" lon="2.33875">
        <ele>50</ele>
        <time>2022-02-16T13:08:32.156Z</time>
      </trkpt>
      <trkpt lat="48.86795" lon="2.33881">
        <ele>50</ele>
        <time>2022-02-16T13:08:36.161Z</time>
      </trkpt>
      <trkpt lat="48.86795" lon="2.33888">
        <ele>50</ele>
        <time>2022-02-16T13:08:41.149Z</time>
      </trkpt>
      <trkpt lat="48.86795" lon="2.33893">
        <ele>50</ele>
        <time>2022-02-16T13:08:45.163Z</time>
      </trkpt>
      <trkpt lat="48.86794" lon="2.33897">
        <ele>50</ele>
        <time>2022-02-16T13:08:50.154Z</time>
      </trkpt>
      <trkpt lat="48.86796" lon="2.33899">
        <ele>50</ele>
        <time>2022-02-16T13:09:54.156Z</time>
      </trkpt>
      <trkpt lat="48.86796" lon="2.33908">
        <ele>50</ele>
        <time>2022-02-16T13:09:59.153Z</time>
      </trkpt>
      <trkpt lat="48.86801" lon="2.33915">
        <ele>50</ele>
        <time>2022-02-16T13:10:04.148Z</time>
      </trkpt>
      <trkpt lat="48.868" lon="2.33921">
        <ele>50</ele>
        <time>2022-02-16T13:10:08.152Z</time>
      </trkpt>
      <trkpt lat="48.86799" lon="2.33929">
        <ele>50</ele>
        <time>2022-02-16T13:10:13.156Z</time>
      </trkpt>
      <trkpt lat="48.86796" lon="2.33936">
        <ele>50</ele>
        <time>2022-02-16T13:10:18.152Z</time>
      </trkpt>
      <trkpt lat="48.86792" lon="2.33941">
        <ele>50</ele>
        <time>2022-02-16T13:10:23.144Z</time>
      </trkpt>
      <trkpt lat="48.8679" lon="2.33945">
        <ele>51</ele>
        <time>2022-02-16T13:10:27.151Z</time>
      </trkpt>
      <trkpt lat="48.86787" lon="2.33945">
        <ele>51</ele>
        <time>2022-02-16T13:10:32.151Z</time>
      </trkpt>
      <trkpt lat="48.86783" lon="2.33945">
        <ele>51</ele>
        <time>2022-02-16T13:10:36.150Z</time>
      </trkpt>
      <trkpt lat="48.8678" lon="2.33944">
        <ele>51</ele>
        <time>2022-02-16T13:10:40.151Z</time>
      </trkpt>
      <trkpt lat="48.86777" lon="2.33941">
        <ele>51</ele>
        <time>2022-02-16T13:10:44.159Z</time>
      </trkpt>
      <trkpt lat="48.86772" lon="2.3394">
        <ele>51</ele>
        <time>2022-02-16T13:10:49.154Z</time>
      </trkpt>
      <trkpt lat="48.86767" lon="2.33938">
        <ele>51</ele>
        <time>2022-02-16T13:10:54.169Z</time>
      </trkpt>
      <trkpt lat="48.86761" lon="2.33933">
        <ele>50</ele>
        <time>2022-02-16T13:10:59.151Z</time>
      </trkpt>
      <trkpt lat="48.86754" lon="2.33931">
        <ele>50</ele>
        <time>2022-02-16T13:11:04.154Z</time>
      </trkpt>
      <trkpt lat="48.86748" lon="2.33931">
        <ele>50</ele>
        <time>2022-02-16T13:11:09.153Z</time>
      </trkpt>
      <trkpt lat="48.86743" lon="2.33927">
        <ele>49</ele>
        <time>2022-02-16T13:11:14.152Z</time>
      </trkpt>
      <trkpt lat="48.86737" lon="2.33925">
        <ele>49</ele>
        <time>2022-02-16T13:11:19.164Z</time>
      </trkpt>
      <trkpt lat="48.86731" lon="2.33924">
        <ele>48</ele>
        <time>2022-02-16T13:11:24.165Z</time>
      </trkpt>
      <trkpt lat="48.8673" lon="2.3393">
        <ele>48</ele>
        <time>2022-02-16T13:11:29.156Z</time>
      </trkpt>
      <trkpt lat="48.86735" lon="2.3393">
        <ele>48</ele>
        <time>2022-02-16T13:11:34.157Z</time>
      </trkpt>
      <trkpt lat="48.86735" lon="2.33929">
        <ele>48</ele>
        <time>2022-02-16T13:11:39.150Z</time>
      </trkpt>
      <trkpt lat="48.86729" lon="2.33927">
        <ele>48</ele>
        <time>2022-02-16T13:11:44.153Z</time>
      </trkpt>
      <trkpt lat="48.86724" lon="2.33921">
        <ele>48</ele>
        <time>2022-02-16T13:11:49.155Z</time>
      </trkpt>
      <trkpt lat="48.86718" lon="2.33919">
        <ele>48</ele>
        <time>2022-02-16T13:13:08.151Z</time>
      </trkpt>
      <trkpt lat="48.86717" lon="2.33918">
        <ele>48</ele>
        <time>2022-02-16T13:13:13.150Z</time>
      </trkpt>
      <trkpt lat="48.86713" lon="2.33918">
        <ele>48</ele>
        <time>2022-02-16T13:13:18.151Z</time>
      </trkpt>
      <trkpt lat="48.86711" lon="2.33916">
        <ele>48</ele>
        <time>2022-02-16T13:13:22.152Z</time>
      </trkpt>
      <trkpt lat="48.86705" lon="2.33914">
        <ele>47</ele>
        <time>2022-02-16T13:13:27.143Z</time>
      </trkpt>
      <trkpt lat="48.86702" lon="2.33913">
        <ele>47</ele>
        <time>2022-02-16T13:13:31.147Z</time>
      </trkpt>
      <trkpt lat="48.86702" lon="2.33916">
        <ele>47</ele>
        <time>2022-02-16T13:13:35.151Z</time>
      </trkpt>
      <trkpt lat="48.86699" lon="2.33917">
        <ele>47</ele>
        <time>2022-02-16T13:13:39.155Z</time>
      </trkpt>
      <trkpt lat="48.86694" lon="2.33915">
        <ele>47</ele>
        <time>2022-02-16T13:13:44.150Z</time>
      </trkpt>
      <trkpt lat="48.8669" lon="2.33911">
        <ele>47</ele>
        <time>2022-02-16T13:13:49.154Z</time>
      </trkpt>
      <trkpt lat="48.86687" lon="2.33907">
        <ele>47</ele>
        <time>2022-02-16T13:13:53.161Z</time>
      </trkpt>
      <trkpt lat="48.86683" lon="2.33904">
        <ele>47</ele>
        <time>2022-02-16T13:13:57.168Z</time>
      </trkpt>
      <trkpt lat="48.86679" lon="2.33903">
        <ele>47</ele>
        <time>2022-02-16T13:14:02.150Z</time>
      </trkpt>
      <trkpt lat="48.86678" lon="2.33899">
        <ele>47</ele>
        <time>2022-02-16T13:14:06.153Z</time>
      </trkpt>
      <trkpt lat="48.86678" lon="2.33898">
        <ele>47</ele>
        <time>2022-02-16T13:14:10.161Z</time>
      </trkpt>
      <trkpt lat="48.86678" lon="2.33897">
        <ele>47</ele>
        <time>2022-02-16T13:14:14.161Z</time>
      </trkpt>
      <trkpt lat="48.86678" lon="2.33895">
        <ele>47</ele>
        <time>2022-02-16T13:14:19.156Z</time>
      </trkpt>
      <trkpt lat="48.86674" lon="2.3389">
        <ele>47</ele>
        <time>2022-02-16T13:14:24.158Z</time>
      </trkpt>
      <trkpt lat="48.86668" lon="2.33885">
        <ele>47</ele>
        <time>2022-02-16T13:14:29.157Z</time>
      </trkpt>
      <trkpt lat="48.86663" lon="2.33882">
        <ele>47</ele>
        <time>2022-02-16T13:14:56.162Z</time>
      </trkpt>
      <trkpt lat="48.86656" lon="2.33878">
        <ele>47</ele>
        <time>2022-02-16T13:15:00.160Z</time>
      </trkpt>
      <trkpt lat="48.86649" lon="2.33875">
        <ele>49</ele>
        <time>2022-02-16T13:15:05.163Z</time>
      </trkpt>
      <trkpt lat="48.86645" lon="2.33871">
        <ele>49</ele>
        <time>2022-02-16T13:15:09.160Z</time>
      </trkpt>
      <trkpt lat="48.86642" lon="2.33865">
        <ele>49</ele>
        <time>2022-02-16T13:15:14.175Z</time>
      </trkpt>
      <trkpt lat="48.86646" lon="2.3386">
        <ele>49</ele>
        <time>2022-02-16T13:15:19.162Z</time>
      </trkpt>
      <trkpt lat="48.86643" lon="2.33856">
        <ele>49</ele>
        <time>2022-02-16T13:15:24.153Z</time>
      </trkpt>
      <trkpt lat="48.8664" lon="2.33851">
        <ele>49</ele>
        <time>2022-02-16T13:15:28.155Z</time>
      </trkpt>
      <trkpt lat="48.86642" lon="2.33845">
        <ele>50</ele>
        <time>2022-02-16T13:15:33.156Z</time>
      </trkpt>
      <trkpt lat="48.86643" lon="2.33838">
        <ele>50</ele>
        <time>2022-02-16T13:15:38.149Z</time>
      </trkpt>
      <trkpt lat="48.86644" lon="2.33833">
        <ele>50</ele>
        <time>2022-02-16T13:15:42.153Z</time>
      </trkpt>
      <trkpt lat="48.86645" lon="2.33825">
        <ele>50</ele>
        <time>2022-02-16T13:15:47.155Z</time>
      </trkpt>
      <trkpt lat="48.86645" lon="2.33818">
        <ele>50</ele>
        <time>2022-02-16T13:15:51.165Z</time>
      </trkpt>
      <trkpt lat="48.86645" lon="2.3381">
        <ele>50</ele>
        <time>2022-02-16T13:15:56.148Z</time>
      </trkpt>
      <trkpt lat="48.86647" lon="2.33803">
        <ele>50</ele>
        <time>2022-02-16T13:16:01.158Z</time>
      </trkpt>
      <trkpt lat="48.86645" lon="2.33798">
        <ele>50</ele>
        <time>2022-02-16T13:16:06.149Z</time>
      </trkpt>
      <trkpt lat="48.86646" lon="2.33793">
        <ele>50</ele>
        <time>2022-02-16T13:16:10.147Z</time>
      </trkpt>
      <trkpt lat="48.86647" lon="2.33787">
        <ele>50</ele>
        <time>2022-02-16T13:16:14.164Z</time>
      </trkpt>
      <trkpt lat="48.86647" lon="2.3378">
        <ele>50</ele>
        <time>2022-02-16T13:16:19.154Z</time>
      </trkpt>
      <trkpt lat="48.86647" lon="2.33774">
        <ele>50</ele>
        <time>2022-02-16T13:16:24.147Z</time>
      </trkpt>
      <trkpt lat="48.86648" lon="2.33769">
        <ele>50</ele>
        <time>2022-02-16T13:16:28.161Z</time>
      </trkpt>
      <trkpt lat="48.86649" lon="2.33764">
        <ele>50</ele>
        <time>2022-02-16T13:16:32.157Z</time>
      </trkpt>
      <trkpt lat="48.86649" lon="2.33757">
        <ele>50</ele>
        <time>2022-02-16T13:16:37.154Z</time>
      </trkpt>
      <trkpt lat="48.86648" lon="2.33753">
        <ele>50</ele>
        <time>2022-02-16T13:16:41.157Z</time>
      </trkpt>
      <trkpt lat="48.86646" lon="2.3375">
        <ele>50</ele>
        <time>2022-02-16T13:16:45.156Z</time>
      </trkpt>
      <trkpt lat="48.86643" lon="2.33746">
        <ele>50</ele>
        <time>2022-02-16T13:16:50.151Z</time>
      </trkpt>
      <trkpt lat="48.8664" lon="2.33744">
        <ele>50</ele>
        <time>2022-02-16T13:16:55.153Z</time>
      </trkpt>
      <trkpt lat="48.86636" lon="2.33741">
        <ele>50</ele>
        <time>2022-02-16T13:17:00.154Z</time>
      </trkpt>
      <trkpt lat="48.86632" lon="2.33737">
        <ele>50</ele>
        <time>2022-02-16T13:17:05.154Z</time>
      </trkpt>
      <trkpt lat="48.86628" lon="2.33734">
        <ele>51</ele>
        <time>2022-02-16T13:17:10.153Z</time>
      </trkpt>
      <trkpt lat="48.86624" lon="2.33732">
        <ele>50</ele>
        <time>2022-02-16T13:17:15.152Z</time>
      </trkpt>
      <trkpt lat="48.8662" lon="2.33729">
        <ele>50</ele>
        <time>2022-02-16T13:17:19.158Z</time>
      </trkpt>
      <trkpt lat="48.86616" lon="2.33724">
        <ele>50</ele>
        <time>2022-02-16T13:17:24.154Z</time>
      </trkpt>
      <trkpt lat="48.86612" lon="2.33721">
        <ele>50</ele>
        <time>2022-02-16T13:17:28.156Z</time>
      </trkpt>
      <trkpt lat="48.86607" lon="2.33717">
        <ele>50</ele>
        <time>2022-02-16T13:17:33.161Z</time>
      </trkpt>
      <trkpt lat="48.86601" lon="2.33714">
        <ele>50</ele>
        <time>2022-02-16T13:17:38.148Z</time>
      </trkpt>
      <trkpt lat="48.86597" lon="2.33713">
        <ele>48</ele>
        <time>2022-02-16T13:17:42.156Z</time>
      </trkpt>
      <trkpt lat="48.86588" lon="2.33717">
        <ele>48</ele>
        <time>2022-02-16T13:18:00.158Z</time>
      </trkpt>
      <trkpt lat="48.86584" lon="2.33713">
        <ele>48</ele>
        <time>2022-02-16T13:18:05.155Z</time>
      </trkpt>
      <trkpt lat="48.8658" lon="2.3371">
        <ele>48</ele>
        <time>2022-02-16T13:18:10.147Z</time>
      </trkpt>
      <trkpt lat="48.86574" lon="2.33708">
        <ele>49</ele>
        <time>2022-02-16T13:18:14.155Z</time>
      </trkpt>
      <trkpt lat="48.8657" lon="2.33704">
        <ele>49</ele>
        <time>2022-02-16T13:18:18.159Z</time>
      </trkpt>
      <trkpt lat="48.86565" lon="2.337">
        <ele>46</ele>
        <time>2022-02-16T13:18:22.149Z</time>
      </trkpt>
      <trkpt lat="48.86559" lon="2.33694">
        <ele>46</ele>
        <time>2022-02-16T13:18:27.151Z</time>
      </trkpt>
      <trkpt lat="48.86555" lon="2.3369">
        <ele>46</ele>
        <time>2022-02-16T13:18:31.155Z</time>
      </trkpt>
      <trkpt lat="48.86555" lon="2.33687">
        <ele>46</ele>
        <time>2022-02-16T13:18:36.158Z</time>
      </trkpt>
      <trkpt lat="48.86558" lon="2.33681">
        <ele>46</ele>
        <time>2022-02-16T13:20:17.161Z</time>
      </trkpt>
      <trkpt lat="48.86558" lon="2.3368">
        <ele>48</ele>
        <time>2022-02-16T13:20:22.162Z</time>
      </trkpt>
      <trkpt lat="48.86556" lon="2.33679">
        <ele>48</ele>
        <time>2022-02-16T13:20:27.165Z</time>
      </trkpt>
      <trkpt lat="48.86555" lon="2.33676">
        <ele>48</ele>
        <time>2022-02-16T13:20:32.153Z</time>
      </trkpt>
      <trkpt lat="48.86552" lon="2.33673">
        <ele>48</ele>
        <time>2022-02-16T13:20:36.166Z</time>
      </trkpt>
      <trkpt lat="48.86552" lon="2.33672">
        <ele>48</ele>
        <time>2022-02-16T13:20:41.150Z</time>
      </trkpt>
      <trkpt lat="48.86551" lon="2.33671">
        <ele>48</ele>
        <time>2022-02-16T13:20:46.170Z</time>
      </trkpt>
      <trkpt lat="48.86549" lon="2.33672">
        <ele>48</ele>
        <time>2022-02-16T13:20:51.147Z</time>
      </trkpt>
      <trkpt lat="48.86547" lon="2.33666">
        <ele>48</ele>
        <time>2022-02-16T13:20:56.151Z</time>
      </trkpt>
      <trkpt lat="48.86544" lon="2.33662">
        <ele>48</ele>
        <time>2022-02-16T13:21:01.154Z</time>
      </trkpt>
      <trkpt lat="48.86546" lon="2.33646">
        <ele>49</ele>
        <time>2022-02-16T13:21:16.159Z</time>
      </trkpt>
      <trkpt lat="48.86542" lon="2.33638">
        <ele>50</ele>
        <time>2022-02-16T13:21:21.150Z</time>
      </trkpt>
      <trkpt lat="48.86537" lon="2.33634">
        <ele>50</ele>
        <time>2022-02-16T13:21:26.149Z</time>
      </trkpt>
      <trkpt lat="48.86533" lon="2.33627">
        <ele>50</ele>
        <time>2022-02-16T13:21:31.153Z</time>
      </trkpt>
      <trkpt lat="48.8653" lon="2.33618">
        <ele>50</ele>
        <time>2022-02-16T13:21:36.158Z</time>
      </trkpt>
      <trkpt lat="48.86526" lon="2.33612">
        <ele>50</ele>
        <time>2022-02-16T13:21:41.156Z</time>
      </trkpt>
      <trkpt lat="48.86522" lon="2.33606">
        <ele>50</ele>
        <time>2022-02-16T13:21:45.155Z</time>
      </trkpt>
      <trkpt lat="48.86516" lon="2.336">
        <ele>50</ele>
        <time>2022-02-16T13:21:50.154Z</time>
      </trkpt>
      <trkpt lat="48.86511" lon="2.33595">
        <ele>51</ele>
        <time>2022-02-16T13:21:55.150Z</time>
      </trkpt>
      <trkpt lat="48.86506" lon="2.3359">
        <ele>51</ele>
        <time>2022-02-16T13:21:59.164Z</time>
      </trkpt>
      <trkpt lat="48.865" lon="2.33583">
        <ele>51</ele>
        <time>2022-02-16T13:22:04.154Z</time>
      </trkpt>
      <trkpt lat="48.86494" lon="2.33577">
        <ele>51</ele>
        <time>2022-02-16T13:22:09.152Z</time>
      </trkpt>
      <trkpt lat="48.86489" lon="2.33572">
        <ele>51</ele>
        <time>2022-02-16T13:22:14.156Z</time>
      </trkpt>
      <trkpt lat="48.86486" lon="2.33567">
        <ele>52</ele>
        <time>2022-02-16T13:22:18.157Z</time>
      </trkpt>
      <trkpt lat="48.8648" lon="2.33564">
        <ele>52</ele>
        <time>2022-02-16T13:22:23.162Z</time>
      </trkpt>
      <trkpt lat="48.86476" lon="2.33556">
        <ele>52</ele>
        <time>2022-02-16T13:22:28.157Z</time>
      </trkpt>
      <trkpt lat="48.86472" lon="2.33548">
        <ele>52</ele>
        <time>2022-02-16T13:22:33.150Z</time>
      </trkpt>
      <trkpt lat="48.86471" lon="2.33542">
        <ele>52</ele>
        <time>2022-02-16T13:22:37.154Z</time>
      </trkpt>
      <trkpt lat="48.86469" lon="2.33534">
        <ele>52</ele>
        <time>2022-02-16T13:22:42.153Z</time>
      </trkpt>
      <trkpt lat="48.86462" lon="2.33527">
        <ele>52</ele>
        <time>2022-02-16T13:22:47.150Z</time>
      </trkpt>
      <trkpt lat="48.86457" lon="2.33524">
        <ele>51</ele>
        <time>2022-02-16T13:22:51.156Z</time>
      </trkpt>
      <trkpt lat="48.86448" lon="2.33519">
        <ele>51</ele>
        <time>2022-02-16T13:22:56.150Z</time>
      </trkpt>
      <trkpt lat="48.86443" lon="2.33516">
        <ele>51</ele>
        <time>2022-02-16T13:23:01.155Z</time>
      </trkpt>
      <trkpt lat="48.86437" lon="2.3351">
        <ele>51</ele>
        <time>2022-02-16T13:23:06.147Z</time>
      </trkpt>
      <trkpt lat="48.86433" lon="2.33499">
        <ele>51</ele>
        <time>2022-02-16T13:23:10.159Z</time>
      </trkpt>
      <trkpt lat="48.86428" lon="2.3349">
        <ele>50</ele>
        <time>2022-02-16T13:23:14.185Z</time>
      </trkpt>
      <trkpt lat="48.86421" lon="2.3349">
        <ele>50</ele>
        <time>2022-02-16T13:23:19.153Z</time>
      </trkpt>
      <trkpt lat="48.86415" lon="2.33492">
        <ele>50</ele>
        <time>2022-02-16T13:23:24.166Z</time>
      </trkpt>
      <trkpt lat="48.86409" lon="2.33494">
        <ele>50</ele>
        <time>2022-02-16T13:23:29.151Z</time>
      </trkpt>
      <trkpt lat="48.86403" lon="2.33497">
        <ele>48</ele>
        <time>2022-02-16T13:23:34.155Z</time>
      </trkpt>
      <trkpt lat="48.86397" lon="2.335">
        <ele>48</ele>
        <time>2022-02-16T13:23:39.144Z</time>
      </trkpt>
      <trkpt lat="48.86392" lon="2.33501">
        <ele>48</ele>
        <time>2022-02-16T13:23:43.152Z</time>
      </trkpt>
      <trkpt lat="48.86387" lon="2.33503">
        <ele>48</ele>
        <time>2022-02-16T13:23:47.158Z</time>
      </trkpt>
      <trkpt lat="48.86376" lon="2.33508">
        <ele>48</ele>
        <time>2022-02-16T13:24:00.144Z</time>
      </trkpt>
      <trkpt lat="48.86375" lon="2.33508">
        <ele>48</ele>
        <time>2022-02-16T13:24:05.154Z</time>
      </trkpt>
      <trkpt lat="48.86375" lon="2.33508">
        <ele>46</ele>
        <time>2022-02-16T13:24:10.154Z</time>
      </trkpt>
      <trkpt lat="48.86374" lon="2.33509">
        <ele>46</ele>
        <time>2022-02-16T13:24:15.149Z</time>
      </trkpt>
      <trkpt lat="48.8637" lon="2.33512">
        <ele>46</ele>
        <time>2022-02-16T13:24:20.153Z</time>
      </trkpt>
      <trkpt lat="48.86367" lon="2.33513">
        <ele>46</ele>
        <time>2022-02-16T13:25:23.157Z</time>
      </trkpt>
      <trkpt lat="48.86367" lon="2.33515">
        <ele>44</ele>
        <time>2022-02-16T13:25:28.188Z</time>
      </trkpt>
      <trkpt lat="48.86361" lon="2.33518">
        <ele>44</ele>
        <time>2022-02-16T13:25:33.150Z</time>
      </trkpt>
      <trkpt lat="48.86356" lon="2.33519">
        <ele>44</ele>
        <time>2022-02-16T13:25:37.151Z</time>
      </trkpt>
      <trkpt lat="48.86353" lon="2.33522">
        <ele>44</ele>
        <time>2022-02-16T13:25:41.162Z</time>
      </trkpt>
      <trkpt lat="48.86349" lon="2.33525">
        <ele>44</ele>
        <time>2022-02-16T13:25:45.156Z</time>
      </trkpt>
      <trkpt lat="48.86347" lon="2.33534">
        <ele>47</ele>
        <time>2022-02-16T13:25:50.152Z</time>
      </trkpt>
      <trkpt lat="48.86348" lon="2.3354">
        <ele>44</ele>
        <time>2022-02-16T13:25:54.149Z</time>
      </trkpt>
      <trkpt lat="48.86352" lon="2.33542">
        <ele>46</ele>
        <time>2022-02-16T13:25:58.152Z</time>
      </trkpt>
      <trkpt lat="48.86355" lon="2.33547">
        <ele>46</ele>
        <time>2022-02-16T13:26:03.162Z</time>
      </trkpt>
      <trkpt lat="48.86362" lon="2.33553">
        <ele>46</ele>
        <time>2022-02-16T13:26:08.158Z</time>
      </trkpt>
      <trkpt lat="48.86366" lon="2.33553">
        <ele>46</ele>
        <time>2022-02-16T13:26:12.160Z</time>
      </trkpt>
      <trkpt lat="48.86369" lon="2.3355">
        <ele>46</ele>
        <time>2022-02-16T13:26:16.152Z</time>
      </trkpt>
      <trkpt lat="48.8637" lon="2.33553">
        <ele>46</ele>
        <time>2022-02-16T13:26:35.155Z</time>
      </trkpt>
      <trkpt lat="48.86371" lon="2.33553">
        <ele>46</ele>
        <time>2022-02-16T13:26:39.147Z</time>
      </trkpt>
      <trkpt lat="48.8637" lon="2.33554">
        <ele>46</ele>
        <time>2022-02-16T13:26:44.153Z</time>
      </trkpt>
      <trkpt lat="48.8637" lon="2.33559">
        <ele>46</ele>
        <time>2022-02-16T13:26:48.151Z</time>
      </trkpt>
      <trkpt lat="48.86373" lon="2.33566">
        <ele>46</ele>
        <time>2022-02-16T13:26:52.156Z</time>
      </trkpt>
      <trkpt lat="48.86382" lon="2.33582">
        <ele>45</ele>
        <time>2022-02-16T13:27:11.164Z</time>
      </trkpt>
      <trkpt lat="48.86382" lon="2.33583">
        <ele>45</ele>
        <time>2022-02-16T13:27:15.162Z</time>
      </trkpt>
      <trkpt lat="48.86382" lon="2.33583">
        <ele>45</ele>
        <time>2022-02-16T13:27:20.161Z</time>
      </trkpt>
      <trkpt lat="48.86382" lon="2.33583">
        <ele>45</ele>
        <time>2022-02-16T13:27:25.152Z</time>
      </trkpt>
      <trkpt lat="48.86383" lon="2.33585">
        <ele>45</ele>
        <time>2022-02-16T13:27:30.160Z</time>
      </trkpt>
      <trkpt lat="48.86387" lon="2.3359">
        <ele>45</ele>
        <time>2022-02-16T13:27:35.153Z</time>
      </trkpt>
      <trkpt lat="48.86388" lon="2.33597">
        <ele>45</ele>
        <time>2022-02-16T13:27:40.152Z</time>
      </trkpt>
      <trkpt lat="48.86387" lon="2.33604">
        <ele>45</ele>
        <time>2022-02-16T13:27:45.153Z</time>
      </trkpt>
      <trkpt lat="48.86383" lon="2.33611">
        <ele>45</ele>
        <time>2022-02-16T13:27:50.150Z</time>
      </trkpt>
      <trkpt lat="48.8638" lon="2.33609">
        <ele>45</ele>
        <time>2022-02-16T13:27:54.162Z</time>
      </trkpt>
      <trkpt lat="48.86376" lon="2.33611">
        <ele>45</ele>
        <time>2022-02-16T13:27:59.153Z</time>
      </trkpt>
      <trkpt lat="48.86372" lon="2.33614">
        <ele>46</ele>
        <time>2022-02-16T13:28:04.143Z</time>
      </trkpt>
      <trkpt lat="48.86371" lon="2.33617">
        <ele>46</ele>
        <time>2022-02-16T13:28:08.157Z</time>
      </trkpt>
      <trkpt lat="48.86365" lon="2.33618">
        <ele>46</ele>
        <time>2022-02-16T13:28:13.146Z</time>
      </trkpt>
      <trkpt lat="48.86367" lon="2.33641">
        <ele>45</ele>
        <time>2022-02-16T13:28:18.168Z</time>
      </trkpt>
      <trkpt lat="48.86373" lon="2.33656">
        <ele>43</ele>
        <time>2022-02-16T13:28:23.148Z</time>
      </trkpt>
      <trkpt lat="48.86378" lon="2.33663">
        <ele>44</ele>
        <time>2022-02-16T13:28:27.144Z</time>
      </trkpt>
      <trkpt lat="48.86383" lon="2.3367">
        <ele>44</ele>
        <time>2022-02-16T13:28:31.146Z</time>
      </trkpt>
      <trkpt lat="48.86389" lon="2.33675">
        <ele>44</ele>
        <time>2022-02-16T13:28:36.157Z</time>
      </trkpt>
      <trkpt lat="48.86393" lon="2.33683">
        <ele>41</ele>
        <time>2022-02-16T13:28:41.142Z</time>
      </trkpt>
      <trkpt lat="48.86394" lon="2.33687">
        <ele>41</ele>
        <time>2022-02-16T13:28:45.155Z</time>
      </trkpt>
      <trkpt lat="48.86394" lon="2.3369">
        <ele>41</ele>
        <time>2022-02-16T13:30:09.182Z</time>
      </trkpt>
      <trkpt lat="48.86393" lon="2.33697">
        <ele>41</ele>
        <time>2022-02-16T13:30:14.154Z</time>
      </trkpt>
      <trkpt lat="48.86391" lon="2.337">
        <ele>41</ele>
        <time>2022-02-16T13:30:18.164Z</time>
      </trkpt>
      <trkpt lat="48.86392" lon="2.33703">
        <ele>41</ele>
        <time>2022-02-16T13:30:22.161Z</time>
      </trkpt>
      <trkpt lat="48.86391" lon="2.33704">
        <ele>41</ele>
        <time>2022-02-16T13:30:26.185Z</time>
      </trkpt>
      <trkpt lat="48.86392" lon="2.33705">
        <ele>41</ele>
        <time>2022-02-16T13:30:31.149Z</time>
      </trkpt>
      <trkpt lat="48.86392" lon="2.33705">
        <ele>41</ele>
        <time>2022-02-16T13:30:36.155Z</time>
      </trkpt>
      <trkpt lat="48.86393" lon="2.33705">
        <ele>41</ele>
        <time>2022-02-16T13:30:41.149Z</time>
      </trkpt>
      <trkpt lat="48.8639" lon="2.33711">
        <ele>39</ele>
        <time>2022-02-16T13:30:46.153Z</time>
      </trkpt>
      <trkpt lat="48.86388" lon="2.3372">
        <ele>39</ele>
        <time>2022-02-16T13:30:51.150Z</time>
      </trkpt>
      <trkpt lat="48.86387" lon="2.33726">
        <ele>39</ele>
        <time>2022-02-16T13:30:55.148Z</time>
      </trkpt>
      <trkpt lat="48.86388" lon="2.33733">
        <ele>39</ele>
        <time>2022-02-16T13:31:00.146Z</time>
      </trkpt>
      <trkpt lat="48.86388" lon="2.33737">
        <ele>38</ele>
        <time>2022-02-16T13:31:04.146Z</time>
      </trkpt>
      <trkpt lat="48.86392" lon="2.33741">
        <ele>38</ele>
        <time>2022-02-16T13:31:09.157Z</time>
      </trkpt>
      <trkpt lat="48.86394" lon="2.33749">
        <ele>38</ele>
        <time>2022-02-16T13:31:14.152Z</time>
      </trkpt>
      <trkpt lat="48.86396" lon="2.33757">
        <ele>38</ele>
        <time>2022-02-16T13:31:19.148Z</time>
      </trkpt>
      <trkpt lat="48.86392" lon="2.33766">
        <ele>40</ele>
        <time>2022-02-16T13:31:24.152Z</time>
      </trkpt>
      <trkpt lat="48.86389" lon="2.33773">
        <ele>40</ele>
        <time>2022-02-16T13:31:29.148Z</time>
      </trkpt>
      <trkpt lat="48.86388" lon="2.33781">
        <ele>40</ele>
        <time>2022-02-16T13:31:34.148Z</time>
      </trkpt>
      <trkpt lat="48.86387" lon="2.33786">
        <ele>40</ele>
        <time>2022-02-16T13:31:38.153Z</time>
      </trkpt>
      <trkpt lat="48.86384" lon="2.33794">
        <ele>43</ele>
        <time>2022-02-16T13:31:43.148Z</time>
      </trkpt>
      <trkpt lat="48.86383" lon="2.33803">
        <ele>43</ele>
        <time>2022-02-16T13:31:47.156Z</time>
      </trkpt>
      <trkpt lat="48.86385" lon="2.3381">
        <ele>43</ele>
        <time>2022-02-16T13:31:51.277Z</time>
      </trkpt>
      <trkpt lat="48.86386" lon="2.33818">
        <ele>43</ele>
        <time>2022-02-16T13:31:56.153Z</time>
      </trkpt>
      <trkpt lat="48.86384" lon="2.33827">
        <ele>46</ele>
        <time>2022-02-16T13:32:01.159Z</time>
      </trkpt>
      <trkpt lat="48.86383" lon="2.33836">
        <ele>46</ele>
        <time>2022-02-16T13:32:06.152Z</time>
      </trkpt>
      <trkpt lat="48.86382" lon="2.33846">
        <ele>46</ele>
        <time>2022-02-16T13:32:11.155Z</time>
      </trkpt>
      <trkpt lat="48.86381" lon="2.33858">
        <ele>47</ele>
        <time>2022-02-16T13:32:16.156Z</time>
      </trkpt>
      <trkpt lat="48.8638" lon="2.33866">
        <ele>47</ele>
        <time>2022-02-16T13:32:20.157Z</time>
      </trkpt>
      <trkpt lat="48.86379" lon="2.33875">
        <ele>47</ele>
        <time>2022-02-16T13:32:24.159Z</time>
      </trkpt>
      <trkpt lat="48.86379" lon="2.33885">
        <ele>49</ele>
        <time>2022-02-16T13:32:29.161Z</time>
      </trkpt>
      <trkpt lat="48.86378" lon="2.33894">
        <ele>49</ele>
        <time>2022-02-16T13:32:34.152Z</time>
      </trkpt>
      <trkpt lat="48.86377" lon="2.339">
        <ele>49</ele>
        <time>2022-02-16T13:32:39.157Z</time>
      </trkpt>
      <trkpt lat="48.86378" lon="2.33911">
        <ele>50</ele>
        <time>2022-02-16T13:32:44.147Z</time>
      </trkpt>
      <trkpt lat="48.86376" lon="2.33923">
        <ele>50</ele>
        <time>2022-02-16T13:32:49.152Z</time>
      </trkpt>
      <trkpt lat="48.86375" lon="2.33933">
        <ele>52</ele>
        <time>2022-02-16T13:32:53.166Z</time>
      </trkpt>
      <trkpt lat="48.86372" lon="2.33943">
        <ele>49</ele>
        <time>2022-02-16T13:32:58.157Z</time>
      </trkpt>
      <trkpt lat="48.86367" lon="2.33953">
        <ele>49</ele>
        <time>2022-02-16T13:33:03.159Z</time>
      </trkpt>
      <trkpt lat="48.86361" lon="2.33961">
        <ele>50</ele>
        <time>2022-02-16T13:33:07.162Z</time>
      </trkpt>
      <trkpt lat="48.86355" lon="2.33969">
        <ele>50</ele>
        <time>2022-02-16T13:33:12.153Z</time>
      </trkpt>
      <trkpt lat="48.86352" lon="2.33976">
        <ele>50</ele>
        <time>2022-02-16T13:33:17.153Z</time>
      </trkpt>
      <trkpt lat="48.86351" lon="2.33984">
        <ele>50</ele>
        <time>2022-02-16T13:33:21.167Z</time>
      </trkpt>
      <trkpt lat="48.8635" lon="2.33992">
        <ele>49</ele>
        <time>2022-02-16T13:33:25.172Z</time>
      </trkpt>
      <trkpt lat="48.86346" lon="2.34001">
        <ele>49</ele>
        <time>2022-02-16T13:33:30.165Z</time>
      </trkpt>
      <trkpt lat="48.86343" lon="2.34011">
        <ele>49</ele>
        <time>2022-02-16T13:33:35.159Z</time>
      </trkpt>
      <trkpt lat="48.8634" lon="2.34022">
        <ele>49</ele>
        <time>2022-02-16T13:33:40.158Z</time>
      </trkpt>
      <trkpt lat="48.86342" lon="2.34031">
        <ele>49</ele>
        <time>2022-02-16T13:33:45.159Z</time>
      </trkpt>
      <trkpt lat="48.86344" lon="2.34037">
        <ele>49</ele>
        <time>2022-02-16T13:33:49.167Z</time>
      </trkpt>
      <trkpt lat="48.86346" lon="2.34045">
        <ele>49</ele>
        <time>2022-02-16T13:33:54.155Z</time>
      </trkpt>
      <trkpt lat="48.86343" lon="2.34049">
        <ele>49</ele>
        <time>2022-02-16T13:33:59.166Z</time>
      </trkpt>
      <trkpt lat="48.86346" lon="2.34056">
        <ele>49</ele>
        <time>2022-02-16T13:34:04.159Z</time>
      </trkpt>
      <trkpt lat="48.86348" lon="2.34062">
        <ele>47</ele>
        <time>2022-02-16T13:34:08.158Z</time>
      </trkpt>
      <trkpt lat="48.86351" lon="2.34067">
        <ele>47</ele>
        <time>2022-02-16T13:34:12.306Z</time>
      </trkpt>
      <trkpt lat="48.86355" lon="2.34075">
        <ele>47</ele>
        <time>2022-02-16T13:34:17.162Z</time>
      </trkpt>
      <trkpt lat="48.86357" lon="2.34084">
        <ele>47</ele>
        <time>2022-02-16T13:34:22.153Z</time>
      </trkpt>
      <trkpt lat="48.86359" lon="2.34091">
        <ele>47</ele>
        <time>2022-02-16T13:34:26.150Z</time>
      </trkpt>
      <trkpt lat="48.86362" lon="2.34097">
        <ele>48</ele>
        <time>2022-02-16T13:34:30.159Z</time>
      </trkpt>
      <trkpt lat="48.86364" lon="2.34106">
        <ele>48</ele>
        <time>2022-02-16T13:34:35.160Z</time>
      </trkpt>
      <trkpt lat="48.86363" lon="2.34112">
        <ele>48</ele>
        <time>2022-02-16T13:34:39.163Z</time>
      </trkpt>
      <trkpt lat="48.86361" lon="2.34118">
        <ele>48</ele>
        <time>2022-02-16T13:34:44.154Z</time>
      </trkpt>
      <trkpt lat="48.8636" lon="2.34124">
        <ele>48</ele>
        <time>2022-02-16T13:34:49.160Z</time>
      </trkpt>
      <trkpt lat="48.8636" lon="2.34127">
        <ele>49</ele>
        <time>2022-02-16T13:34:54.166Z</time>
      </trkpt>
      <trkpt lat="48.8636" lon="2.34127">
        <ele>49</ele>
        <time>2022-02-16T13:35:40.155Z</time>
      </trkpt>
      <trkpt lat="48.8636" lon="2.34127">
        <ele>49</ele>
        <time>2022-02-16T13:35:45.148Z</time>
      </trkpt>
      <trkpt lat="48.8636" lon="2.34128">
        <ele>49</ele>
        <time>2022-02-16T13:35:50.157Z</time>
      </trkpt>
      <trkpt lat="48.8636" lon="2.34135">
        <ele>49</ele>
        <time>2022-02-16T13:35:55.148Z</time>
      </trkpt>
      <trkpt lat="48.86361" lon="2.34143">
        <ele>49</ele>
        <time>2022-02-16T13:36:00.150Z</time>
      </trkpt>
      <trkpt lat="48.8639" lon="2.3414">
        <ele>50</ele>
        <time>2022-02-16T13:36:19.152Z</time>
      </trkpt>
      <trkpt lat="48.86395" lon="2.34149">
        <ele>50</ele>
        <time>2022-02-16T13:36:24.160Z</time>
      </trkpt>
      <trkpt lat="48.86399" lon="2.34154">
        <ele>50</ele>
        <time>2022-02-16T13:36:28.149Z</time>
      </trkpt>
      <trkpt lat="48.86404" lon="2.34159">
        <ele>48</ele>
        <time>2022-02-16T13:36:33.151Z</time>
      </trkpt>
      <trkpt lat="48.86407" lon="2.34166">
        <ele>48</ele>
        <time>2022-02-16T13:36:38.161Z</time>
      </trkpt>
      <trkpt lat="48.86408" lon="2.34171">
        <ele>48</ele>
        <time>2022-02-16T13:36:43.156Z</time>
      </trkpt>
      <trkpt lat="48.86409" lon="2.34178">
        <ele>48</ele>
        <time>2022-02-16T13:36:47.154Z</time>
      </trkpt>
      <trkpt lat="48.86414" lon="2.34185">
        <ele>47</ele>
        <time>2022-02-16T13:36:52.161Z</time>
      </trkpt>
      <trkpt lat="48.86418" lon="2.3419">
        <ele>47</ele>
        <time>2022-02-16T13:36:57.151Z</time>
      </trkpt>
      <trkpt lat="48.8642" lon="2.34197">
        <ele>47</ele>
        <time>2022-02-16T13:37:02.157Z</time>
      </trkpt>
      <trkpt lat="48.86423" lon="2.34203">
        <ele>47</ele>
        <time>2022-02-16T13:37:07.144Z</time>
      </trkpt>
      <trkpt lat="48.86426" lon="2.34205">
        <ele>47</ele>
        <time>2022-02-16T13:37:11.146Z</time>
      </trkpt>
      <trkpt lat="48.8643" lon="2.34212">
        <ele>47</ele>
        <time>2022-02-16T13:37:16.144Z</time>
      </trkpt>
      <trkpt lat="48.86432" lon="2.34216">
        <ele>47</ele>
        <time>2022-02-16T13:37:20.153Z</time>
      </trkpt>
      <trkpt lat="48.86436" lon="2.34222">
        <ele>47</ele>
        <time>2022-02-16T13:37:24.151Z</time>
      </trkpt>
      <trkpt lat="48.86438" lon="2.34231">
        <ele>47</ele>
        <time>2022-02-16T13:37:29.160Z</time>
      </trkpt>
      <trkpt lat="48.86442" lon="2.3424">
        <ele>47</ele>
        <time>2022-02-16T13:37:34.163Z</time>
      </trkpt>
      <trkpt lat="48.86446" lon="2.3425">
        <ele>47</ele>
        <time>2022-02-16T13:37:39.146Z</time>
      </trkpt>
      <trkpt lat="48.86453" lon="2.34262">
        <ele>47</ele>
        <time>2022-02-16T13:37:43.157Z</time>
      </trkpt>
      <trkpt lat="48.86456" lon="2.34265">
        <ele>47</ele>
        <time>2022-02-16T13:37:47.167Z</time>
      </trkpt>
      <trkpt lat="48.86461" lon="2.34268">
        <ele>47</ele>
        <time>2022-02-16T13:37:52.155Z</time>
      </trkpt>
      <trkpt lat="48.86473" lon="2.34265">
        <ele>47</ele>
        <time>2022-02-16T13:38:10.175Z</time>
      </trkpt>
      <trkpt lat="48.86478" lon="2.34266">
        <ele>47</ele>
        <time>2022-02-16T13:38:15.164Z</time>
      </trkpt>
      <trkpt lat="48.86483" lon="2.34269">
        <ele>47</ele>
        <time>2022-02-16T13:38:20.145Z</time>
      </trkpt>
      <trkpt lat="48.86488" lon="2.34271">
        <ele>47</ele>
        <time>2022-02-16T13:38:24.151Z</time>
      </trkpt>
      <trkpt lat="48.86492" lon="2.34272">
        <ele>47</ele>
        <time>2022-02-16T13:38:29.147Z</time>
      </trkpt>
      <trkpt lat="48.8649" lon="2.34272">
        <ele>47</ele>
        <time>2022-02-16T13:38:33.147Z</time>
      </trkpt>
      <trkpt lat="48.86492" lon="2.34272">
        <ele>47</ele>
        <time>2022-02-16T13:38:38.152Z</time>
      </trkpt>
      <trkpt lat="48.86493" lon="2.34274">
        <ele>47</ele>
        <time>2022-02-16T13:38:43.150Z</time>
      </trkpt>
      <trkpt lat="48.86483" lon="2.34375">
        <ele>49</ele>
        <time>2022-02-16T13:39:24.150Z</time>
      </trkpt>
      <trkpt lat="48.86479" lon="2.34372">
        <ele>49</ele>
        <time>2022-02-16T13:39:33.144Z</time>
      </trkpt>
      <trkpt lat="48.86478" lon="2.34368">
        <ele>49</ele>
        <time>2022-02-16T13:39:38.167Z</time>
      </trkpt>
      <trkpt lat="48.8648" lon="2.34378">
        <ele>52</ele>
        <time>2022-02-16T13:39:43.153Z</time>
      </trkpt>
      <trkpt lat="48.8648" lon="2.34383">
        <ele>52</ele>
        <time>2022-02-16T13:39:48.148Z</time>
      </trkpt>
      <trkpt lat="48.86476" lon="2.3439">
        <ele>52</ele>
        <time>2022-02-16T13:39:53.148Z</time>
      </trkpt>
      <trkpt lat="48.86474" lon="2.34391">
        <ele>52</ele>
        <time>2022-02-16T13:39:57.152Z</time>
      </trkpt>
      <trkpt lat="48.86473" lon="2.3439">
        <ele>52</ele>
        <time>2022-02-16T13:40:01.152Z</time>
      </trkpt>
      <trkpt lat="48.86471" lon="2.34392">
        <ele>52</ele>
        <time>2022-02-16T13:40:06.156Z</time>
      </trkpt>
      <trkpt lat="48.86469" lon="2.3439">
        <ele>52</ele>
        <time>2022-02-16T13:40:10.153Z</time>
      </trkpt>
      <trkpt lat="48.86465" lon="2.34384">
        <ele>52</ele>
        <time>2022-02-16T13:40:14.154Z</time>
      </trkpt>
      <trkpt lat="48.86459" lon="2.34381">
        <ele>52</ele>
        <time>2022-02-16T13:40:19.147Z</time>
      </trkpt>
      <trkpt lat="48.86454" lon="2.34375">
        <ele>49</ele>
        <time>2022-02-16T13:40:23.156Z</time>
      </trkpt>
      <trkpt lat="48.86451" lon="2.34368">
        <ele>49</ele>
        <time>2022-02-16T13:40:27.158Z</time>
      </trkpt>
      <trkpt lat="48.8645" lon="2.34358">
        <ele>49</ele>
        <time>2022-02-16T13:40:32.165Z</time>
      </trkpt>
      <trkpt lat="48.86452" lon="2.34351">
        <ele>49</ele>
        <time>2022-02-16T13:40:37.155Z</time>
      </trkpt>
      <trkpt lat="48.86452" lon="2.3434">
        <ele>47</ele>
        <time>2022-02-16T13:40:42.149Z</time>
      </trkpt>
      <trkpt lat="48.86451" lon="2.34334">
        <ele>47</ele>
        <time>2022-02-16T13:40:47.146Z</time>
      </trkpt>
      <trkpt lat="48.8645" lon="2.3433">
        <ele>47</ele>
        <time>2022-02-16T13:40:51.154Z</time>
      </trkpt>
      <trkpt lat="48.86449" lon="2.34326">
        <ele>47</ele>
        <time>2022-02-16T13:40:56.149Z</time>
      </trkpt>
      <trkpt lat="48.86449" lon="2.34323">
        <ele>47</ele>
        <time>2022-02-16T13:41:00.150Z</time>
      </trkpt>
      <trkpt lat="48.86451" lon="2.34317">
        <ele>47</ele>
        <time>2022-02-16T13:41:04.153Z</time>
      </trkpt>
      <trkpt lat="48.86453" lon="2.3431">
        <ele>47</ele>
        <time>2022-02-16T13:41:08.170Z</time>
      </trkpt>
      <trkpt lat="48.86456" lon="2.34301">
        <ele>47</ele>
        <time>2022-02-16T13:41:13.151Z</time>
      </trkpt>
      <trkpt lat="48.86457" lon="2.34295">
        <ele>47</ele>
        <time>2022-02-16T13:41:17.160Z</time>
      </trkpt>
      <trkpt lat="48.86457" lon="2.34289">
        <ele>47</ele>
        <time>2022-02-16T13:41:21.172Z</time>
      </trkpt>
      <trkpt lat="48.86452" lon="2.34284">
        <ele>47</ele>
        <time>2022-02-16T13:41:26.167Z</time>
      </trkpt>
      <trkpt lat="48.86445" lon="2.34278">
        <ele>47</ele>
        <time>2022-02-16T13:41:31.163Z</time>
      </trkpt>
      <trkpt lat="48.86439" lon="2.34275">
        <ele>47</ele>
        <time>2022-02-16T13:41:36.159Z</time>
      </trkpt>
      <trkpt lat="48.86433" lon="2.34272">
        <ele>47</ele>
        <time>2022-02-16T13:41:40.157Z</time>
      </trkpt>
      <trkpt lat="48.86427" lon="2.34268">
        <ele>48</ele>
        <time>2022-02-16T13:41:45.161Z</time>
      </trkpt>
      <trkpt lat="48.86422" lon="2.34271">
        <ele>48</ele>
        <time>2022-02-16T13:41:49.160Z</time>
      </trkpt>
      <trkpt lat="48.86416" lon="2.3427">
        <ele>48</ele>
        <time>2022-02-16T13:41:54.149Z</time>
      </trkpt>
      <trkpt lat="48.86411" lon="2.34266">
        <ele>48</ele>
        <time>2022-02-16T13:41:58.154Z</time>
      </trkpt>
      <trkpt lat="48.86407" lon="2.34256">
        <ele>47</ele>
        <time>2022-02-16T13:42:02.172Z</time>
      </trkpt>
      <trkpt lat="48.86397" lon="2.34252">
        <ele>49</ele>
        <time>2022-02-16T13:42:07.155Z</time>
      </trkpt>
      <trkpt lat="48.8639" lon="2.34245">
        <ele>49</ele>
        <time>2022-02-16T13:42:12.150Z</time>
      </trkpt>
      <trkpt lat="48.86386" lon="2.3424">
        <ele>49</ele>
        <time>2022-02-16T13:42:17.147Z</time>
      </trkpt>
      <trkpt lat="48.86381" lon="2.34236">
        <ele>49</ele>
        <time>2022-02-16T13:42:22.158Z</time>
      </trkpt>
      <trkpt lat="48.86375" lon="2.34236">
        <ele>50</ele>
        <time>2022-02-16T13:42:27.148Z</time>
      </trkpt>
      <trkpt lat="48.8637" lon="2.34236">
        <ele>50</ele>
        <time>2022-02-16T13:42:31.154Z</time>
      </trkpt>
      <trkpt lat="48.86365" lon="2.34237">
        <ele>50</ele>
        <time>2022-02-16T13:42:36.160Z</time>
      </trkpt>
      <trkpt lat="48.86358" lon="2.34234">
        <ele>50</ele>
        <time>2022-02-16T13:42:40.160Z</time>
      </trkpt>
      <trkpt lat="48.86362" lon="2.34231">
        <ele>50</ele>
        <time>2022-02-16T13:42:45.153Z</time>
      </trkpt>
      <trkpt lat="48.86357" lon="2.34225">
        <ele>50</ele>
        <time>2022-02-16T13:42:50.148Z</time>
      </trkpt>
      <trkpt lat="48.86353" lon="2.34223">
        <ele>50</ele>
        <time>2022-02-16T13:42:54.148Z</time>
      </trkpt>
      <trkpt lat="48.86345" lon="2.34217">
        <ele>50</ele>
        <time>2022-02-16T13:42:59.153Z</time>
      </trkpt>
      <trkpt lat="48.86337" lon="2.34213">
        <ele>50</ele>
        <time>2022-02-16T13:43:04.153Z</time>
      </trkpt>
      <trkpt lat="48.86331" lon="2.34209">
        <ele>50</ele>
        <time>2022-02-16T13:43:09.151Z</time>
      </trkpt>
      <trkpt lat="48.86327" lon="2.34209">
        <ele>50</ele>
        <time>2022-02-16T13:43:13.155Z</time>
      </trkpt>
      <trkpt lat="48.86322" lon="2.3421">
        <ele>50</ele>
        <time>2022-02-16T13:43:18.152Z</time>
      </trkpt>
      <trkpt lat="48.86318" lon="2.34209">
        <ele>49</ele>
        <time>2022-02-16T13:43:22.158Z</time>
      </trkpt>
      <trkpt lat="48.86315" lon="2.34204">
        <ele>50</ele>
        <time>2022-02-16T13:43:27.152Z</time>
      </trkpt>
      <trkpt lat="48.86313" lon="2.34196">
        <ele>50</ele>
        <time>2022-02-16T13:43:31.153Z</time>
      </trkpt>
      <trkpt lat="48.8631" lon="2.34186">
        <ele>50</ele>
        <time>2022-02-16T13:43:36.168Z</time>
      </trkpt>
      <trkpt lat="48.86316" lon="2.34186">
        <ele>50</ele>
        <time>2022-02-16T13:48:12.161Z</time>
      </trkpt>
      <trkpt lat="48.86315" lon="2.3419">
        <ele>50</ele>
        <time>2022-02-16T13:48:17.161Z</time>
      </trkpt>
      <trkpt lat="48.86312" lon="2.34196">
        <ele>50</ele>
        <time>2022-02-16T13:48:22.162Z</time>
      </trkpt>
      <trkpt lat="48.86309" lon="2.34204">
        <ele>50</ele>
        <time>2022-02-16T13:48:27.163Z</time>
      </trkpt>
      <trkpt lat="48.86306" lon="2.34205">
        <ele>50</ele>
        <time>2022-02-16T13:48:32.165Z</time>
      </trkpt>
      <trkpt lat="48.86306" lon="2.34207">
        <ele>50</ele>
        <time>2022-02-16T13:49:15.153Z</time>
      </trkpt>
      <trkpt lat="48.86305" lon="2.34205">
        <ele>50</ele>
        <time>2022-02-16T13:49:19.155Z</time>
      </trkpt>
      <trkpt lat="48.86299" lon="2.34205">
        <ele>50</ele>
        <time>2022-02-16T13:49:24.150Z</time>
      </trkpt>
      <trkpt lat="48.86293" lon="2.34201">
        <ele>50</ele>
        <time>2022-02-16T13:49:28.158Z</time>
      </trkpt>
      <trkpt lat="48.8629" lon="2.34194">
        <ele>49</ele>
        <time>2022-02-16T13:49:33.152Z</time>
      </trkpt>
      <trkpt lat="48.86285" lon="2.3419">
        <ele>49</ele>
        <time>2022-02-16T13:49:38.161Z</time>
      </trkpt>
      <trkpt lat="48.86278" lon="2.34192">
        <ele>49</ele>
        <time>2022-02-16T13:49:43.151Z</time>
      </trkpt>
      <trkpt lat="48.86272" lon="2.34191">
        <ele>49</ele>
        <time>2022-02-16T13:49:48.151Z</time>
      </trkpt>
      <trkpt lat="48.86267" lon="2.3419">
        <ele>49</ele>
        <time>2022-02-16T13:49:52.154Z</time>
      </trkpt>
      <trkpt lat="48.86262" lon="2.34187">
        <ele>49</ele>
        <time>2022-02-16T13:49:57.156Z</time>
      </trkpt>
      <trkpt lat="48.86256" lon="2.34185">
        <ele>49</ele>
        <time>2022-02-16T13:50:02.160Z</time>
      </trkpt>
      <trkpt lat="48.86251" lon="2.34185">
        <ele>49</ele>
        <time>2022-02-16T13:50:07.152Z</time>
      </trkpt>
      <trkpt lat="48.86247" lon="2.34184">
        <ele>49</ele>
        <time>2022-02-16T13:50:11.178Z</time>
      </trkpt>
      <trkpt lat="48.8624" lon="2.34176">
        <ele>49</ele>
        <time>2022-02-16T13:50:16.161Z</time>
      </trkpt>
      <trkpt lat="48.86235" lon="2.34167">
        <ele>50</ele>
        <time>2022-02-16T13:50:21.158Z</time>
      </trkpt>
      <trkpt lat="48.86232" lon="2.34161">
        <ele>50</ele>
        <time>2022-02-16T13:50:25.177Z</time>
      </trkpt>
      <trkpt lat="48.86227" lon="2.34155">
        <ele>50</ele>
        <time>2022-02-16T13:50:30.158Z</time>
      </trkpt>
      <trkpt lat="48.86221" lon="2.3415">
        <ele>50</ele>
        <time>2022-02-16T13:50:35.147Z</time>
      </trkpt>
      <trkpt lat="48.86218" lon="2.34144">
        <ele>50</ele>
        <time>2022-02-16T13:50:39.156Z</time>
      </trkpt>
      <trkpt lat="48.86214" lon="2.34141">
        <ele>50</ele>
        <time>2022-02-16T13:50:43.155Z</time>
      </trkpt>
      <trkpt lat="48.8621" lon="2.34137">
        <ele>50</ele>
        <time>2022-02-16T13:50:47.169Z</time>
      </trkpt>
      <trkpt lat="48.86208" lon="2.34134">
        <ele>49</ele>
        <time>2022-02-16T13:51:17.153Z</time>
      </trkpt>
      <trkpt lat="48.86208" lon="2.34133">
        <ele>49</ele>
        <time>2022-02-16T13:51:21.161Z</time>
      </trkpt>
      <trkpt lat="48.86205" lon="2.34132">
        <ele>49</ele>
        <time>2022-02-16T13:51:26.150Z</time>
      </trkpt>
      <trkpt lat="48.86204" lon="2.3413">
        <ele>49</ele>
        <time>2022-02-16T13:51:30.163Z</time>
      </trkpt>
      <trkpt lat="48.862" lon="2.34127">
        <ele>49</ele>
        <time>2022-02-16T13:51:34.169Z</time>
      </trkpt>
      <trkpt lat="48.86201" lon="2.3413">
        <ele>49</ele>
        <time>2022-02-16T13:51:39.155Z</time>
      </trkpt>
      <trkpt lat="48.86195" lon="2.3413">
        <ele>49</ele>
        <time>2022-02-16T13:51:44.161Z</time>
      </trkpt>
      <trkpt lat="48.86189" lon="2.34126">
        <ele>49</ele>
        <time>2022-02-16T13:51:49.153Z</time>
      </trkpt>
      <trkpt lat="48.86184" lon="2.34121">
        <ele>49</ele>
        <time>2022-02-16T13:51:54.145Z</time>
      </trkpt>
      <trkpt lat="48.86178" lon="2.34121">
        <ele>48</ele>
        <time>2022-02-16T13:51:58.152Z</time>
      </trkpt>
      <trkpt lat="48.86173" lon="2.34122">
        <ele>48</ele>
        <time>2022-02-16T13:52:02.155Z</time>
      </trkpt>
      <trkpt lat="48.86169" lon="2.34125">
        <ele>48</ele>
        <time>2022-02-16T13:52:06.155Z</time>
      </trkpt>
      <trkpt lat="48.86166" lon="2.3413">
        <ele>49</ele>
        <time>2022-02-16T13:52:11.152Z</time>
      </trkpt>
      <trkpt lat="48.86166" lon="2.34129">
        <ele>49</ele>
        <time>2022-02-16T13:52:15.152Z</time>
      </trkpt>
      <trkpt lat="48.86161" lon="2.34129">
        <ele>49</ele>
        <time>2022-02-16T13:52:20.146Z</time>
      </trkpt>
      <trkpt lat="48.86157" lon="2.34128">
        <ele>49</ele>
        <time>2022-02-16T13:52:24.164Z</time>
      </trkpt>
      <trkpt lat="48.86151" lon="2.34127">
        <ele>48</ele>
        <time>2022-02-16T13:52:29.162Z</time>
      </trkpt>
      <trkpt lat="48.86146" lon="2.34126">
        <ele>48</ele>
        <time>2022-02-16T13:52:33.163Z</time>
      </trkpt>
      <trkpt lat="48.8614" lon="2.34123">
        <ele>48</ele>
        <time>2022-02-16T13:52:38.153Z</time>
      </trkpt>
      <trkpt lat="48.86132" lon="2.34118">
        <ele>48</ele>
        <time>2022-02-16T13:52:43.167Z</time>
      </trkpt>
      <trkpt lat="48.86127" lon="2.34114">
        <ele>48</ele>
        <time>2022-02-16T13:52:48.147Z</time>
      </trkpt>
      <trkpt lat="48.86123" lon="2.3411">
        <ele>46</ele>
        <time>2022-02-16T13:52:52.158Z</time>
      </trkpt>
      <trkpt lat="48.86118" lon="2.34108">
        <ele>46</ele>
        <time>2022-02-16T13:52:56.159Z</time>
      </trkpt>
      <trkpt lat="48.86113" lon="2.34105">
        <ele>46</ele>
        <time>2022-02-16T13:53:00.166Z</time>
      </trkpt>
      <trkpt lat="48.86107" lon="2.34103">
        <ele>46</ele>
        <time>2022-02-16T13:53:05.165Z</time>
      </trkpt>
      <trkpt lat="48.86103" lon="2.34104">
        <ele>46</ele>
        <time>2022-02-16T13:53:09.161Z</time>
      </trkpt>
      <trkpt lat="48.86097" lon="2.34104">
        <ele>46</ele>
        <time>2022-02-16T13:53:13.160Z</time>
      </trkpt>
      <trkpt lat="48.86096" lon="2.34111">
        <ele>45</ele>
        <time>2022-02-16T13:53:18.164Z</time>
      </trkpt>
      <trkpt lat="48.86095" lon="2.34115">
        <ele>45</ele>
        <time>2022-02-16T13:53:22.169Z</time>
      </trkpt>
      <trkpt lat="48.86094" lon="2.34123">
        <ele>45</ele>
        <time>2022-02-16T13:53:26.163Z</time>
      </trkpt>
      <trkpt lat="48.86094" lon="2.3413">
        <ele>47</ele>
        <time>2022-02-16T13:53:31.160Z</time>
      </trkpt>
      <trkpt lat="48.86092" lon="2.34135">
        <ele>47</ele>
        <time>2022-02-16T13:53:35.166Z</time>
      </trkpt>
      <trkpt lat="48.86089" lon="2.34142">
        <ele>47</ele>
        <time>2022-02-16T13:53:40.161Z</time>
      </trkpt>
      <trkpt lat="48.86086" lon="2.34149">
        <ele>47</ele>
        <time>2022-02-16T13:53:45.149Z</time>
      </trkpt>
      <trkpt lat="48.86084" lon="2.34157">
        <ele>48</ele>
        <time>2022-02-16T13:53:50.158Z</time>
      </trkpt>
      <trkpt lat="48.86079" lon="2.34164">
        <ele>48</ele>
        <time>2022-02-16T13:53:54.171Z</time>
      </trkpt>
      <trkpt lat="48.86076" lon="2.34172">
        <ele>48</ele>
        <time>2022-02-16T13:53:59.162Z</time>
      </trkpt>
      <trkpt lat="48.86073" lon="2.34177">
        <ele>48</ele>
        <time>2022-02-16T13:54:03.171Z</time>
      </trkpt>
      <trkpt lat="48.86074" lon="2.34184">
        <ele>49</ele>
        <time>2022-02-16T13:54:08.156Z</time>
      </trkpt>
      <trkpt lat="48.86072" lon="2.3419">
        <ele>49</ele>
        <time>2022-02-16T13:54:12.162Z</time>
      </trkpt>
      <trkpt lat="48.86073" lon="2.34197">
        <ele>49</ele>
        <time>2022-02-16T13:54:17.154Z</time>
      </trkpt>
      <trkpt lat="48.86071" lon="2.34201">
        <ele>49</ele>
        <time>2022-02-16T13:54:21.162Z</time>
      </trkpt>
      <trkpt lat="48.86069" lon="2.34207">
        <ele>49</ele>
        <time>2022-02-16T13:54:25.169Z</time>
      </trkpt>
      <trkpt lat="48.86068" lon="2.34213">
        <ele>49</ele>
        <time>2022-02-16T13:54:30.164Z</time>
      </trkpt>
      <trkpt lat="48.86068" lon="2.34221">
        <ele>49</ele>
        <time>2022-02-16T13:54:34.158Z</time>
      </trkpt>
      <trkpt lat="48.86068" lon="2.34229">
        <ele>49</ele>
        <time>2022-02-16T13:54:39.167Z</time>
      </trkpt>
      <trkpt lat="48.86066" lon="2.34235">
        <ele>49</ele>
        <time>2022-02-16T13:54:44.176Z</time>
      </trkpt>
      <trkpt lat="48.86062" lon="2.34241">
        <ele>49</ele>
        <time>2022-02-16T13:54:49.162Z</time>
      </trkpt>
      <trkpt lat="48.86059" lon="2.34248">
        <ele>49</ele>
        <time>2022-02-16T13:54:54.154Z</time>
      </trkpt>
      <trkpt lat="48.86057" lon="2.34254">
        <ele>49</ele>
        <time>2022-02-16T13:54:59.158Z</time>
      </trkpt>
      <trkpt lat="48.86055" lon="2.34259">
        <ele>49</ele>
        <time>2022-02-16T13:55:03.159Z</time>
      </trkpt>
      <trkpt lat="48.86052" lon="2.34265">
        <ele>49</ele>
        <time>2022-02-16T13:55:08.166Z</time>
      </trkpt>
      <trkpt lat="48.86051" lon="2.34269">
        <ele>49</ele>
        <time>2022-02-16T13:55:12.167Z</time>
      </trkpt>
      <trkpt lat="48.86048" lon="2.34275">
        <ele>49</ele>
        <time>2022-02-16T13:55:17.158Z</time>
      </trkpt>
      <trkpt lat="48.86045" lon="2.3428">
        <ele>49</ele>
        <time>2022-02-16T13:55:22.160Z</time>
      </trkpt>
      <trkpt lat="48.86042" lon="2.34285">
        <ele>49</ele>
        <time>2022-02-16T13:55:26.161Z</time>
      </trkpt>
      <trkpt lat="48.8604" lon="2.34289">
        <ele>50</ele>
        <time>2022-02-16T13:55:30.173Z</time>
      </trkpt>
      <trkpt lat="48.8604" lon="2.34298">
        <ele>51</ele>
        <time>2022-02-16T13:55:35.168Z</time>
      </trkpt>
      <trkpt lat="48.8604" lon="2.34303">
        <ele>51</ele>
        <time>2022-02-16T13:55:39.164Z</time>
      </trkpt>
      <trkpt lat="48.86039" lon="2.34307">
        <ele>51</ele>
        <time>2022-02-16T13:55:43.169Z</time>
      </trkpt>
      <trkpt lat="48.86036" lon="2.34311">
        <ele>51</ele>
        <time>2022-02-16T13:55:47.171Z</time>
      </trkpt>
      <trkpt lat="48.86034" lon="2.34321">
        <ele>52</ele>
        <time>2022-02-16T13:55:52.159Z</time>
      </trkpt>
      <trkpt lat="48.8603" lon="2.34329">
        <ele>52</ele>
        <time>2022-02-16T13:55:57.170Z</time>
      </trkpt>
      <trkpt lat="48.86025" lon="2.34335">
        <ele>52</ele>
        <time>2022-02-16T13:56:02.166Z</time>
      </trkpt>
      <trkpt lat="48.86025" lon="2.34349">
        <ele>52</ele>
        <time>2022-02-16T13:56:07.161Z</time>
      </trkpt>
      <trkpt lat="48.86021" lon="2.34358">
        <ele>52</ele>
        <time>2022-02-16T13:56:11.168Z</time>
      </trkpt>
      <trkpt lat="48.86018" lon="2.34366">
        <ele>52</ele>
        <time>2022-02-16T13:56:15.165Z</time>
      </trkpt>
      <trkpt lat="48.86016" lon="2.34373">
        <ele>52</ele>
        <time>2022-02-16T13:56:19.171Z</time>
      </trkpt>
      <trkpt lat="48.86013" lon="2.34385">
        <ele>54</ele>
        <time>2022-02-16T13:56:24.148Z</time>
      </trkpt>
      <trkpt lat="48.8601" lon="2.3439">
        <ele>54</ele>
        <time>2022-02-16T13:56:28.154Z</time>
      </trkpt>
      <trkpt lat="48.86007" lon="2.34401">
        <ele>54</ele>
        <time>2022-02-16T13:56:33.169Z</time>
      </trkpt>
      <trkpt lat="48.86002" lon="2.34413">
        <ele>54</ele>
        <time>2022-02-16T13:56:38.162Z</time>
      </trkpt>
      <trkpt lat="48.85996" lon="2.34421">
        <ele>54</ele>
        <time>2022-02-16T13:56:43.162Z</time>
      </trkpt>
      <trkpt lat="48.85993" lon="2.34428">
        <ele>54</ele>
        <time>2022-02-16T13:56:47.155Z</time>
      </trkpt>
      <trkpt lat="48.85989" lon="2.34433">
        <ele>54</ele>
        <time>2022-02-16T13:56:52.153Z</time>
      </trkpt>
      <trkpt lat="48.85985" lon="2.34436">
        <ele>54</ele>
        <time>2022-02-16T13:56:56.166Z</time>
      </trkpt>
      <trkpt lat="48.85979" lon="2.3444">
        <ele>54</ele>
        <time>2022-02-16T13:57:01.159Z</time>
      </trkpt>
      <trkpt lat="48.85974" lon="2.34443">
        <ele>54</ele>
        <time>2022-02-16T13:57:06.160Z</time>
      </trkpt>
      <trkpt lat="48.85968" lon="2.34452">
        <ele>54</ele>
        <time>2022-02-16T13:57:11.146Z</time>
      </trkpt>
      <trkpt lat="48.8597" lon="2.34461">
        <ele>54</ele>
        <time>2022-02-16T13:57:15.157Z</time>
      </trkpt>
      <trkpt lat="48.85969" lon="2.34468">
        <ele>54</ele>
        <time>2022-02-16T13:57:20.152Z</time>
      </trkpt>
      <trkpt lat="48.85965" lon="2.34469">
        <ele>54</ele>
        <time>2022-02-16T13:57:25.162Z</time>
      </trkpt>
      <trkpt lat="48.85961" lon="2.34469">
        <ele>54</ele>
        <time>2022-02-16T13:57:30.158Z</time>
      </trkpt>
      <trkpt lat="48.85959" lon="2.34468">
        <ele>54</ele>
        <time>2022-02-16T13:57:34.173Z</time>
      </trkpt>
      <trkpt lat="48.8596" lon="2.3448">
        <ele>54</ele>
        <time>2022-02-16T13:57:39.149Z</time>
      </trkpt>
      <trkpt lat="48.85961" lon="2.3449">
        <ele>54</ele>
        <time>2022-02-16T13:57:43.161Z</time>
      </trkpt>
      <trkpt lat="48.85959" lon="2.34498">
        <ele>54</ele>
        <time>2022-02-16T13:57:48.158Z</time>
      </trkpt>
      <trkpt lat="48.85961" lon="2.34506">
        <ele>54</ele>
        <time>2022-02-16T13:57:52.163Z</time>
      </trkpt>
      <trkpt lat="48.85958" lon="2.34514">
        <ele>53</ele>
        <time>2022-02-16T13:57:57.145Z</time>
      </trkpt>
      <trkpt lat="48.85953" lon="2.34521">
        <ele>54</ele>
        <time>2022-02-16T13:58:02.144Z</time>
      </trkpt>
      <trkpt lat="48.85953" lon="2.34531">
        <ele>54</ele>
        <time>2022-02-16T13:58:06.150Z</time>
      </trkpt>
      <trkpt lat="48.85951" lon="2.34539">
        <ele>54</ele>
        <time>2022-02-16T13:58:10.157Z</time>
      </trkpt>
      <trkpt lat="48.85949" lon="2.34548">
        <ele>54</ele>
        <time>2022-02-16T13:58:14.161Z</time>
      </trkpt>
      <trkpt lat="48.85944" lon="2.34556">
        <ele>54</ele>
        <time>2022-02-16T13:58:19.156Z</time>
      </trkpt>
      <trkpt lat="48.8594" lon="2.34565">
        <ele>54</ele>
        <time>2022-02-16T13:58:24.175Z</time>
      </trkpt>
      <trkpt lat="48.85938" lon="2.34573">
        <ele>51</ele>
        <time>2022-02-16T13:58:29.156Z</time>
      </trkpt>
      <trkpt lat="48.85936" lon="2.3458">
        <ele>51</ele>
        <time>2022-02-16T13:58:33.157Z</time>
      </trkpt>
      <trkpt lat="48.85936" lon="2.34588">
        <ele>51</ele>
        <time>2022-02-16T13:58:37.161Z</time>
      </trkpt>
      <trkpt lat="48.85935" lon="2.34596">
        <ele>51</ele>
        <time>2022-02-16T13:58:42.169Z</time>
      </trkpt>
      <trkpt lat="48.85934" lon="2.34603">
        <ele>50</ele>
        <time>2022-02-16T13:58:47.138Z</time>
      </trkpt>
      <trkpt lat="48.85931" lon="2.34608">
        <ele>50</ele>
        <time>2022-02-16T13:58:51.164Z</time>
      </trkpt>
      <trkpt lat="48.85929" lon="2.34616">
        <ele>51</ele>
        <time>2022-02-16T13:58:55.167Z</time>
      </trkpt>
      <trkpt lat="48.85928" lon="2.34626">
        <ele>49</ele>
        <time>2022-02-16T13:59:00.146Z</time>
      </trkpt>
      <trkpt lat="48.85926" lon="2.34633">
        <ele>49</ele>
        <time>2022-02-16T13:59:04.161Z</time>
      </trkpt>
      <trkpt lat="48.85924" lon="2.34642">
        <ele>49</ele>
        <time>2022-02-16T13:59:09.171Z</time>
      </trkpt>
      <trkpt lat="48.85921" lon="2.3465">
        <ele>49</ele>
        <time>2022-02-16T13:59:14.160Z</time>
      </trkpt>
      <trkpt lat="48.85919" lon="2.34657">
        <ele>48</ele>
        <time>2022-02-16T13:59:19.153Z</time>
      </trkpt>
      <trkpt lat="48.85917" lon="2.34665">
        <ele>48</ele>
        <time>2022-02-16T13:59:23.147Z</time>
      </trkpt>
      <trkpt lat="48.85914" lon="2.34672">
        <ele>48</ele>
        <time>2022-02-16T13:59:28.164Z</time>
      </trkpt>
      <trkpt lat="48.85912" lon="2.3468">
        <ele>48</ele>
        <time>2022-02-16T13:59:33.165Z</time>
      </trkpt>
      <trkpt lat="48.85906" lon="2.34688">
        <ele>46</ele>
        <time>2022-02-16T13:59:38.165Z</time>
      </trkpt>
      <trkpt lat="48.85903" lon="2.34701">
        <ele>46</ele>
        <time>2022-02-16T13:59:43.160Z</time>
      </trkpt>
      <trkpt lat="48.85895" lon="2.34705">
        <ele>46</ele>
        <time>2022-02-16T13:59:48.162Z</time>
      </trkpt>
      <trkpt lat="48.85887" lon="2.3471">
        <ele>45</ele>
        <time>2022-02-16T13:59:53.152Z</time>
      </trkpt>
      <trkpt lat="48.8588" lon="2.3471">
        <ele>45</ele>
        <time>2022-02-16T13:59:58.153Z</time>
      </trkpt>
      <trkpt lat="48.85875" lon="2.34709">
        <ele>45</ele>
        <time>2022-02-16T14:00:02.162Z</time>
      </trkpt>
      <trkpt lat="48.85868" lon="2.34711">
        <ele>48</ele>
        <time>2022-02-16T14:00:07.158Z</time>
      </trkpt>
      <trkpt lat="48.8586" lon="2.34714">
        <ele>48</ele>
        <time>2022-02-16T14:00:12.156Z</time>
      </trkpt>
      <trkpt lat="48.85853" lon="2.34714">
        <ele>48</ele>
        <time>2022-02-16T14:00:17.163Z</time>
      </trkpt>
      <trkpt lat="48.85846" lon="2.34715">
        <ele>50</ele>
        <time>2022-02-16T14:00:21.166Z</time>
      </trkpt>
      <trkpt lat="48.85839" lon="2.34717">
        <ele>50</ele>
        <time>2022-02-16T14:00:26.165Z</time>
      </trkpt>
      <trkpt lat="48.85832" lon="2.34717">
        <ele>50</ele>
        <time>2022-02-16T14:00:31.166Z</time>
      </trkpt>
      <trkpt lat="48.85826" lon="2.34717">
        <ele>50</ele>
        <time>2022-02-16T14:00:36.167Z</time>
      </trkpt>
      <trkpt lat="48.85819" lon="2.34716">
        <ele>45</ele>
        <time>2022-02-16T14:00:41.181Z</time>
      </trkpt>
      <trkpt lat="48.85813" lon="2.34715">
        <ele>45</ele>
        <time>2022-02-16T14:00:46.158Z</time>
      </trkpt>
      <trkpt lat="48.85809" lon="2.34713">
        <ele>45</ele>
        <time>2022-02-16T14:00:50.164Z</time>
      </trkpt>
      <trkpt lat="48.85806" lon="2.34707">
        <ele>47</ele>
        <time>2022-02-16T14:00:54.173Z</time>
      </trkpt>
      <trkpt lat="48.85802" lon="2.34706">
        <ele>47</ele>
        <time>2022-02-16T14:00:59.168Z</time>
      </trkpt>
      <trkpt lat="48.85804" lon="2.347">
        <ele>47</ele>
        <time>2022-02-16T14:01:04.167Z</time>
      </trkpt>
      <trkpt lat="48.85805" lon="2.347">
        <ele>47</ele>
        <time>2022-02-16T14:01:09.168Z</time>
      </trkpt>
      <trkpt lat="48.85805" lon="2.347">
        <ele>47</ele>
        <time>2022-02-16T14:01:13.166Z</time>
      </trkpt>
      <trkpt lat="48.85808" lon="2.34706">
        <ele>47</ele>
        <time>2022-02-16T14:01:18.153Z</time>
      </trkpt>
      <trkpt lat="48.85803" lon="2.34716">
        <ele>45</ele>
        <time>2022-02-16T14:01:23.153Z</time>
      </trkpt>
      <trkpt lat="48.85798" lon="2.34716">
        <ele>45</ele>
        <time>2022-02-16T14:01:28.154Z</time>
      </trkpt>
      <trkpt lat="48.858" lon="2.34718">
        <ele>45</ele>
        <time>2022-02-16T14:01:33.145Z</time>
      </trkpt>
      <trkpt lat="48.85801" lon="2.34726">
        <ele>45</ele>
        <time>2022-02-16T14:01:37.146Z</time>
      </trkpt>
      <trkpt lat="48.85799" lon="2.34734">
        <ele>45</ele>
        <time>2022-02-16T14:01:41.152Z</time>
      </trkpt>
      <trkpt lat="48.85791" lon="2.34739">
        <ele>38</ele>
        <time>2022-02-16T14:01:45.155Z</time>
      </trkpt>
      <trkpt lat="48.85781" lon="2.34732">
        <ele>36</ele>
        <time>2022-02-16T14:01:50.152Z</time>
      </trkpt>
      <trkpt lat="48.85775" lon="2.34729">
        <ele>36</ele>
        <time>2022-02-16T14:01:54.158Z</time>
      </trkpt>
      <trkpt lat="48.85769" lon="2.34726">
        <ele>36</ele>
        <time>2022-02-16T14:01:59.158Z</time>
      </trkpt>
      <trkpt lat="48.85751" lon="2.34717">
        <ele>35</ele>
        <time>2022-02-16T14:04:41.150Z</time>
      </trkpt>
      <trkpt lat="48.85751" lon="2.34717">
        <ele>35</ele>
        <time>2022-02-16T14:04:45.157Z</time>
      </trkpt>
      <trkpt lat="48.85751" lon="2.34717">
        <ele>35</ele>
        <time>2022-02-16T14:04:50.158Z</time>
      </trkpt>
      <trkpt lat="48.8575" lon="2.34717">
        <ele>35</ele>
        <time>2022-02-16T14:04:55.148Z</time>
      </trkpt>
      <trkpt lat="48.85749" lon="2.34717">
        <ele>35</ele>
        <time>2022-02-16T14:04:59.151Z</time>
      </trkpt>
      <trkpt lat="48.85747" lon="2.34716">
        <ele>35</ele>
        <time>2022-02-16T14:05:04.154Z</time>
      </trkpt>
      <trkpt lat="48.85742" lon="2.34713">
        <ele>35</ele>
        <time>2022-02-16T14:05:08.163Z</time>
      </trkpt>
      <trkpt lat="48.8574" lon="2.34702">
        <ele>32</ele>
        <time>2022-02-16T14:05:13.161Z</time>
      </trkpt>
      <trkpt lat="48.85741" lon="2.34692">
        <ele>32</ele>
        <time>2022-02-16T14:05:18.139Z</time>
      </trkpt>
      <trkpt lat="48.85741" lon="2.34683">
        <ele>32</ele>
        <time>2022-02-16T14:05:22.152Z</time>
      </trkpt>
      <trkpt lat="48.85743" lon="2.34676">
        <ele>34</ele>
        <time>2022-02-16T14:05:27.155Z</time>
      </trkpt>
      <trkpt lat="48.85739" lon="2.34675">
        <ele>34</ele>
        <time>2022-02-16T14:05:32.152Z</time>
      </trkpt>
      <trkpt lat="48.85732" lon="2.34678">
        <ele>35</ele>
        <time>2022-02-16T14:05:37.176Z</time>
      </trkpt>
      <trkpt lat="48.85725" lon="2.34682">
        <ele>36</ele>
        <time>2022-02-16T14:05:42.159Z</time>
      </trkpt>
      <trkpt lat="48.8572" lon="2.34686">
        <ele>36</ele>
        <time>2022-02-16T14:05:47.150Z</time>
      </trkpt>
      <trkpt lat="48.85715" lon="2.34689">
        <ele>36</ele>
        <time>2022-02-16T14:05:51.150Z</time>
      </trkpt>
      <trkpt lat="48.85709" lon="2.34689">
        <ele>36</ele>
        <time>2022-02-16T14:05:56.148Z</time>
      </trkpt>
      <trkpt lat="48.85704" lon="2.34685">
        <ele>36</ele>
        <time>2022-02-16T14:06:00.155Z</time>
      </trkpt>
      <trkpt lat="48.85699" lon="2.34681">
        <ele>36</ele>
        <time>2022-02-16T14:06:05.156Z</time>
      </trkpt>
      <trkpt lat="48.85693" lon="2.34678">
        <ele>38</ele>
        <time>2022-02-16T14:06:10.157Z</time>
      </trkpt>
      <trkpt lat="48.85687" lon="2.34674">
        <ele>38</ele>
        <time>2022-02-16T14:06:15.157Z</time>
      </trkpt>
      <trkpt lat="48.85681" lon="2.34671">
        <ele>38</ele>
        <time>2022-02-16T14:06:20.159Z</time>
      </trkpt>
      <trkpt lat="48.85676" lon="2.3467">
        <ele>39</ele>
        <time>2022-02-16T14:06:24.163Z</time>
      </trkpt>
      <trkpt lat="48.85672" lon="2.34666">
        <ele>39</ele>
        <time>2022-02-16T14:06:28.165Z</time>
      </trkpt>
      <trkpt lat="48.85666" lon="2.34662">
        <ele>39</ele>
        <time>2022-02-16T14:06:33.161Z</time>
      </trkpt>
      <trkpt lat="48.8566" lon="2.3466">
        <ele>39</ele>
        <time>2022-02-16T14:06:38.149Z</time>
      </trkpt>
      <trkpt lat="48.85655" lon="2.34657">
        <ele>39</ele>
        <time>2022-02-16T14:06:42.155Z</time>
      </trkpt>
      <trkpt lat="48.85651" lon="2.34654">
        <ele>49</ele>
        <time>2022-02-16T14:06:46.155Z</time>
      </trkpt>
      <trkpt lat="48.85645" lon="2.34652">
        <ele>49</ele>
        <time>2022-02-16T14:06:51.155Z</time>
      </trkpt>
      <trkpt lat="48.8564" lon="2.3465">
        <ele>49</ele>
        <time>2022-02-16T14:06:55.165Z</time>
      </trkpt>
      <trkpt lat="48.85635" lon="2.34643">
        <ele>49</ele>
        <time>2022-02-16T14:07:00.153Z</time>
      </trkpt>
      <trkpt lat="48.85634" lon="2.34634">
        <ele>49</ele>
        <time>2022-02-16T14:07:05.155Z</time>
      </trkpt>
      <trkpt lat="48.85631" lon="2.34626">
        <ele>49</ele>
        <time>2022-02-16T14:07:10.155Z</time>
      </trkpt>
      <trkpt lat="48.85627" lon="2.34618">
        <ele>50</ele>
        <time>2022-02-16T14:07:15.152Z</time>
      </trkpt>
      <trkpt lat="48.85628" lon="2.34612">
        <ele>50</ele>
        <time>2022-02-16T14:07:19.178Z</time>
      </trkpt>
      <trkpt lat="48.8562" lon="2.34607">
        <ele>49</ele>
        <time>2022-02-16T14:07:24.153Z</time>
      </trkpt>
      <trkpt lat="48.85613" lon="2.34604">
        <ele>49</ele>
        <time>2022-02-16T14:07:29.150Z</time>
      </trkpt>
      <trkpt lat="48.85611" lon="2.34597">
        <ele>49</ele>
        <time>2022-02-16T14:07:33.167Z</time>
      </trkpt>
      <trkpt lat="48.85608" lon="2.3459">
        <ele>51</ele>
        <time>2022-02-16T14:07:38.156Z</time>
      </trkpt>
      <trkpt lat="48.85607" lon="2.34584">
        <ele>51</ele>
        <time>2022-02-16T14:07:42.159Z</time>
      </trkpt>
      <trkpt lat="48.85603" lon="2.34577">
        <ele>51</ele>
        <time>2022-02-16T14:07:47.142Z</time>
      </trkpt>
      <trkpt lat="48.85597" lon="2.34573">
        <ele>47</ele>
        <time>2022-02-16T14:07:51.297Z</time>
      </trkpt>
      <trkpt lat="48.8559" lon="2.34571">
        <ele>47</ele>
        <time>2022-02-16T14:07:56.151Z</time>
      </trkpt>
      <trkpt lat="48.85585" lon="2.34571">
        <ele>47</ele>
        <time>2022-02-16T14:08:00.153Z</time>
      </trkpt>
      <trkpt lat="48.85581" lon="2.34566">
        <ele>49</ele>
        <time>2022-02-16T14:08:05.159Z</time>
      </trkpt>
      <trkpt lat="48.85574" lon="2.34565">
        <ele>49</ele>
        <time>2022-02-16T14:08:10.159Z</time>
      </trkpt>
      <trkpt lat="48.85566" lon="2.34565">
        <ele>46</ele>
        <time>2022-02-16T14:08:15.148Z</time>
      </trkpt>
      <trkpt lat="48.85559" lon="2.34566">
        <ele>46</ele>
        <time>2022-02-16T14:08:20.156Z</time>
      </trkpt>
      <trkpt lat="48.85553" lon="2.34564">
        <ele>46</ele>
        <time>2022-02-16T14:08:24.159Z</time>
      </trkpt>
      <trkpt lat="48.85547" lon="2.34564">
        <ele>46</ele>
        <time>2022-02-16T14:08:28.165Z</time>
      </trkpt>
      <trkpt lat="48.85541" lon="2.34562">
        <ele>47</ele>
        <time>2022-02-16T14:08:33.146Z</time>
      </trkpt>
      <trkpt lat="48.85534" lon="2.34561">
        <ele>47</ele>
        <time>2022-02-16T14:08:38.164Z</time>
      </trkpt>
      <trkpt lat="48.85527" lon="2.34559">
        <ele>47</ele>
        <time>2022-02-16T14:08:43.176Z</time>
      </trkpt>
      <trkpt lat="48.85521" lon="2.34555">
        <ele>47</ele>
        <time>2022-02-16T14:08:48.156Z</time>
      </trkpt>
      <trkpt lat="48.85517" lon="2.34552">
        <ele>47</ele>
        <time>2022-02-16T14:08:52.159Z</time>
      </trkpt>
      <trkpt lat="48.85512" lon="2.34547">
        <ele>48</ele>
        <time>2022-02-16T14:08:57.149Z</time>
      </trkpt>
      <trkpt lat="48.85507" lon="2.34543">
        <ele>48</ele>
        <time>2022-02-16T14:09:01.158Z</time>
      </trkpt>
      <trkpt lat="48.85501" lon="2.34538">
        <ele>47</ele>
        <time>2022-02-16T14:09:06.147Z</time>
      </trkpt>
      <trkpt lat="48.85498" lon="2.34534">
        <ele>47</ele>
        <time>2022-02-16T14:09:10.152Z</time>
      </trkpt>
      <trkpt lat="48.85494" lon="2.34529">
        <ele>47</ele>
        <time>2022-02-16T14:09:14.156Z</time>
      </trkpt>
      <trkpt lat="48.8549" lon="2.34526">
        <ele>47</ele>
        <time>2022-02-16T14:09:18.171Z</time>
      </trkpt>
      <trkpt lat="48.85485" lon="2.34522">
        <ele>43</ele>
        <time>2022-02-16T14:09:23.144Z</time>
      </trkpt>
      <trkpt lat="48.85481" lon="2.34518">
        <ele>43</ele>
        <time>2022-02-16T14:09:27.147Z</time>
      </trkpt>
      <trkpt lat="48.85476" lon="2.34512">
        <ele>41</ele>
        <time>2022-02-16T14:09:32.148Z</time>
      </trkpt>
      <trkpt lat="48.85471" lon="2.34508">
        <ele>41</ele>
        <time>2022-02-16T14:09:36.152Z</time>
      </trkpt>
      <trkpt lat="48.85466" lon="2.34504">
        <ele>41</ele>
        <time>2022-02-16T14:09:41.143Z</time>
      </trkpt>
      <trkpt lat="48.85461" lon="2.345">
        <ele>41</ele>
        <time>2022-02-16T14:09:45.150Z</time>
      </trkpt>
      <trkpt lat="48.85456" lon="2.34497">
        <ele>38</ele>
        <time>2022-02-16T14:09:49.156Z</time>
      </trkpt>
      <trkpt lat="48.8545" lon="2.34494">
        <ele>38</ele>
        <time>2022-02-16T14:09:54.164Z</time>
      </trkpt>
      <trkpt lat="48.85445" lon="2.34487">
        <ele>38</ele>
        <time>2022-02-16T14:09:59.160Z</time>
      </trkpt>
      <trkpt lat="48.85441" lon="2.34479">
        <ele>38</ele>
        <time>2022-02-16T14:10:04.157Z</time>
      </trkpt>
      <trkpt lat="48.85435" lon="2.34474">
        <ele>38</ele>
        <time>2022-02-16T14:10:09.158Z</time>
      </trkpt>
      <trkpt lat="48.85429" lon="2.34467">
        <ele>39</ele>
        <time>2022-02-16T14:10:14.164Z</time>
      </trkpt>
      <trkpt lat="48.85423" lon="2.34462">
        <ele>39</ele>
        <time>2022-02-16T14:10:19.147Z</time>
      </trkpt>
      <trkpt lat="48.85417" lon="2.34457">
        <ele>37</ele>
        <time>2022-02-16T14:10:24.149Z</time>
      </trkpt>
      <trkpt lat="48.85413" lon="2.34453">
        <ele>37</ele>
        <time>2022-02-16T14:10:28.153Z</time>
      </trkpt>
      <trkpt lat="48.85409" lon="2.34448">
        <ele>37</ele>
        <time>2022-02-16T14:10:33.162Z</time>
      </trkpt>
      <trkpt lat="48.85404" lon="2.34444">
        <ele>37</ele>
        <time>2022-02-16T14:10:38.160Z</time>
      </trkpt>
      <trkpt lat="48.85399" lon="2.3444">
        <ele>39</ele>
        <time>2022-02-16T14:10:43.148Z</time>
      </trkpt>
      <trkpt lat="48.85395" lon="2.34436">
        <ele>39</ele>
        <time>2022-02-16T14:10:47.167Z</time>
      </trkpt>
      <trkpt lat="48.85391" lon="2.34431">
        <ele>39</ele>
        <time>2022-02-16T14:10:52.151Z</time>
      </trkpt>
      <trkpt lat="48.85388" lon="2.34427">
        <ele>40</ele>
        <time>2022-02-16T14:10:56.160Z</time>
      </trkpt>
      <trkpt lat="48.85384" lon="2.34421">
        <ele>40</ele>
        <time>2022-02-16T14:11:01.154Z</time>
      </trkpt>
      <trkpt lat="48.85387" lon="2.34414">
        <ele>40</ele>
        <time>2022-02-16T14:11:05.162Z</time>
      </trkpt>
      <trkpt lat="48.85391" lon="2.34407">
        <ele>40</ele>
        <time>2022-02-16T14:11:10.146Z</time>
      </trkpt>
      <trkpt lat="48.85392" lon="2.34394">
        <ele>41</ele>
        <time>2022-02-16T14:11:33.161Z</time>
      </trkpt>
      <trkpt lat="48.8539" lon="2.34392">
        <ele>41</ele>
        <time>2022-02-16T14:11:38.158Z</time>
      </trkpt>
      <trkpt lat="48.85386" lon="2.34386">
        <ele>41</ele>
        <time>2022-02-16T14:11:43.153Z</time>
      </trkpt>
      <trkpt lat="48.85381" lon="2.34391">
        <ele>41</ele>
        <time>2022-02-16T14:11:48.165Z</time>
      </trkpt>
      <trkpt lat="48.85376" lon="2.34388">
        <ele>41</ele>
        <time>2022-02-16T14:11:53.152Z</time>
      </trkpt>
      <trkpt lat="48.85371" lon="2.34385">
        <ele>45</ele>
        <time>2022-02-16T14:11:57.160Z</time>
      </trkpt>
      <trkpt lat="48.85367" lon="2.34379">
        <ele>45</ele>
        <time>2022-02-16T14:12:02.162Z</time>
      </trkpt>
      <trkpt lat="48.85358" lon="2.34378">
        <ele>45</ele>
        <time>2022-02-16T14:12:07.160Z</time>
      </trkpt>
      <trkpt lat="48.85351" lon="2.34382">
        <ele>45</ele>
        <time>2022-02-16T14:12:12.146Z</time>
      </trkpt>
      <trkpt lat="48.85343" lon="2.34388">
        <ele>44</ele>
        <time>2022-02-16T14:14:35.162Z</time>
      </trkpt>
      <trkpt lat="48.85342" lon="2.34388">
        <ele>44</ele>
        <time>2022-02-16T14:14:40.154Z</time>
      </trkpt>
      <trkpt lat="48.85342" lon="2.34387">
        <ele>44</ele>
        <time>2022-02-16T14:14:45.155Z</time>
      </trkpt>
      <trkpt lat="48.85337" lon="2.34385">
        <ele>44</ele>
        <time>2022-02-16T14:14:50.153Z</time>
      </trkpt>
      <trkpt lat="48.85333" lon="2.34384">
        <ele>44</ele>
        <time>2022-02-16T14:14:55.145Z</time>
      </trkpt>
      <trkpt lat="48.85328" lon="2.34385">
        <ele>44</ele>
        <time>2022-02-16T14:15:04.147Z</time>
      </trkpt>
      <trkpt lat="48.85326" lon="2.34384">
        <ele>44</ele>
        <time>2022-02-16T14:15:09.156Z</time>
      </trkpt>
      <trkpt lat="48.85324" lon="2.34385">
        <ele>44</ele>
        <time>2022-02-16T14:15:13.159Z</time>
      </trkpt>
      <trkpt lat="48.85323" lon="2.34386">
        <ele>44</ele>
        <time>2022-02-16T14:15:18.158Z</time>
      </trkpt>
      <trkpt lat="48.85318" lon="2.34383">
        <ele>47</ele>
        <time>2022-02-16T14:15:23.154Z</time>
      </trkpt>
      <trkpt lat="48.85313" lon="2.34382">
        <ele>47</ele>
        <time>2022-02-16T14:15:28.154Z</time>
      </trkpt>
      <trkpt lat="48.85309" lon="2.3438">
        <ele>47</ele>
        <time>2022-02-16T14:15:32.158Z</time>
      </trkpt>
      <trkpt lat="48.85302" lon="2.3438">
        <ele>47</ele>
        <time>2022-02-16T14:15:37.166Z</time>
      </trkpt>
      <trkpt lat="48.85294" lon="2.34382">
        <ele>47</ele>
        <time>2022-02-16T14:15:42.166Z</time>
      </trkpt>
      <trkpt lat="48.85287" lon="2.3438">
        <ele>50</ele>
        <time>2022-02-16T14:15:47.151Z</time>
      </trkpt>
      <trkpt lat="48.8528" lon="2.3438">
        <ele>50</ele>
        <time>2022-02-16T14:15:52.160Z</time>
      </trkpt>
      <trkpt lat="48.85275" lon="2.34378">
        <ele>50</ele>
        <time>2022-02-16T14:15:56.163Z</time>
      </trkpt>
      <trkpt lat="48.85269" lon="2.34376">
        <ele>50</ele>
        <time>2022-02-16T14:16:00.164Z</time>
      </trkpt>
      <trkpt lat="48.85262" lon="2.34375">
        <ele>49</ele>
        <time>2022-02-16T14:16:05.171Z</time>
      </trkpt>
      <trkpt lat="48.85255" lon="2.34373">
        <ele>49</ele>
        <time>2022-02-16T14:16:10.161Z</time>
      </trkpt>
      <trkpt lat="48.85249" lon="2.34371">
        <ele>49</ele>
        <time>2022-02-16T14:16:15.164Z</time>
      </trkpt>
      <trkpt lat="48.85242" lon="2.34368">
        <ele>49</ele>
        <time>2022-02-16T14:16:20.157Z</time>
      </trkpt>
      <trkpt lat="48.85237" lon="2.34365">
        <ele>49</ele>
        <time>2022-02-16T14:16:24.166Z</time>
      </trkpt>
      <trkpt lat="48.85232" lon="2.34363">
        <ele>50</ele>
        <time>2022-02-16T14:16:28.167Z</time>
      </trkpt>
      <trkpt lat="48.85225" lon="2.34362">
        <ele>50</ele>
        <time>2022-02-16T14:16:33.156Z</time>
      </trkpt>
      <trkpt lat="48.85219" lon="2.34362">
        <ele>50</ele>
        <time>2022-02-16T14:16:37.163Z</time>
      </trkpt>
      <trkpt lat="48.85212" lon="2.34361">
        <ele>50</ele>
        <time>2022-02-16T14:16:42.167Z</time>
      </trkpt>
      <trkpt lat="48.85206" lon="2.34362">
        <ele>50</ele>
        <time>2022-02-16T14:16:46.168Z</time>
      </trkpt>
      <trkpt lat="48.85199" lon="2.3436">
        <ele>50</ele>
        <time>2022-02-16T14:16:51.154Z</time>
      </trkpt>
      <trkpt lat="48.85193" lon="2.3436">
        <ele>50</ele>
        <time>2022-02-16T14:16:55.168Z</time>
      </trkpt>
      <trkpt lat="48.85189" lon="2.34356">
        <ele>50</ele>
        <time>2022-02-16T14:17:00.167Z</time>
      </trkpt>
      <trkpt lat="48.85185" lon="2.3435">
        <ele>50</ele>
        <time>2022-02-16T14:17:05.163Z</time>
      </trkpt>
      <trkpt lat="48.85181" lon="2.34345">
        <ele>49</ele>
        <time>2022-02-16T14:17:09.161Z</time>
      </trkpt>
      <trkpt lat="48.85176" lon="2.34341">
        <ele>49</ele>
        <time>2022-02-16T14:17:14.161Z</time>
      </trkpt>
      <trkpt lat="48.8517" lon="2.34336">
        <ele>49</ele>
        <time>2022-02-16T14:17:18.164Z</time>
      </trkpt>
      <trkpt lat="48.85165" lon="2.34331">
        <ele>49</ele>
        <time>2022-02-16T14:17:23.161Z</time>
      </trkpt>
      <trkpt lat="48.85158" lon="2.34327">
        <ele>49</ele>
        <time>2022-02-16T14:17:28.167Z</time>
      </trkpt>
      <trkpt lat="48.85152" lon="2.34322">
        <ele>48</ele>
        <time>2022-02-16T14:17:33.153Z</time>
      </trkpt>
      <trkpt lat="48.85147" lon="2.34312">
        <ele>48</ele>
        <time>2022-02-16T14:18:07.157Z</time>
      </trkpt>
      <trkpt lat="48.85147" lon="2.34312">
        <ele>48</ele>
        <time>2022-02-16T14:18:11.151Z</time>
      </trkpt>
      <trkpt lat="48.85147" lon="2.34312">
        <ele>48</ele>
        <time>2022-02-16T14:18:15.159Z</time>
      </trkpt>
      <trkpt lat="48.85142" lon="2.34307">
        <ele>48</ele>
        <time>2022-02-16T14:18:19.165Z</time>
      </trkpt>
      <trkpt lat="48.85137" lon="2.34302">
        <ele>48</ele>
        <time>2022-02-16T14:18:24.164Z</time>
      </trkpt>
      <trkpt lat="48.85133" lon="2.34298">
        <ele>48</ele>
        <time>2022-02-16T14:18:29.156Z</time>
      </trkpt>
      <trkpt lat="48.8513" lon="2.34298">
        <ele>48</ele>
        <time>2022-02-16T14:18:33.157Z</time>
      </trkpt>
      <trkpt lat="48.85125" lon="2.34298">
        <ele>48</ele>
        <time>2022-02-16T14:18:38.163Z</time>
      </trkpt>
      <trkpt lat="48.8512" lon="2.34298">
        <ele>48</ele>
        <time>2022-02-16T14:18:43.148Z</time>
      </trkpt>
      <trkpt lat="48.85116" lon="2.34295">
        <ele>48</ele>
        <time>2022-02-16T14:18:47.157Z</time>
      </trkpt>
      <trkpt lat="48.85112" lon="2.34293">
        <ele>48</ele>
        <time>2022-02-16T14:18:51.166Z</time>
      </trkpt>
      <trkpt lat="48.85107" lon="2.34288">
        <ele>49</ele>
        <time>2022-02-16T14:18:56.153Z</time>
      </trkpt>
      <trkpt lat="48.85102" lon="2.34282">
        <ele>49</ele>
        <time>2022-02-16T14:19:01.161Z</time>
      </trkpt>
      <trkpt lat="48.85098" lon="2.34279">
        <ele>49</ele>
        <time>2022-02-16T14:19:05.164Z</time>
      </trkpt>
      <trkpt lat="48.85092" lon="2.34275">
        <ele>50</ele>
        <time>2022-02-16T14:19:10.156Z</time>
      </trkpt>
      <trkpt lat="48.85086" lon="2.34272">
        <ele>50</ele>
        <time>2022-02-16T14:19:15.160Z</time>
      </trkpt>
      <trkpt lat="48.8508" lon="2.34269">
        <ele>50</ele>
        <time>2022-02-16T14:19:20.164Z</time>
      </trkpt>
      <trkpt lat="48.85074" lon="2.34271">
        <ele>50</ele>
        <time>2022-02-16T14:19:24.161Z</time>
      </trkpt>
      <trkpt lat="48.85067" lon="2.3427">
        <ele>51</ele>
        <time>2022-02-16T14:19:29.155Z</time>
      </trkpt>
      <trkpt lat="48.85063" lon="2.34266">
        <ele>51</ele>
        <time>2022-02-16T14:19:33.149Z</time>
      </trkpt>
      <trkpt lat="48.85057" lon="2.34264">
        <ele>51</ele>
        <time>2022-02-16T14:19:38.162Z</time>
      </trkpt>
      <trkpt lat="48.85053" lon="2.3426">
        <ele>51</ele>
        <time>2022-02-16T14:19:43.164Z</time>
      </trkpt>
      <trkpt lat="48.85046" lon="2.34258">
        <ele>51</ele>
        <time>2022-02-16T14:19:48.161Z</time>
      </trkpt>
      <trkpt lat="48.8504" lon="2.34256">
        <ele>51</ele>
        <time>2022-02-16T14:19:53.156Z</time>
      </trkpt>
      <trkpt lat="48.85035" lon="2.34254">
        <ele>51</ele>
        <time>2022-02-16T14:19:57.165Z</time>
      </trkpt>
      <trkpt lat="48.8503" lon="2.34251">
        <ele>51</ele>
        <time>2022-02-16T14:20:02.170Z</time>
      </trkpt>
      <trkpt lat="48.85025" lon="2.34248">
        <ele>51</ele>
        <time>2022-02-16T14:20:07.159Z</time>
      </trkpt>
      <trkpt lat="48.85018" lon="2.34246">
        <ele>51</ele>
        <time>2022-02-16T14:20:12.166Z</time>
      </trkpt>
      <trkpt lat="48.85013" lon="2.34243">
        <ele>53</ele>
        <time>2022-02-16T14:20:16.166Z</time>
      </trkpt>
      <trkpt lat="48.85007" lon="2.3424">
        <ele>53</ele>
        <time>2022-02-16T14:20:21.157Z</time>
      </trkpt>
      <trkpt lat="48.85002" lon="2.34238">
        <ele>53</ele>
        <time>2022-02-16T14:20:25.162Z</time>
      </trkpt>
      <trkpt lat="48.84996" lon="2.34235">
        <ele>51</ele>
        <time>2022-02-16T14:20:30.170Z</time>
      </trkpt>
      <trkpt lat="48.8499" lon="2.34232">
        <ele>51</ele>
        <time>2022-02-16T14:20:35.158Z</time>
      </trkpt>
      <trkpt lat="48.84985" lon="2.34231">
        <ele>55</ele>
        <time>2022-02-16T14:20:39.158Z</time>
      </trkpt>
      <trkpt lat="48.84979" lon="2.3423">
        <ele>55</ele>
        <time>2022-02-16T14:20:43.165Z</time>
      </trkpt>
      <trkpt lat="48.84972" lon="2.34227">
        <ele>55</ele>
        <time>2022-02-16T14:20:48.162Z</time>
      </trkpt>
      <trkpt lat="48.84967" lon="2.34224">
        <ele>55</ele>
        <time>2022-02-16T14:20:52.175Z</time>
      </trkpt>
      <trkpt lat="48.84961" lon="2.3422">
        <ele>55</ele>
        <time>2022-02-16T14:20:57.156Z</time>
      </trkpt>
      <trkpt lat="48.84955" lon="2.34217">
        <ele>58</ele>
        <time>2022-02-16T14:21:01.164Z</time>
      </trkpt>
      <trkpt lat="48.8495" lon="2.34214">
        <ele>58</ele>
        <time>2022-02-16T14:21:05.166Z</time>
      </trkpt>
      <trkpt lat="48.84944" lon="2.34212">
        <ele>58</ele>
        <time>2022-02-16T14:21:10.153Z</time>
      </trkpt>
      <trkpt lat="48.84938" lon="2.34209">
        <ele>58</ele>
        <time>2022-02-16T14:21:14.164Z</time>
      </trkpt>
      <trkpt lat="48.84931" lon="2.34206">
        <ele>57</ele>
        <time>2022-02-16T14:21:19.170Z</time>
      </trkpt>
      <trkpt lat="48.84925" lon="2.34202">
        <ele>57</ele>
        <time>2022-02-16T14:21:24.157Z</time>
      </trkpt>
      <trkpt lat="48.84919" lon="2.34198">
        <ele>57</ele>
        <time>2022-02-16T14:21:29.165Z</time>
      </trkpt>
      <trkpt lat="48.84913" lon="2.34192">
        <ele>57</ele>
        <time>2022-02-16T14:21:34.168Z</time>
      </trkpt>
      <trkpt lat="48.84909" lon="2.34189">
        <ele>57</ele>
        <time>2022-02-16T14:21:38.176Z</time>
      </trkpt>
      <trkpt lat="48.84903" lon="2.34185">
        <ele>57</ele>
        <time>2022-02-16T14:21:43.169Z</time>
      </trkpt>
      <trkpt lat="48.84896" lon="2.34184">
        <ele>57</ele>
        <time>2022-02-16T14:21:48.147Z</time>
      </trkpt>
      <trkpt lat="48.84892" lon="2.34181">
        <ele>57</ele>
        <time>2022-02-16T14:21:52.163Z</time>
      </trkpt>
      <trkpt lat="48.84887" lon="2.34173">
        <ele>58</ele>
        <time>2022-02-16T14:21:57.161Z</time>
      </trkpt>
      <trkpt lat="48.84884" lon="2.34167">
        <ele>58</ele>
        <time>2022-02-16T14:22:01.165Z</time>
      </trkpt>
      <trkpt lat="48.84878" lon="2.34161">
        <ele>58</ele>
        <time>2022-02-16T14:22:06.148Z</time>
      </trkpt>
      <trkpt lat="48.84873" lon="2.3416">
        <ele>61</ele>
        <time>2022-02-16T14:22:10.164Z</time>
      </trkpt>
      <trkpt lat="48.84867" lon="2.34157">
        <ele>61</ele>
        <time>2022-02-16T14:22:15.167Z</time>
      </trkpt>
      <trkpt lat="48.84862" lon="2.34153">
        <ele>61</ele>
        <time>2022-02-16T14:22:20.164Z</time>
      </trkpt>
      <trkpt lat="48.84855" lon="2.3415">
        <ele>61</ele>
        <time>2022-02-16T14:22:25.178Z</time>
      </trkpt>
      <trkpt lat="48.84849" lon="2.34147">
        <ele>61</ele>
        <time>2022-02-16T14:22:30.163Z</time>
      </trkpt>
      <trkpt lat="48.84844" lon="2.34144">
        <ele>60</ele>
        <time>2022-02-16T14:22:34.168Z</time>
      </trkpt>
      <trkpt lat="48.84838" lon="2.34141">
        <ele>60</ele>
        <time>2022-02-16T14:22:39.157Z</time>
      </trkpt>
      <trkpt lat="48.84831" lon="2.3414">
        <ele>60</ele>
        <time>2022-02-16T14:22:44.162Z</time>
      </trkpt>
      <trkpt lat="48.84825" lon="2.34138">
        <ele>60</ele>
        <time>2022-02-16T14:22:48.170Z</time>
      </trkpt>
      <trkpt lat="48.84819" lon="2.34136">
        <ele>58</ele>
        <time>2022-02-16T14:22:53.173Z</time>
      </trkpt>
      <trkpt lat="48.84812" lon="2.34136">
        <ele>58</ele>
        <time>2022-02-16T14:22:58.162Z</time>
      </trkpt>
      <trkpt lat="48.84806" lon="2.34135">
        <ele>58</ele>
        <time>2022-02-16T14:23:03.153Z</time>
      </trkpt>
      <trkpt lat="48.84802" lon="2.34133">
        <ele>58</ele>
        <time>2022-02-16T14:23:07.158Z</time>
      </trkpt>
      <trkpt lat="48.84797" lon="2.34129">
        <ele>58</ele>
        <time>2022-02-16T14:23:12.157Z</time>
      </trkpt>
      <trkpt lat="48.84791" lon="2.34124">
        <ele>58</ele>
        <time>2022-02-16T14:23:17.161Z</time>
      </trkpt>
      <trkpt lat="48.84788" lon="2.3412">
        <ele>58</ele>
        <time>2022-02-16T14:23:21.165Z</time>
      </trkpt>
      <trkpt lat="48.84785" lon="2.34114">
        <ele>58</ele>
        <time>2022-02-16T14:23:25.167Z</time>
      </trkpt>
      <trkpt lat="48.8478" lon="2.3411">
        <ele>58</ele>
        <time>2022-02-16T14:23:30.147Z</time>
      </trkpt>
      <trkpt lat="48.84776" lon="2.34107">
        <ele>58</ele>
        <time>2022-02-16T14:23:34.153Z</time>
      </trkpt>
      <trkpt lat="48.84771" lon="2.34105">
        <ele>58</ele>
        <time>2022-02-16T14:23:38.162Z</time>
      </trkpt>
      <trkpt lat="48.84766" lon="2.34102">
        <ele>58</ele>
        <time>2022-02-16T14:23:43.165Z</time>
      </trkpt>
      <trkpt lat="48.84761" lon="2.34099">
        <ele>60</ele>
        <time>2022-02-16T14:23:47.169Z</time>
      </trkpt>
      <trkpt lat="48.84757" lon="2.34088">
        <ele>59</ele>
        <time>2022-02-16T14:23:52.146Z</time>
      </trkpt>
      <trkpt lat="48.84758" lon="2.34078">
        <ele>59</ele>
        <time>2022-02-16T14:23:56.150Z</time>
      </trkpt>
      <trkpt lat="48.84761" lon="2.3407">
        <ele>59</ele>
        <time>2022-02-16T14:24:00.155Z</time>
      </trkpt>
      <trkpt lat="48.84763" lon="2.34061">
        <ele>58</ele>
        <time>2022-02-16T14:24:05.161Z</time>
      </trkpt>
      <trkpt lat="48.84766" lon="2.34055">
        <ele>60</ele>
        <time>2022-02-16T14:24:09.164Z</time>
      </trkpt>
      <trkpt lat="48.84766" lon="2.34045">
        <ele>60</ele>
        <time>2022-02-16T14:24:14.150Z</time>
      </trkpt>
      <trkpt lat="48.84768" lon="2.34038">
        <ele>60</ele>
        <time>2022-02-16T14:24:18.157Z</time>
      </trkpt>
      <trkpt lat="48.8477" lon="2.34031">
        <ele>60</ele>
        <time>2022-02-16T14:24:22.166Z</time>
      </trkpt>
      <trkpt lat="48.84772" lon="2.34022">
        <ele>60</ele>
        <time>2022-02-16T14:24:27.163Z</time>
      </trkpt>
      <trkpt lat="48.84775" lon="2.34013">
        <ele>59</ele>
        <time>2022-02-16T14:24:32.161Z</time>
      </trkpt>
      <trkpt lat="48.84773" lon="2.34004">
        <ele>59</ele>
        <time>2022-02-16T14:24:37.168Z</time>
      </trkpt>
      <trkpt lat="48.84771" lon="2.33997">
        <ele>59</ele>
        <time>2022-02-16T14:24:42.166Z</time>
      </trkpt>
      <trkpt lat="48.84768" lon="2.3399">
        <ele>59</ele>
        <time>2022-02-16T14:24:47.165Z</time>
      </trkpt>
      <trkpt lat="48.8477" lon="2.33985">
        <ele>58</ele>
        <time>2022-02-16T14:24:52.161Z</time>
      </trkpt>
      <trkpt lat="48.84778" lon="2.3399">
        <ele>59</ele>
        <time>2022-02-16T14:24:57.149Z</time>
      </trkpt>
      <trkpt lat="48.84783" lon="2.33986">
        <ele>58</ele>
        <time>2022-02-16T14:25:02.147Z</time>
      </trkpt>
      <trkpt lat="48.84786" lon="2.33979">
        <ele>58</ele>
        <time>2022-02-16T14:25:07.155Z</time>
      </trkpt>
      <trkpt lat="48.84789" lon="2.33972">
        <ele>58</ele>
        <time>2022-02-16T14:25:12.146Z</time>
      </trkpt>
      <trkpt lat="48.84791" lon="2.33967">
        <ele>58</ele>
        <time>2022-02-16T14:25:16.149Z</time>
      </trkpt>
      <trkpt lat="48.84793" lon="2.33961">
        <ele>61</ele>
        <time>2022-02-16T14:25:20.148Z</time>
      </trkpt>
      <trkpt lat="48.84795" lon="2.33953">
        <ele>63</ele>
        <time>2022-02-16T14:25:25.170Z</time>
      </trkpt>
      <trkpt lat="48.84797" lon="2.33944">
        <ele>63</ele>
        <time>2022-02-16T14:25:30.145Z</time>
      </trkpt>
      <trkpt lat="48.84801" lon="2.33928">
        <ele>65</ele>
        <time>2022-02-16T14:26:16.156Z</time>
      </trkpt>
      <trkpt lat="48.84802" lon="2.33925">
        <ele>65</ele>
        <time>2022-02-16T14:26:21.153Z</time>
      </trkpt>
      <trkpt lat="48.84802" lon="2.33924">
        <ele>65</ele>
        <time>2022-02-16T14:26:26.151Z</time>
      </trkpt>
      <trkpt lat="48.84802" lon="2.33924">
        <ele>65</ele>
        <time>2022-02-16T14:26:30.165Z</time>
      </trkpt>
      <trkpt lat="48.84801" lon="2.33923">
        <ele>65</ele>
        <time>2022-02-16T14:26:35.151Z</time>
      </trkpt>
      <trkpt lat="48.84802" lon="2.33925">
        <ele>65</ele>
        <time>2022-02-16T14:30:03.152Z</time>
      </trkpt>
      <trkpt lat="48.848" lon="2.33932">
        <ele>63</ele>
        <time>2022-02-16T14:30:08.155Z</time>
      </trkpt>
      <trkpt lat="48.84798" lon="2.33939">
        <ele>63</ele>
        <time>2022-02-16T14:30:12.177Z</time>
      </trkpt>
      <trkpt lat="48.84793" lon="2.33946">
        <ele>63</ele>
        <time>2022-02-16T14:30:17.149Z</time>
      </trkpt>
      <trkpt lat="48.84791" lon="2.33952">
        <ele>59</ele>
        <time>2022-02-16T14:30:22.164Z</time>
      </trkpt>
      <trkpt lat="48.84792" lon="2.33961">
        <ele>58</ele>
        <time>2022-02-16T14:30:26.166Z</time>
      </trkpt>
      <trkpt lat="48.84797" lon="2.33961">
        <ele>61</ele>
        <time>2022-02-16T14:30:31.165Z</time>
      </trkpt>
      <trkpt lat="48.84801" lon="2.33958">
        <ele>63</ele>
        <time>2022-02-16T14:30:36.165Z</time>
      </trkpt>
      <trkpt lat="48.84805" lon="2.33953">
        <ele>63</ele>
        <time>2022-02-16T14:30:41.157Z</time>
      </trkpt>
      <trkpt lat="48.84807" lon="2.33947">
        <ele>63</ele>
        <time>2022-02-16T14:31:01.162Z</time>
      </trkpt>
      <trkpt lat="48.84811" lon="2.33943">
        <ele>63</ele>
        <time>2022-02-16T14:31:06.152Z</time>
      </trkpt>
      <trkpt lat="48.84815" lon="2.33941">
        <ele>63</ele>
        <time>2022-02-16T14:31:11.146Z</time>
      </trkpt>
      <trkpt lat="48.84814" lon="2.33935">
        <ele>63</ele>
        <time>2022-02-16T14:31:15.162Z</time>
      </trkpt>
      <trkpt lat="48.84811" lon="2.3393">
        <ele>65</ele>
        <time>2022-02-16T14:31:20.158Z</time>
      </trkpt>
      <trkpt lat="48.8481" lon="2.33923">
        <ele>65</ele>
        <time>2022-02-16T14:31:25.158Z</time>
      </trkpt>
      <trkpt lat="48.84811" lon="2.33914">
        <ele>65</ele>
        <time>2022-02-16T14:31:30.151Z</time>
      </trkpt>
      <trkpt lat="48.8481" lon="2.33906">
        <ele>65</ele>
        <time>2022-02-16T14:31:34.162Z</time>
      </trkpt>
      <trkpt lat="48.84812" lon="2.33899">
        <ele>66</ele>
        <time>2022-02-16T14:31:39.160Z</time>
      </trkpt>
      <trkpt lat="48.84813" lon="2.33892">
        <ele>66</ele>
        <time>2022-02-16T14:31:44.157Z</time>
      </trkpt>
      <trkpt lat="48.84813" lon="2.33884">
        <ele>66</ele>
        <time>2022-02-16T14:31:49.156Z</time>
      </trkpt>
      <trkpt lat="48.84812" lon="2.33875">
        <ele>66</ele>
        <time>2022-02-16T14:31:54.148Z</time>
      </trkpt>
      <trkpt lat="48.84813" lon="2.33868">
        <ele>62</ele>
        <time>2022-02-16T14:31:58.150Z</time>
      </trkpt>
      <trkpt lat="48.84812" lon="2.33857">
        <ele>62</ele>
        <time>2022-02-16T14:32:03.148Z</time>
      </trkpt>
      <trkpt lat="48.8481" lon="2.33854">
        <ele>62</ele>
        <time>2022-02-16T14:32:08.151Z</time>
      </trkpt>
      <trkpt lat="48.84807" lon="2.33847">
        <ele>62</ele>
        <time>2022-02-16T14:32:13.143Z</time>
      </trkpt>
      <trkpt lat="48.84802" lon="2.33841">
        <ele>60</ele>
        <time>2022-02-16T14:32:18.151Z</time>
      </trkpt>
      <trkpt lat="48.84796" lon="2.33835">
        <ele>60</ele>
        <time>2022-02-16T14:32:23.153Z</time>
      </trkpt>
      <trkpt lat="48.84793" lon="2.33829">
        <ele>60</ele>
        <time>2022-02-16T14:32:27.156Z</time>
      </trkpt>
      <trkpt lat="48.8479" lon="2.33825">
        <ele>59</ele>
        <time>2022-02-16T14:32:31.170Z</time>
      </trkpt>
      <trkpt lat="48.84786" lon="2.33818">
        <ele>61</ele>
        <time>2022-02-16T14:32:36.146Z</time>
      </trkpt>
      <trkpt lat="48.84777" lon="2.33799">
        <ele>61</ele>
        <time>2022-02-16T14:33:00.159Z</time>
      </trkpt>
      <trkpt lat="48.84776" lon="2.33793">
        <ele>61</ele>
        <time>2022-02-16T14:33:05.151Z</time>
      </trkpt>
      <trkpt lat="48.84775" lon="2.33786">
        <ele>59</ele>
        <time>2022-02-16T14:33:09.164Z</time>
      </trkpt>
      <trkpt lat="48.84774" lon="2.33777">
        <ele>59</ele>
        <time>2022-02-16T14:33:14.159Z</time>
      </trkpt>
      <trkpt lat="48.84771" lon="2.33771">
        <ele>59</ele>
        <time>2022-02-16T14:33:18.169Z</time>
      </trkpt>
      <trkpt lat="48.84766" lon="2.33766">
        <ele>59</ele>
        <time>2022-02-16T14:33:23.157Z</time>
      </trkpt>
      <trkpt lat="48.84762" lon="2.33763">
        <ele>50</ele>
        <time>2022-02-16T14:33:27.161Z</time>
      </trkpt>
      <trkpt lat="48.84756" lon="2.33763">
        <ele>50</ele>
        <time>2022-02-16T14:33:32.156Z</time>
      </trkpt>
      <trkpt lat="48.8475" lon="2.33761">
        <ele>50</ele>
        <time>2022-02-16T14:33:37.144Z</time>
      </trkpt>
      <trkpt lat="48.84746" lon="2.3376">
        <ele>50</ele>
        <time>2022-02-16T14:33:41.158Z</time>
      </trkpt>
      <trkpt lat="48.8474" lon="2.33758">
        <ele>50</ele>
        <time>2022-02-16T14:33:46.148Z</time>
      </trkpt>
      <trkpt lat="48.84736" lon="2.33762">
        <ele>49</ele>
        <time>2022-02-16T14:33:50.148Z</time>
      </trkpt>
      <trkpt lat="48.84731" lon="2.33763">
        <ele>49</ele>
        <time>2022-02-16T14:33:54.159Z</time>
      </trkpt>
      <trkpt lat="48.84726" lon="2.33762">
        <ele>49</ele>
        <time>2022-02-16T14:33:58.168Z</time>
      </trkpt>
      <trkpt lat="48.84723" lon="2.33756">
        <ele>49</ele>
        <time>2022-02-16T14:34:02.165Z</time>
      </trkpt>
      <trkpt lat="48.84721" lon="2.3375">
        <ele>49</ele>
        <time>2022-02-16T14:34:07.151Z</time>
      </trkpt>
      <trkpt lat="48.84722" lon="2.33742">
        <ele>49</ele>
        <time>2022-02-16T14:34:12.150Z</time>
      </trkpt>
      <trkpt lat="48.84723" lon="2.33735">
        <ele>39</ele>
        <time>2022-02-16T14:34:16.154Z</time>
      </trkpt>
      <trkpt lat="48.84724" lon="2.33727">
        <ele>39</ele>
        <time>2022-02-16T14:34:20.156Z</time>
      </trkpt>
      <trkpt lat="48.84723" lon="2.33719">
        <ele>39</ele>
        <time>2022-02-16T14:34:25.145Z</time>
      </trkpt>
      <trkpt lat="48.84723" lon="2.33712">
        <ele>39</ele>
        <time>2022-02-16T14:34:29.158Z</time>
      </trkpt>
      <trkpt lat="48.84723" lon="2.33704">
        <ele>37</ele>
        <time>2022-02-16T14:34:34.153Z</time>
      </trkpt>
      <trkpt lat="48.84722" lon="2.33698">
        <ele>37</ele>
        <time>2022-02-16T14:34:38.157Z</time>
      </trkpt>
      <trkpt lat="48.84723" lon="2.33692">
        <ele>37</ele>
        <time>2022-02-16T14:34:42.158Z</time>
      </trkpt>
      <trkpt lat="48.84724" lon="2.33682">
        <ele>37</ele>
        <time>2022-02-16T14:34:47.161Z</time>
      </trkpt>
      <trkpt lat="48.84724" lon="2.33673">
        <ele>39</ele>
        <time>2022-02-16T14:34:52.160Z</time>
      </trkpt>
      <trkpt lat="48.84724" lon="2.33663">
        <ele>39</ele>
        <time>2022-02-16T14:34:57.158Z</time>
      </trkpt>
      <trkpt lat="48.84724" lon="2.33652">
        <ele>45</ele>
        <time>2022-02-16T14:35:02.160Z</time>
      </trkpt>
      <trkpt lat="48.84723" lon="2.33643">
        <ele>45</ele>
        <time>2022-02-16T14:35:07.168Z</time>
      </trkpt>
      <trkpt lat="48.8472" lon="2.33635">
        <ele>45</ele>
        <time>2022-02-16T14:35:12.155Z</time>
      </trkpt>
      <trkpt lat="48.84716" lon="2.33628">
        <ele>45</ele>
        <time>2022-02-16T14:35:17.162Z</time>
      </trkpt>
      <trkpt lat="48.84712" lon="2.33622">
        <ele>49</ele>
        <time>2022-02-16T14:35:21.159Z</time>
      </trkpt>
      <trkpt lat="48.84708" lon="2.33619">
        <ele>53</ele>
        <time>2022-02-16T14:35:26.146Z</time>
      </trkpt>
      <trkpt lat="48.84706" lon="2.33623">
        <ele>53</ele>
        <time>2022-02-16T14:35:30.169Z</time>
      </trkpt>
      <trkpt lat="48.84703" lon="2.33619">
        <ele>53</ele>
        <time>2022-02-16T14:35:35.145Z</time>
      </trkpt>
      <trkpt lat="48.84699" lon="2.33608">
        <ele>53</ele>
        <time>2022-02-16T14:35:40.147Z</time>
      </trkpt>
      <trkpt lat="48.84698" lon="2.33598">
        <ele>53</ele>
        <time>2022-02-16T14:35:45.144Z</time>
      </trkpt>
      <trkpt lat="48.84698" lon="2.33591">
        <ele>54</ele>
        <time>2022-02-16T14:35:50.159Z</time>
      </trkpt>
      <trkpt lat="48.847" lon="2.33585">
        <ele>54</ele>
        <time>2022-02-16T14:35:55.136Z</time>
      </trkpt>
      <trkpt lat="48.84706" lon="2.33584">
        <ele>54</ele>
        <time>2022-02-16T14:36:00.154Z</time>
      </trkpt>
      <trkpt lat="48.8471" lon="2.33581">
        <ele>45</ele>
        <time>2022-02-16T14:36:04.165Z</time>
      </trkpt>
      <trkpt lat="48.84715" lon="2.33579">
        <ele>45</ele>
        <time>2022-02-16T14:36:08.169Z</time>
      </trkpt>
      <trkpt lat="48.84721" lon="2.33576">
        <ele>45</ele>
        <time>2022-02-16T14:36:13.151Z</time>
      </trkpt>
      <trkpt lat="48.84726" lon="2.33573">
        <ele>45</ele>
        <time>2022-02-16T14:36:18.160Z</time>
      </trkpt>
      <trkpt lat="48.84733" lon="2.33569">
        <ele>46</ele>
        <time>2022-02-16T14:36:23.150Z</time>
      </trkpt>
      <trkpt lat="48.84738" lon="2.33567">
        <ele>47</ele>
        <time>2022-02-16T14:36:27.154Z</time>
      </trkpt>
      <trkpt lat="48.84743" lon="2.33566">
        <ele>47</ele>
        <time>2022-02-16T14:36:31.165Z</time>
      </trkpt>
      <trkpt lat="48.84749" lon="2.33566">
        <ele>47</ele>
        <time>2022-02-16T14:36:36.165Z</time>
      </trkpt>
      <trkpt lat="48.84754" lon="2.33566">
        <ele>47</ele>
        <time>2022-02-16T14:36:40.160Z</time>
      </trkpt>
      <trkpt lat="48.8476" lon="2.33563">
        <ele>47</ele>
        <time>2022-02-16T14:36:45.159Z</time>
      </trkpt>
      <trkpt lat="48.84765" lon="2.33563">
        <ele>50</ele>
        <time>2022-02-16T14:36:49.172Z</time>
      </trkpt>
      <trkpt lat="48.8477" lon="2.33564">
        <ele>50</ele>
        <time>2022-02-16T14:36:54.156Z</time>
      </trkpt>
      <trkpt lat="48.84777" lon="2.33566">
        <ele>50</ele>
        <time>2022-02-16T14:36:59.161Z</time>
      </trkpt>
      <trkpt lat="48.84783" lon="2.33565">
        <ele>50</ele>
        <time>2022-02-16T14:37:04.155Z</time>
      </trkpt>
      <trkpt lat="48.84787" lon="2.33565">
        <ele>50</ele>
        <time>2022-02-16T14:37:08.163Z</time>
      </trkpt>
      <trkpt lat="48.84793" lon="2.33566">
        <ele>53</ele>
        <time>2022-02-16T14:37:13.161Z</time>
      </trkpt>
      <trkpt lat="48.84799" lon="2.33563">
        <ele>53</ele>
        <time>2022-02-16T14:37:18.159Z</time>
      </trkpt>
      <trkpt lat="48.84802" lon="2.33558">
        <ele>53</ele>
        <time>2022-02-16T14:37:22.164Z</time>
      </trkpt>
      <trkpt lat="48.84806" lon="2.33555">
        <ele>53</ele>
        <time>2022-02-16T14:37:26.167Z</time>
      </trkpt>
      <trkpt lat="48.8481" lon="2.33552">
        <ele>53</ele>
        <time>2022-02-16T14:37:31.160Z</time>
      </trkpt>
      <trkpt lat="48.84814" lon="2.33556">
        <ele>53</ele>
        <time>2022-02-16T14:37:36.155Z</time>
      </trkpt>
      <trkpt lat="48.84818" lon="2.3355">
        <ele>53</ele>
        <time>2022-02-16T14:38:45.152Z</time>
      </trkpt>
      <trkpt lat="48.84817" lon="2.33544">
        <ele>53</ele>
        <time>2022-02-16T14:38:49.153Z</time>
      </trkpt>
      <trkpt lat="48.84818" lon="2.33535">
        <ele>52</ele>
        <time>2022-02-16T14:38:54.152Z</time>
      </trkpt>
      <trkpt lat="48.84818" lon="2.3353">
        <ele>52</ele>
        <time>2022-02-16T14:38:58.159Z</time>
      </trkpt>
      <trkpt lat="48.84818" lon="2.33523">
        <ele>52</ele>
        <time>2022-02-16T14:39:02.158Z</time>
      </trkpt>
      <trkpt lat="48.84817" lon="2.33516">
        <ele>52</ele>
        <time>2022-02-16T14:39:06.159Z</time>
      </trkpt>
      <trkpt lat="48.84817" lon="2.33507">
        <ele>50</ele>
        <time>2022-02-16T14:39:11.166Z</time>
      </trkpt>
      <trkpt lat="48.84816" lon="2.335">
        <ele>50</ele>
        <time>2022-02-16T14:39:15.161Z</time>
      </trkpt>
      <trkpt lat="48.84817" lon="2.33491">
        <ele>50</ele>
        <time>2022-02-16T14:39:20.152Z</time>
      </trkpt>
      <trkpt lat="48.84818" lon="2.33483">
        <ele>47</ele>
        <time>2022-02-16T14:39:24.164Z</time>
      </trkpt>
      <trkpt lat="48.8482" lon="2.33472">
        <ele>49</ele>
        <time>2022-02-16T14:39:29.157Z</time>
      </trkpt>
      <trkpt lat="48.8482" lon="2.33465">
        <ele>49</ele>
        <time>2022-02-16T14:39:33.159Z</time>
      </trkpt>
      <trkpt lat="48.84821" lon="2.33457">
        <ele>48</ele>
        <time>2022-02-16T14:39:37.164Z</time>
      </trkpt>
      <trkpt lat="48.84822" lon="2.33448">
        <ele>48</ele>
        <time>2022-02-16T14:39:42.168Z</time>
      </trkpt>
      <trkpt lat="48.84824" lon="2.33439">
        <ele>48</ele>
        <time>2022-02-16T14:39:47.159Z</time>
      </trkpt>
      <trkpt lat="48.84826" lon="2.3343">
        <ele>46</ele>
        <time>2022-02-16T14:39:52.166Z</time>
      </trkpt>
      <trkpt lat="48.84824" lon="2.3342">
        <ele>46</ele>
        <time>2022-02-16T14:39:57.159Z</time>
      </trkpt>
      <trkpt lat="48.8482" lon="2.33412">
        <ele>46</ele>
        <time>2022-02-16T14:40:01.167Z</time>
      </trkpt>
      <trkpt lat="48.84817" lon="2.33403">
        <ele>43</ele>
        <time>2022-02-16T14:40:06.158Z</time>
      </trkpt>
      <trkpt lat="48.84814" lon="2.33395">
        <ele>44</ele>
        <time>2022-02-16T14:40:11.154Z</time>
      </trkpt>
      <trkpt lat="48.84812" lon="2.33394">
        <ele>44</ele>
        <time>2022-02-16T14:40:15.150Z</time>
      </trkpt>
      <trkpt lat="48.84813" lon="2.33394">
        <ele>44</ele>
        <time>2022-02-16T14:40:20.156Z</time>
      </trkpt>
      <trkpt lat="48.8481" lon="2.3339">
        <ele>44</ele>
        <time>2022-02-16T14:40:25.150Z</time>
      </trkpt>
      <trkpt lat="48.84808" lon="2.33385">
        <ele>44</ele>
        <time>2022-02-16T14:40:30.156Z</time>
      </trkpt>
      <trkpt lat="48.84806" lon="2.3338">
        <ele>44</ele>
        <time>2022-02-16T14:40:34.171Z</time>
      </trkpt>
      <trkpt lat="48.84816" lon="2.33375">
        <ele>44</ele>
        <time>2022-02-16T14:43:05.148Z</time>
      </trkpt>
      <trkpt lat="48.84816" lon="2.33375">
        <ele>44</ele>
        <time>2022-02-16T14:43:09.152Z</time>
      </trkpt>
      <trkpt lat="48.84816" lon="2.33376">
        <ele>44</ele>
        <time>2022-02-16T14:43:13.164Z</time>
      </trkpt>
      <trkpt lat="48.84816" lon="2.33376">
        <ele>44</ele>
        <time>2022-02-16T14:43:18.163Z</time>
      </trkpt>
      <trkpt lat="48.84816" lon="2.33376">
        <ele>44</ele>
        <time>2022-02-16T14:43:22.160Z</time>
      </trkpt>
      <trkpt lat="48.84817" lon="2.33374">
        <ele>45</ele>
        <time>2022-02-16T14:45:40.166Z</time>
      </trkpt>
      <trkpt lat="48.84817" lon="2.33374">
        <ele>45</ele>
        <time>2022-02-16T14:45:45.160Z</time>
      </trkpt>
      <trkpt lat="48.84818" lon="2.33375">
        <ele>45</ele>
        <time>2022-02-16T14:45:50.164Z</time>
      </trkpt>
      <trkpt lat="48.84823" lon="2.33376">
        <ele>44</ele>
        <time>2022-02-16T14:45:55.144Z</time>
      </trkpt>
      <trkpt lat="48.84827" lon="2.33377">
        <ele>44</ele>
        <time>2022-02-16T14:45:59.149Z</time>
      </trkpt>
      <trkpt lat="48.84834" lon="2.33377">
        <ele>44</ele>
        <time>2022-02-16T14:46:04.158Z</time>
      </trkpt>
      <trkpt lat="48.84839" lon="2.33377">
        <ele>44</ele>
        <time>2022-02-16T14:46:08.157Z</time>
      </trkpt>
      <trkpt lat="48.84845" lon="2.33377">
        <ele>44</ele>
        <time>2022-02-16T14:46:13.154Z</time>
      </trkpt>
      <trkpt lat="48.8485" lon="2.33378">
        <ele>50</ele>
        <time>2022-02-16T14:46:17.166Z</time>
      </trkpt>
      <trkpt lat="48.84856" lon="2.33378">
        <ele>50</ele>
        <time>2022-02-16T14:46:22.149Z</time>
      </trkpt>
      <trkpt lat="48.84862" lon="2.33379">
        <ele>50</ele>
        <time>2022-02-16T14:46:26.154Z</time>
      </trkpt>
      <trkpt lat="48.84868" lon="2.33379">
        <ele>50</ele>
        <time>2022-02-16T14:46:31.158Z</time>
      </trkpt>
      <trkpt lat="48.84875" lon="2.33377">
        <ele>50</ele>
        <time>2022-02-16T14:46:36.157Z</time>
      </trkpt>
      <trkpt lat="48.8488" lon="2.33378">
        <ele>52</ele>
        <time>2022-02-16T14:46:40.154Z</time>
      </trkpt>
      <trkpt lat="48.84885" lon="2.33377">
        <ele>52</ele>
        <time>2022-02-16T14:46:44.167Z</time>
      </trkpt>
      <trkpt lat="48.84889" lon="2.33376">
        <ele>52</ele>
        <time>2022-02-16T14:46:49.159Z</time>
      </trkpt>
      <trkpt lat="48.84891" lon="2.33384">
        <ele>52</ele>
        <time>2022-02-16T14:46:54.157Z</time>
      </trkpt>
      <trkpt lat="48.84892" lon="2.33391">
        <ele>52</ele>
        <time>2022-02-16T14:46:58.154Z</time>
      </trkpt>
      <trkpt lat="48.84894" lon="2.33399">
        <ele>52</ele>
        <time>2022-02-16T14:47:03.163Z</time>
      </trkpt>
      <trkpt lat="48.84901" lon="2.33397">
        <ele>52</ele>
        <time>2022-02-16T14:47:08.152Z</time>
      </trkpt>
      <trkpt lat="48.84905" lon="2.33402">
        <ele>50</ele>
        <time>2022-02-16T14:47:12.162Z</time>
      </trkpt>
      <trkpt lat="48.84908" lon="2.3341">
        <ele>49</ele>
        <time>2022-02-16T14:47:17.151Z</time>
      </trkpt>
      <trkpt lat="48.84909" lon="2.33416">
        <ele>49</ele>
        <time>2022-02-16T14:47:21.158Z</time>
      </trkpt>
      <trkpt lat="48.8491" lon="2.33425">
        <ele>49</ele>
        <time>2022-02-16T14:47:26.159Z</time>
      </trkpt>
      <trkpt lat="48.84912" lon="2.33432">
        <ele>47</ele>
        <time>2022-02-16T14:47:30.165Z</time>
      </trkpt>
      <trkpt lat="48.84912" lon="2.33441">
        <ele>47</ele>
        <time>2022-02-16T14:47:35.152Z</time>
      </trkpt>
      <trkpt lat="48.84913" lon="2.33448">
        <ele>47</ele>
        <time>2022-02-16T14:47:39.157Z</time>
      </trkpt>
      <trkpt lat="48.84912" lon="2.33456">
        <ele>47</ele>
        <time>2022-02-16T14:47:43.172Z</time>
      </trkpt>
      <trkpt lat="48.84913" lon="2.33464">
        <ele>45</ele>
        <time>2022-02-16T14:47:48.158Z</time>
      </trkpt>
      <trkpt lat="48.84915" lon="2.33472">
        <ele>45</ele>
        <time>2022-02-16T14:47:53.149Z</time>
      </trkpt>
      <trkpt lat="48.84918" lon="2.33477">
        <ele>45</ele>
        <time>2022-02-16T14:47:57.156Z</time>
      </trkpt>
      <trkpt lat="48.84922" lon="2.33481">
        <ele>45</ele>
        <time>2022-02-16T14:48:01.166Z</time>
      </trkpt>
      <trkpt lat="48.84927" lon="2.33482">
        <ele>45</ele>
        <time>2022-02-16T14:48:06.145Z</time>
      </trkpt>
      <trkpt lat="48.84932" lon="2.33481">
        <ele>48</ele>
        <time>2022-02-16T14:48:10.159Z</time>
      </trkpt>
      <trkpt lat="48.84938" lon="2.33482">
        <ele>48</ele>
        <time>2022-02-16T14:48:15.161Z</time>
      </trkpt>
      <trkpt lat="48.84945" lon="2.3348">
        <ele>48</ele>
        <time>2022-02-16T14:48:20.153Z</time>
      </trkpt>
      <trkpt lat="48.84951" lon="2.3348">
        <ele>48</ele>
        <time>2022-02-16T14:48:25.158Z</time>
      </trkpt>
      <trkpt lat="48.84956" lon="2.33481">
        <ele>48</ele>
        <time>2022-02-16T14:48:29.161Z</time>
      </trkpt>
      <trkpt lat="48.84962" lon="2.33481">
        <ele>50</ele>
        <time>2022-02-16T14:48:34.156Z</time>
      </trkpt>
      <trkpt lat="48.84962" lon="2.33476">
        <ele>50</ele>
        <time>2022-02-16T14:48:39.157Z</time>
      </trkpt>
      <trkpt lat="48.84964" lon="2.33476">
        <ele>50</ele>
        <time>2022-02-16T14:48:43.166Z</time>
      </trkpt>
      <trkpt lat="48.84969" lon="2.33476">
        <ele>50</ele>
        <time>2022-02-16T14:48:48.155Z</time>
      </trkpt>
      <trkpt lat="48.84974" lon="2.33476">
        <ele>50</ele>
        <time>2022-02-16T14:48:53.150Z</time>
      </trkpt>
      <trkpt lat="48.84979" lon="2.33476">
        <ele>50</ele>
        <time>2022-02-16T14:48:57.154Z</time>
      </trkpt>
      <trkpt lat="48.84984" lon="2.33478">
        <ele>50</ele>
        <time>2022-02-16T14:49:01.165Z</time>
      </trkpt>
      <trkpt lat="48.8499" lon="2.33478">
        <ele>51</ele>
        <time>2022-02-16T14:49:06.155Z</time>
      </trkpt>
      <trkpt lat="48.84996" lon="2.33477">
        <ele>51</ele>
        <time>2022-02-16T14:49:11.158Z</time>
      </trkpt>
      <trkpt lat="48.85002" lon="2.33478">
        <ele>51</ele>
        <time>2022-02-16T14:49:15.158Z</time>
      </trkpt>
      <trkpt lat="48.85008" lon="2.3348">
        <ele>51</ele>
        <time>2022-02-16T14:49:20.168Z</time>
      </trkpt>
      <trkpt lat="48.85014" lon="2.33478">
        <ele>51</ele>
        <time>2022-02-16T14:49:25.170Z</time>
      </trkpt>
      <trkpt lat="48.85016" lon="2.33471">
        <ele>53</ele>
        <time>2022-02-16T14:49:30.158Z</time>
      </trkpt>
      <trkpt lat="48.85017" lon="2.33462">
        <ele>53</ele>
        <time>2022-02-16T14:49:35.153Z</time>
      </trkpt>
      <trkpt lat="48.85017" lon="2.33453">
        <ele>49</ele>
        <time>2022-02-16T14:49:40.166Z</time>
      </trkpt>
      <trkpt lat="48.85018" lon="2.33444">
        <ele>49</ele>
        <time>2022-02-16T14:49:45.157Z</time>
      </trkpt>
      <trkpt lat="48.85018" lon="2.33434">
        <ele>49</ele>
        <time>2022-02-16T14:49:50.161Z</time>
      </trkpt>
      <trkpt lat="48.85019" lon="2.33423">
        <ele>45</ele>
        <time>2022-02-16T14:49:55.146Z</time>
      </trkpt>
      <trkpt lat="48.85023" lon="2.33416">
        <ele>45</ele>
        <time>2022-02-16T14:50:00.156Z</time>
      </trkpt>
      <trkpt lat="48.85027" lon="2.33413">
        <ele>45</ele>
        <time>2022-02-16T14:50:04.170Z</time>
      </trkpt>
      <trkpt lat="48.85024" lon="2.33413">
        <ele>45</ele>
        <time>2022-02-16T14:50:09.144Z</time>
      </trkpt>
      <trkpt lat="48.85029" lon="2.33412">
        <ele>45</ele>
        <time>2022-02-16T14:50:13.151Z</time>
      </trkpt>
      <trkpt lat="48.85034" lon="2.3341">
        <ele>45</ele>
        <time>2022-02-16T14:50:18.156Z</time>
      </trkpt>
      <trkpt lat="48.85039" lon="2.3341">
        <ele>45</ele>
        <time>2022-02-16T14:50:23.155Z</time>
      </trkpt>
      <trkpt lat="48.85043" lon="2.33406">
        <ele>50</ele>
        <time>2022-02-16T14:50:27.182Z</time>
      </trkpt>
      <trkpt lat="48.85047" lon="2.33399">
        <ele>48</ele>
        <time>2022-02-16T14:50:32.153Z</time>
      </trkpt>
      <trkpt lat="48.85049" lon="2.33394">
        <ele>48</ele>
        <time>2022-02-16T14:50:36.159Z</time>
      </trkpt>
      <trkpt lat="48.85053" lon="2.33389">
        <ele>48</ele>
        <time>2022-02-16T14:50:40.169Z</time>
      </trkpt>
      <trkpt lat="48.85056" lon="2.33381">
        <ele>48</ele>
        <time>2022-02-16T14:50:45.164Z</time>
      </trkpt>
      <trkpt lat="48.85061" lon="2.33376">
        <ele>48</ele>
        <time>2022-02-16T14:50:50.155Z</time>
      </trkpt>
      <trkpt lat="48.85065" lon="2.33372">
        <ele>46</ele>
        <time>2022-02-16T14:50:54.161Z</time>
      </trkpt>
      <trkpt lat="48.85069" lon="2.33366">
        <ele>46</ele>
        <time>2022-02-16T14:50:59.150Z</time>
      </trkpt>
      <trkpt lat="48.8507" lon="2.33358">
        <ele>51</ele>
        <time>2022-02-16T14:51:03.204Z</time>
      </trkpt>
      <trkpt lat="48.85073" lon="2.33352">
        <ele>51</ele>
        <time>2022-02-16T14:51:08.162Z</time>
      </trkpt>
      <trkpt lat="48.85075" lon="2.33343">
        <ele>48</ele>
        <time>2022-02-16T14:51:13.148Z</time>
      </trkpt>
      <trkpt lat="48.85077" lon="2.3334">
        <ele>48</ele>
        <time>2022-02-16T14:51:17.154Z</time>
      </trkpt>
      <trkpt lat="48.85079" lon="2.3334">
        <ele>48</ele>
        <time>2022-02-16T14:53:50.150Z</time>
      </trkpt>
      <trkpt lat="48.8508" lon="2.33334">
        <ele>48</ele>
        <time>2022-02-16T14:53:55.142Z</time>
      </trkpt>
      <trkpt lat="48.8508" lon="2.33333">
        <ele>48</ele>
        <time>2022-02-16T14:53:59.267Z</time>
      </trkpt>
      <trkpt lat="48.85079" lon="2.33325">
        <ele>48</ele>
        <time>2022-02-16T14:54:04.160Z</time>
      </trkpt>
      <trkpt lat="48.8508" lon="2.33318">
        <ele>46</ele>
        <time>2022-02-16T14:54:09.148Z</time>
      </trkpt>
      <trkpt lat="48.85081" lon="2.33318">
        <ele>46</ele>
        <time>2022-02-16T14:54:13.145Z</time>
      </trkpt>
      <trkpt lat="48.85082" lon="2.33316">
        <ele>46</ele>
        <time>2022-02-16T14:54:18.155Z</time>
      </trkpt>
      <trkpt lat="48.85084" lon="2.33311">
        <ele>46</ele>
        <time>2022-02-16T14:54:22.151Z</time>
      </trkpt>
      <trkpt lat="48.85085" lon="2.33306">
        <ele>46</ele>
        <time>2022-02-16T14:54:27.141Z</time>
      </trkpt>
      <trkpt lat="48.85098" lon="2.33309">
        <ele>47</ele>
        <time>2022-02-16T14:55:22.161Z</time>
      </trkpt>
      <trkpt lat="48.85098" lon="2.33309">
        <ele>47</ele>
        <time>2022-02-16T14:55:27.157Z</time>
      </trkpt>
      <trkpt lat="48.85099" lon="2.33309">
        <ele>47</ele>
        <time>2022-02-16T14:55:32.157Z</time>
      </trkpt>
      <trkpt lat="48.85099" lon="2.33309">
        <ele>47</ele>
        <time>2022-02-16T14:55:37.148Z</time>
      </trkpt>
      <trkpt lat="48.851" lon="2.33312">
        <ele>47</ele>
        <time>2022-02-16T14:55:41.161Z</time>
      </trkpt>
      <trkpt lat="48.85102" lon="2.33319">
        <ele>47</ele>
        <time>2022-02-16T14:55:46.157Z</time>
      </trkpt>
      <trkpt lat="48.85106" lon="2.33318">
        <ele>47</ele>
        <time>2022-02-16T14:55:50.162Z</time>
      </trkpt>
      <trkpt lat="48.85111" lon="2.33316">
        <ele>47</ele>
        <time>2022-02-16T14:55:55.150Z</time>
      </trkpt>
      <trkpt lat="48.85116" lon="2.33315">
        <ele>47</ele>
        <time>2022-02-16T14:56:00.151Z</time>
      </trkpt>
      <trkpt lat="48.85123" lon="2.3331">
        <ele>47</ele>
        <time>2022-02-16T14:56:08.152Z</time>
      </trkpt>
      <trkpt lat="48.85124" lon="2.3331">
        <ele>47</ele>
        <time>2022-02-16T14:56:13.148Z</time>
      </trkpt>
      <trkpt lat="48.85124" lon="2.33311">
        <ele>47</ele>
        <time>2022-02-16T14:56:17.155Z</time>
      </trkpt>
      <trkpt lat="48.85126" lon="2.33309">
        <ele>46</ele>
        <time>2022-02-16T14:56:22.158Z</time>
      </trkpt>
      <trkpt lat="48.85134" lon="2.33308">
        <ele>46</ele>
        <time>2022-02-16T14:56:27.148Z</time>
      </trkpt>
      <trkpt lat="48.85137" lon="2.33302">
        <ele>46</ele>
        <time>2022-02-16T14:56:32.156Z</time>
      </trkpt>
      <trkpt lat="48.8514" lon="2.33298">
        <ele>46</ele>
        <time>2022-02-16T14:56:37.147Z</time>
      </trkpt>
      <trkpt lat="48.85142" lon="2.33296">
        <ele>46</ele>
        <time>2022-02-16T14:56:41.160Z</time>
      </trkpt>
      <trkpt lat="48.85143" lon="2.33297">
        <ele>46</ele>
        <time>2022-02-16T14:56:45.162Z</time>
      </trkpt>
      <trkpt lat="48.85146" lon="2.33297">
        <ele>46</ele>
        <time>2022-02-16T14:56:50.161Z</time>
      </trkpt>
      <trkpt lat="48.85149" lon="2.33301">
        <ele>46</ele>
        <time>2022-02-16T14:56:55.167Z</time>
      </trkpt>
      <trkpt lat="48.85149" lon="2.333">
        <ele>46</ele>
        <time>2022-02-16T14:57:00.162Z</time>
      </trkpt>
      <trkpt lat="48.85146" lon="2.33295">
        <ele>46</ele>
        <time>2022-02-16T14:57:04.146Z</time>
      </trkpt>
      <trkpt lat="48.85148" lon="2.33291">
        <ele>47</ele>
        <time>2022-02-16T14:57:11.148Z</time>
      </trkpt>
      <trkpt lat="48.85161" lon="2.3329">
        <ele>47</ele>
        <time>2022-02-16T14:57:16.151Z</time>
      </trkpt>
      <trkpt lat="48.85169" lon="2.33291">
        <ele>47</ele>
        <time>2022-02-16T14:57:21.144Z</time>
      </trkpt>
      <trkpt lat="48.85175" lon="2.3329">
        <ele>47</ele>
        <time>2022-02-16T14:57:25.147Z</time>
      </trkpt>
      <trkpt lat="48.85178" lon="2.3329">
        <ele>47</ele>
        <time>2022-02-16T14:57:29.159Z</time>
      </trkpt>
      <trkpt lat="48.85184" lon="2.33292">
        <ele>47</ele>
        <time>2022-02-16T14:57:34.160Z</time>
      </trkpt>
      <trkpt lat="48.8519" lon="2.33293">
        <ele>47</ele>
        <time>2022-02-16T14:57:39.143Z</time>
      </trkpt>
      <trkpt lat="48.85196" lon="2.33294">
        <ele>47</ele>
        <time>2022-02-16T14:57:44.153Z</time>
      </trkpt>
      <trkpt lat="48.85201" lon="2.33296">
        <ele>47</ele>
        <time>2022-02-16T14:57:49.146Z</time>
      </trkpt>
      <trkpt lat="48.85207" lon="2.33298">
        <ele>47</ele>
        <time>2022-02-16T14:57:54.151Z</time>
      </trkpt>
      <trkpt lat="48.85213" lon="2.333">
        <ele>47</ele>
        <time>2022-02-16T14:57:59.150Z</time>
      </trkpt>
      <trkpt lat="48.85218" lon="2.333">
        <ele>47</ele>
        <time>2022-02-16T14:58:04.168Z</time>
      </trkpt>
      <trkpt lat="48.85223" lon="2.33303">
        <ele>47</ele>
        <time>2022-02-16T14:58:09.154Z</time>
      </trkpt>
      <trkpt lat="48.85229" lon="2.33305">
        <ele>47</ele>
        <time>2022-02-16T14:58:14.155Z</time>
      </trkpt>
      <trkpt lat="48.85233" lon="2.33306">
        <ele>47</ele>
        <time>2022-02-16T14:58:18.155Z</time>
      </trkpt>
      <trkpt lat="48.85239" lon="2.33307">
        <ele>50</ele>
        <time>2022-02-16T14:58:23.146Z</time>
      </trkpt>
      <trkpt lat="48.85243" lon="2.33309">
        <ele>50</ele>
        <time>2022-02-16T14:58:27.145Z</time>
      </trkpt>
      <trkpt lat="48.85249" lon="2.33308">
        <ele>50</ele>
        <time>2022-02-16T14:58:32.155Z</time>
      </trkpt>
      <trkpt lat="48.85253" lon="2.33312">
        <ele>50</ele>
        <time>2022-02-16T14:58:37.150Z</time>
      </trkpt>
      <trkpt lat="48.85254" lon="2.3332">
        <ele>49</ele>
        <time>2022-02-16T14:58:41.158Z</time>
      </trkpt>
      <trkpt lat="48.85255" lon="2.3333">
        <ele>49</ele>
        <time>2022-02-16T14:58:46.150Z</time>
      </trkpt>
      <trkpt lat="48.85254" lon="2.33336">
        <ele>49</ele>
        <time>2022-02-16T14:58:50.151Z</time>
      </trkpt>
      <trkpt lat="48.85253" lon="2.33344">
        <ele>49</ele>
        <time>2022-02-16T14:58:55.153Z</time>
      </trkpt>
      <trkpt lat="48.85253" lon="2.33353">
        <ele>49</ele>
        <time>2022-02-16T14:59:00.150Z</time>
      </trkpt>
      <trkpt lat="48.85256" lon="2.33363">
        <ele>49</ele>
        <time>2022-02-16T14:59:05.155Z</time>
      </trkpt>
      <trkpt lat="48.85259" lon="2.3337">
        <ele>49</ele>
        <time>2022-02-16T14:59:09.153Z</time>
      </trkpt>
      <trkpt lat="48.85261" lon="2.33379">
        <ele>49</ele>
        <time>2022-02-16T14:59:14.150Z</time>
      </trkpt>
      <trkpt lat="48.85264" lon="2.33388">
        <ele>49</ele>
        <time>2022-02-16T14:59:19.158Z</time>
      </trkpt>
      <trkpt lat="48.85263" lon="2.33396">
        <ele>49</ele>
        <time>2022-02-16T14:59:24.158Z</time>
      </trkpt>
      <trkpt lat="48.85264" lon="2.33404">
        <ele>49</ele>
        <time>2022-02-16T14:59:28.157Z</time>
      </trkpt>
      <trkpt lat="48.85266" lon="2.33413">
        <ele>49</ele>
        <time>2022-02-16T14:59:33.151Z</time>
      </trkpt>
      <trkpt lat="48.85268" lon="2.33422">
        <ele>49</ele>
        <time>2022-02-16T14:59:38.146Z</time>
      </trkpt>
      <trkpt lat="48.85271" lon="2.33428">
        <ele>49</ele>
        <time>2022-02-16T14:59:42.147Z</time>
      </trkpt>
      <trkpt lat="48.85272" lon="2.33434">
        <ele>49</ele>
        <time>2022-02-16T14:59:47.166Z</time>
      </trkpt>
      <trkpt lat="48.85272" lon="2.33441">
        <ele>49</ele>
        <time>2022-02-16T14:59:51.162Z</time>
      </trkpt>
      <trkpt lat="48.85272" lon="2.33449">
        <ele>49</ele>
        <time>2022-02-16T14:59:55.168Z</time>
      </trkpt>
      <trkpt lat="48.85274" lon="2.33458">
        <ele>49</ele>
        <time>2022-02-16T15:00:00.154Z</time>
      </trkpt>
      <trkpt lat="48.85275" lon="2.33465">
        <ele>50</ele>
        <time>2022-02-16T15:00:04.164Z</time>
      </trkpt>
      <trkpt lat="48.85277" lon="2.33474">
        <ele>50</ele>
        <time>2022-02-16T15:00:09.161Z</time>
      </trkpt>
      <trkpt lat="48.85279" lon="2.33481">
        <ele>50</ele>
        <time>2022-02-16T15:00:13.163Z</time>
      </trkpt>
      <trkpt lat="48.85282" lon="2.3349">
        <ele>51</ele>
        <time>2022-02-16T15:00:18.158Z</time>
      </trkpt>
      <trkpt lat="48.85286" lon="2.335">
        <ele>51</ele>
        <time>2022-02-16T15:00:23.146Z</time>
      </trkpt>
      <trkpt lat="48.85287" lon="2.33507">
        <ele>51</ele>
        <time>2022-02-16T15:00:27.165Z</time>
      </trkpt>
      <trkpt lat="48.85289" lon="2.33513">
        <ele>51</ele>
        <time>2022-02-16T15:00:32.158Z</time>
      </trkpt>
      <trkpt lat="48.8529" lon="2.3352">
        <ele>50</ele>
        <time>2022-02-16T15:00:36.162Z</time>
      </trkpt>
      <trkpt lat="48.85292" lon="2.33526">
        <ele>52</ele>
        <time>2022-02-16T15:00:40.163Z</time>
      </trkpt>
      <trkpt lat="48.85294" lon="2.33536">
        <ele>52</ele>
        <time>2022-02-16T15:00:45.147Z</time>
      </trkpt>
      <trkpt lat="48.85296" lon="2.33544">
        <ele>54</ele>
        <time>2022-02-16T15:00:50.165Z</time>
      </trkpt>
      <trkpt lat="48.85297" lon="2.33553">
        <ele>54</ele>
        <time>2022-02-16T15:00:55.154Z</time>
      </trkpt>
      <trkpt lat="48.853" lon="2.33562">
        <ele>54</ele>
        <time>2022-02-16T15:01:00.159Z</time>
      </trkpt>
      <trkpt lat="48.85303" lon="2.3357">
        <ele>54</ele>
        <time>2022-02-16T15:01:05.158Z</time>
      </trkpt>
      <trkpt lat="48.85305" lon="2.33579">
        <ele>54</ele>
        <time>2022-02-16T15:01:10.168Z</time>
      </trkpt>
      <trkpt lat="48.85306" lon="2.3359">
        <ele>54</ele>
        <time>2022-02-16T15:01:15.165Z</time>
      </trkpt>
      <trkpt lat="48.85309" lon="2.33596">
        <ele>54</ele>
        <time>2022-02-16T15:01:19.161Z</time>
      </trkpt>
      <trkpt lat="48.85307" lon="2.33606">
        <ele>54</ele>
        <time>2022-02-16T15:01:24.158Z</time>
      </trkpt>
      <trkpt lat="48.85305" lon="2.33615">
        <ele>54</ele>
        <time>2022-02-16T15:01:29.157Z</time>
      </trkpt>
      <trkpt lat="48.85304" lon="2.33622">
        <ele>54</ele>
        <time>2022-02-16T15:01:33.164Z</time>
      </trkpt>
      <trkpt lat="48.85302" lon="2.33629">
        <ele>53</ele>
        <time>2022-02-16T15:01:38.167Z</time>
      </trkpt>
      <trkpt lat="48.853" lon="2.33636">
        <ele>53</ele>
        <time>2022-02-16T15:01:43.161Z</time>
      </trkpt>
      <trkpt lat="48.85297" lon="2.33644">
        <ele>53</ele>
        <time>2022-02-16T15:01:48.162Z</time>
      </trkpt>
      <trkpt lat="48.85296" lon="2.33652">
        <ele>53</ele>
        <time>2022-02-16T15:01:52.163Z</time>
      </trkpt>
      <trkpt lat="48.85292" lon="2.33659">
        <ele>51</ele>
        <time>2022-02-16T15:01:57.161Z</time>
      </trkpt>
      <trkpt lat="48.85291" lon="2.33668">
        <ele>52</ele>
        <time>2022-02-16T15:02:02.143Z</time>
      </trkpt>
      <trkpt lat="48.85294" lon="2.33675">
        <ele>51</ele>
        <time>2022-02-16T15:02:06.165Z</time>
      </trkpt>
      <trkpt lat="48.85294" lon="2.3368">
        <ele>51</ele>
        <time>2022-02-16T15:02:10.161Z</time>
      </trkpt>
      <trkpt lat="48.85293" lon="2.33689">
        <ele>51</ele>
        <time>2022-02-16T15:02:15.161Z</time>
      </trkpt>
      <trkpt lat="48.8529" lon="2.33696">
        <ele>52</ele>
        <time>2022-02-16T15:02:20.158Z</time>
      </trkpt>
      <trkpt lat="48.85285" lon="2.33702">
        <ele>52</ele>
        <time>2022-02-16T15:02:25.161Z</time>
      </trkpt>
      <trkpt lat="48.85284" lon="2.33709">
        <ele>53</ele>
        <time>2022-02-16T15:02:29.169Z</time>
      </trkpt>
      <trkpt lat="48.85284" lon="2.33713">
        <ele>53</ele>
        <time>2022-02-16T15:02:34.157Z</time>
      </trkpt>
      <trkpt lat="48.85284" lon="2.3372">
        <ele>53</ele>
        <time>2022-02-16T15:02:38.169Z</time>
      </trkpt>
      <trkpt lat="48.85282" lon="2.33727">
        <ele>53</ele>
        <time>2022-02-16T15:02:43.161Z</time>
      </trkpt>
      <trkpt lat="48.8528" lon="2.33733">
        <ele>53</ele>
        <time>2022-02-16T15:02:47.160Z</time>
      </trkpt>
      <trkpt lat="48.85276" lon="2.3374">
        <ele>54</ele>
        <time>2022-02-16T15:02:52.167Z</time>
      </trkpt>
      <trkpt lat="48.85273" lon="2.33748">
        <ele>54</ele>
        <time>2022-02-16T15:02:57.164Z</time>
      </trkpt>
      <trkpt lat="48.85269" lon="2.33754">
        <ele>54</ele>
        <time>2022-02-16T15:03:01.164Z</time>
      </trkpt>
      <trkpt lat="48.85267" lon="2.33761">
        <ele>54</ele>
        <time>2022-02-16T15:03:06.162Z</time>
      </trkpt>
      <trkpt lat="48.85265" lon="2.3377">
        <ele>51</ele>
        <time>2022-02-16T15:03:11.163Z</time>
      </trkpt>
      <trkpt lat="48.85263" lon="2.33779">
        <ele>49</ele>
        <time>2022-02-16T15:03:16.166Z</time>
      </trkpt>
      <trkpt lat="48.85261" lon="2.33786">
        <ele>49</ele>
        <time>2022-02-16T15:03:21.283Z</time>
      </trkpt>
      <trkpt lat="48.85259" lon="2.33793">
        <ele>48</ele>
        <time>2022-02-16T15:03:26.157Z</time>
      </trkpt>
      <trkpt lat="48.85258" lon="2.338">
        <ele>48</ele>
        <time>2022-02-16T15:03:30.168Z</time>
      </trkpt>
      <trkpt lat="48.85256" lon="2.33808">
        <ele>48</ele>
        <time>2022-02-16T15:03:35.166Z</time>
      </trkpt>
      <trkpt lat="48.85254" lon="2.33817">
        <ele>48</ele>
        <time>2022-02-16T15:03:40.169Z</time>
      </trkpt>
      <trkpt lat="48.85252" lon="2.33825">
        <ele>48</ele>
        <time>2022-02-16T15:03:45.162Z</time>
      </trkpt>
      <trkpt lat="48.85251" lon="2.33831">
        <ele>48</ele>
        <time>2022-02-16T15:03:49.166Z</time>
      </trkpt>
      <trkpt lat="48.85249" lon="2.33837">
        <ele>48</ele>
        <time>2022-02-16T15:03:53.175Z</time>
      </trkpt>
      <trkpt lat="48.85246" lon="2.33845">
        <ele>48</ele>
        <time>2022-02-16T15:03:58.160Z</time>
      </trkpt>
      <trkpt lat="48.85243" lon="2.3385">
        <ele>48</ele>
        <time>2022-02-16T15:04:02.168Z</time>
      </trkpt>
      <trkpt lat="48.85242" lon="2.33859">
        <ele>48</ele>
        <time>2022-02-16T15:04:07.169Z</time>
      </trkpt>
      <trkpt lat="48.8524" lon="2.33868">
        <ele>48</ele>
        <time>2022-02-16T15:04:12.164Z</time>
      </trkpt>
      <trkpt lat="48.85239" lon="2.33877">
        <ele>47</ele>
        <time>2022-02-16T15:04:16.176Z</time>
      </trkpt>
      <trkpt lat="48.85238" lon="2.33886">
        <ele>47</ele>
        <time>2022-02-16T15:04:21.162Z</time>
      </trkpt>
      <trkpt lat="48.85241" lon="2.33892">
        <ele>47</ele>
        <time>2022-02-16T15:04:26.165Z</time>
      </trkpt>
      <trkpt lat="48.85245" lon="2.33896">
        <ele>47</ele>
        <time>2022-02-16T15:04:36.153Z</time>
      </trkpt>
      <trkpt lat="48.85245" lon="2.33896">
        <ele>47</ele>
        <time>2022-02-16T15:04:40.153Z</time>
      </trkpt>
      <trkpt lat="48.85244" lon="2.33896">
        <ele>47</ele>
        <time>2022-02-16T15:04:45.164Z</time>
      </trkpt>
      <trkpt lat="48.85251" lon="2.33904">
        <ele>45</ele>
        <time>2022-02-16T15:04:50.166Z</time>
      </trkpt>
      <trkpt lat="48.85254" lon="2.3391">
        <ele>45</ele>
        <time>2022-02-16T15:04:54.169Z</time>
      </trkpt>
      <trkpt lat="48.85256" lon="2.33917">
        <ele>45</ele>
        <time>2022-02-16T15:04:59.165Z</time>
      </trkpt>
      <trkpt lat="48.85256" lon="2.33922">
        <ele>45</ele>
        <time>2022-02-16T15:05:03.163Z</time>
      </trkpt>
      <trkpt lat="48.85255" lon="2.33931">
        <ele>44</ele>
        <time>2022-02-16T15:05:08.162Z</time>
      </trkpt>
      <trkpt lat="48.8525" lon="2.33933">
        <ele>44</ele>
        <time>2022-02-16T15:05:12.164Z</time>
      </trkpt>
      <trkpt lat="48.85247" lon="2.33939">
        <ele>44</ele>
        <time>2022-02-16T15:05:17.161Z</time>
      </trkpt>
      <trkpt lat="48.85244" lon="2.33942">
        <ele>44</ele>
        <time>2022-02-16T15:05:21.286Z</time>
      </trkpt>
      <trkpt lat="48.85242" lon="2.33949">
        <ele>44</ele>
        <time>2022-02-16T15:05:26.167Z</time>
      </trkpt>
      <trkpt lat="48.8524" lon="2.33955">
        <ele>44</ele>
        <time>2022-02-16T15:05:31.153Z</time>
      </trkpt>
      <trkpt lat="48.85238" lon="2.3396">
        <ele>43</ele>
        <time>2022-02-16T15:05:35.161Z</time>
      </trkpt>
      <trkpt lat="48.85235" lon="2.33965">
        <ele>46</ele>
        <time>2022-02-16T15:05:39.168Z</time>
      </trkpt>
      <trkpt lat="48.85234" lon="2.33973">
        <ele>46</ele>
        <time>2022-02-16T15:05:44.156Z</time>
      </trkpt>
      <trkpt lat="48.85232" lon="2.33979">
        <ele>46</ele>
        <time>2022-02-16T15:05:48.159Z</time>
      </trkpt>
      <trkpt lat="48.8523" lon="2.33987">
        <ele>46</ele>
        <time>2022-02-16T15:05:53.174Z</time>
      </trkpt>
      <trkpt lat="48.85228" lon="2.33993">
        <ele>46</ele>
        <time>2022-02-16T15:05:58.151Z</time>
      </trkpt>
      <trkpt lat="48.85226" lon="2.34">
        <ele>46</ele>
        <time>2022-02-16T15:06:02.146Z</time>
      </trkpt>
      <trkpt lat="48.85223" lon="2.34006">
        <ele>46</ele>
        <time>2022-02-16T15:06:06.161Z</time>
      </trkpt>
      <trkpt lat="48.85221" lon="2.34013">
        <ele>46</ele>
        <time>2022-02-16T15:06:10.159Z</time>
      </trkpt>
      <trkpt lat="48.8522" lon="2.34021">
        <ele>46</ele>
        <time>2022-02-16T15:06:15.160Z</time>
      </trkpt>
      <trkpt lat="48.85217" lon="2.34029">
        <ele>46</ele>
        <time>2022-02-16T15:06:20.158Z</time>
      </trkpt>
      <trkpt lat="48.85215" lon="2.34034">
        <ele>46</ele>
        <time>2022-02-16T15:06:25.146Z</time>
      </trkpt>
      <trkpt lat="48.85214" lon="2.34039">
        <ele>46</ele>
        <time>2022-02-16T15:06:29.160Z</time>
      </trkpt>
      <trkpt lat="48.85214" lon="2.34047">
        <ele>46</ele>
        <time>2022-02-16T15:06:34.157Z</time>
      </trkpt>
      <trkpt lat="48.85213" lon="2.34054">
        <ele>46</ele>
        <time>2022-02-16T15:06:39.168Z</time>
      </trkpt>
      <trkpt lat="48.85211" lon="2.34062">
        <ele>46</ele>
        <time>2022-02-16T15:06:44.157Z</time>
      </trkpt>
      <trkpt lat="48.85208" lon="2.34067">
        <ele>45</ele>
        <time>2022-02-16T15:06:48.154Z</time>
      </trkpt>
      <trkpt lat="48.85206" lon="2.34074">
        <ele>45</ele>
        <time>2022-02-16T15:06:52.163Z</time>
      </trkpt>
      <trkpt lat="48.85205" lon="2.34082">
        <ele>45</ele>
        <time>2022-02-16T15:06:57.159Z</time>
      </trkpt>
      <trkpt lat="48.85203" lon="2.34089">
        <ele>45</ele>
        <time>2022-02-16T15:07:02.153Z</time>
      </trkpt>
      <trkpt lat="48.85202" lon="2.34097">
        <ele>45</ele>
        <time>2022-02-16T15:07:07.158Z</time>
      </trkpt>
      <trkpt lat="48.852" lon="2.34104">
        <ele>45</ele>
        <time>2022-02-16T15:07:11.161Z</time>
      </trkpt>
      <trkpt lat="48.85197" lon="2.34112">
        <ele>45</ele>
        <time>2022-02-16T15:07:16.158Z</time>
      </trkpt>
      <trkpt lat="48.85196" lon="2.34119">
        <ele>45</ele>
        <time>2022-02-16T15:07:20.168Z</time>
      </trkpt>
      <trkpt lat="48.85194" lon="2.34126">
        <ele>44</ele>
        <time>2022-02-16T15:07:25.166Z</time>
      </trkpt>
      <trkpt lat="48.8519" lon="2.34135">
        <ele>44</ele>
        <time>2022-02-16T15:07:30.162Z</time>
      </trkpt>
      <trkpt lat="48.85189" lon="2.34144">
        <ele>44</ele>
        <time>2022-02-16T15:07:35.144Z</time>
      </trkpt>
      <trkpt lat="48.85187" lon="2.34153">
        <ele>45</ele>
        <time>2022-02-16T15:07:40.149Z</time>
      </trkpt>
      <trkpt lat="48.85185" lon="2.3416">
        <ele>45</ele>
        <time>2022-02-16T15:07:44.158Z</time>
      </trkpt>
      <trkpt lat="48.85184" lon="2.34166">
        <ele>45</ele>
        <time>2022-02-16T15:07:48.159Z</time>
      </trkpt>
      <trkpt lat="48.85181" lon="2.34176">
        <ele>45</ele>
        <time>2022-02-16T15:07:53.161Z</time>
      </trkpt>
      <trkpt lat="48.85179" lon="2.34183">
        <ele>46</ele>
        <time>2022-02-16T15:07:57.166Z</time>
      </trkpt>
      <trkpt lat="48.8518" lon="2.34192">
        <ele>46</ele>
        <time>2022-02-16T15:08:02.160Z</time>
      </trkpt>
      <trkpt lat="48.85177" lon="2.342">
        <ele>46</ele>
        <time>2022-02-16T15:08:07.162Z</time>
      </trkpt>
      <trkpt lat="48.85175" lon="2.34212">
        <ele>47</ele>
        <time>2022-02-16T15:08:12.156Z</time>
      </trkpt>
      <trkpt lat="48.85172" lon="2.3422">
        <ele>47</ele>
        <time>2022-02-16T15:08:17.169Z</time>
      </trkpt>
      <trkpt lat="48.85169" lon="2.3423">
        <ele>47</ele>
        <time>2022-02-16T15:08:22.164Z</time>
      </trkpt>
      <trkpt lat="48.85166" lon="2.3424">
        <ele>49</ele>
        <time>2022-02-16T15:08:27.165Z</time>
      </trkpt>
      <trkpt lat="48.85161" lon="2.34248">
        <ele>49</ele>
        <time>2022-02-16T15:08:32.164Z</time>
      </trkpt>
      <trkpt lat="48.85159" lon="2.34257">
        <ele>49</ele>
        <time>2022-02-16T15:08:37.168Z</time>
      </trkpt>
      <trkpt lat="48.85158" lon="2.34266">
        <ele>50</ele>
        <time>2022-02-16T15:08:42.163Z</time>
      </trkpt>
      <trkpt lat="48.85157" lon="2.34275">
        <ele>50</ele>
        <time>2022-02-16T15:08:47.154Z</time>
      </trkpt>
      <trkpt lat="48.85156" lon="2.34284">
        <ele>50</ele>
        <time>2022-02-16T15:08:52.163Z</time>
      </trkpt>
      <trkpt lat="48.85159" lon="2.34293">
        <ele>50</ele>
        <time>2022-02-16T15:08:56.164Z</time>
      </trkpt>
      <trkpt lat="48.85163" lon="2.34298">
        <ele>50</ele>
        <time>2022-02-16T15:09:00.163Z</time>
      </trkpt>
      <trkpt lat="48.85169" lon="2.34302">
        <ele>50</ele>
        <time>2022-02-16T15:09:04.164Z</time>
      </trkpt>
      <trkpt lat="48.85175" lon="2.34309">
        <ele>50</ele>
        <time>2022-02-16T15:09:09.165Z</time>
      </trkpt>
      <trkpt lat="48.8518" lon="2.34311">
        <ele>50</ele>
        <time>2022-02-16T15:09:14.156Z</time>
      </trkpt>
      <trkpt lat="48.85183" lon="2.34316">
        <ele>49</ele>
        <time>2022-02-16T15:09:19.168Z</time>
      </trkpt>
      <trkpt lat="48.85183" lon="2.34315">
        <ele>49</ele>
        <time>2022-02-16T15:09:24.166Z</time>
      </trkpt>
      <trkpt lat="48.85178" lon="2.34326">
        <ele>49</ele>
        <time>2022-02-16T15:09:29.159Z</time>
      </trkpt>
      <trkpt lat="48.85171" lon="2.34332">
        <ele>49</ele>
        <time>2022-02-16T15:09:34.160Z</time>
      </trkpt>
      <trkpt lat="48.85163" lon="2.34336">
        <ele>49</ele>
        <time>2022-02-16T15:09:39.164Z</time>
      </trkpt>
      <trkpt lat="48.85158" lon="2.34335">
        <ele>49</ele>
        <time>2022-02-16T15:09:44.168Z</time>
      </trkpt>
      <trkpt lat="48.85152" lon="2.34336">
        <ele>48</ele>
        <time>2022-02-16T15:09:49.161Z</time>
      </trkpt>
      <trkpt lat="48.85148" lon="2.34341">
        <ele>48</ele>
        <time>2022-02-16T15:09:54.154Z</time>
      </trkpt>
      <trkpt lat="48.85145" lon="2.34348">
        <ele>47</ele>
        <time>2022-02-16T15:09:59.149Z</time>
      </trkpt>
      <trkpt lat="48.85143" lon="2.34354">
        <ele>47</ele>
        <time>2022-02-16T15:10:03.168Z</time>
      </trkpt>
      <trkpt lat="48.85138" lon="2.34361">
        <ele>47</ele>
        <time>2022-02-16T15:10:08.149Z</time>
      </trkpt>
      <trkpt lat="48.85136" lon="2.3437">
        <ele>47</ele>
        <time>2022-02-16T15:10:13.166Z</time>
      </trkpt>
      <trkpt lat="48.85133" lon="2.34379">
        <ele>45</ele>
        <time>2022-02-16T15:10:18.156Z</time>
      </trkpt>
      <trkpt lat="48.85131" lon="2.34387">
        <ele>45</ele>
        <time>2022-02-16T15:10:23.159Z</time>
      </trkpt>
      <trkpt lat="48.85129" lon="2.34393">
        <ele>45</ele>
        <time>2022-02-16T15:10:27.170Z</time>
      </trkpt>
      <trkpt lat="48.85125" lon="2.344">
        <ele>45</ele>
        <time>2022-02-16T15:10:32.164Z</time>
      </trkpt>
      <trkpt lat="48.85124" lon="2.34411">
        <ele>44</ele>
        <time>2022-02-16T15:10:37.162Z</time>
      </trkpt>
      <trkpt lat="48.85122" lon="2.34423">
        <ele>44</ele>
        <time>2022-02-16T15:10:42.156Z</time>
      </trkpt>
      <trkpt lat="48.85121" lon="2.3443">
        <ele>44</ele>
        <time>2022-02-16T15:10:46.164Z</time>
      </trkpt>
      <trkpt lat="48.85118" lon="2.34437">
        <ele>43</ele>
        <time>2022-02-16T15:10:51.163Z</time>
      </trkpt>
      <trkpt lat="48.85116" lon="2.34444">
        <ele>43</ele>
        <time>2022-02-16T15:10:56.148Z</time>
      </trkpt>
      <trkpt lat="48.85114" lon="2.34452">
        <ele>43</ele>
        <time>2022-02-16T15:11:01.164Z</time>
      </trkpt>
      <trkpt lat="48.85112" lon="2.34462">
        <ele>44</ele>
        <time>2022-02-16T15:11:06.152Z</time>
      </trkpt>
      <trkpt lat="48.85111" lon="2.34469">
        <ele>44</ele>
        <time>2022-02-16T15:11:10.163Z</time>
      </trkpt>
      <trkpt lat="48.85111" lon="2.34478">
        <ele>44</ele>
        <time>2022-02-16T15:11:15.160Z</time>
      </trkpt>
      <trkpt lat="48.8511" lon="2.34485">
        <ele>44</ele>
        <time>2022-02-16T15:11:19.161Z</time>
      </trkpt>
      <trkpt lat="48.85108" lon="2.34494">
        <ele>44</ele>
        <time>2022-02-16T15:11:24.149Z</time>
      </trkpt>
      <trkpt lat="48.85106" lon="2.345">
        <ele>44</ele>
        <time>2022-02-16T15:11:28.171Z</time>
      </trkpt>
      <trkpt lat="48.85104" lon="2.34509">
        <ele>44</ele>
        <time>2022-02-16T15:11:33.147Z</time>
      </trkpt>
      <trkpt lat="48.85102" lon="2.34515">
        <ele>42</ele>
        <time>2022-02-16T15:11:37.168Z</time>
      </trkpt>
      <trkpt lat="48.85101" lon="2.34523">
        <ele>42</ele>
        <time>2022-02-16T15:11:42.164Z</time>
      </trkpt>
      <trkpt lat="48.851" lon="2.34534">
        <ele>42</ele>
        <time>2022-02-16T15:11:47.164Z</time>
      </trkpt>
      <trkpt lat="48.85099" lon="2.34541">
        <ele>42</ele>
        <time>2022-02-16T15:11:51.162Z</time>
      </trkpt>
      <trkpt lat="48.85096" lon="2.3455">
        <ele>44</ele>
        <time>2022-02-16T15:11:56.163Z</time>
      </trkpt>
      <trkpt lat="48.85095" lon="2.3456">
        <ele>44</ele>
        <time>2022-02-16T15:12:01.149Z</time>
      </trkpt>
      <trkpt lat="48.85095" lon="2.34568">
        <ele>44</ele>
        <time>2022-02-16T15:12:05.159Z</time>
      </trkpt>
      <trkpt lat="48.85091" lon="2.34572">
        <ele>44</ele>
        <time>2022-02-16T15:12:10.163Z</time>
      </trkpt>
      <trkpt lat="48.85086" lon="2.34573">
        <ele>44</ele>
        <time>2022-02-16T15:12:15.163Z</time>
      </trkpt>
      <trkpt lat="48.85083" lon="2.34577">
        <ele>44</ele>
        <time>2022-02-16T15:12:19.169Z</time>
      </trkpt>
      <trkpt lat="48.85079" lon="2.34584">
        <ele>44</ele>
        <time>2022-02-16T15:12:24.169Z</time>
      </trkpt>
      <trkpt lat="48.85077" lon="2.34596">
        <ele>44</ele>
        <time>2022-02-16T15:12:29.158Z</time>
      </trkpt>
      <trkpt lat="48.85077" lon="2.34606">
        <ele>46</ele>
        <time>2022-02-16T15:12:33.161Z</time>
      </trkpt>
      <trkpt lat="48.85077" lon="2.34616">
        <ele>46</ele>
        <time>2022-02-16T15:12:37.163Z</time>
      </trkpt>
      <trkpt lat="48.85075" lon="2.34626">
        <ele>46</ele>
        <time>2022-02-16T15:12:42.155Z</time>
      </trkpt>
      <trkpt lat="48.8508" lon="2.34629">
        <ele>46</ele>
        <time>2022-02-16T15:12:46.158Z</time>
      </trkpt>
      <trkpt lat="48.85085" lon="2.3463">
        <ele>46</ele>
        <time>2022-02-16T15:12:51.155Z</time>
      </trkpt>
      <trkpt lat="48.85085" lon="2.34623">
        <ele>46</ele>
        <time>2022-02-16T15:12:56.154Z</time>
      </trkpt>
      <trkpt lat="48.85082" lon="2.34612">
        <ele>46</ele>
        <time>2022-02-16T15:13:01.147Z</time>
      </trkpt>
      <trkpt lat="48.85089" lon="2.346">
        <ele>46</ele>
        <time>2022-02-16T15:54:24.162Z</time>
      </trkpt>
      <trkpt lat="48.85089" lon="2.34599">
        <ele>46</ele>
        <time>2022-02-16T15:54:28.157Z</time>
      </trkpt>
      <trkpt lat="48.85093" lon="2.34591">
        <ele>44</ele>
        <time>2022-02-16T15:54:33.154Z</time>
      </trkpt>
      <trkpt lat="48.85094" lon="2.34584">
        <ele>44</ele>
        <time>2022-02-16T15:54:37.159Z</time>
      </trkpt>
      <trkpt lat="48.85099" lon="2.34581">
        <ele>42</ele>
        <time>2022-02-16T15:54:42.149Z</time>
      </trkpt>
      <trkpt lat="48.85103" lon="2.34581">
        <ele>42</ele>
        <time>2022-02-16T15:54:46.161Z</time>
      </trkpt>
      <trkpt lat="48.85106" lon="2.34581">
        <ele>42</ele>
        <time>2022-02-16T15:54:50.150Z</time>
      </trkpt>
      <trkpt lat="48.85111" lon="2.34582">
        <ele>42</ele>
        <time>2022-02-16T15:54:55.154Z</time>
      </trkpt>
      <trkpt lat="48.85115" lon="2.34584">
        <ele>42</ele>
        <time>2022-02-16T15:54:59.152Z</time>
      </trkpt>
      <trkpt lat="48.85121" lon="2.34584">
        <ele>42</ele>
        <time>2022-02-16T15:55:04.172Z</time>
      </trkpt>
      <trkpt lat="48.85126" lon="2.34585">
        <ele>43</ele>
        <time>2022-02-16T15:55:09.154Z</time>
      </trkpt>
      <trkpt lat="48.85131" lon="2.34586">
        <ele>43</ele>
        <time>2022-02-16T15:55:13.164Z</time>
      </trkpt>
      <trkpt lat="48.85136" lon="2.34589">
        <ele>43</ele>
        <time>2022-02-16T15:55:18.153Z</time>
      </trkpt>
      <trkpt lat="48.85142" lon="2.34593">
        <ele>43</ele>
        <time>2022-02-16T15:55:23.152Z</time>
      </trkpt>
      <trkpt lat="48.85147" lon="2.34595">
        <ele>43</ele>
        <time>2022-02-16T15:55:28.152Z</time>
      </trkpt>
      <trkpt lat="48.85151" lon="2.34598">
        <ele>44</ele>
        <time>2022-02-16T15:55:32.155Z</time>
      </trkpt>
      <trkpt lat="48.85157" lon="2.34601">
        <ele>44</ele>
        <time>2022-02-16T15:55:37.172Z</time>
      </trkpt>
      <trkpt lat="48.85162" lon="2.34602">
        <ele>44</ele>
        <time>2022-02-16T15:55:42.166Z</time>
      </trkpt>
      <trkpt lat="48.85167" lon="2.34602">
        <ele>44</ele>
        <time>2022-02-16T15:55:47.159Z</time>
      </trkpt>
      <trkpt lat="48.85172" lon="2.34607">
        <ele>44</ele>
        <time>2022-02-16T15:55:52.153Z</time>
      </trkpt>
      <trkpt lat="48.85178" lon="2.34611">
        <ele>44</ele>
        <time>2022-02-16T15:55:57.157Z</time>
      </trkpt>
      <trkpt lat="48.85184" lon="2.34616">
        <ele>41</ele>
        <time>2022-02-16T15:56:02.163Z</time>
      </trkpt>
      <trkpt lat="48.85191" lon="2.34617">
        <ele>41</ele>
        <time>2022-02-16T15:56:07.167Z</time>
      </trkpt>
      <trkpt lat="48.85198" lon="2.34619">
        <ele>41</ele>
        <time>2022-02-16T15:56:12.161Z</time>
      </trkpt>
      <trkpt lat="48.85204" lon="2.34621">
        <ele>41</ele>
        <time>2022-02-16T15:56:17.159Z</time>
      </trkpt>
      <trkpt lat="48.85212" lon="2.34618">
        <ele>42</ele>
        <time>2022-02-16T15:56:22.156Z</time>
      </trkpt>
      <trkpt lat="48.85218" lon="2.34616">
        <ele>42</ele>
        <time>2022-02-16T15:56:26.153Z</time>
      </trkpt>
      <trkpt lat="48.85226" lon="2.34619">
        <ele>42</ele>
        <time>2022-02-16T15:56:31.160Z</time>
      </trkpt>
      <trkpt lat="48.8523" lon="2.34624">
        <ele>42</ele>
        <time>2022-02-16T15:56:35.166Z</time>
      </trkpt>
      <trkpt lat="48.85237" lon="2.34629">
        <ele>48</ele>
        <time>2022-02-16T15:56:40.163Z</time>
      </trkpt>
      <trkpt lat="48.85243" lon="2.34634">
        <ele>48</ele>
        <time>2022-02-16T15:56:45.153Z</time>
      </trkpt>
      <trkpt lat="48.85248" lon="2.34639">
        <ele>48</ele>
        <time>2022-02-16T15:56:49.156Z</time>
      </trkpt>
      <trkpt lat="48.85254" lon="2.34641">
        <ele>48</ele>
        <time>2022-02-16T15:56:54.164Z</time>
      </trkpt>
      <trkpt lat="48.85259" lon="2.34645">
        <ele>48</ele>
        <time>2022-02-16T15:56:59.158Z</time>
      </trkpt>
      <trkpt lat="48.85264" lon="2.34649">
        <ele>48</ele>
        <time>2022-02-16T15:57:04.166Z</time>
      </trkpt>
      <trkpt lat="48.8527" lon="2.34653">
        <ele>48</ele>
        <time>2022-02-16T15:57:09.158Z</time>
      </trkpt>
      <trkpt lat="48.85276" lon="2.34657">
        <ele>48</ele>
        <time>2022-02-16T15:57:14.149Z</time>
      </trkpt>
      <trkpt lat="48.85279" lon="2.34652">
        <ele>50</ele>
        <time>2022-02-16T15:57:18.162Z</time>
      </trkpt>
      <trkpt lat="48.85282" lon="2.34641">
        <ele>50</ele>
        <time>2022-02-16T15:57:23.157Z</time>
      </trkpt>
      <trkpt lat="48.85284" lon="2.34634">
        <ele>50</ele>
        <time>2022-02-16T15:57:27.154Z</time>
      </trkpt>
      <trkpt lat="48.85286" lon="2.34628">
        <ele>50</ele>
        <time>2022-02-16T15:57:31.168Z</time>
      </trkpt>
      <trkpt lat="48.85288" lon="2.3462">
        <ele>51</ele>
        <time>2022-02-16T15:57:36.164Z</time>
      </trkpt>
      <trkpt lat="48.85291" lon="2.34612">
        <ele>51</ele>
        <time>2022-02-16T15:57:41.147Z</time>
      </trkpt>
      <trkpt lat="48.85294" lon="2.34606">
        <ele>49</ele>
        <time>2022-02-16T15:57:45.166Z</time>
      </trkpt>
      <trkpt lat="48.853" lon="2.3461">
        <ele>49</ele>
        <time>2022-02-16T15:57:50.161Z</time>
      </trkpt>
      <trkpt lat="48.85303" lon="2.34614">
        <ele>49</ele>
        <time>2022-02-16T15:57:54.163Z</time>
      </trkpt>
      <trkpt lat="48.85308" lon="2.3462">
        <ele>49</ele>
        <time>2022-02-16T15:57:59.155Z</time>
      </trkpt>
      <trkpt lat="48.85312" lon="2.34626">
        <ele>48</ele>
        <time>2022-02-16T15:58:03.149Z</time>
      </trkpt>
      <trkpt lat="48.85317" lon="2.34625">
        <ele>48</ele>
        <time>2022-02-16T15:58:08.150Z</time>
      </trkpt>
      <trkpt lat="48.8532" lon="2.34615">
        <ele>42</ele>
        <time>2022-02-16T15:58:13.144Z</time>
      </trkpt>
      <trkpt lat="48.85323" lon="2.34608">
        <ele>42</ele>
        <time>2022-02-16T15:58:17.164Z</time>
      </trkpt>
      <trkpt lat="48.85327" lon="2.346">
        <ele>42</ele>
        <time>2022-02-16T15:58:22.160Z</time>
      </trkpt>
      <trkpt lat="48.85326" lon="2.3459">
        <ele>42</ele>
        <time>2022-02-16T15:58:27.157Z</time>
      </trkpt>
    </trkseg>
  </trk>
</gpx>